<?xml version="1.0" encoding="UTF-8" standalone="no" ?>
<gpx xmlns="http://www.topografix.com/GPX/1/1" xmlns:xsi="http://www.w3.org/2001/XMLSchema-instance" xsi:schemaLocation="http://www.topografix.com/GPX/1/1 http://www.topografix.com/GPX/1/1/gpx.xsd" version="1.1" creator="VisuGPX - https://www.visugpx.com">
  <metadata>
    <name>Rando VTT Féclaz grand Revard</name>
    <desc><![CDATA[Au départ d\'Arith (73340) se rendre au parking de Montagny. De là une très bonne piste bien roulante (refaite par le conseil général) vous monte jusqu\'au col de la cohette , ou, ,dans notre cas au source de la Benoite (IGN). De là suivre le chemin forestier du GR tour des Bauges pour arriver au refuge de la Plate. On enchaine ensuite sur les pistes de ski de Saint-Francois, Revard et Feclaz pour terminer la boucle par la route départementale]]></desc>
  </metadata>
  <trk>
    <name><![CDATA[Revard-feclaz-4-juin-2011 on GPSies.com]]></name>
    <trkseg>
      <trkpt lat="45.71349" lon="6.0853">
        <ele>719.4</ele>
        <time>2011-06-07T08:01:05Z</time>
      </trkpt>
      <trkpt lat="45.71349" lon="6.0851">
        <ele>719.8</ele>
        <time>2011-06-07T08:01:10Z</time>
      </trkpt>
      <trkpt lat="45.71357" lon="6.08501">
        <ele>720</ele>
        <time>2011-06-07T08:01:14Z</time>
      </trkpt>
      <trkpt lat="45.71365" lon="6.08495">
        <ele>719.8</ele>
        <time>2011-06-07T08:01:18Z</time>
      </trkpt>
      <trkpt lat="45.7137" lon="6.08482">
        <ele>719.7</ele>
        <time>2011-06-07T08:01:22Z</time>
      </trkpt>
      <trkpt lat="45.71371" lon="6.08471">
        <ele>720</ele>
        <time>2011-06-07T08:01:25Z</time>
      </trkpt>
      <trkpt lat="45.71375" lon="6.08455">
        <ele>719.8</ele>
        <time>2011-06-07T08:01:30Z</time>
      </trkpt>
      <trkpt lat="45.71382" lon="6.08443">
        <ele>719.6</ele>
        <time>2011-06-07T08:01:34Z</time>
      </trkpt>
      <trkpt lat="45.71387" lon="6.08433">
        <ele>720.3</ele>
        <time>2011-06-07T08:01:38Z</time>
      </trkpt>
      <trkpt lat="45.7139" lon="6.08419">
        <ele>721.8</ele>
        <time>2011-06-07T08:01:42Z</time>
      </trkpt>
      <trkpt lat="45.71399" lon="6.08418">
        <ele>722.5</ele>
        <time>2011-06-07T08:01:45Z</time>
      </trkpt>
      <trkpt lat="45.71412" lon="6.08421">
        <ele>723</ele>
        <time>2011-06-07T08:01:51Z</time>
      </trkpt>
      <trkpt lat="45.71424" lon="6.08424">
        <ele>724.1</ele>
        <time>2011-06-07T08:01:55Z</time>
      </trkpt>
      <trkpt lat="45.71436" lon="6.08427">
        <ele>725.5</ele>
        <time>2011-06-07T08:02:00Z</time>
      </trkpt>
      <trkpt lat="45.71448" lon="6.08429">
        <ele>726.8</ele>
        <time>2011-06-07T08:02:05Z</time>
      </trkpt>
      <trkpt lat="45.7146" lon="6.08432">
        <ele>727.8</ele>
        <time>2011-06-07T08:02:10Z</time>
      </trkpt>
      <trkpt lat="45.71474" lon="6.08433">
        <ele>729.8</ele>
        <time>2011-06-07T08:02:16Z</time>
      </trkpt>
      <trkpt lat="45.71486" lon="6.08432">
        <ele>731.9</ele>
        <time>2011-06-07T08:02:20Z</time>
      </trkpt>
      <trkpt lat="45.71498" lon="6.08429">
        <ele>734.3</ele>
        <time>2011-06-07T08:02:25Z</time>
      </trkpt>
      <trkpt lat="45.7151" lon="6.08426">
        <ele>735.5</ele>
        <time>2011-06-07T08:02:30Z</time>
      </trkpt>
      <trkpt lat="45.71514" lon="6.08424">
        <ele>735.9</ele>
        <time>2011-06-07T08:02:32Z</time>
      </trkpt>
      <trkpt lat="45.71523" lon="6.08414">
        <ele>737.1</ele>
        <time>2011-06-07T08:02:36Z</time>
      </trkpt>
      <trkpt lat="45.71527" lon="6.08409">
        <ele>737.8</ele>
        <time>2011-06-07T08:02:38Z</time>
      </trkpt>
      <trkpt lat="45.71534" lon="6.08401">
        <ele>738.9</ele>
        <time>2011-06-07T08:02:42Z</time>
      </trkpt>
      <trkpt lat="45.71541" lon="6.08382">
        <ele>740.4</ele>
        <time>2011-06-07T08:02:48Z</time>
      </trkpt>
      <trkpt lat="45.71547" lon="6.08374">
        <ele>740.7</ele>
        <time>2011-06-07T08:02:51Z</time>
      </trkpt>
      <trkpt lat="45.71552" lon="6.08351">
        <ele>741.5</ele>
        <time>2011-06-07T08:02:58Z</time>
      </trkpt>
      <trkpt lat="45.7156" lon="6.08331">
        <ele>741.9</ele>
        <time>2011-06-07T08:03:04Z</time>
      </trkpt>
      <trkpt lat="45.71563" lon="6.08317">
        <ele>742.3</ele>
        <time>2011-06-07T08:03:09Z</time>
      </trkpt>
      <trkpt lat="45.71569" lon="6.08306">
        <ele>742.5</ele>
        <time>2011-06-07T08:03:13Z</time>
      </trkpt>
      <trkpt lat="45.71575" lon="6.08289">
        <ele>742.3</ele>
        <time>2011-06-07T08:03:18Z</time>
      </trkpt>
      <trkpt lat="45.71584" lon="6.08281">
        <ele>742</ele>
        <time>2011-06-07T08:03:22Z</time>
      </trkpt>
      <trkpt lat="45.71596" lon="6.08271">
        <ele>741.8</ele>
        <time>2011-06-07T08:03:28Z</time>
      </trkpt>
      <trkpt lat="45.71606" lon="6.08266">
        <ele>741.6</ele>
        <time>2011-06-07T08:03:32Z</time>
      </trkpt>
      <trkpt lat="45.71619" lon="6.08268">
        <ele>741.4</ele>
        <time>2011-06-07T08:03:37Z</time>
      </trkpt>
      <trkpt lat="45.71633" lon="6.08271">
        <ele>741.5</ele>
        <time>2011-06-07T08:03:43Z</time>
      </trkpt>
      <trkpt lat="45.71644" lon="6.08275">
        <ele>741</ele>
        <time>2011-06-07T08:03:48Z</time>
      </trkpt>
      <trkpt lat="45.71649" lon="6.0827">
        <ele>741.1</ele>
        <time>2011-06-07T08:03:50Z</time>
      </trkpt>
      <trkpt lat="45.71655" lon="6.08255">
        <ele>741.5</ele>
        <time>2011-06-07T08:03:55Z</time>
      </trkpt>
      <trkpt lat="45.71672" lon="6.08217">
        <ele>743</ele>
        <time>2011-06-07T08:04:08Z</time>
      </trkpt>
      <trkpt lat="45.71678" lon="6.08196">
        <ele>743.9</ele>
        <time>2011-06-07T08:04:14Z</time>
      </trkpt>
      <trkpt lat="45.71682" lon="6.08184">
        <ele>744.2</ele>
        <time>2011-06-07T08:04:18Z</time>
      </trkpt>
      <trkpt lat="45.71691" lon="6.08169">
        <ele>744.8</ele>
        <time>2011-06-07T08:04:23Z</time>
      </trkpt>
      <trkpt lat="45.71707" lon="6.08155">
        <ele>747</ele>
        <time>2011-06-07T08:04:31Z</time>
      </trkpt>
      <trkpt lat="45.71713" lon="6.0814">
        <ele>748.3</ele>
        <time>2011-06-07T08:04:36Z</time>
      </trkpt>
      <trkpt lat="45.7172" lon="6.08128">
        <ele>749.3</ele>
        <time>2011-06-07T08:04:40Z</time>
      </trkpt>
      <trkpt lat="45.71723" lon="6.08109">
        <ele>750.1</ele>
        <time>2011-06-07T08:04:45Z</time>
      </trkpt>
      <trkpt lat="45.71722" lon="6.08106">
        <ele>750.2</ele>
        <time>2011-06-07T08:04:46Z</time>
      </trkpt>
      <trkpt lat="45.71733" lon="6.08097">
        <ele>750.9</ele>
        <time>2011-06-07T08:04:51Z</time>
      </trkpt>
      <trkpt lat="45.71742" lon="6.08078">
        <ele>752.1</ele>
        <time>2011-06-07T08:04:57Z</time>
      </trkpt>
      <trkpt lat="45.71741" lon="6.08056">
        <ele>753.7</ele>
        <time>2011-06-07T08:05:04Z</time>
      </trkpt>
      <trkpt lat="45.71742" lon="6.08037">
        <ele>754.6</ele>
        <time>2011-06-07T08:05:09Z</time>
      </trkpt>
      <trkpt lat="45.71742" lon="6.08021">
        <ele>755.7</ele>
        <time>2011-06-07T08:05:14Z</time>
      </trkpt>
      <trkpt lat="45.71747" lon="6.08011">
        <ele>756.3</ele>
        <time>2011-06-07T08:05:17Z</time>
      </trkpt>
      <trkpt lat="45.71744" lon="6.07992">
        <ele>758</ele>
        <time>2011-06-07T08:05:22Z</time>
      </trkpt>
      <trkpt lat="45.71749" lon="6.07979">
        <ele>758.6</ele>
        <time>2011-06-07T08:05:26Z</time>
      </trkpt>
      <trkpt lat="45.7175" lon="6.07966">
        <ele>759.2</ele>
        <time>2011-06-07T08:05:30Z</time>
      </trkpt>
      <trkpt lat="45.71757" lon="6.0795">
        <ele>759.6</ele>
        <time>2011-06-07T08:05:35Z</time>
      </trkpt>
      <trkpt lat="45.71762" lon="6.07934">
        <ele>760.1</ele>
        <time>2011-06-07T08:05:40Z</time>
      </trkpt>
      <trkpt lat="45.71767" lon="6.07924">
        <ele>760.6</ele>
        <time>2011-06-07T08:05:43Z</time>
      </trkpt>
      <trkpt lat="45.71774" lon="6.07915">
        <ele>761.1</ele>
        <time>2011-06-07T08:05:47Z</time>
      </trkpt>
      <trkpt lat="45.71785" lon="6.07898">
        <ele>762.2</ele>
        <time>2011-06-07T08:05:54Z</time>
      </trkpt>
      <trkpt lat="45.71795" lon="6.07882">
        <ele>763.7</ele>
        <time>2011-06-07T08:06:00Z</time>
      </trkpt>
      <trkpt lat="45.71799" lon="6.07869">
        <ele>764.6</ele>
        <time>2011-06-07T08:06:04Z</time>
      </trkpt>
      <trkpt lat="45.718" lon="6.07859">
        <ele>765.1</ele>
        <time>2011-06-07T08:06:06Z</time>
      </trkpt>
      <trkpt lat="45.71803" lon="6.07836">
        <ele>766.7</ele>
        <time>2011-06-07T08:06:13Z</time>
      </trkpt>
      <trkpt lat="45.71806" lon="6.07816">
        <ele>767.6</ele>
        <time>2011-06-07T08:06:19Z</time>
      </trkpt>
      <trkpt lat="45.71809" lon="6.078">
        <ele>768.7</ele>
        <time>2011-06-07T08:06:24Z</time>
      </trkpt>
      <trkpt lat="45.71818" lon="6.0778">
        <ele>770.8</ele>
        <time>2011-06-07T08:06:30Z</time>
      </trkpt>
      <trkpt lat="45.71829" lon="6.07766">
        <ele>771.9</ele>
        <time>2011-06-07T08:06:36Z</time>
      </trkpt>
      <trkpt lat="45.7183" lon="6.07753">
        <ele>772.9</ele>
        <time>2011-06-07T08:06:40Z</time>
      </trkpt>
      <trkpt lat="45.7183" lon="6.0773">
        <ele>774.7</ele>
        <time>2011-06-07T08:06:46Z</time>
      </trkpt>
      <trkpt lat="45.71831" lon="6.07716">
        <ele>775.6</ele>
        <time>2011-06-07T08:06:50Z</time>
      </trkpt>
      <trkpt lat="45.71832" lon="6.077">
        <ele>776.7</ele>
        <time>2011-06-07T08:06:54Z</time>
      </trkpt>
      <trkpt lat="45.71833" lon="6.07686">
        <ele>777.6</ele>
        <time>2011-06-07T08:06:58Z</time>
      </trkpt>
      <trkpt lat="45.71834" lon="6.0767">
        <ele>778.8</ele>
        <time>2011-06-07T08:07:03Z</time>
      </trkpt>
      <trkpt lat="45.71835" lon="6.07656">
        <ele>779.7</ele>
        <time>2011-06-07T08:07:07Z</time>
      </trkpt>
      <trkpt lat="45.71841" lon="6.07639">
        <ele>781</ele>
        <time>2011-06-07T08:07:12Z</time>
      </trkpt>
      <trkpt lat="45.71848" lon="6.07622">
        <ele>782.2</ele>
        <time>2011-06-07T08:07:18Z</time>
      </trkpt>
      <trkpt lat="45.71849" lon="6.07609">
        <ele>783.2</ele>
        <time>2011-06-07T08:07:21Z</time>
      </trkpt>
      <trkpt lat="45.7185" lon="6.07595">
        <ele>784.2</ele>
        <time>2011-06-07T08:07:25Z</time>
      </trkpt>
      <trkpt lat="45.7185" lon="6.07578">
        <ele>785.4</ele>
        <time>2011-06-07T08:07:30Z</time>
      </trkpt>
      <trkpt lat="45.71851" lon="6.07565">
        <ele>786.3</ele>
        <time>2011-06-07T08:07:34Z</time>
      </trkpt>
      <trkpt lat="45.71857" lon="6.07544">
        <ele>787.5</ele>
        <time>2011-06-07T08:07:40Z</time>
      </trkpt>
      <trkpt lat="45.71867" lon="6.0752">
        <ele>789.4</ele>
        <time>2011-06-07T08:07:48Z</time>
      </trkpt>
      <trkpt lat="45.71875" lon="6.07509">
        <ele>791.1</ele>
        <time>2011-06-07T08:07:52Z</time>
      </trkpt>
      <trkpt lat="45.71877" lon="6.07498">
        <ele>792.1</ele>
        <time>2011-06-07T08:07:55Z</time>
      </trkpt>
      <trkpt lat="45.7188" lon="6.07481">
        <ele>793.1</ele>
        <time>2011-06-07T08:08:00Z</time>
      </trkpt>
      <trkpt lat="45.71888" lon="6.07463">
        <ele>794.4</ele>
        <time>2011-06-07T08:08:06Z</time>
      </trkpt>
      <trkpt lat="45.71898" lon="6.07442">
        <ele>796.9</ele>
        <time>2011-06-07T08:08:13Z</time>
      </trkpt>
      <trkpt lat="45.71908" lon="6.07427">
        <ele>797.3</ele>
        <time>2011-06-07T08:08:19Z</time>
      </trkpt>
      <trkpt lat="45.71915" lon="6.07409">
        <ele>798</ele>
        <time>2011-06-07T08:08:25Z</time>
      </trkpt>
      <trkpt lat="45.71923" lon="6.07394">
        <ele>799.7</ele>
        <time>2011-06-07T08:08:30Z</time>
      </trkpt>
      <trkpt lat="45.71921" lon="6.0738">
        <ele>800.8</ele>
        <time>2011-06-07T08:08:34Z</time>
      </trkpt>
      <trkpt lat="45.71909" lon="6.07369">
        <ele>801.8</ele>
        <time>2011-06-07T08:08:40Z</time>
      </trkpt>
      <trkpt lat="45.71893" lon="6.07368">
        <ele>802.6</ele>
        <time>2011-06-07T08:08:46Z</time>
      </trkpt>
      <trkpt lat="45.71879" lon="6.07363">
        <ele>803.3</ele>
        <time>2011-06-07T08:08:52Z</time>
      </trkpt>
      <trkpt lat="45.71863" lon="6.07349">
        <ele>804.8</ele>
        <time>2011-06-07T08:09:00Z</time>
      </trkpt>
      <trkpt lat="45.71858" lon="6.07339">
        <ele>805.6</ele>
        <time>2011-06-07T08:09:03Z</time>
      </trkpt>
      <trkpt lat="45.71853" lon="6.07327">
        <ele>806.5</ele>
        <time>2011-06-07T08:09:07Z</time>
      </trkpt>
      <trkpt lat="45.71851" lon="6.07311">
        <ele>807.6</ele>
        <time>2011-06-07T08:09:12Z</time>
      </trkpt>
      <trkpt lat="45.71845" lon="6.07295">
        <ele>808.8</ele>
        <time>2011-06-07T08:09:16Z</time>
      </trkpt>
      <trkpt lat="45.71836" lon="6.0728">
        <ele>809.9</ele>
        <time>2011-06-07T08:09:22Z</time>
      </trkpt>
      <trkpt lat="45.71818" lon="6.0727">
        <ele>808.8</ele>
        <time>2011-06-07T08:09:30Z</time>
      </trkpt>
      <trkpt lat="45.71796" lon="6.07258">
        <ele>807.8</ele>
        <time>2011-06-07T08:09:39Z</time>
      </trkpt>
      <trkpt lat="45.71781" lon="6.07244">
        <ele>807.4</ele>
        <time>2011-06-07T08:09:46Z</time>
      </trkpt>
      <trkpt lat="45.71775" lon="6.07233">
        <ele>807.5</ele>
        <time>2011-06-07T08:09:50Z</time>
      </trkpt>
      <trkpt lat="45.71767" lon="6.07215">
        <ele>808</ele>
        <time>2011-06-07T08:09:56Z</time>
      </trkpt>
      <trkpt lat="45.71751" lon="6.07199">
        <ele>808.7</ele>
        <time>2011-06-07T08:10:04Z</time>
      </trkpt>
      <trkpt lat="45.71739" lon="6.07185">
        <ele>809.6</ele>
        <time>2011-06-07T08:10:10Z</time>
      </trkpt>
      <trkpt lat="45.71727" lon="6.07172">
        <ele>810</ele>
        <time>2011-06-07T08:10:16Z</time>
      </trkpt>
      <trkpt lat="45.71717" lon="6.07158">
        <ele>810.3</ele>
        <time>2011-06-07T08:10:22Z</time>
      </trkpt>
      <trkpt lat="45.71715" lon="6.07149">
        <ele>810.8</ele>
        <time>2011-06-07T08:10:24Z</time>
      </trkpt>
      <trkpt lat="45.7171" lon="6.07132">
        <ele>812.2</ele>
        <time>2011-06-07T08:10:30Z</time>
      </trkpt>
      <trkpt lat="45.71707" lon="6.0712">
        <ele>813.6</ele>
        <time>2011-06-07T08:10:33Z</time>
      </trkpt>
      <trkpt lat="45.717" lon="6.07103">
        <ele>815.4</ele>
        <time>2011-06-07T08:10:39Z</time>
      </trkpt>
      <trkpt lat="45.71697" lon="6.07091">
        <ele>816.3</ele>
        <time>2011-06-07T08:10:42Z</time>
      </trkpt>
      <trkpt lat="45.71687" lon="6.07075">
        <ele>817.9</ele>
        <time>2011-06-07T08:10:48Z</time>
      </trkpt>
      <trkpt lat="45.71675" lon="6.07066">
        <ele>819</ele>
        <time>2011-06-07T08:10:54Z</time>
      </trkpt>
      <trkpt lat="45.71665" lon="6.07059">
        <ele>819.9</ele>
        <time>2011-06-07T08:10:58Z</time>
      </trkpt>
      <trkpt lat="45.7165" lon="6.07051">
        <ele>821.5</ele>
        <time>2011-06-07T08:11:05Z</time>
      </trkpt>
      <trkpt lat="45.71644" lon="6.07038">
        <ele>822.9</ele>
        <time>2011-06-07T08:11:09Z</time>
      </trkpt>
      <trkpt lat="45.71635" lon="6.07025">
        <ele>824.6</ele>
        <time>2011-06-07T08:11:14Z</time>
      </trkpt>
      <trkpt lat="45.71624" lon="6.07019">
        <ele>825.8</ele>
        <time>2011-06-07T08:11:19Z</time>
      </trkpt>
      <trkpt lat="45.71612" lon="6.07005">
        <ele>828.3</ele>
        <time>2011-06-07T08:11:25Z</time>
      </trkpt>
      <trkpt lat="45.71598" lon="6.07">
        <ele>829</ele>
        <time>2011-06-07T08:11:31Z</time>
      </trkpt>
      <trkpt lat="45.71587" lon="6.06994">
        <ele>829.4</ele>
        <time>2011-06-07T08:11:35Z</time>
      </trkpt>
      <trkpt lat="45.71568" lon="6.06992">
        <ele>829.8</ele>
        <time>2011-06-07T08:11:43Z</time>
      </trkpt>
      <trkpt lat="45.71554" lon="6.06984">
        <ele>830.7</ele>
        <time>2011-06-07T08:11:49Z</time>
      </trkpt>
      <trkpt lat="45.71533" lon="6.06985">
        <ele>831</ele>
        <time>2011-06-07T08:11:57Z</time>
      </trkpt>
      <trkpt lat="45.71522" lon="6.06978">
        <ele>832.4</ele>
        <time>2011-06-07T08:12:02Z</time>
      </trkpt>
      <trkpt lat="45.71511" lon="6.0697">
        <ele>833.8</ele>
        <time>2011-06-07T08:12:07Z</time>
      </trkpt>
      <trkpt lat="45.71506" lon="6.06955">
        <ele>835.7</ele>
        <time>2011-06-07T08:12:12Z</time>
      </trkpt>
      <trkpt lat="45.71502" lon="6.06942">
        <ele>837.1</ele>
        <time>2011-06-07T08:12:16Z</time>
      </trkpt>
      <trkpt lat="45.71496" lon="6.06924">
        <ele>838.5</ele>
        <time>2011-06-07T08:12:21Z</time>
      </trkpt>
      <trkpt lat="45.71495" lon="6.06919">
        <ele>839</ele>
        <time>2011-06-07T08:12:23Z</time>
      </trkpt>
      <trkpt lat="45.7149" lon="6.06901">
        <ele>841</ele>
        <time>2011-06-07T08:12:28Z</time>
      </trkpt>
      <trkpt lat="45.71485" lon="6.06892">
        <ele>842.2</ele>
        <time>2011-06-07T08:12:32Z</time>
      </trkpt>
      <trkpt lat="45.7147" lon="6.06883">
        <ele>843.4</ele>
        <time>2011-06-07T08:12:38Z</time>
      </trkpt>
      <trkpt lat="45.71465" lon="6.06871">
        <ele>844.5</ele>
        <time>2011-06-07T08:12:42Z</time>
      </trkpt>
      <trkpt lat="45.71459" lon="6.06868">
        <ele>844.9</ele>
        <time>2011-06-07T08:12:45Z</time>
      </trkpt>
      <trkpt lat="45.71447" lon="6.06864">
        <ele>845.6</ele>
        <time>2011-06-07T08:12:49Z</time>
      </trkpt>
      <trkpt lat="45.71434" lon="6.06852">
        <ele>847.2</ele>
        <time>2011-06-07T08:12:56Z</time>
      </trkpt>
      <trkpt lat="45.71428" lon="6.06846">
        <ele>847.9</ele>
        <time>2011-06-07T08:12:59Z</time>
      </trkpt>
      <trkpt lat="45.71413" lon="6.06839">
        <ele>848.6</ele>
        <time>2011-06-07T08:13:05Z</time>
      </trkpt>
      <trkpt lat="45.71393" lon="6.06831">
        <ele>849.2</ele>
        <time>2011-06-07T08:13:13Z</time>
      </trkpt>
      <trkpt lat="45.71384" lon="6.06827">
        <ele>849.6</ele>
        <time>2011-06-07T08:13:17Z</time>
      </trkpt>
      <trkpt lat="45.71376" lon="6.06817">
        <ele>850.7</ele>
        <time>2011-06-07T08:13:21Z</time>
      </trkpt>
      <trkpt lat="45.71369" lon="6.06812">
        <ele>851.6</ele>
        <time>2011-06-07T08:13:24Z</time>
      </trkpt>
      <trkpt lat="45.71359" lon="6.06806">
        <ele>853</ele>
        <time>2011-06-07T08:13:29Z</time>
      </trkpt>
      <trkpt lat="45.7135" lon="6.06802">
        <ele>853.6</ele>
        <time>2011-06-07T08:13:32Z</time>
      </trkpt>
      <trkpt lat="45.71338" lon="6.06797">
        <ele>854.4</ele>
        <time>2011-06-07T08:13:37Z</time>
      </trkpt>
      <trkpt lat="45.71326" lon="6.06803">
        <ele>855</ele>
        <time>2011-06-07T08:13:42Z</time>
      </trkpt>
      <trkpt lat="45.71321" lon="6.06813">
        <ele>855</ele>
        <time>2011-06-07T08:13:46Z</time>
      </trkpt>
      <trkpt lat="45.7131" lon="6.06823">
        <ele>855.8</ele>
        <time>2011-06-07T08:13:51Z</time>
      </trkpt>
      <trkpt lat="45.713" lon="6.06828">
        <ele>856.6</ele>
        <time>2011-06-07T08:13:55Z</time>
      </trkpt>
      <trkpt lat="45.71289" lon="6.06833">
        <ele>857.2</ele>
        <time>2011-06-07T08:14:00Z</time>
      </trkpt>
      <trkpt lat="45.71279" lon="6.06835">
        <ele>857.7</ele>
        <time>2011-06-07T08:14:04Z</time>
      </trkpt>
      <trkpt lat="45.71273" lon="6.06832">
        <ele>858.6</ele>
        <time>2011-06-07T08:14:06Z</time>
      </trkpt>
      <trkpt lat="45.71262" lon="6.06825">
        <ele>860.5</ele>
        <time>2011-06-07T08:14:12Z</time>
      </trkpt>
      <trkpt lat="45.71262" lon="6.06815">
        <ele>861.4</ele>
        <time>2011-06-07T08:14:14Z</time>
      </trkpt>
      <trkpt lat="45.71263" lon="6.06809">
        <ele>861.8</ele>
        <time>2011-06-07T08:14:16Z</time>
      </trkpt>
      <trkpt lat="45.71272" lon="6.06793">
        <ele>862.7</ele>
        <time>2011-06-07T08:14:22Z</time>
      </trkpt>
      <trkpt lat="45.71277" lon="6.0678">
        <ele>863.8</ele>
        <time>2011-06-07T08:14:26Z</time>
      </trkpt>
      <trkpt lat="45.71284" lon="6.06767">
        <ele>864.8</ele>
        <time>2011-06-07T08:14:31Z</time>
      </trkpt>
      <trkpt lat="45.71288" lon="6.06752">
        <ele>866</ele>
        <time>2011-06-07T08:14:35Z</time>
      </trkpt>
      <trkpt lat="45.71291" lon="6.06745">
        <ele>866.1</ele>
        <time>2011-06-07T08:14:37Z</time>
      </trkpt>
      <trkpt lat="45.71297" lon="6.06729">
        <ele>866.7</ele>
        <time>2011-06-07T08:14:42Z</time>
      </trkpt>
      <trkpt lat="45.71306" lon="6.06715">
        <ele>867</ele>
        <time>2011-06-07T08:14:48Z</time>
      </trkpt>
      <trkpt lat="45.71315" lon="6.06698">
        <ele>868.2</ele>
        <time>2011-06-07T08:14:54Z</time>
      </trkpt>
      <trkpt lat="45.71319" lon="6.06685">
        <ele>869.5</ele>
        <time>2011-06-07T08:14:58Z</time>
      </trkpt>
      <trkpt lat="45.71326" lon="6.06672">
        <ele>870.9</ele>
        <time>2011-06-07T08:15:02Z</time>
      </trkpt>
      <trkpt lat="45.71331" lon="6.06662">
        <ele>871.8</ele>
        <time>2011-06-07T08:15:06Z</time>
      </trkpt>
      <trkpt lat="45.71373" lon="6.06647">
        <ele>876</ele>
        <time>2011-06-07T08:15:23Z</time>
      </trkpt>
      <trkpt lat="45.71385" lon="6.06641">
        <ele>877.4</ele>
        <time>2011-06-07T08:15:28Z</time>
      </trkpt>
      <trkpt lat="45.71392" lon="6.06635">
        <ele>878.3</ele>
        <time>2011-06-07T08:15:31Z</time>
      </trkpt>
      <trkpt lat="45.71408" lon="6.06622">
        <ele>879.6</ele>
        <time>2011-06-07T08:15:39Z</time>
      </trkpt>
      <trkpt lat="45.71419" lon="6.06616">
        <ele>880.3</ele>
        <time>2011-06-07T08:15:44Z</time>
      </trkpt>
      <trkpt lat="45.71424" lon="6.06606">
        <ele>881.9</ele>
        <time>2011-06-07T08:15:47Z</time>
      </trkpt>
      <trkpt lat="45.71432" lon="6.06597">
        <ele>883.5</ele>
        <time>2011-06-07T08:15:51Z</time>
      </trkpt>
      <trkpt lat="45.71443" lon="6.06592">
        <ele>884.5</ele>
        <time>2011-06-07T08:15:56Z</time>
      </trkpt>
      <trkpt lat="45.71453" lon="6.06587">
        <ele>885</ele>
        <time>2011-06-07T08:16:00Z</time>
      </trkpt>
      <trkpt lat="45.71464" lon="6.06582">
        <ele>885.6</ele>
        <time>2011-06-07T08:16:05Z</time>
      </trkpt>
      <trkpt lat="45.71471" lon="6.06576">
        <ele>886.6</ele>
        <time>2011-06-07T08:16:08Z</time>
      </trkpt>
      <trkpt lat="45.71483" lon="6.0657">
        <ele>887.1</ele>
        <time>2011-06-07T08:16:13Z</time>
      </trkpt>
      <trkpt lat="45.71491" lon="6.06563">
        <ele>887.9</ele>
        <time>2011-06-07T08:16:17Z</time>
      </trkpt>
      <trkpt lat="45.71501" lon="6.06559">
        <ele>888.4</ele>
        <time>2011-06-07T08:16:21Z</time>
      </trkpt>
      <trkpt lat="45.71512" lon="6.06559">
        <ele>889.3</ele>
        <time>2011-06-07T08:16:25Z</time>
      </trkpt>
      <trkpt lat="45.71524" lon="6.06558">
        <ele>890.2</ele>
        <time>2011-06-07T08:16:30Z</time>
      </trkpt>
      <trkpt lat="45.7153" lon="6.06561">
        <ele>890.6</ele>
        <time>2011-06-07T08:16:33Z</time>
      </trkpt>
      <trkpt lat="45.71546" lon="6.06564">
        <ele>893.6</ele>
        <time>2011-06-07T08:16:39Z</time>
      </trkpt>
      <trkpt lat="45.71558" lon="6.06564">
        <ele>895.9</ele>
        <time>2011-06-07T08:16:44Z</time>
      </trkpt>
      <trkpt lat="45.71571" lon="6.06566">
        <ele>896.3</ele>
        <time>2011-06-07T08:16:49Z</time>
      </trkpt>
      <trkpt lat="45.71583" lon="6.06569">
        <ele>896.6</ele>
        <time>2011-06-07T08:16:54Z</time>
      </trkpt>
      <trkpt lat="45.716" lon="6.06564">
        <ele>896.9</ele>
        <time>2011-06-07T08:17:01Z</time>
      </trkpt>
      <trkpt lat="45.71611" lon="6.06553">
        <ele>898.5</ele>
        <time>2011-06-07T08:17:06Z</time>
      </trkpt>
      <trkpt lat="45.71615" lon="6.06546">
        <ele>899.9</ele>
        <time>2011-06-07T08:17:09Z</time>
      </trkpt>
      <trkpt lat="45.71618" lon="6.06538">
        <ele>901.1</ele>
        <time>2011-06-07T08:17:11Z</time>
      </trkpt>
      <trkpt lat="45.7163" lon="6.06519">
        <ele>903.7</ele>
        <time>2011-06-07T08:17:18Z</time>
      </trkpt>
      <trkpt lat="45.71638" lon="6.06506">
        <ele>904.9</ele>
        <time>2011-06-07T08:17:23Z</time>
      </trkpt>
      <trkpt lat="45.71643" lon="6.06501">
        <ele>905.4</ele>
        <time>2011-06-07T08:17:26Z</time>
      </trkpt>
      <trkpt lat="45.71654" lon="6.06484">
        <ele>907.2</ele>
        <time>2011-06-07T08:17:32Z</time>
      </trkpt>
      <trkpt lat="45.7166" lon="6.06475">
        <ele>908.1</ele>
        <time>2011-06-07T08:17:36Z</time>
      </trkpt>
      <trkpt lat="45.71669" lon="6.06457">
        <ele>910.5</ele>
        <time>2011-06-07T08:17:42Z</time>
      </trkpt>
      <trkpt lat="45.71679" lon="6.06449">
        <ele>910.8</ele>
        <time>2011-06-07T08:17:46Z</time>
      </trkpt>
      <trkpt lat="45.71685" lon="6.06438">
        <ele>912.3</ele>
        <time>2011-06-07T08:17:50Z</time>
      </trkpt>
      <trkpt lat="45.71704" lon="6.06414">
        <ele>913.7</ele>
        <time>2011-06-07T08:18:00Z</time>
      </trkpt>
      <trkpt lat="45.71714" lon="6.06394">
        <ele>915.1</ele>
        <time>2011-06-07T08:18:07Z</time>
      </trkpt>
      <trkpt lat="45.71722" lon="6.06378">
        <ele>917</ele>
        <time>2011-06-07T08:18:13Z</time>
      </trkpt>
      <trkpt lat="45.7174" lon="6.06378">
        <ele>919.8</ele>
        <time>2011-06-07T08:18:20Z</time>
      </trkpt>
      <trkpt lat="45.71747" lon="6.0638">
        <ele>920.4</ele>
        <time>2011-06-07T08:18:23Z</time>
      </trkpt>
      <trkpt lat="45.71761" lon="6.06385">
        <ele>920.7</ele>
        <time>2011-06-07T08:18:29Z</time>
      </trkpt>
      <trkpt lat="45.71776" lon="6.06381">
        <ele>922.7</ele>
        <time>2011-06-07T08:18:35Z</time>
      </trkpt>
      <trkpt lat="45.71784" lon="6.06374">
        <ele>923.6</ele>
        <time>2011-06-07T08:18:38Z</time>
      </trkpt>
      <trkpt lat="45.71794" lon="6.06369">
        <ele>923.5</ele>
        <time>2011-06-07T08:18:43Z</time>
      </trkpt>
      <trkpt lat="45.71808" lon="6.06363">
        <ele>923.5</ele>
        <time>2011-06-07T08:18:48Z</time>
      </trkpt>
      <trkpt lat="45.71818" lon="6.06359">
        <ele>924.4</ele>
        <time>2011-06-07T08:18:53Z</time>
      </trkpt>
      <trkpt lat="45.71832" lon="6.06352">
        <ele>925.6</ele>
        <time>2011-06-07T08:18:59Z</time>
      </trkpt>
      <trkpt lat="45.71847" lon="6.06345">
        <ele>927</ele>
        <time>2011-06-07T08:19:05Z</time>
      </trkpt>
      <trkpt lat="45.71865" lon="6.06336">
        <ele>929</ele>
        <time>2011-06-07T08:19:12Z</time>
      </trkpt>
      <trkpt lat="45.71872" lon="6.06333">
        <ele>929.3</ele>
        <time>2011-06-07T08:19:16Z</time>
      </trkpt>
      <trkpt lat="45.71881" lon="6.06323">
        <ele>930.7</ele>
        <time>2011-06-07T08:19:20Z</time>
      </trkpt>
      <trkpt lat="45.71885" lon="6.06319">
        <ele>931.4</ele>
        <time>2011-06-07T08:19:22Z</time>
      </trkpt>
      <trkpt lat="45.71902" lon="6.06309">
        <ele>933.9</ele>
        <time>2011-06-07T08:19:29Z</time>
      </trkpt>
      <trkpt lat="45.71915" lon="6.06303">
        <ele>935.4</ele>
        <time>2011-06-07T08:19:35Z</time>
      </trkpt>
      <trkpt lat="45.71928" lon="6.06298">
        <ele>937.4</ele>
        <time>2011-06-07T08:19:40Z</time>
      </trkpt>
      <trkpt lat="45.71951" lon="6.06288">
        <ele>940.7</ele>
        <time>2011-06-07T08:19:50Z</time>
      </trkpt>
      <trkpt lat="45.71968" lon="6.06284">
        <ele>942.5</ele>
        <time>2011-06-07T08:19:57Z</time>
      </trkpt>
      <trkpt lat="45.71975" lon="6.06288">
        <ele>942.7</ele>
        <time>2011-06-07T08:20:00Z</time>
      </trkpt>
      <trkpt lat="45.71994" lon="6.06292">
        <ele>945.8</ele>
        <time>2011-06-07T08:20:07Z</time>
      </trkpt>
      <trkpt lat="45.7201" lon="6.06295">
        <ele>948.6</ele>
        <time>2011-06-07T08:20:14Z</time>
      </trkpt>
      <trkpt lat="45.72015" lon="6.06299">
        <ele>948.9</ele>
        <time>2011-06-07T08:20:16Z</time>
      </trkpt>
      <trkpt lat="45.72021" lon="6.06306">
        <ele>948.8</ele>
        <time>2011-06-07T08:20:19Z</time>
      </trkpt>
      <trkpt lat="45.72031" lon="6.06327">
        <ele>947.9</ele>
        <time>2011-06-07T08:20:26Z</time>
      </trkpt>
      <trkpt lat="45.72037" lon="6.0634">
        <ele>947.4</ele>
        <time>2011-06-07T08:20:31Z</time>
      </trkpt>
      <trkpt lat="45.7204" lon="6.06348">
        <ele>946.8</ele>
        <time>2011-06-07T08:20:33Z</time>
      </trkpt>
      <trkpt lat="45.72048" lon="6.06364">
        <ele>945.4</ele>
        <time>2011-06-07T08:20:39Z</time>
      </trkpt>
      <trkpt lat="45.72056" lon="6.06383">
        <ele>942.8</ele>
        <time>2011-06-07T08:20:45Z</time>
      </trkpt>
      <trkpt lat="45.72061" lon="6.06393">
        <ele>942.5</ele>
        <time>2011-06-07T08:20:49Z</time>
      </trkpt>
      <trkpt lat="45.72068" lon="6.0641">
        <ele>942</ele>
        <time>2011-06-07T08:20:54Z</time>
      </trkpt>
      <trkpt lat="45.72075" lon="6.06426">
        <ele>940.6</ele>
        <time>2011-06-07T08:20:59Z</time>
      </trkpt>
      <trkpt lat="45.7208" lon="6.06437">
        <ele>939.1</ele>
        <time>2011-06-07T08:21:03Z</time>
      </trkpt>
      <trkpt lat="45.72086" lon="6.06451">
        <ele>938.3</ele>
        <time>2011-06-07T08:21:08Z</time>
      </trkpt>
      <trkpt lat="45.72095" lon="6.06471">
        <ele>939.5</ele>
        <time>2011-06-07T08:21:14Z</time>
      </trkpt>
      <trkpt lat="45.72099" lon="6.06482">
        <ele>940.3</ele>
        <time>2011-06-07T08:21:18Z</time>
      </trkpt>
      <trkpt lat="45.72111" lon="6.06495">
        <ele>946.5</ele>
        <time>2011-06-07T08:21:23Z</time>
      </trkpt>
      <trkpt lat="45.72125" lon="6.06506">
        <ele>950.7</ele>
        <time>2011-06-07T08:21:30Z</time>
      </trkpt>
      <trkpt lat="45.72135" lon="6.06516">
        <ele>956.4</ele>
        <time>2011-06-07T08:21:35Z</time>
      </trkpt>
      <trkpt lat="45.72145" lon="6.06516">
        <ele>961.4</ele>
        <time>2011-06-07T08:21:39Z</time>
      </trkpt>
      <trkpt lat="45.7215" lon="6.06505">
        <ele>963.2</ele>
        <time>2011-06-07T08:21:43Z</time>
      </trkpt>
      <trkpt lat="45.72149" lon="6.06495">
        <ele>962.8</ele>
        <time>2011-06-07T08:21:45Z</time>
      </trkpt>
      <trkpt lat="45.72148" lon="6.06475">
        <ele>963.1</ele>
        <time>2011-06-07T08:21:51Z</time>
      </trkpt>
      <trkpt lat="45.7214" lon="6.06465">
        <ele>962</ele>
        <time>2011-06-07T08:21:55Z</time>
      </trkpt>
      <trkpt lat="45.72126" lon="6.06453">
        <ele>960.5</ele>
        <time>2011-06-07T08:22:02Z</time>
      </trkpt>
      <trkpt lat="45.7212" lon="6.06439">
        <ele>961.7</ele>
        <time>2011-06-07T08:22:06Z</time>
      </trkpt>
      <trkpt lat="45.72118" lon="6.06433">
        <ele>961.9</ele>
        <time>2011-06-07T08:22:08Z</time>
      </trkpt>
      <trkpt lat="45.72112" lon="6.06419">
        <ele>962.7</ele>
        <time>2011-06-07T08:22:13Z</time>
      </trkpt>
      <trkpt lat="45.72105" lon="6.06402">
        <ele>962</ele>
        <time>2011-06-07T08:22:18Z</time>
      </trkpt>
      <trkpt lat="45.72099" lon="6.06389">
        <ele>961.8</ele>
        <time>2011-06-07T08:22:23Z</time>
      </trkpt>
      <trkpt lat="45.72088" lon="6.06364">
        <ele>962.3</ele>
        <time>2011-06-07T08:22:31Z</time>
      </trkpt>
      <trkpt lat="45.72083" lon="6.06353">
        <ele>962.7</ele>
        <time>2011-06-07T08:22:35Z</time>
      </trkpt>
      <trkpt lat="45.72076" lon="6.06337">
        <ele>963.2</ele>
        <time>2011-06-07T08:22:40Z</time>
      </trkpt>
      <trkpt lat="45.72066" lon="6.06316">
        <ele>963.4</ele>
        <time>2011-06-07T08:22:47Z</time>
      </trkpt>
      <trkpt lat="45.72061" lon="6.06305">
        <ele>962.8</ele>
        <time>2011-06-07T08:22:51Z</time>
      </trkpt>
      <trkpt lat="45.72059" lon="6.06293">
        <ele>965.3</ele>
        <time>2011-06-07T08:22:54Z</time>
      </trkpt>
      <trkpt lat="45.72054" lon="6.06283">
        <ele>965.8</ele>
        <time>2011-06-07T08:22:58Z</time>
      </trkpt>
      <trkpt lat="45.72053" lon="6.06265">
        <ele>970.3</ele>
        <time>2011-06-07T08:23:03Z</time>
      </trkpt>
      <trkpt lat="45.72045" lon="6.0625">
        <ele>970.7</ele>
        <time>2011-06-07T08:23:08Z</time>
      </trkpt>
      <trkpt lat="45.72042" lon="6.06232">
        <ele>975.1</ele>
        <time>2011-06-07T08:23:13Z</time>
      </trkpt>
      <trkpt lat="45.72039" lon="6.06224">
        <ele>975.9</ele>
        <time>2011-06-07T08:23:15Z</time>
      </trkpt>
      <trkpt lat="45.72034" lon="6.0621">
        <ele>977.3</ele>
        <time>2011-06-07T08:23:20Z</time>
      </trkpt>
      <trkpt lat="45.72028" lon="6.06194">
        <ele>978.7</ele>
        <time>2011-06-07T08:23:25Z</time>
      </trkpt>
      <trkpt lat="45.72024" lon="6.06181">
        <ele>982.8</ele>
        <time>2011-06-07T08:23:29Z</time>
      </trkpt>
      <trkpt lat="45.72016" lon="6.06169">
        <ele>985.8</ele>
        <time>2011-06-07T08:23:34Z</time>
      </trkpt>
      <trkpt lat="45.72005" lon="6.06158">
        <ele>986.5</ele>
        <time>2011-06-07T08:23:39Z</time>
      </trkpt>
      <trkpt lat="45.71997" lon="6.06153">
        <ele>985.8</ele>
        <time>2011-06-07T08:23:42Z</time>
      </trkpt>
      <trkpt lat="45.71984" lon="6.06143">
        <ele>986.2</ele>
        <time>2011-06-07T08:23:48Z</time>
      </trkpt>
      <trkpt lat="45.71976" lon="6.06138">
        <ele>986.2</ele>
        <time>2011-06-07T08:23:52Z</time>
      </trkpt>
      <trkpt lat="45.7197" lon="6.06138">
        <ele>984.9</ele>
        <time>2011-06-07T08:23:54Z</time>
      </trkpt>
      <trkpt lat="45.71952" lon="6.0613">
        <ele>983.4</ele>
        <time>2011-06-07T08:24:01Z</time>
      </trkpt>
      <trkpt lat="45.71949" lon="6.06129">
        <ele>983.1</ele>
        <time>2011-06-07T08:24:03Z</time>
      </trkpt>
      <trkpt lat="45.71939" lon="6.06095">
        <ele>989.5</ele>
        <time>2011-06-07T08:24:13Z</time>
      </trkpt>
      <trkpt lat="45.71928" lon="6.06079">
        <ele>989.7</ele>
        <time>2011-06-07T08:24:19Z</time>
      </trkpt>
      <trkpt lat="45.71919" lon="6.06055">
        <ele>993.7</ele>
        <time>2011-06-07T08:24:27Z</time>
      </trkpt>
      <trkpt lat="45.71914" lon="6.06039">
        <ele>995.4</ele>
        <time>2011-06-07T08:24:32Z</time>
      </trkpt>
      <trkpt lat="45.71904" lon="6.06012">
        <ele>999.4</ele>
        <time>2011-06-07T08:24:40Z</time>
      </trkpt>
      <trkpt lat="45.71899" lon="6.05997">
        <ele>1001.1</ele>
        <time>2011-06-07T08:24:45Z</time>
      </trkpt>
      <trkpt lat="45.71893" lon="6.05982">
        <ele>1002.6</ele>
        <time>2011-06-07T08:24:50Z</time>
      </trkpt>
      <trkpt lat="45.71887" lon="6.05964">
        <ele>1004.7</ele>
        <time>2011-06-07T08:24:55Z</time>
      </trkpt>
      <trkpt lat="45.7188" lon="6.05958">
        <ele>1004.4</ele>
        <time>2011-06-07T08:24:59Z</time>
      </trkpt>
      <trkpt lat="45.71871" lon="6.05947">
        <ele>1004.3</ele>
        <time>2011-06-07T08:25:03Z</time>
      </trkpt>
      <trkpt lat="45.71861" lon="6.05939">
        <ele>1003.2</ele>
        <time>2011-06-07T08:25:08Z</time>
      </trkpt>
      <trkpt lat="45.71846" lon="6.05922">
        <ele>1003.3</ele>
        <time>2011-06-07T08:25:16Z</time>
      </trkpt>
      <trkpt lat="45.71844" lon="6.05908">
        <ele>1005.6</ele>
        <time>2011-06-07T08:25:20Z</time>
      </trkpt>
      <trkpt lat="45.7184" lon="6.05896">
        <ele>1006.7</ele>
        <time>2011-06-07T08:25:23Z</time>
      </trkpt>
      <trkpt lat="45.71836" lon="6.05882">
        <ele>1008.1</ele>
        <time>2011-06-07T08:25:28Z</time>
      </trkpt>
      <trkpt lat="45.71831" lon="6.05868">
        <ele>1010.2</ele>
        <time>2011-06-07T08:25:32Z</time>
      </trkpt>
      <trkpt lat="45.71826" lon="6.05856">
        <ele>1011.7</ele>
        <time>2011-06-07T08:25:36Z</time>
      </trkpt>
      <trkpt lat="45.7182" lon="6.05839">
        <ele>1014.3</ele>
        <time>2011-06-07T08:25:41Z</time>
      </trkpt>
      <trkpt lat="45.71812" lon="6.05823">
        <ele>1015.2</ele>
        <time>2011-06-07T08:25:47Z</time>
      </trkpt>
      <trkpt lat="45.71809" lon="6.05814">
        <ele>1015.7</ele>
        <time>2011-06-07T08:25:50Z</time>
      </trkpt>
      <trkpt lat="45.71803" lon="6.05798">
        <ele>1017.3</ele>
        <time>2011-06-07T08:25:55Z</time>
      </trkpt>
      <trkpt lat="45.718" lon="6.05789">
        <ele>1018.6</ele>
        <time>2011-06-07T08:25:58Z</time>
      </trkpt>
      <trkpt lat="45.71792" lon="6.0577">
        <ele>1021.1</ele>
        <time>2011-06-07T08:26:04Z</time>
      </trkpt>
      <trkpt lat="45.71786" lon="6.05759">
        <ele>1021.5</ele>
        <time>2011-06-07T08:26:08Z</time>
      </trkpt>
      <trkpt lat="45.71777" lon="6.05746">
        <ele>1021.9</ele>
        <time>2011-06-07T08:26:13Z</time>
      </trkpt>
      <trkpt lat="45.71772" lon="6.05733">
        <ele>1024.5</ele>
        <time>2011-06-07T08:26:17Z</time>
      </trkpt>
      <trkpt lat="45.7177" lon="6.05727">
        <ele>1025.4</ele>
        <time>2011-06-07T08:26:19Z</time>
      </trkpt>
      <trkpt lat="45.71755" lon="6.0571">
        <ele>1026.5</ele>
        <time>2011-06-07T08:26:26Z</time>
      </trkpt>
      <trkpt lat="45.7175" lon="6.05702">
        <ele>1027.3</ele>
        <time>2011-06-07T08:26:29Z</time>
      </trkpt>
      <trkpt lat="45.71744" lon="6.05686">
        <ele>1029</ele>
        <time>2011-06-07T08:26:34Z</time>
      </trkpt>
      <trkpt lat="45.71741" lon="6.05679">
        <ele>1030</ele>
        <time>2011-06-07T08:26:37Z</time>
      </trkpt>
      <trkpt lat="45.71735" lon="6.05663">
        <ele>1031.9</ele>
        <time>2011-06-07T08:26:42Z</time>
      </trkpt>
      <trkpt lat="45.7173" lon="6.05656">
        <ele>1032.2</ele>
        <time>2011-06-07T08:26:45Z</time>
      </trkpt>
      <trkpt lat="45.71721" lon="6.0564">
        <ele>1033.7</ele>
        <time>2011-06-07T08:26:50Z</time>
      </trkpt>
      <trkpt lat="45.71713" lon="6.05634">
        <ele>1034.7</ele>
        <time>2011-06-07T08:26:54Z</time>
      </trkpt>
      <trkpt lat="45.71702" lon="6.05625">
        <ele>1036.1</ele>
        <time>2011-06-07T08:26:59Z</time>
      </trkpt>
      <trkpt lat="45.71693" lon="6.05621">
        <ele>1036.9</ele>
        <time>2011-06-07T08:27:03Z</time>
      </trkpt>
      <trkpt lat="45.71686" lon="6.05625">
        <ele>1036.7</ele>
        <time>2011-06-07T08:27:06Z</time>
      </trkpt>
      <trkpt lat="45.71679" lon="6.0564">
        <ele>1035.1</ele>
        <time>2011-06-07T08:27:11Z</time>
      </trkpt>
      <trkpt lat="45.71675" lon="6.05655">
        <ele>1034.5</ele>
        <time>2011-06-07T08:27:15Z</time>
      </trkpt>
      <trkpt lat="45.71673" lon="6.05658">
        <ele>1034.7</ele>
        <time>2011-06-07T08:27:16Z</time>
      </trkpt>
      <trkpt lat="45.71676" lon="6.05676">
        <ele>1032.5</ele>
        <time>2011-06-07T08:27:22Z</time>
      </trkpt>
      <trkpt lat="45.7167" lon="6.05686">
        <ele>1033.2</ele>
        <time>2011-06-07T08:27:25Z</time>
      </trkpt>
      <trkpt lat="45.71665" lon="6.05692">
        <ele>1033.5</ele>
        <time>2011-06-07T08:27:28Z</time>
      </trkpt>
      <trkpt lat="45.71642" lon="6.05699">
        <ele>1036.8</ele>
        <time>2011-06-07T08:27:37Z</time>
      </trkpt>
      <trkpt lat="45.71624" lon="6.05702">
        <ele>1039.1</ele>
        <time>2011-06-07T08:27:45Z</time>
      </trkpt>
      <trkpt lat="45.71606" lon="6.05705">
        <ele>1040.9</ele>
        <time>2011-06-07T08:27:52Z</time>
      </trkpt>
      <trkpt lat="45.71592" lon="6.05702">
        <ele>1042.5</ele>
        <time>2011-06-07T08:27:57Z</time>
      </trkpt>
      <trkpt lat="45.71583" lon="6.05694">
        <ele>1045.1</ele>
        <time>2011-06-07T08:28:02Z</time>
      </trkpt>
      <trkpt lat="45.71575" lon="6.05685">
        <ele>1045.6</ele>
        <time>2011-06-07T08:28:06Z</time>
      </trkpt>
      <trkpt lat="45.71566" lon="6.05674">
        <ele>1046.8</ele>
        <time>2011-06-07T08:28:11Z</time>
      </trkpt>
      <trkpt lat="45.71559" lon="6.0566">
        <ele>1048.9</ele>
        <time>2011-06-07T08:28:15Z</time>
      </trkpt>
      <trkpt lat="45.71554" lon="6.0565">
        <ele>1050.3</ele>
        <time>2011-06-07T08:28:19Z</time>
      </trkpt>
      <trkpt lat="45.7155" lon="6.05641">
        <ele>1051.3</ele>
        <time>2011-06-07T08:28:22Z</time>
      </trkpt>
      <trkpt lat="45.71542" lon="6.05625">
        <ele>1052.2</ele>
        <time>2011-06-07T08:28:27Z</time>
      </trkpt>
      <trkpt lat="45.71536" lon="6.05612">
        <ele>1053.3</ele>
        <time>2011-06-07T08:28:32Z</time>
      </trkpt>
      <trkpt lat="45.71533" lon="6.05602">
        <ele>1055</ele>
        <time>2011-06-07T08:28:35Z</time>
      </trkpt>
      <trkpt lat="45.7152" lon="6.05596">
        <ele>1057.3</ele>
        <time>2011-06-07T08:28:40Z</time>
      </trkpt>
      <trkpt lat="45.71504" lon="6.05599">
        <ele>1058.7</ele>
        <time>2011-06-07T08:28:46Z</time>
      </trkpt>
      <trkpt lat="45.715" lon="6.05608">
        <ele>1058.3</ele>
        <time>2011-06-07T08:28:49Z</time>
      </trkpt>
      <trkpt lat="45.71492" lon="6.0562">
        <ele>1060.2</ele>
        <time>2011-06-07T08:28:54Z</time>
      </trkpt>
      <trkpt lat="45.71491" lon="6.05632">
        <ele>1060.6</ele>
        <time>2011-06-07T08:28:58Z</time>
      </trkpt>
      <trkpt lat="45.71493" lon="6.05644">
        <ele>1059.4</ele>
        <time>2011-06-07T08:29:01Z</time>
      </trkpt>
      <trkpt lat="45.71499" lon="6.05657">
        <ele>1055.6</ele>
        <time>2011-06-07T08:29:05Z</time>
      </trkpt>
      <trkpt lat="45.71493" lon="6.05666">
        <ele>1056.1</ele>
        <time>2011-06-07T08:29:09Z</time>
      </trkpt>
      <trkpt lat="45.71479" lon="6.05671">
        <ele>1058.9</ele>
        <time>2011-06-07T08:29:15Z</time>
      </trkpt>
      <trkpt lat="45.71471" lon="6.05673">
        <ele>1060.6</ele>
        <time>2011-06-07T08:29:18Z</time>
      </trkpt>
      <trkpt lat="45.71454" lon="6.05671">
        <ele>1062.3</ele>
        <time>2011-06-07T08:29:25Z</time>
      </trkpt>
      <trkpt lat="45.71448" lon="6.05665">
        <ele>1063.9</ele>
        <time>2011-06-07T08:29:28Z</time>
      </trkpt>
      <trkpt lat="45.71438" lon="6.05656">
        <ele>1065.5</ele>
        <time>2011-06-07T08:29:33Z</time>
      </trkpt>
      <trkpt lat="45.71431" lon="6.05648">
        <ele>1066.2</ele>
        <time>2011-06-07T08:29:36Z</time>
      </trkpt>
      <trkpt lat="45.71427" lon="6.05639">
        <ele>1066.7</ele>
        <time>2011-06-07T08:29:39Z</time>
      </trkpt>
      <trkpt lat="45.71424" lon="6.05633">
        <ele>1067</ele>
        <time>2011-06-07T08:29:41Z</time>
      </trkpt>
      <trkpt lat="45.71415" lon="6.05619">
        <ele>1068.4</ele>
        <time>2011-06-07T08:29:47Z</time>
      </trkpt>
      <trkpt lat="45.71406" lon="6.05612">
        <ele>1070.1</ele>
        <time>2011-06-07T08:29:51Z</time>
      </trkpt>
      <trkpt lat="45.71398" lon="6.05609">
        <ele>1071.1</ele>
        <time>2011-06-07T08:29:54Z</time>
      </trkpt>
      <trkpt lat="45.71381" lon="6.05604">
        <ele>1073.5</ele>
        <time>2011-06-07T08:30:01Z</time>
      </trkpt>
      <trkpt lat="45.71361" lon="6.05607">
        <ele>1075.6</ele>
        <time>2011-06-07T08:30:09Z</time>
      </trkpt>
      <trkpt lat="45.7135" lon="6.0561">
        <ele>1078.7</ele>
        <time>2011-06-07T08:30:13Z</time>
      </trkpt>
      <trkpt lat="45.71342" lon="6.05619">
        <ele>1080</ele>
        <time>2011-06-07T08:30:17Z</time>
      </trkpt>
      <trkpt lat="45.71328" lon="6.05627">
        <ele>1081.6</ele>
        <time>2011-06-07T08:30:23Z</time>
      </trkpt>
      <trkpt lat="45.71321" lon="6.05631">
        <ele>1081.6</ele>
        <time>2011-06-07T08:30:26Z</time>
      </trkpt>
      <trkpt lat="45.71306" lon="6.05635">
        <ele>1082.5</ele>
        <time>2011-06-07T08:30:32Z</time>
      </trkpt>
      <trkpt lat="45.71289" lon="6.05639">
        <ele>1084.4</ele>
        <time>2011-06-07T08:30:39Z</time>
      </trkpt>
      <trkpt lat="45.71277" lon="6.05642">
        <ele>1085.9</ele>
        <time>2011-06-07T08:30:44Z</time>
      </trkpt>
      <trkpt lat="45.71267" lon="6.05645">
        <ele>1086.7</ele>
        <time>2011-06-07T08:30:48Z</time>
      </trkpt>
      <trkpt lat="45.71254" lon="6.05644">
        <ele>1088.1</ele>
        <time>2011-06-07T08:30:54Z</time>
      </trkpt>
      <trkpt lat="45.71244" lon="6.05638">
        <ele>1089.4</ele>
        <time>2011-06-07T08:30:58Z</time>
      </trkpt>
      <trkpt lat="45.71237" lon="6.05634">
        <ele>1090.4</ele>
        <time>2011-06-07T08:31:01Z</time>
      </trkpt>
      <trkpt lat="45.71224" lon="6.05627">
        <ele>1092.1</ele>
        <time>2011-06-07T08:31:06Z</time>
      </trkpt>
      <trkpt lat="45.71217" lon="6.0562">
        <ele>1094.3</ele>
        <time>2011-06-07T08:31:10Z</time>
      </trkpt>
      <trkpt lat="45.71209" lon="6.0562">
        <ele>1095.6</ele>
        <time>2011-06-07T08:31:13Z</time>
      </trkpt>
      <trkpt lat="45.71201" lon="6.05623">
        <ele>1096.8</ele>
        <time>2011-06-07T08:31:16Z</time>
      </trkpt>
      <trkpt lat="45.7119" lon="6.05626">
        <ele>1098.1</ele>
        <time>2011-06-07T08:31:21Z</time>
      </trkpt>
      <trkpt lat="45.71177" lon="6.05629">
        <ele>1099.6</ele>
        <time>2011-06-07T08:31:26Z</time>
      </trkpt>
      <trkpt lat="45.71163" lon="6.05634">
        <ele>1101.4</ele>
        <time>2011-06-07T08:31:32Z</time>
      </trkpt>
      <trkpt lat="45.71154" lon="6.05636">
        <ele>1102.2</ele>
        <time>2011-06-07T08:31:35Z</time>
      </trkpt>
      <trkpt lat="45.71146" lon="6.05638">
        <ele>1103.1</ele>
        <time>2011-06-07T08:31:39Z</time>
      </trkpt>
      <trkpt lat="45.7114" lon="6.0564">
        <ele>1103.6</ele>
        <time>2011-06-07T08:31:41Z</time>
      </trkpt>
      <trkpt lat="45.71128" lon="6.05643">
        <ele>1104.9</ele>
        <time>2011-06-07T08:31:46Z</time>
      </trkpt>
      <trkpt lat="45.71122" lon="6.05649">
        <ele>1104.7</ele>
        <time>2011-06-07T08:31:49Z</time>
      </trkpt>
      <trkpt lat="45.71109" lon="6.05652">
        <ele>1106</ele>
        <time>2011-06-07T08:31:54Z</time>
      </trkpt>
      <trkpt lat="45.71105" lon="6.05653">
        <ele>1106.4</ele>
        <time>2011-06-07T08:31:56Z</time>
      </trkpt>
      <trkpt lat="45.71094" lon="6.05658">
        <ele>1107.5</ele>
        <time>2011-06-07T08:32:01Z</time>
      </trkpt>
      <trkpt lat="45.71087" lon="6.05662">
        <ele>1108.1</ele>
        <time>2011-06-07T08:32:03Z</time>
      </trkpt>
      <trkpt lat="45.71076" lon="6.05666">
        <ele>1109.4</ele>
        <time>2011-06-07T08:32:08Z</time>
      </trkpt>
      <trkpt lat="45.71069" lon="6.05668">
        <ele>1110.4</ele>
        <time>2011-06-07T08:32:11Z</time>
      </trkpt>
      <trkpt lat="45.71062" lon="6.05674">
        <ele>1111</ele>
        <time>2011-06-07T08:32:14Z</time>
      </trkpt>
      <trkpt lat="45.71054" lon="6.05678">
        <ele>1112.1</ele>
        <time>2011-06-07T08:32:17Z</time>
      </trkpt>
      <trkpt lat="45.71046" lon="6.0568">
        <ele>1113</ele>
        <time>2011-06-07T08:32:21Z</time>
      </trkpt>
      <trkpt lat="45.71037" lon="6.05682">
        <ele>1113.9</ele>
        <time>2011-06-07T08:32:24Z</time>
      </trkpt>
      <trkpt lat="45.71028" lon="6.05685">
        <ele>1114.8</ele>
        <time>2011-06-07T08:32:28Z</time>
      </trkpt>
      <trkpt lat="45.71023" lon="6.05682">
        <ele>1115.3</ele>
        <time>2011-06-07T08:32:30Z</time>
      </trkpt>
      <trkpt lat="45.71016" lon="6.05681">
        <ele>1115.7</ele>
        <time>2011-06-07T08:32:33Z</time>
      </trkpt>
      <trkpt lat="45.71007" lon="6.05674">
        <ele>1117.2</ele>
        <time>2011-06-07T08:32:37Z</time>
      </trkpt>
      <trkpt lat="45.71002" lon="6.05668">
        <ele>1118.6</ele>
        <time>2011-06-07T08:32:40Z</time>
      </trkpt>
      <trkpt lat="45.70991" lon="6.05661">
        <ele>1120.3</ele>
        <time>2011-06-07T08:32:44Z</time>
      </trkpt>
      <trkpt lat="45.70991" lon="6.05659">
        <ele>1120.6</ele>
        <time>2011-06-07T08:32:45Z</time>
      </trkpt>
      <trkpt lat="45.70963" lon="6.05638">
        <ele>1123.8</ele>
        <time>2011-06-07T08:32:58Z</time>
      </trkpt>
      <trkpt lat="45.70955" lon="6.0563">
        <ele>1125.2</ele>
        <time>2011-06-07T08:33:01Z</time>
      </trkpt>
      <trkpt lat="45.70944" lon="6.0562">
        <ele>1126.6</ele>
        <time>2011-06-07T08:33:07Z</time>
      </trkpt>
      <trkpt lat="45.70938" lon="6.05609">
        <ele>1129.9</ele>
        <time>2011-06-07T08:33:10Z</time>
      </trkpt>
      <trkpt lat="45.70927" lon="6.05611">
        <ele>1131.8</ele>
        <time>2011-06-07T08:33:15Z</time>
      </trkpt>
      <trkpt lat="45.70913" lon="6.0562">
        <ele>1131.7</ele>
        <time>2011-06-07T08:33:21Z</time>
      </trkpt>
      <trkpt lat="45.70901" lon="6.05613">
        <ele>1134.2</ele>
        <time>2011-06-07T08:33:26Z</time>
      </trkpt>
      <trkpt lat="45.70891" lon="6.0561">
        <ele>1135.2</ele>
        <time>2011-06-07T08:33:30Z</time>
      </trkpt>
      <trkpt lat="45.70875" lon="6.05603">
        <ele>1135.5</ele>
        <time>2011-06-07T08:33:37Z</time>
      </trkpt>
      <trkpt lat="45.70867" lon="6.05594">
        <ele>1136.7</ele>
        <time>2011-06-07T08:33:41Z</time>
      </trkpt>
      <trkpt lat="45.70854" lon="6.0559">
        <ele>1137.6</ele>
        <time>2011-06-07T08:33:46Z</time>
      </trkpt>
      <trkpt lat="45.70852" lon="6.0559">
        <ele>1137.8</ele>
        <time>2011-06-07T08:33:47Z</time>
      </trkpt>
      <trkpt lat="45.70832" lon="6.05593">
        <ele>1139.4</ele>
        <time>2011-06-07T08:33:55Z</time>
      </trkpt>
      <trkpt lat="45.70821" lon="6.05595">
        <ele>1141</ele>
        <time>2011-06-07T08:34:00Z</time>
      </trkpt>
      <trkpt lat="45.70813" lon="6.05597">
        <ele>1141.9</ele>
        <time>2011-06-07T08:34:03Z</time>
      </trkpt>
      <trkpt lat="45.70797" lon="6.05599">
        <ele>1143.2</ele>
        <time>2011-06-07T08:34:09Z</time>
      </trkpt>
      <trkpt lat="45.70778" lon="6.05603">
        <ele>1144.1</ele>
        <time>2011-06-07T08:34:17Z</time>
      </trkpt>
      <trkpt lat="45.70772" lon="6.05604">
        <ele>1144.6</ele>
        <time>2011-06-07T08:34:20Z</time>
      </trkpt>
      <trkpt lat="45.70754" lon="6.05607">
        <ele>1146.3</ele>
        <time>2011-06-07T08:34:27Z</time>
      </trkpt>
      <trkpt lat="45.70745" lon="6.05608">
        <ele>1146.9</ele>
        <time>2011-06-07T08:34:30Z</time>
      </trkpt>
      <trkpt lat="45.70734" lon="6.0561">
        <ele>1147.3</ele>
        <time>2011-06-07T08:34:35Z</time>
      </trkpt>
      <trkpt lat="45.70717" lon="6.05613">
        <ele>1148.1</ele>
        <time>2011-06-07T08:34:42Z</time>
      </trkpt>
      <trkpt lat="45.70707" lon="6.05615">
        <ele>1148.6</ele>
        <time>2011-06-07T08:34:46Z</time>
      </trkpt>
      <trkpt lat="45.70693" lon="6.05617">
        <ele>1149.4</ele>
        <time>2011-06-07T08:34:51Z</time>
      </trkpt>
      <trkpt lat="45.70685" lon="6.05615">
        <ele>1149.9</ele>
        <time>2011-06-07T08:34:54Z</time>
      </trkpt>
      <trkpt lat="45.70665" lon="6.05616">
        <ele>1150.1</ele>
        <time>2011-06-07T08:35:03Z</time>
      </trkpt>
      <trkpt lat="45.70655" lon="6.05616">
        <ele>1150.6</ele>
        <time>2011-06-07T08:35:07Z</time>
      </trkpt>
      <trkpt lat="45.70647" lon="6.05616">
        <ele>1151</ele>
        <time>2011-06-07T08:35:10Z</time>
      </trkpt>
      <trkpt lat="45.70637" lon="6.05617">
        <ele>1151.2</ele>
        <time>2011-06-07T08:35:14Z</time>
      </trkpt>
      <trkpt lat="45.70623" lon="6.0562">
        <ele>1151.9</ele>
        <time>2011-06-07T08:35:20Z</time>
      </trkpt>
      <trkpt lat="45.70617" lon="6.05621">
        <ele>1152.2</ele>
        <time>2011-06-07T08:35:22Z</time>
      </trkpt>
      <trkpt lat="45.70603" lon="6.05623">
        <ele>1153.2</ele>
        <time>2011-06-07T08:35:28Z</time>
      </trkpt>
      <trkpt lat="45.70598" lon="6.05624">
        <ele>1153.6</ele>
        <time>2011-06-07T08:35:30Z</time>
      </trkpt>
      <trkpt lat="45.70585" lon="6.0563">
        <ele>1153.4</ele>
        <time>2011-06-07T08:35:35Z</time>
      </trkpt>
      <trkpt lat="45.70575" lon="6.05636">
        <ele>1152.5</ele>
        <time>2011-06-07T08:35:39Z</time>
      </trkpt>
      <trkpt lat="45.70565" lon="6.05639">
        <ele>1152.3</ele>
        <time>2011-06-07T08:35:43Z</time>
      </trkpt>
      <trkpt lat="45.70552" lon="6.05643">
        <ele>1153.5</ele>
        <time>2011-06-07T08:35:49Z</time>
      </trkpt>
      <trkpt lat="45.70544" lon="6.05646">
        <ele>1155.1</ele>
        <time>2011-06-07T08:35:52Z</time>
      </trkpt>
      <trkpt lat="45.70538" lon="6.05651">
        <ele>1155.8</ele>
        <time>2011-06-07T08:35:55Z</time>
      </trkpt>
      <trkpt lat="45.70528" lon="6.05652">
        <ele>1157.9</ele>
        <time>2011-06-07T08:35:59Z</time>
      </trkpt>
      <trkpt lat="45.70519" lon="6.05654">
        <ele>1158.6</ele>
        <time>2011-06-07T08:36:03Z</time>
      </trkpt>
      <trkpt lat="45.70506" lon="6.05656">
        <ele>1159.4</ele>
        <time>2011-06-07T08:36:08Z</time>
      </trkpt>
      <trkpt lat="45.70498" lon="6.05652">
        <ele>1160.3</ele>
        <time>2011-06-07T08:36:11Z</time>
      </trkpt>
      <trkpt lat="45.70495" lon="6.05653">
        <ele>1159.8</ele>
        <time>2011-06-07T08:36:12Z</time>
      </trkpt>
      <trkpt lat="45.70481" lon="6.05647">
        <ele>1159.6</ele>
        <time>2011-06-07T08:36:18Z</time>
      </trkpt>
      <trkpt lat="45.70472" lon="6.05637">
        <ele>1161.8</ele>
        <time>2011-06-07T08:36:23Z</time>
      </trkpt>
      <trkpt lat="45.70463" lon="6.0563">
        <ele>1163.1</ele>
        <time>2011-06-07T08:36:27Z</time>
      </trkpt>
      <trkpt lat="45.70454" lon="6.05622">
        <ele>1164.6</ele>
        <time>2011-06-07T08:36:31Z</time>
      </trkpt>
      <trkpt lat="45.70452" lon="6.05618">
        <ele>1165.9</ele>
        <time>2011-06-07T08:36:33Z</time>
      </trkpt>
      <trkpt lat="45.70442" lon="6.05613">
        <ele>1166.5</ele>
        <time>2011-06-07T08:36:37Z</time>
      </trkpt>
      <trkpt lat="45.70436" lon="6.0561">
        <ele>1168.1</ele>
        <time>2011-06-07T08:36:39Z</time>
      </trkpt>
      <trkpt lat="45.70425" lon="6.05607">
        <ele>1169.6</ele>
        <time>2011-06-07T08:36:44Z</time>
      </trkpt>
      <trkpt lat="45.70423" lon="6.05606">
        <ele>1170.1</ele>
        <time>2011-06-07T08:36:45Z</time>
      </trkpt>
      <trkpt lat="45.70412" lon="6.05604">
        <ele>1172</ele>
        <time>2011-06-07T08:36:49Z</time>
      </trkpt>
      <trkpt lat="45.70406" lon="6.05604">
        <ele>1173.1</ele>
        <time>2011-06-07T08:36:52Z</time>
      </trkpt>
      <trkpt lat="45.70393" lon="6.05602">
        <ele>1175.9</ele>
        <time>2011-06-07T08:36:57Z</time>
      </trkpt>
      <trkpt lat="45.70391" lon="6.05602">
        <ele>1176.2</ele>
        <time>2011-06-07T08:36:58Z</time>
      </trkpt>
      <trkpt lat="45.70381" lon="6.05604">
        <ele>1177.5</ele>
        <time>2011-06-07T08:37:01Z</time>
      </trkpt>
      <trkpt lat="45.70373" lon="6.05608">
        <ele>1178.4</ele>
        <time>2011-06-07T08:37:05Z</time>
      </trkpt>
      <trkpt lat="45.70369" lon="6.05609">
        <ele>1179</ele>
        <time>2011-06-07T08:37:07Z</time>
      </trkpt>
      <trkpt lat="45.70361" lon="6.0561">
        <ele>1180.1</ele>
        <time>2011-06-07T08:37:10Z</time>
      </trkpt>
      <trkpt lat="45.70355" lon="6.05614">
        <ele>1181</ele>
        <time>2011-06-07T08:37:13Z</time>
      </trkpt>
      <trkpt lat="45.70349" lon="6.05616">
        <ele>1181.6</ele>
        <time>2011-06-07T08:37:15Z</time>
      </trkpt>
      <trkpt lat="45.70342" lon="6.05618">
        <ele>1183</ele>
        <time>2011-06-07T08:37:18Z</time>
      </trkpt>
      <trkpt lat="45.70337" lon="6.05619">
        <ele>1183.9</ele>
        <time>2011-06-07T08:37:20Z</time>
      </trkpt>
      <trkpt lat="45.70332" lon="6.0562">
        <ele>1184.7</ele>
        <time>2011-06-07T08:37:22Z</time>
      </trkpt>
      <trkpt lat="45.70327" lon="6.05621">
        <ele>1185.4</ele>
        <time>2011-06-07T08:37:24Z</time>
      </trkpt>
      <trkpt lat="45.70319" lon="6.05623">
        <ele>1186.7</ele>
        <time>2011-06-07T08:37:27Z</time>
      </trkpt>
      <trkpt lat="45.70289" lon="6.05635">
        <ele>1188.7</ele>
        <time>2011-06-07T08:37:39Z</time>
      </trkpt>
      <trkpt lat="45.70281" lon="6.05635">
        <ele>1189.7</ele>
        <time>2011-06-07T08:37:43Z</time>
      </trkpt>
      <trkpt lat="45.70271" lon="6.05636">
        <ele>1191.4</ele>
        <time>2011-06-07T08:37:47Z</time>
      </trkpt>
      <trkpt lat="45.70269" lon="6.05637">
        <ele>1191.7</ele>
        <time>2011-06-07T08:37:47Z</time>
      </trkpt>
      <trkpt lat="45.70256" lon="6.05639">
        <ele>1194.5</ele>
        <time>2011-06-07T08:37:53Z</time>
      </trkpt>
      <trkpt lat="45.70251" lon="6.05639">
        <ele>1195.7</ele>
        <time>2011-06-07T08:37:55Z</time>
      </trkpt>
      <trkpt lat="45.70244" lon="6.05642">
        <ele>1196.1</ele>
        <time>2011-06-07T08:37:58Z</time>
      </trkpt>
      <trkpt lat="45.70239" lon="6.05644">
        <ele>1196.3</ele>
        <time>2011-06-07T08:38:00Z</time>
      </trkpt>
      <trkpt lat="45.70231" lon="6.05645">
        <ele>1196.9</ele>
        <time>2011-06-07T08:38:03Z</time>
      </trkpt>
      <trkpt lat="45.70218" lon="6.05647">
        <ele>1198</ele>
        <time>2011-06-07T08:38:08Z</time>
      </trkpt>
      <trkpt lat="45.70217" lon="6.05648">
        <ele>1198</ele>
        <time>2011-06-07T08:38:09Z</time>
      </trkpt>
      <trkpt lat="45.7021" lon="6.05649">
        <ele>1198.5</ele>
        <time>2011-06-07T08:38:11Z</time>
      </trkpt>
      <trkpt lat="45.70205" lon="6.05649">
        <ele>1198.9</ele>
        <time>2011-06-07T08:38:14Z</time>
      </trkpt>
      <trkpt lat="45.70193" lon="6.05651">
        <ele>1199.6</ele>
        <time>2011-06-07T08:38:18Z</time>
      </trkpt>
      <trkpt lat="45.70188" lon="6.05652">
        <ele>1199.8</ele>
        <time>2011-06-07T08:38:20Z</time>
      </trkpt>
      <trkpt lat="45.70181" lon="6.05651">
        <ele>1200.6</ele>
        <time>2011-06-07T08:38:23Z</time>
      </trkpt>
      <trkpt lat="45.70175" lon="6.05649">
        <ele>1201.9</ele>
        <time>2011-06-07T08:38:26Z</time>
      </trkpt>
      <trkpt lat="45.70167" lon="6.05646">
        <ele>1203.7</ele>
        <time>2011-06-07T08:38:29Z</time>
      </trkpt>
      <trkpt lat="45.70162" lon="6.05642">
        <ele>1204.1</ele>
        <time>2011-06-07T08:38:31Z</time>
      </trkpt>
      <trkpt lat="45.70155" lon="6.05636">
        <ele>1204.8</ele>
        <time>2011-06-07T08:38:35Z</time>
      </trkpt>
      <trkpt lat="45.7015" lon="6.05632">
        <ele>1204.8</ele>
        <time>2011-06-07T08:38:37Z</time>
      </trkpt>
      <trkpt lat="45.70145" lon="6.05628">
        <ele>1204.8</ele>
        <time>2011-06-07T08:38:39Z</time>
      </trkpt>
      <trkpt lat="45.70138" lon="6.05621">
        <ele>1205.3</ele>
        <time>2011-06-07T08:38:43Z</time>
      </trkpt>
      <trkpt lat="45.70135" lon="6.05615">
        <ele>1205.4</ele>
        <time>2011-06-07T08:38:45Z</time>
      </trkpt>
      <trkpt lat="45.70134" lon="6.0561">
        <ele>1206.1</ele>
        <time>2011-06-07T08:38:46Z</time>
      </trkpt>
      <trkpt lat="45.70127" lon="6.05602">
        <ele>1205.1</ele>
        <time>2011-06-07T08:38:50Z</time>
      </trkpt>
      <trkpt lat="45.70125" lon="6.05598">
        <ele>1205.3</ele>
        <time>2011-06-07T08:38:51Z</time>
      </trkpt>
      <trkpt lat="45.7012" lon="6.05589">
        <ele>1205.9</ele>
        <time>2011-06-07T08:38:54Z</time>
      </trkpt>
      <trkpt lat="45.70118" lon="6.05583">
        <ele>1206.6</ele>
        <time>2011-06-07T08:38:56Z</time>
      </trkpt>
      <trkpt lat="45.70115" lon="6.05574">
        <ele>1208.3</ele>
        <time>2011-06-07T08:38:59Z</time>
      </trkpt>
      <trkpt lat="45.70111" lon="6.05567">
        <ele>1209</ele>
        <time>2011-06-07T08:39:01Z</time>
      </trkpt>
      <trkpt lat="45.7011" lon="6.05563">
        <ele>1209.9</ele>
        <time>2011-06-07T08:39:02Z</time>
      </trkpt>
      <trkpt lat="45.70109" lon="6.05555">
        <ele>1211.6</ele>
        <time>2011-06-07T08:39:05Z</time>
      </trkpt>
      <trkpt lat="45.70109" lon="6.05546">
        <ele>1214.6</ele>
        <time>2011-06-07T08:39:07Z</time>
      </trkpt>
      <trkpt lat="45.70114" lon="6.05547">
        <ele>1215.7</ele>
        <time>2011-06-07T08:39:09Z</time>
      </trkpt>
      <trkpt lat="45.70119" lon="6.05553">
        <ele>1215.3</ele>
        <time>2011-06-07T08:39:12Z</time>
      </trkpt>
      <trkpt lat="45.70128" lon="6.05563">
        <ele>1214.9</ele>
        <time>2011-06-07T08:39:16Z</time>
      </trkpt>
      <trkpt lat="45.70129" lon="6.05564">
        <ele>1214.9</ele>
        <time>2011-06-07T08:39:17Z</time>
      </trkpt>
      <trkpt lat="45.70134" lon="6.05567">
        <ele>1215.2</ele>
        <time>2011-06-07T08:39:19Z</time>
      </trkpt>
      <trkpt lat="45.70139" lon="6.05573">
        <ele>1215</ele>
        <time>2011-06-07T08:39:22Z</time>
      </trkpt>
      <trkpt lat="45.70142" lon="6.05577">
        <ele>1214.9</ele>
        <time>2011-06-07T08:39:23Z</time>
      </trkpt>
      <trkpt lat="45.70144" lon="6.05584">
        <ele>1213.7</ele>
        <time>2011-06-07T08:39:25Z</time>
      </trkpt>
      <trkpt lat="45.70147" lon="6.05587">
        <ele>1214.1</ele>
        <time>2011-06-07T08:39:27Z</time>
      </trkpt>
      <trkpt lat="45.70149" lon="6.05591">
        <ele>1214.1</ele>
        <time>2011-06-07T08:39:28Z</time>
      </trkpt>
      <trkpt lat="45.70153" lon="6.056">
        <ele>1213.4</ele>
        <time>2011-06-07T08:39:31Z</time>
      </trkpt>
      <trkpt lat="45.7016" lon="6.05603">
        <ele>1214.5</ele>
        <time>2011-06-07T08:39:34Z</time>
      </trkpt>
      <trkpt lat="45.70165" lon="6.05605">
        <ele>1215.3</ele>
        <time>2011-06-07T08:39:36Z</time>
      </trkpt>
      <trkpt lat="45.70172" lon="6.05606">
        <ele>1215.8</ele>
        <time>2011-06-07T08:39:39Z</time>
      </trkpt>
      <trkpt lat="45.70175" lon="6.05607">
        <ele>1215.6</ele>
        <time>2011-06-07T08:39:40Z</time>
      </trkpt>
      <trkpt lat="45.70181" lon="6.05605">
        <ele>1216.3</ele>
        <time>2011-06-07T08:39:43Z</time>
      </trkpt>
      <trkpt lat="45.70187" lon="6.05604">
        <ele>1216.8</ele>
        <time>2011-06-07T08:39:45Z</time>
      </trkpt>
      <trkpt lat="45.70192" lon="6.05602">
        <ele>1217.8</ele>
        <time>2011-06-07T08:39:47Z</time>
      </trkpt>
      <trkpt lat="45.70198" lon="6.05598">
        <ele>1218.8</ele>
        <time>2011-06-07T08:39:50Z</time>
      </trkpt>
      <trkpt lat="45.70204" lon="6.05594">
        <ele>1219.2</ele>
        <time>2011-06-07T08:39:53Z</time>
      </trkpt>
      <trkpt lat="45.70208" lon="6.0559">
        <ele>1219.9</ele>
        <time>2011-06-07T08:39:54Z</time>
      </trkpt>
      <trkpt lat="45.70211" lon="6.05585">
        <ele>1221.1</ele>
        <time>2011-06-07T08:39:56Z</time>
      </trkpt>
      <trkpt lat="45.70213" lon="6.05581">
        <ele>1221.6</ele>
        <time>2011-06-07T08:39:58Z</time>
      </trkpt>
      <trkpt lat="45.70218" lon="6.05576">
        <ele>1221.6</ele>
        <time>2011-06-07T08:40:00Z</time>
      </trkpt>
      <trkpt lat="45.70221" lon="6.05572">
        <ele>1221.4</ele>
        <time>2011-06-07T08:40:02Z</time>
      </trkpt>
      <trkpt lat="45.70224" lon="6.05565">
        <ele>1221.4</ele>
        <time>2011-06-07T08:40:04Z</time>
      </trkpt>
      <trkpt lat="45.70229" lon="6.05557">
        <ele>1221.4</ele>
        <time>2011-06-07T08:40:07Z</time>
      </trkpt>
      <trkpt lat="45.70232" lon="6.05553">
        <ele>1221.5</ele>
        <time>2011-06-07T08:40:09Z</time>
      </trkpt>
      <trkpt lat="45.70236" lon="6.05546">
        <ele>1222.5</ele>
        <time>2011-06-07T08:40:11Z</time>
      </trkpt>
      <trkpt lat="45.7024" lon="6.05539">
        <ele>1223.8</ele>
        <time>2011-06-07T08:40:14Z</time>
      </trkpt>
      <trkpt lat="45.70245" lon="6.05535">
        <ele>1224.3</ele>
        <time>2011-06-07T08:40:16Z</time>
      </trkpt>
      <trkpt lat="45.7025" lon="6.05534">
        <ele>1224</ele>
        <time>2011-06-07T08:40:18Z</time>
      </trkpt>
      <trkpt lat="45.70256" lon="6.05533">
        <ele>1224.5</ele>
        <time>2011-06-07T08:40:20Z</time>
      </trkpt>
      <trkpt lat="45.70266" lon="6.05532">
        <ele>1224.9</ele>
        <time>2011-06-07T08:40:24Z</time>
      </trkpt>
      <trkpt lat="45.7027" lon="6.05531">
        <ele>1225.3</ele>
        <time>2011-06-07T08:40:26Z</time>
      </trkpt>
      <trkpt lat="45.70278" lon="6.05529">
        <ele>1226.3</ele>
        <time>2011-06-07T08:40:29Z</time>
      </trkpt>
      <trkpt lat="45.70286" lon="6.05526">
        <ele>1225.4</ele>
        <time>2011-06-07T08:40:33Z</time>
      </trkpt>
      <trkpt lat="45.70296" lon="6.05517">
        <ele>1226</ele>
        <time>2011-06-07T08:40:37Z</time>
      </trkpt>
      <trkpt lat="45.70301" lon="6.05511">
        <ele>1227.1</ele>
        <time>2011-06-07T08:40:40Z</time>
      </trkpt>
      <trkpt lat="45.70304" lon="6.05504">
        <ele>1229.5</ele>
        <time>2011-06-07T08:40:42Z</time>
      </trkpt>
      <trkpt lat="45.70308" lon="6.05494">
        <ele>1231.7</ele>
        <time>2011-06-07T08:40:46Z</time>
      </trkpt>
      <trkpt lat="45.70307" lon="6.05486">
        <ele>1233.6</ele>
        <time>2011-06-07T08:40:48Z</time>
      </trkpt>
      <trkpt lat="45.70312" lon="6.05482">
        <ele>1233.9</ele>
        <time>2011-06-07T08:40:50Z</time>
      </trkpt>
      <trkpt lat="45.70315" lon="6.05476">
        <ele>1235.1</ele>
        <time>2011-06-07T08:40:52Z</time>
      </trkpt>
      <trkpt lat="45.70323" lon="6.05471">
        <ele>1236.2</ele>
        <time>2011-06-07T08:40:55Z</time>
      </trkpt>
      <trkpt lat="45.70337" lon="6.05464">
        <ele>1237.5</ele>
        <time>2011-06-07T08:41:01Z</time>
      </trkpt>
      <trkpt lat="45.70345" lon="6.0546">
        <ele>1237.6</ele>
        <time>2011-06-07T08:41:05Z</time>
      </trkpt>
      <trkpt lat="45.70351" lon="6.05454">
        <ele>1238.5</ele>
        <time>2011-06-07T08:41:08Z</time>
      </trkpt>
      <trkpt lat="45.70358" lon="6.05448">
        <ele>1238.6</ele>
        <time>2011-06-07T08:41:11Z</time>
      </trkpt>
      <trkpt lat="45.70366" lon="6.05441">
        <ele>1238.2</ele>
        <time>2011-06-07T08:41:15Z</time>
      </trkpt>
      <trkpt lat="45.70373" lon="6.05431">
        <ele>1239.6</ele>
        <time>2011-06-07T08:41:19Z</time>
      </trkpt>
      <trkpt lat="45.70379" lon="6.05427">
        <ele>1239.3</ele>
        <time>2011-06-07T08:41:21Z</time>
      </trkpt>
      <trkpt lat="45.70386" lon="6.05416">
        <ele>1242.8</ele>
        <time>2011-06-07T08:41:26Z</time>
      </trkpt>
      <trkpt lat="45.70395" lon="6.05408">
        <ele>1242.1</ele>
        <time>2011-06-07T08:41:30Z</time>
      </trkpt>
      <trkpt lat="45.70402" lon="6.05402">
        <ele>1241.5</ele>
        <time>2011-06-07T08:41:33Z</time>
      </trkpt>
      <trkpt lat="45.70403" lon="6.05397">
        <ele>1242.5</ele>
        <time>2011-06-07T08:41:35Z</time>
      </trkpt>
      <trkpt lat="45.70412" lon="6.05382">
        <ele>1243.5</ele>
        <time>2011-06-07T08:41:40Z</time>
      </trkpt>
      <trkpt lat="45.70416" lon="6.05373">
        <ele>1244.1</ele>
        <time>2011-06-07T08:41:43Z</time>
      </trkpt>
      <trkpt lat="45.70418" lon="6.05367">
        <ele>1244.8</ele>
        <time>2011-06-07T08:41:45Z</time>
      </trkpt>
      <trkpt lat="45.70421" lon="6.05359">
        <ele>1246.3</ele>
        <time>2011-06-07T08:41:47Z</time>
      </trkpt>
      <trkpt lat="45.70434" lon="6.05353">
        <ele>1247.1</ele>
        <time>2011-06-07T08:41:53Z</time>
      </trkpt>
      <trkpt lat="45.70445" lon="6.05346">
        <ele>1248.3</ele>
        <time>2011-06-07T08:41:58Z</time>
      </trkpt>
      <trkpt lat="45.7046" lon="6.05341">
        <ele>1247.3</ele>
        <time>2011-06-07T08:42:04Z</time>
      </trkpt>
      <trkpt lat="45.70469" lon="6.05338">
        <ele>1247</ele>
        <time>2011-06-07T08:42:08Z</time>
      </trkpt>
      <trkpt lat="45.70478" lon="6.05325">
        <ele>1247.6</ele>
        <time>2011-06-07T08:42:13Z</time>
      </trkpt>
      <trkpt lat="45.70488" lon="6.05318">
        <ele>1246.1</ele>
        <time>2011-06-07T08:42:17Z</time>
      </trkpt>
      <trkpt lat="45.70491" lon="6.05308">
        <ele>1247.8</ele>
        <time>2011-06-07T08:42:20Z</time>
      </trkpt>
      <trkpt lat="45.70494" lon="6.05298">
        <ele>1249.3</ele>
        <time>2011-06-07T08:42:23Z</time>
      </trkpt>
      <trkpt lat="45.70494" lon="6.05288">
        <ele>1251.9</ele>
        <time>2011-06-07T08:42:26Z</time>
      </trkpt>
      <trkpt lat="45.705" lon="6.05278">
        <ele>1252.8</ele>
        <time>2011-06-07T08:42:30Z</time>
      </trkpt>
      <trkpt lat="45.70505" lon="6.05271">
        <ele>1253.3</ele>
        <time>2011-06-07T08:42:32Z</time>
      </trkpt>
      <trkpt lat="45.70509" lon="6.05264">
        <ele>1254.1</ele>
        <time>2011-06-07T08:42:35Z</time>
      </trkpt>
      <trkpt lat="45.70515" lon="6.05255">
        <ele>1255.7</ele>
        <time>2011-06-07T08:42:39Z</time>
      </trkpt>
      <trkpt lat="45.70518" lon="6.05248">
        <ele>1257</ele>
        <time>2011-06-07T08:42:41Z</time>
      </trkpt>
      <trkpt lat="45.70524" lon="6.05241">
        <ele>1257.6</ele>
        <time>2011-06-07T08:42:44Z</time>
      </trkpt>
      <trkpt lat="45.70531" lon="6.05229">
        <ele>1258.1</ele>
        <time>2011-06-07T08:42:48Z</time>
      </trkpt>
      <trkpt lat="45.70536" lon="6.05218">
        <ele>1258.6</ele>
        <time>2011-06-07T08:42:52Z</time>
      </trkpt>
      <trkpt lat="45.70539" lon="6.05213">
        <ele>1258.6</ele>
        <time>2011-06-07T08:42:54Z</time>
      </trkpt>
      <trkpt lat="45.70543" lon="6.05204">
        <ele>1259.2</ele>
        <time>2011-06-07T08:42:57Z</time>
      </trkpt>
      <trkpt lat="45.70548" lon="6.05193">
        <ele>1259.8</ele>
        <time>2011-06-07T08:43:00Z</time>
      </trkpt>
      <trkpt lat="45.70551" lon="6.05184">
        <ele>1259.9</ele>
        <time>2011-06-07T08:43:03Z</time>
      </trkpt>
      <trkpt lat="45.70551" lon="6.05177">
        <ele>1260.8</ele>
        <time>2011-06-07T08:43:05Z</time>
      </trkpt>
      <trkpt lat="45.70545" lon="6.05165">
        <ele>1263.1</ele>
        <time>2011-06-07T08:43:09Z</time>
      </trkpt>
      <trkpt lat="45.70538" lon="6.05152">
        <ele>1265.5</ele>
        <time>2011-06-07T08:43:14Z</time>
      </trkpt>
      <trkpt lat="45.70541" lon="6.05146">
        <ele>1265.9</ele>
        <time>2011-06-07T08:43:16Z</time>
      </trkpt>
      <trkpt lat="45.70548" lon="6.0514">
        <ele>1265.6</ele>
        <time>2011-06-07T08:43:19Z</time>
      </trkpt>
      <trkpt lat="45.70557" lon="6.05136">
        <ele>1265.5</ele>
        <time>2011-06-07T08:43:23Z</time>
      </trkpt>
      <trkpt lat="45.7057" lon="6.05129">
        <ele>1267.3</ele>
        <time>2011-06-07T08:43:29Z</time>
      </trkpt>
      <trkpt lat="45.7058" lon="6.05121">
        <ele>1269.1</ele>
        <time>2011-06-07T08:43:33Z</time>
      </trkpt>
      <trkpt lat="45.70583" lon="6.05116">
        <ele>1270.1</ele>
        <time>2011-06-07T08:43:35Z</time>
      </trkpt>
      <trkpt lat="45.70586" lon="6.05107">
        <ele>1271.2</ele>
        <time>2011-06-07T08:43:38Z</time>
      </trkpt>
      <trkpt lat="45.70589" lon="6.05097">
        <ele>1272.5</ele>
        <time>2011-06-07T08:43:41Z</time>
      </trkpt>
      <trkpt lat="45.70593" lon="6.05084">
        <ele>1273.8</ele>
        <time>2011-06-07T08:43:45Z</time>
      </trkpt>
      <trkpt lat="45.70597" lon="6.05076">
        <ele>1274.3</ele>
        <time>2011-06-07T08:43:47Z</time>
      </trkpt>
      <trkpt lat="45.70603" lon="6.05068">
        <ele>1274.9</ele>
        <time>2011-06-07T08:43:51Z</time>
      </trkpt>
      <trkpt lat="45.70611" lon="6.05061">
        <ele>1275.7</ele>
        <time>2011-06-07T08:43:54Z</time>
      </trkpt>
      <trkpt lat="45.70621" lon="6.05051">
        <ele>1274.6</ele>
        <time>2011-06-07T08:43:59Z</time>
      </trkpt>
      <trkpt lat="45.70626" lon="6.05044">
        <ele>1273.8</ele>
        <time>2011-06-07T08:44:02Z</time>
      </trkpt>
      <trkpt lat="45.70635" lon="6.05033">
        <ele>1272.5</ele>
        <time>2011-06-07T08:44:07Z</time>
      </trkpt>
      <trkpt lat="45.70647" lon="6.05021">
        <ele>1273.9</ele>
        <time>2011-06-07T08:44:13Z</time>
      </trkpt>
      <trkpt lat="45.70654" lon="6.05016">
        <ele>1274.6</ele>
        <time>2011-06-07T08:44:16Z</time>
      </trkpt>
      <trkpt lat="45.70666" lon="6.0501">
        <ele>1274.1</ele>
        <time>2011-06-07T08:44:21Z</time>
      </trkpt>
      <trkpt lat="45.70682" lon="6.05004">
        <ele>1275.3</ele>
        <time>2011-06-07T08:44:27Z</time>
      </trkpt>
      <trkpt lat="45.70696" lon="6.04999">
        <ele>1277.1</ele>
        <time>2011-06-07T08:44:33Z</time>
      </trkpt>
      <trkpt lat="45.70709" lon="6.04989">
        <ele>1279</ele>
        <time>2011-06-07T08:44:39Z</time>
      </trkpt>
      <trkpt lat="45.70713" lon="6.04983">
        <ele>1279.9</ele>
        <time>2011-06-07T08:44:41Z</time>
      </trkpt>
      <trkpt lat="45.70721" lon="6.04969">
        <ele>1282.1</ele>
        <time>2011-06-07T08:44:47Z</time>
      </trkpt>
      <trkpt lat="45.7072" lon="6.04962">
        <ele>1282.6</ele>
        <time>2011-06-07T08:44:49Z</time>
      </trkpt>
      <trkpt lat="45.70727" lon="6.04951">
        <ele>1282.4</ele>
        <time>2011-06-07T08:44:53Z</time>
      </trkpt>
      <trkpt lat="45.70734" lon="6.04939">
        <ele>1281.7</ele>
        <time>2011-06-07T08:44:57Z</time>
      </trkpt>
      <trkpt lat="45.70737" lon="6.04932">
        <ele>1281.9</ele>
        <time>2011-06-07T08:45:00Z</time>
      </trkpt>
      <trkpt lat="45.70742" lon="6.04921">
        <ele>1281.9</ele>
        <time>2011-06-07T08:45:03Z</time>
      </trkpt>
      <trkpt lat="45.7074" lon="6.04912">
        <ele>1283.6</ele>
        <time>2011-06-07T08:45:06Z</time>
      </trkpt>
      <trkpt lat="45.70739" lon="6.04905">
        <ele>1285</ele>
        <time>2011-06-07T08:45:08Z</time>
      </trkpt>
      <trkpt lat="45.70743" lon="6.04892">
        <ele>1285.9</ele>
        <time>2011-06-07T08:45:12Z</time>
      </trkpt>
      <trkpt lat="45.70746" lon="6.04877">
        <ele>1288.6</ele>
        <time>2011-06-07T08:45:16Z</time>
      </trkpt>
      <trkpt lat="45.70751" lon="6.04866">
        <ele>1290.6</ele>
        <time>2011-06-07T08:45:20Z</time>
      </trkpt>
      <trkpt lat="45.70753" lon="6.04857">
        <ele>1291.7</ele>
        <time>2011-06-07T08:45:22Z</time>
      </trkpt>
      <trkpt lat="45.70756" lon="6.04843">
        <ele>1291.9</ele>
        <time>2011-06-07T08:45:27Z</time>
      </trkpt>
      <trkpt lat="45.70759" lon="6.04834">
        <ele>1292.4</ele>
        <time>2011-06-07T08:45:29Z</time>
      </trkpt>
      <trkpt lat="45.70762" lon="6.04826">
        <ele>1293.2</ele>
        <time>2011-06-07T08:45:32Z</time>
      </trkpt>
      <trkpt lat="45.70759" lon="6.04815">
        <ele>1294.9</ele>
        <time>2011-06-07T08:45:35Z</time>
      </trkpt>
      <trkpt lat="45.70762" lon="6.04806">
        <ele>1296.1</ele>
        <time>2011-06-07T08:45:38Z</time>
      </trkpt>
      <trkpt lat="45.70766" lon="6.04793">
        <ele>1297.2</ele>
        <time>2011-06-07T08:45:42Z</time>
      </trkpt>
      <trkpt lat="45.7077" lon="6.04785">
        <ele>1297.4</ele>
        <time>2011-06-07T08:45:44Z</time>
      </trkpt>
      <trkpt lat="45.7078" lon="6.04773">
        <ele>1297.3</ele>
        <time>2011-06-07T08:45:50Z</time>
      </trkpt>
      <trkpt lat="45.70792" lon="6.04765">
        <ele>1298.1</ele>
        <time>2011-06-07T08:45:55Z</time>
      </trkpt>
      <trkpt lat="45.70815" lon="6.04749">
        <ele>1299.2</ele>
        <time>2011-06-07T08:46:05Z</time>
      </trkpt>
      <trkpt lat="45.70819" lon="6.0474">
        <ele>1300.6</ele>
        <time>2011-06-07T08:46:08Z</time>
      </trkpt>
      <trkpt lat="45.70825" lon="6.04728">
        <ele>1302.6</ele>
        <time>2011-06-07T08:46:12Z</time>
      </trkpt>
      <trkpt lat="45.7083" lon="6.04715">
        <ele>1304.2</ele>
        <time>2011-06-07T08:46:17Z</time>
      </trkpt>
      <trkpt lat="45.70837" lon="6.04697">
        <ele>1305.3</ele>
        <time>2011-06-07T08:46:22Z</time>
      </trkpt>
      <trkpt lat="45.7084" lon="6.04687">
        <ele>1306.3</ele>
        <time>2011-06-07T08:46:25Z</time>
      </trkpt>
      <trkpt lat="45.70846" lon="6.04673">
        <ele>1307.7</ele>
        <time>2011-06-07T08:46:30Z</time>
      </trkpt>
      <trkpt lat="45.70848" lon="6.04662">
        <ele>1309</ele>
        <time>2011-06-07T08:46:33Z</time>
      </trkpt>
      <trkpt lat="45.7085" lon="6.04652">
        <ele>1309.6</ele>
        <time>2011-06-07T08:46:36Z</time>
      </trkpt>
      <trkpt lat="45.70858" lon="6.04638">
        <ele>1308.1</ele>
        <time>2011-06-07T08:46:41Z</time>
      </trkpt>
      <trkpt lat="45.70864" lon="6.04626">
        <ele>1309.2</ele>
        <time>2011-06-07T08:46:45Z</time>
      </trkpt>
      <trkpt lat="45.70871" lon="6.04609">
        <ele>1311.1</ele>
        <time>2011-06-07T08:46:51Z</time>
      </trkpt>
      <trkpt lat="45.70881" lon="6.04593">
        <ele>1312.5</ele>
        <time>2011-06-07T08:46:57Z</time>
      </trkpt>
      <trkpt lat="45.70893" lon="6.04574">
        <ele>1314.7</ele>
        <time>2011-06-07T08:47:04Z</time>
      </trkpt>
      <trkpt lat="45.709" lon="6.04561">
        <ele>1316.8</ele>
        <time>2011-06-07T08:47:08Z</time>
      </trkpt>
      <trkpt lat="45.70908" lon="6.04549">
        <ele>1317.7</ele>
        <time>2011-06-07T08:47:13Z</time>
      </trkpt>
      <trkpt lat="45.70914" lon="6.04536">
        <ele>1318.4</ele>
        <time>2011-06-07T08:47:17Z</time>
      </trkpt>
      <trkpt lat="45.70923" lon="6.04525">
        <ele>1318.7</ele>
        <time>2011-06-07T08:47:22Z</time>
      </trkpt>
      <trkpt lat="45.70931" lon="6.04513">
        <ele>1319.3</ele>
        <time>2011-06-07T08:47:27Z</time>
      </trkpt>
      <trkpt lat="45.70929" lon="6.04506">
        <ele>1320.5</ele>
        <time>2011-06-07T08:47:29Z</time>
      </trkpt>
      <trkpt lat="45.7095" lon="6.04491">
        <ele>1319.8</ele>
        <time>2011-06-07T08:47:38Z</time>
      </trkpt>
      <trkpt lat="45.70958" lon="6.04486">
        <ele>1320.5</ele>
        <time>2011-06-07T08:47:41Z</time>
      </trkpt>
      <trkpt lat="45.70962" lon="6.04483">
        <ele>1320.8</ele>
        <time>2011-06-07T08:47:43Z</time>
      </trkpt>
      <trkpt lat="45.70965" lon="6.04478">
        <ele>1321.5</ele>
        <time>2011-06-07T08:47:45Z</time>
      </trkpt>
      <trkpt lat="45.70968" lon="6.04475">
        <ele>1321.8</ele>
        <time>2011-06-07T08:47:47Z</time>
      </trkpt>
      <trkpt lat="45.70969" lon="6.04469">
        <ele>1322.6</ele>
        <time>2011-06-07T08:47:49Z</time>
      </trkpt>
      <trkpt lat="45.7097" lon="6.04465">
        <ele>1322.7</ele>
        <time>2011-06-07T08:47:50Z</time>
      </trkpt>
      <trkpt lat="45.70972" lon="6.04458">
        <ele>1323.1</ele>
        <time>2011-06-07T08:47:52Z</time>
      </trkpt>
      <trkpt lat="45.70974" lon="6.04452">
        <ele>1323.3</ele>
        <time>2011-06-07T08:47:54Z</time>
      </trkpt>
      <trkpt lat="45.70977" lon="6.04447">
        <ele>1323.6</ele>
        <time>2011-06-07T08:47:55Z</time>
      </trkpt>
      <trkpt lat="45.70979" lon="6.04443">
        <ele>1324</ele>
        <time>2011-06-07T08:47:57Z</time>
      </trkpt>
      <trkpt lat="45.70981" lon="6.04436">
        <ele>1324.7</ele>
        <time>2011-06-07T08:47:59Z</time>
      </trkpt>
      <trkpt lat="45.70982" lon="6.04432">
        <ele>1325.2</ele>
        <time>2011-06-07T08:48:00Z</time>
      </trkpt>
      <trkpt lat="45.70984" lon="6.04429">
        <ele>1325.5</ele>
        <time>2011-06-07T08:48:02Z</time>
      </trkpt>
      <trkpt lat="45.70993" lon="6.04421">
        <ele>1326.4</ele>
        <time>2011-06-07T08:48:05Z</time>
      </trkpt>
      <trkpt lat="45.71" lon="6.04417">
        <ele>1326.9</ele>
        <time>2011-06-07T08:48:09Z</time>
      </trkpt>
      <trkpt lat="45.71009" lon="6.04412">
        <ele>1327.2</ele>
        <time>2011-06-07T08:48:12Z</time>
      </trkpt>
      <trkpt lat="45.71014" lon="6.04408">
        <ele>1327.8</ele>
        <time>2011-06-07T08:48:15Z</time>
      </trkpt>
      <trkpt lat="45.71021" lon="6.04403">
        <ele>1328.7</ele>
        <time>2011-06-07T08:48:18Z</time>
      </trkpt>
      <trkpt lat="45.71027" lon="6.04399">
        <ele>1329.6</ele>
        <time>2011-06-07T08:48:21Z</time>
      </trkpt>
      <trkpt lat="45.71034" lon="6.04392">
        <ele>1330</ele>
        <time>2011-06-07T08:48:24Z</time>
      </trkpt>
      <trkpt lat="45.71037" lon="6.04387">
        <ele>1330.4</ele>
        <time>2011-06-07T08:48:26Z</time>
      </trkpt>
      <trkpt lat="45.71043" lon="6.04377">
        <ele>1330.4</ele>
        <time>2011-06-07T08:48:29Z</time>
      </trkpt>
      <trkpt lat="45.71045" lon="6.04371">
        <ele>1330.9</ele>
        <time>2011-06-07T08:48:31Z</time>
      </trkpt>
      <trkpt lat="45.71046" lon="6.04365">
        <ele>1331.4</ele>
        <time>2011-06-07T08:48:33Z</time>
      </trkpt>
      <trkpt lat="45.71048" lon="6.04355">
        <ele>1332.2</ele>
        <time>2011-06-07T08:48:36Z</time>
      </trkpt>
      <trkpt lat="45.71049" lon="6.04352">
        <ele>1332.5</ele>
        <time>2011-06-07T08:48:37Z</time>
      </trkpt>
      <trkpt lat="45.71049" lon="6.04347">
        <ele>1333</ele>
        <time>2011-06-07T08:48:38Z</time>
      </trkpt>
      <trkpt lat="45.71051" lon="6.0434">
        <ele>1333.3</ele>
        <time>2011-06-07T08:48:40Z</time>
      </trkpt>
      <trkpt lat="45.71055" lon="6.0433">
        <ele>1333.1</ele>
        <time>2011-06-07T08:48:43Z</time>
      </trkpt>
      <trkpt lat="45.71059" lon="6.04326">
        <ele>1332.2</ele>
        <time>2011-06-07T08:48:46Z</time>
      </trkpt>
      <trkpt lat="45.71059" lon="6.0432">
        <ele>1332</ele>
        <time>2011-06-07T08:48:47Z</time>
      </trkpt>
      <trkpt lat="45.71052" lon="6.04319">
        <ele>1333.9</ele>
        <time>2011-06-07T08:48:50Z</time>
      </trkpt>
      <trkpt lat="45.71045" lon="6.04324">
        <ele>1335.7</ele>
        <time>2011-06-07T08:48:53Z</time>
      </trkpt>
      <trkpt lat="45.71041" lon="6.0433">
        <ele>1336.4</ele>
        <time>2011-06-07T08:48:56Z</time>
      </trkpt>
      <trkpt lat="45.71038" lon="6.04337">
        <ele>1336.4</ele>
        <time>2011-06-07T08:48:58Z</time>
      </trkpt>
      <trkpt lat="45.71038" lon="6.04343">
        <ele>1335.9</ele>
        <time>2011-06-07T08:48:59Z</time>
      </trkpt>
      <trkpt lat="45.71036" lon="6.0435">
        <ele>1335.4</ele>
        <time>2011-06-07T08:49:02Z</time>
      </trkpt>
      <trkpt lat="45.71033" lon="6.04356">
        <ele>1335.4</ele>
        <time>2011-06-07T08:49:03Z</time>
      </trkpt>
      <trkpt lat="45.71029" lon="6.0436">
        <ele>1335.7</ele>
        <time>2011-06-07T08:49:05Z</time>
      </trkpt>
      <trkpt lat="45.71025" lon="6.04364">
        <ele>1335.8</ele>
        <time>2011-06-07T08:49:08Z</time>
      </trkpt>
      <trkpt lat="45.7102" lon="6.04366">
        <ele>1335.7</ele>
        <time>2011-06-07T08:49:10Z</time>
      </trkpt>
      <trkpt lat="45.71012" lon="6.04367">
        <ele>1335.9</ele>
        <time>2011-06-07T08:49:13Z</time>
      </trkpt>
      <trkpt lat="45.71005" lon="6.04366">
        <ele>1336.8</ele>
        <time>2011-06-07T08:49:16Z</time>
      </trkpt>
      <trkpt lat="45.70999" lon="6.04365">
        <ele>1337.1</ele>
        <time>2011-06-07T08:49:18Z</time>
      </trkpt>
      <trkpt lat="45.70994" lon="6.04363">
        <ele>1337.4</ele>
        <time>2011-06-07T08:49:20Z</time>
      </trkpt>
      <trkpt lat="45.7099" lon="6.0436">
        <ele>1337.7</ele>
        <time>2011-06-07T08:49:22Z</time>
      </trkpt>
      <trkpt lat="45.70988" lon="6.04354">
        <ele>1338.3</ele>
        <time>2011-06-07T08:49:24Z</time>
      </trkpt>
      <trkpt lat="45.70988" lon="6.04347">
        <ele>1339</ele>
        <time>2011-06-07T08:49:26Z</time>
      </trkpt>
      <trkpt lat="45.70991" lon="6.04342">
        <ele>1339.5</ele>
        <time>2011-06-07T08:49:27Z</time>
      </trkpt>
      <trkpt lat="45.70993" lon="6.04337">
        <ele>1339.9</ele>
        <time>2011-06-07T08:49:29Z</time>
      </trkpt>
      <trkpt lat="45.70999" lon="6.0433">
        <ele>1340.5</ele>
        <time>2011-06-07T08:49:32Z</time>
      </trkpt>
      <trkpt lat="45.71004" lon="6.04325">
        <ele>1341</ele>
        <time>2011-06-07T08:49:35Z</time>
      </trkpt>
      <trkpt lat="45.71008" lon="6.04319">
        <ele>1341.6</ele>
        <time>2011-06-07T08:49:37Z</time>
      </trkpt>
      <trkpt lat="45.71012" lon="6.04313">
        <ele>1342.2</ele>
        <time>2011-06-07T08:49:39Z</time>
      </trkpt>
      <trkpt lat="45.71013" lon="6.0431">
        <ele>1342.5</ele>
        <time>2011-06-07T08:49:40Z</time>
      </trkpt>
      <trkpt lat="45.71017" lon="6.04302">
        <ele>1343.2</ele>
        <time>2011-06-07T08:49:43Z</time>
      </trkpt>
      <trkpt lat="45.71023" lon="6.04297">
        <ele>1343.3</ele>
        <time>2011-06-07T08:49:46Z</time>
      </trkpt>
      <trkpt lat="45.71027" lon="6.04292">
        <ele>1343.5</ele>
        <time>2011-06-07T08:49:48Z</time>
      </trkpt>
      <trkpt lat="45.71028" lon="6.04285">
        <ele>1344.3</ele>
        <time>2011-06-07T08:49:50Z</time>
      </trkpt>
      <trkpt lat="45.71027" lon="6.04279">
        <ele>1345</ele>
        <time>2011-06-07T08:49:52Z</time>
      </trkpt>
      <trkpt lat="45.71026" lon="6.04274">
        <ele>1345.4</ele>
        <time>2011-06-07T08:49:53Z</time>
      </trkpt>
      <trkpt lat="45.71024" lon="6.04266">
        <ele>1346.2</ele>
        <time>2011-06-07T08:49:55Z</time>
      </trkpt>
      <trkpt lat="45.71017" lon="6.04262">
        <ele>1347.1</ele>
        <time>2011-06-07T08:49:58Z</time>
      </trkpt>
      <trkpt lat="45.71009" lon="6.04262">
        <ele>1347.8</ele>
        <time>2011-06-07T08:50:02Z</time>
      </trkpt>
      <trkpt lat="45.71004" lon="6.0426">
        <ele>1348.5</ele>
        <time>2011-06-07T08:50:04Z</time>
      </trkpt>
      <trkpt lat="45.70995" lon="6.0426">
        <ele>1349.7</ele>
        <time>2011-06-07T08:50:07Z</time>
      </trkpt>
      <trkpt lat="45.70987" lon="6.04261">
        <ele>1350.8</ele>
        <time>2011-06-07T08:50:11Z</time>
      </trkpt>
      <trkpt lat="45.70976" lon="6.04263">
        <ele>1352.4</ele>
        <time>2011-06-07T08:50:15Z</time>
      </trkpt>
      <trkpt lat="45.70968" lon="6.04264">
        <ele>1353.5</ele>
        <time>2011-06-07T08:50:18Z</time>
      </trkpt>
      <trkpt lat="45.70958" lon="6.04263">
        <ele>1354.5</ele>
        <time>2011-06-07T08:50:22Z</time>
      </trkpt>
      <trkpt lat="45.70951" lon="6.0426">
        <ele>1355.3</ele>
        <time>2011-06-07T08:50:25Z</time>
      </trkpt>
      <trkpt lat="45.70946" lon="6.04257">
        <ele>1355.8</ele>
        <time>2011-06-07T08:50:27Z</time>
      </trkpt>
      <trkpt lat="45.70941" lon="6.04254">
        <ele>1356.1</ele>
        <time>2011-06-07T08:50:30Z</time>
      </trkpt>
      <trkpt lat="45.70939" lon="6.04251">
        <ele>1356.2</ele>
        <time>2011-06-07T08:50:31Z</time>
      </trkpt>
      <trkpt lat="45.70937" lon="6.04244">
        <ele>1356.4</ele>
        <time>2011-06-07T08:50:33Z</time>
      </trkpt>
      <trkpt lat="45.7094" lon="6.04236">
        <ele>1356.8</ele>
        <time>2011-06-07T08:50:35Z</time>
      </trkpt>
      <trkpt lat="45.70943" lon="6.04231">
        <ele>1357.2</ele>
        <time>2011-06-07T08:50:37Z</time>
      </trkpt>
      <trkpt lat="45.70944" lon="6.04224">
        <ele>1357.9</ele>
        <time>2011-06-07T08:50:39Z</time>
      </trkpt>
      <trkpt lat="45.70946" lon="6.04216">
        <ele>1358</ele>
        <time>2011-06-07T08:50:42Z</time>
      </trkpt>
      <trkpt lat="45.70947" lon="6.04211">
        <ele>1358</ele>
        <time>2011-06-07T08:50:43Z</time>
      </trkpt>
      <trkpt lat="45.70947" lon="6.04204">
        <ele>1358</ele>
        <time>2011-06-07T08:50:45Z</time>
      </trkpt>
      <trkpt lat="45.70948" lon="6.042">
        <ele>1358</ele>
        <time>2011-06-07T08:50:46Z</time>
      </trkpt>
      <trkpt lat="45.70944" lon="6.04196">
        <ele>1358</ele>
        <time>2011-06-07T08:50:48Z</time>
      </trkpt>
      <trkpt lat="45.70937" lon="6.04191">
        <ele>1357.5</ele>
        <time>2011-06-07T08:50:51Z</time>
      </trkpt>
      <trkpt lat="45.70931" lon="6.04188">
        <ele>1357.6</ele>
        <time>2011-06-07T08:50:54Z</time>
      </trkpt>
      <trkpt lat="45.70927" lon="6.04183">
        <ele>1358.2</ele>
        <time>2011-06-07T08:50:56Z</time>
      </trkpt>
      <trkpt lat="45.70929" lon="6.04175">
        <ele>1359.1</ele>
        <time>2011-06-07T08:50:58Z</time>
      </trkpt>
      <trkpt lat="45.7093" lon="6.04167">
        <ele>1359.6</ele>
        <time>2011-06-07T08:51:01Z</time>
      </trkpt>
      <trkpt lat="45.70933" lon="6.04162">
        <ele>1359.8</ele>
        <time>2011-06-07T08:51:02Z</time>
      </trkpt>
      <trkpt lat="45.70941" lon="6.0415">
        <ele>1360.3</ele>
        <time>2011-06-07T08:51:07Z</time>
      </trkpt>
      <trkpt lat="45.70944" lon="6.0414">
        <ele>1361.9</ele>
        <time>2011-06-07T08:51:10Z</time>
      </trkpt>
      <trkpt lat="45.70946" lon="6.04134">
        <ele>1362.1</ele>
        <time>2011-06-07T08:51:12Z</time>
      </trkpt>
      <trkpt lat="45.70947" lon="6.04128">
        <ele>1362.5</ele>
        <time>2011-06-07T08:51:14Z</time>
      </trkpt>
      <trkpt lat="45.70948" lon="6.04121">
        <ele>1363.1</ele>
        <time>2011-06-07T08:51:16Z</time>
      </trkpt>
      <trkpt lat="45.70949" lon="6.04114">
        <ele>1363.6</ele>
        <time>2011-06-07T08:51:18Z</time>
      </trkpt>
      <trkpt lat="45.70946" lon="6.04104">
        <ele>1364.5</ele>
        <time>2011-06-07T08:51:21Z</time>
      </trkpt>
      <trkpt lat="45.70944" lon="6.04102">
        <ele>1364.7</ele>
        <time>2011-06-07T08:51:22Z</time>
      </trkpt>
      <trkpt lat="45.70938" lon="6.04095">
        <ele>1365.2</ele>
        <time>2011-06-07T08:51:25Z</time>
      </trkpt>
      <trkpt lat="45.70934" lon="6.0409">
        <ele>1365.4</ele>
        <time>2011-06-07T08:51:27Z</time>
      </trkpt>
      <trkpt lat="45.70929" lon="6.04084">
        <ele>1365.4</ele>
        <time>2011-06-07T08:51:29Z</time>
      </trkpt>
      <trkpt lat="45.70928" lon="6.04073">
        <ele>1366.1</ele>
        <time>2011-06-07T08:51:32Z</time>
      </trkpt>
      <trkpt lat="45.70929" lon="6.04063">
        <ele>1366.9</ele>
        <time>2011-06-07T08:51:35Z</time>
      </trkpt>
      <trkpt lat="45.70931" lon="6.04057">
        <ele>1367.4</ele>
        <time>2011-06-07T08:51:37Z</time>
      </trkpt>
      <trkpt lat="45.70934" lon="6.04048">
        <ele>1368</ele>
        <time>2011-06-07T08:51:40Z</time>
      </trkpt>
      <trkpt lat="45.70935" lon="6.04038">
        <ele>1368.3</ele>
        <time>2011-06-07T08:51:43Z</time>
      </trkpt>
      <trkpt lat="45.70937" lon="6.04029">
        <ele>1368.2</ele>
        <time>2011-06-07T08:51:46Z</time>
      </trkpt>
      <trkpt lat="45.70939" lon="6.04022">
        <ele>1368.3</ele>
        <time>2011-06-07T08:51:48Z</time>
      </trkpt>
      <trkpt lat="45.7094" lon="6.04014">
        <ele>1368.3</ele>
        <time>2011-06-07T08:51:50Z</time>
      </trkpt>
      <trkpt lat="45.70944" lon="6.04002">
        <ele>1368.1</ele>
        <time>2011-06-07T08:51:53Z</time>
      </trkpt>
      <trkpt lat="45.70945" lon="6.03991">
        <ele>1368.8</ele>
        <time>2011-06-07T08:51:57Z</time>
      </trkpt>
      <trkpt lat="45.70946" lon="6.03986">
        <ele>1369.4</ele>
        <time>2011-06-07T08:51:58Z</time>
      </trkpt>
      <trkpt lat="45.70949" lon="6.03974">
        <ele>1370.6</ele>
        <time>2011-06-07T08:52:02Z</time>
      </trkpt>
      <trkpt lat="45.70951" lon="6.03967">
        <ele>1370.8</ele>
        <time>2011-06-07T08:52:04Z</time>
      </trkpt>
      <trkpt lat="45.70952" lon="6.03956">
        <ele>1370.5</ele>
        <time>2011-06-07T08:52:07Z</time>
      </trkpt>
      <trkpt lat="45.70952" lon="6.03947">
        <ele>1370.1</ele>
        <time>2011-06-07T08:52:09Z</time>
      </trkpt>
      <trkpt lat="45.70951" lon="6.0394">
        <ele>1369.9</ele>
        <time>2011-06-07T08:52:11Z</time>
      </trkpt>
      <trkpt lat="45.70955" lon="6.03926">
        <ele>1369.9</ele>
        <time>2011-06-07T08:52:16Z</time>
      </trkpt>
      <trkpt lat="45.70955" lon="6.03916">
        <ele>1369.6</ele>
        <time>2011-06-07T08:52:18Z</time>
      </trkpt>
      <trkpt lat="45.70956" lon="6.03907">
        <ele>1369.5</ele>
        <time>2011-06-07T08:52:21Z</time>
      </trkpt>
      <trkpt lat="45.70956" lon="6.03898">
        <ele>1369.4</ele>
        <time>2011-06-07T08:52:24Z</time>
      </trkpt>
      <trkpt lat="45.70957" lon="6.03889">
        <ele>1369.3</ele>
        <time>2011-06-07T08:52:26Z</time>
      </trkpt>
      <trkpt lat="45.70955" lon="6.03879">
        <ele>1370</ele>
        <time>2011-06-07T08:52:29Z</time>
      </trkpt>
      <trkpt lat="45.70953" lon="6.03873">
        <ele>1370.4</ele>
        <time>2011-06-07T08:52:31Z</time>
      </trkpt>
      <trkpt lat="45.70949" lon="6.03868">
        <ele>1370.6</ele>
        <time>2011-06-07T08:52:33Z</time>
      </trkpt>
      <trkpt lat="45.70945" lon="6.03863">
        <ele>1370.8</ele>
        <time>2011-06-07T08:52:35Z</time>
      </trkpt>
      <trkpt lat="45.70938" lon="6.03861">
        <ele>1371.5</ele>
        <time>2011-06-07T08:52:38Z</time>
      </trkpt>
      <trkpt lat="45.70932" lon="6.0386">
        <ele>1372</ele>
        <time>2011-06-07T08:52:40Z</time>
      </trkpt>
      <trkpt lat="45.70928" lon="6.03867">
        <ele>1371.8</ele>
        <time>2011-06-07T08:52:43Z</time>
      </trkpt>
      <trkpt lat="45.70922" lon="6.03876">
        <ele>1371.9</ele>
        <time>2011-06-07T08:52:46Z</time>
      </trkpt>
      <trkpt lat="45.70914" lon="6.03883">
        <ele>1372.3</ele>
        <time>2011-06-07T08:52:50Z</time>
      </trkpt>
      <trkpt lat="45.70908" lon="6.03884">
        <ele>1372.3</ele>
        <time>2011-06-07T08:52:52Z</time>
      </trkpt>
      <trkpt lat="45.70903" lon="6.03887">
        <ele>1372.2</ele>
        <time>2011-06-07T08:52:55Z</time>
      </trkpt>
      <trkpt lat="45.70897" lon="6.03887">
        <ele>1372.3</ele>
        <time>2011-06-07T08:52:57Z</time>
      </trkpt>
      <trkpt lat="45.70893" lon="6.03887">
        <ele>1372.2</ele>
        <time>2011-06-07T08:52:59Z</time>
      </trkpt>
      <trkpt lat="45.70888" lon="6.03893">
        <ele>1372.1</ele>
        <time>2011-06-07T08:53:01Z</time>
      </trkpt>
      <trkpt lat="45.70883" lon="6.039">
        <ele>1372</ele>
        <time>2011-06-07T08:53:04Z</time>
      </trkpt>
      <trkpt lat="45.70879" lon="6.03906">
        <ele>1371.6</ele>
        <time>2011-06-07T08:53:06Z</time>
      </trkpt>
      <trkpt lat="45.70874" lon="6.03913">
        <ele>1370.8</ele>
        <time>2011-06-07T08:53:09Z</time>
      </trkpt>
      <trkpt lat="45.70871" lon="6.03924">
        <ele>1370</ele>
        <time>2011-06-07T08:53:12Z</time>
      </trkpt>
      <trkpt lat="45.70867" lon="6.03931">
        <ele>1369.1</ele>
        <time>2011-06-07T08:53:15Z</time>
      </trkpt>
      <trkpt lat="45.70863" lon="6.03935">
        <ele>1368</ele>
        <time>2011-06-07T08:53:17Z</time>
      </trkpt>
      <trkpt lat="45.70856" lon="6.03939">
        <ele>1367.2</ele>
        <time>2011-06-07T08:53:20Z</time>
      </trkpt>
      <trkpt lat="45.7085" lon="6.0394">
        <ele>1366.8</ele>
        <time>2011-06-07T08:53:22Z</time>
      </trkpt>
      <trkpt lat="45.70844" lon="6.0394">
        <ele>1366.4</ele>
        <time>2011-06-07T08:53:25Z</time>
      </trkpt>
      <trkpt lat="45.70835" lon="6.0394">
        <ele>1365.9</ele>
        <time>2011-06-07T08:53:28Z</time>
      </trkpt>
      <trkpt lat="45.7083" lon="6.03939">
        <ele>1366</ele>
        <time>2011-06-07T08:53:30Z</time>
      </trkpt>
      <trkpt lat="45.70826" lon="6.03937">
        <ele>1366.3</ele>
        <time>2011-06-07T08:53:32Z</time>
      </trkpt>
      <trkpt lat="45.70823" lon="6.03933">
        <ele>1366.7</ele>
        <time>2011-06-07T08:53:33Z</time>
      </trkpt>
      <trkpt lat="45.7082" lon="6.03928">
        <ele>1367</ele>
        <time>2011-06-07T08:53:35Z</time>
      </trkpt>
      <trkpt lat="45.70815" lon="6.03921">
        <ele>1367.1</ele>
        <time>2011-06-07T08:53:38Z</time>
      </trkpt>
      <trkpt lat="45.7081" lon="6.03914">
        <ele>1366.4</ele>
        <time>2011-06-07T08:53:41Z</time>
      </trkpt>
      <trkpt lat="45.70808" lon="6.03912">
        <ele>1366</ele>
        <time>2011-06-07T08:53:42Z</time>
      </trkpt>
      <trkpt lat="45.70805" lon="6.03904">
        <ele>1364.7</ele>
        <time>2011-06-07T08:53:44Z</time>
      </trkpt>
      <trkpt lat="45.70801" lon="6.03897">
        <ele>1364.3</ele>
        <time>2011-06-07T08:53:47Z</time>
      </trkpt>
      <trkpt lat="45.70798" lon="6.03889">
        <ele>1363.8</ele>
        <time>2011-06-07T08:53:49Z</time>
      </trkpt>
      <trkpt lat="45.70797" lon="6.03885">
        <ele>1364</ele>
        <time>2011-06-07T08:53:51Z</time>
      </trkpt>
      <trkpt lat="45.70795" lon="6.03872">
        <ele>1364.5</ele>
        <time>2011-06-07T08:53:54Z</time>
      </trkpt>
      <trkpt lat="45.7079" lon="6.03861">
        <ele>1365.1</ele>
        <time>2011-06-07T08:53:58Z</time>
      </trkpt>
      <trkpt lat="45.70787" lon="6.03856">
        <ele>1365.4</ele>
        <time>2011-06-07T08:54:00Z</time>
      </trkpt>
      <trkpt lat="45.70783" lon="6.03849">
        <ele>1365.7</ele>
        <time>2011-06-07T08:54:02Z</time>
      </trkpt>
      <trkpt lat="45.7078" lon="6.03841">
        <ele>1365.9</ele>
        <time>2011-06-07T08:54:05Z</time>
      </trkpt>
      <trkpt lat="45.70774" lon="6.03833">
        <ele>1366.6</ele>
        <time>2011-06-07T08:54:08Z</time>
      </trkpt>
      <trkpt lat="45.70771" lon="6.03829">
        <ele>1367.2</ele>
        <time>2011-06-07T08:54:10Z</time>
      </trkpt>
      <trkpt lat="45.70769" lon="6.0382">
        <ele>1367.8</ele>
        <time>2011-06-07T08:54:13Z</time>
      </trkpt>
      <trkpt lat="45.70763" lon="6.03811">
        <ele>1368.5</ele>
        <time>2011-06-07T08:54:16Z</time>
      </trkpt>
      <trkpt lat="45.70762" lon="6.0381">
        <ele>1368.5</ele>
        <time>2011-06-07T08:54:16Z</time>
      </trkpt>
      <trkpt lat="45.70756" lon="6.03801">
        <ele>1369.2</ele>
        <time>2011-06-07T08:54:20Z</time>
      </trkpt>
      <trkpt lat="45.7075" lon="6.03794">
        <ele>1370.2</ele>
        <time>2011-06-07T08:54:23Z</time>
      </trkpt>
      <trkpt lat="45.70748" lon="6.03792">
        <ele>1370.7</ele>
        <time>2011-06-07T08:54:24Z</time>
      </trkpt>
      <trkpt lat="45.70744" lon="6.0379">
        <ele>1371.1</ele>
        <time>2011-06-07T08:54:26Z</time>
      </trkpt>
      <trkpt lat="45.70739" lon="6.03783">
        <ele>1372</ele>
        <time>2011-06-07T08:54:28Z</time>
      </trkpt>
      <trkpt lat="45.70735" lon="6.03781">
        <ele>1372.4</ele>
        <time>2011-06-07T08:54:30Z</time>
      </trkpt>
      <trkpt lat="45.7073" lon="6.0378">
        <ele>1372.6</ele>
        <time>2011-06-07T08:54:32Z</time>
      </trkpt>
      <trkpt lat="45.70725" lon="6.03779">
        <ele>1372.8</ele>
        <time>2011-06-07T08:54:34Z</time>
      </trkpt>
      <trkpt lat="45.70719" lon="6.03777">
        <ele>1373.1</ele>
        <time>2011-06-07T08:54:37Z</time>
      </trkpt>
      <trkpt lat="45.70717" lon="6.03773">
        <ele>1373.4</ele>
        <time>2011-06-07T08:54:38Z</time>
      </trkpt>
      <trkpt lat="45.70714" lon="6.0377">
        <ele>1373.6</ele>
        <time>2011-06-07T08:54:39Z</time>
      </trkpt>
      <trkpt lat="45.7071" lon="6.03768">
        <ele>1373.8</ele>
        <time>2011-06-07T08:54:41Z</time>
      </trkpt>
      <trkpt lat="45.70704" lon="6.03769">
        <ele>1373.9</ele>
        <time>2011-06-07T08:54:44Z</time>
      </trkpt>
      <trkpt lat="45.707" lon="6.03766">
        <ele>1374.1</ele>
        <time>2011-06-07T08:54:45Z</time>
      </trkpt>
      <trkpt lat="45.70696" lon="6.03766">
        <ele>1374.3</ele>
        <time>2011-06-07T08:54:47Z</time>
      </trkpt>
      <trkpt lat="45.70689" lon="6.03767">
        <ele>1374.2</ele>
        <time>2011-06-07T08:54:50Z</time>
      </trkpt>
      <trkpt lat="45.70686" lon="6.03765">
        <ele>1374.4</ele>
        <time>2011-06-07T08:54:51Z</time>
      </trkpt>
      <trkpt lat="45.70684" lon="6.03764">
        <ele>1374.4</ele>
        <time>2011-06-07T08:54:52Z</time>
      </trkpt>
      <trkpt lat="45.70678" lon="6.03765">
        <ele>1374.4</ele>
        <time>2011-06-07T08:54:54Z</time>
      </trkpt>
      <trkpt lat="45.70671" lon="6.03766">
        <ele>1374.3</ele>
        <time>2011-06-07T08:54:57Z</time>
      </trkpt>
      <trkpt lat="45.70665" lon="6.03769">
        <ele>1373.9</ele>
        <time>2011-06-07T08:54:59Z</time>
      </trkpt>
      <trkpt lat="45.70658" lon="6.03771">
        <ele>1373.4</ele>
        <time>2011-06-07T08:55:02Z</time>
      </trkpt>
      <trkpt lat="45.70655" lon="6.03773">
        <ele>1373.2</ele>
        <time>2011-06-07T08:55:04Z</time>
      </trkpt>
      <trkpt lat="45.7065" lon="6.03775">
        <ele>1372.7</ele>
        <time>2011-06-07T08:55:06Z</time>
      </trkpt>
      <trkpt lat="45.70648" lon="6.03776">
        <ele>1372.6</ele>
        <time>2011-06-07T08:55:06Z</time>
      </trkpt>
      <trkpt lat="45.70644" lon="6.03778">
        <ele>1372.2</ele>
        <time>2011-06-07T08:55:08Z</time>
      </trkpt>
      <trkpt lat="45.70637" lon="6.03783">
        <ele>1371.5</ele>
        <time>2011-06-07T08:55:11Z</time>
      </trkpt>
      <trkpt lat="45.70628" lon="6.03789">
        <ele>1370.6</ele>
        <time>2011-06-07T08:55:15Z</time>
      </trkpt>
      <trkpt lat="45.70627" lon="6.0379">
        <ele>1370.5</ele>
        <time>2011-06-07T08:55:16Z</time>
      </trkpt>
      <trkpt lat="45.70621" lon="6.03796">
        <ele>1369.6</ele>
        <time>2011-06-07T08:55:19Z</time>
      </trkpt>
      <trkpt lat="45.70616" lon="6.03804">
        <ele>1368.5</ele>
        <time>2011-06-07T08:55:22Z</time>
      </trkpt>
      <trkpt lat="45.70609" lon="6.0381">
        <ele>1367.6</ele>
        <time>2011-06-07T08:55:25Z</time>
      </trkpt>
      <trkpt lat="45.70607" lon="6.03813">
        <ele>1367.4</ele>
        <time>2011-06-07T08:55:26Z</time>
      </trkpt>
      <trkpt lat="45.70603" lon="6.03817">
        <ele>1367</ele>
        <time>2011-06-07T08:55:29Z</time>
      </trkpt>
      <trkpt lat="45.70597" lon="6.03822">
        <ele>1366.6</ele>
        <time>2011-06-07T08:55:31Z</time>
      </trkpt>
      <trkpt lat="45.70594" lon="6.03829">
        <ele>1366.2</ele>
        <time>2011-06-07T08:55:33Z</time>
      </trkpt>
      <trkpt lat="45.70591" lon="6.03832">
        <ele>1366.1</ele>
        <time>2011-06-07T08:55:35Z</time>
      </trkpt>
      <trkpt lat="45.70585" lon="6.03837">
        <ele>1365.6</ele>
        <time>2011-06-07T08:55:38Z</time>
      </trkpt>
      <trkpt lat="45.7058" lon="6.03843">
        <ele>1364.8</ele>
        <time>2011-06-07T08:55:40Z</time>
      </trkpt>
      <trkpt lat="45.70574" lon="6.0385">
        <ele>1364</ele>
        <time>2011-06-07T08:55:43Z</time>
      </trkpt>
      <trkpt lat="45.70568" lon="6.03854">
        <ele>1363.5</ele>
        <time>2011-06-07T08:55:46Z</time>
      </trkpt>
      <trkpt lat="45.7056" lon="6.0386">
        <ele>1363</ele>
        <time>2011-06-07T08:55:49Z</time>
      </trkpt>
      <trkpt lat="45.70555" lon="6.03864">
        <ele>1362.8</ele>
        <time>2011-06-07T08:55:52Z</time>
      </trkpt>
      <trkpt lat="45.70552" lon="6.03865">
        <ele>1362.3</ele>
        <time>2011-06-07T08:55:53Z</time>
      </trkpt>
      <trkpt lat="45.70545" lon="6.0387">
        <ele>1361.3</ele>
        <time>2011-06-07T08:55:56Z</time>
      </trkpt>
      <trkpt lat="45.7054" lon="6.03874">
        <ele>1360.7</ele>
        <time>2011-06-07T08:55:58Z</time>
      </trkpt>
      <trkpt lat="45.70537" lon="6.03877">
        <ele>1360.2</ele>
        <time>2011-06-07T08:56:00Z</time>
      </trkpt>
      <trkpt lat="45.70535" lon="6.03882">
        <ele>1359.8</ele>
        <time>2011-06-07T08:56:02Z</time>
      </trkpt>
      <trkpt lat="45.70534" lon="6.03883">
        <ele>1359.7</ele>
        <time>2011-06-07T08:56:02Z</time>
      </trkpt>
      <trkpt lat="45.70529" lon="6.03897">
        <ele>1359.1</ele>
        <time>2011-06-07T08:56:06Z</time>
      </trkpt>
      <trkpt lat="45.70527" lon="6.03903">
        <ele>1359</ele>
        <time>2011-06-07T08:56:08Z</time>
      </trkpt>
      <trkpt lat="45.70525" lon="6.0391">
        <ele>1358.8</ele>
        <time>2011-06-07T08:56:10Z</time>
      </trkpt>
      <trkpt lat="45.70524" lon="6.0392">
        <ele>1358.8</ele>
        <time>2011-06-07T08:56:13Z</time>
      </trkpt>
      <trkpt lat="45.70527" lon="6.03924">
        <ele>1359.2</ele>
        <time>2011-06-07T08:56:15Z</time>
      </trkpt>
      <trkpt lat="45.70529" lon="6.03928">
        <ele>1359.5</ele>
        <time>2011-06-07T08:56:16Z</time>
      </trkpt>
      <trkpt lat="45.70531" lon="6.03935">
        <ele>1359.8</ele>
        <time>2011-06-07T08:56:18Z</time>
      </trkpt>
      <trkpt lat="45.70532" lon="6.03948">
        <ele>1360.2</ele>
        <time>2011-06-07T08:56:22Z</time>
      </trkpt>
      <trkpt lat="45.7053" lon="6.03951">
        <ele>1360.1</ele>
        <time>2011-06-07T08:56:23Z</time>
      </trkpt>
      <trkpt lat="45.70527" lon="6.03952">
        <ele>1359.9</ele>
        <time>2011-06-07T08:56:24Z</time>
      </trkpt>
      <trkpt lat="45.70524" lon="6.03952">
        <ele>1359.8</ele>
        <time>2011-06-07T08:56:25Z</time>
      </trkpt>
      <trkpt lat="45.70522" lon="6.0395">
        <ele>1359.6</ele>
        <time>2011-06-07T08:56:27Z</time>
      </trkpt>
      <trkpt lat="45.7052" lon="6.03944">
        <ele>1359.4</ele>
        <time>2011-06-07T08:56:28Z</time>
      </trkpt>
      <trkpt lat="45.7052" lon="6.03941">
        <ele>1359.3</ele>
        <time>2011-06-07T08:56:29Z</time>
      </trkpt>
      <trkpt lat="45.70517" lon="6.03931">
        <ele>1358.7</ele>
        <time>2011-06-07T08:56:32Z</time>
      </trkpt>
      <trkpt lat="45.70516" lon="6.03927">
        <ele>1358.5</ele>
        <time>2011-06-07T08:56:34Z</time>
      </trkpt>
      <trkpt lat="45.70511" lon="6.03917">
        <ele>1357.8</ele>
        <time>2011-06-07T08:56:37Z</time>
      </trkpt>
      <trkpt lat="45.70507" lon="6.03909">
        <ele>1357.5</ele>
        <time>2011-06-07T08:56:40Z</time>
      </trkpt>
      <trkpt lat="45.70505" lon="6.03906">
        <ele>1357.3</ele>
        <time>2011-06-07T08:56:41Z</time>
      </trkpt>
      <trkpt lat="45.70501" lon="6.03901">
        <ele>1357.1</ele>
        <time>2011-06-07T08:56:43Z</time>
      </trkpt>
      <trkpt lat="45.70498" lon="6.03901">
        <ele>1356.9</ele>
        <time>2011-06-07T08:56:44Z</time>
      </trkpt>
      <trkpt lat="45.70494" lon="6.03903">
        <ele>1356.8</ele>
        <time>2011-06-07T08:56:46Z</time>
      </trkpt>
      <trkpt lat="45.70491" lon="6.03904">
        <ele>1356.7</ele>
        <time>2011-06-07T08:56:47Z</time>
      </trkpt>
      <trkpt lat="45.70492" lon="6.03903">
        <ele>1356.7</ele>
        <time>2011-06-07T08:56:47Z</time>
      </trkpt>
      <trkpt lat="45.70464" lon="6.03902">
        <ele>1355.6</ele>
        <time>2011-06-07T08:56:58Z</time>
      </trkpt>
      <trkpt lat="45.7046" lon="6.03899">
        <ele>1355.4</ele>
        <time>2011-06-07T08:57:00Z</time>
      </trkpt>
      <trkpt lat="45.70456" lon="6.03894">
        <ele>1355.3</ele>
        <time>2011-06-07T08:57:02Z</time>
      </trkpt>
      <trkpt lat="45.70449" lon="6.03884">
        <ele>1355.2</ele>
        <time>2011-06-07T08:57:07Z</time>
      </trkpt>
      <trkpt lat="45.70441" lon="6.03874">
        <ele>1354.8</ele>
        <time>2011-06-07T08:57:11Z</time>
      </trkpt>
      <trkpt lat="45.70439" lon="6.0387">
        <ele>1354.6</ele>
        <time>2011-06-07T08:57:12Z</time>
      </trkpt>
      <trkpt lat="45.70433" lon="6.03867">
        <ele>1354.2</ele>
        <time>2011-06-07T08:57:15Z</time>
      </trkpt>
      <trkpt lat="45.70426" lon="6.03867">
        <ele>1353.8</ele>
        <time>2011-06-07T08:57:17Z</time>
      </trkpt>
      <trkpt lat="45.70421" lon="6.03868">
        <ele>1353.5</ele>
        <time>2011-06-07T08:57:19Z</time>
      </trkpt>
      <trkpt lat="45.70411" lon="6.03868">
        <ele>1353.6</ele>
        <time>2011-06-07T08:57:23Z</time>
      </trkpt>
      <trkpt lat="45.70409" lon="6.03869">
        <ele>1353.8</ele>
        <time>2011-06-07T08:57:24Z</time>
      </trkpt>
      <trkpt lat="45.70401" lon="6.03866">
        <ele>1354.2</ele>
        <time>2011-06-07T08:57:27Z</time>
      </trkpt>
      <trkpt lat="45.7039" lon="6.03868">
        <ele>1354.9</ele>
        <time>2011-06-07T08:57:32Z</time>
      </trkpt>
      <trkpt lat="45.70376" lon="6.03869">
        <ele>1356.6</ele>
        <time>2011-06-07T08:57:38Z</time>
      </trkpt>
      <trkpt lat="45.70371" lon="6.03867">
        <ele>1357.3</ele>
        <time>2011-06-07T08:57:40Z</time>
      </trkpt>
      <trkpt lat="45.70364" lon="6.03862">
        <ele>1358.5</ele>
        <time>2011-06-07T08:57:43Z</time>
      </trkpt>
      <trkpt lat="45.7036" lon="6.03856">
        <ele>1359.8</ele>
        <time>2011-06-07T08:57:45Z</time>
      </trkpt>
      <trkpt lat="45.70352" lon="6.03854">
        <ele>1361.6</ele>
        <time>2011-06-07T08:57:48Z</time>
      </trkpt>
      <trkpt lat="45.70339" lon="6.03852">
        <ele>1364.5</ele>
        <time>2011-06-07T08:57:54Z</time>
      </trkpt>
      <trkpt lat="45.70334" lon="6.03849">
        <ele>1365.8</ele>
        <time>2011-06-07T08:57:56Z</time>
      </trkpt>
      <trkpt lat="45.70324" lon="6.03848">
        <ele>1367.6</ele>
        <time>2011-06-07T08:58:00Z</time>
      </trkpt>
      <trkpt lat="45.70318" lon="6.03847">
        <ele>1368.9</ele>
        <time>2011-06-07T08:58:02Z</time>
      </trkpt>
      <trkpt lat="45.70308" lon="6.03849">
        <ele>1370.5</ele>
        <time>2011-06-07T08:58:06Z</time>
      </trkpt>
      <trkpt lat="45.70299" lon="6.03855">
        <ele>1371</ele>
        <time>2011-06-07T08:58:10Z</time>
      </trkpt>
      <trkpt lat="45.70295" lon="6.03856">
        <ele>1371.1</ele>
        <time>2011-06-07T08:58:12Z</time>
      </trkpt>
      <trkpt lat="45.7029" lon="6.03857">
        <ele>1371.4</ele>
        <time>2011-06-07T08:58:14Z</time>
      </trkpt>
      <trkpt lat="45.70284" lon="6.03856">
        <ele>1371.9</ele>
        <time>2011-06-07T08:58:16Z</time>
      </trkpt>
      <trkpt lat="45.70283" lon="6.03853">
        <ele>1372.2</ele>
        <time>2011-06-07T08:58:17Z</time>
      </trkpt>
      <trkpt lat="45.7028" lon="6.03849">
        <ele>1372.7</ele>
        <time>2011-06-07T08:58:19Z</time>
      </trkpt>
      <trkpt lat="45.70276" lon="6.0384">
        <ele>1373.7</ele>
        <time>2011-06-07T08:58:22Z</time>
      </trkpt>
      <trkpt lat="45.70271" lon="6.0383">
        <ele>1374.9</ele>
        <time>2011-06-07T08:58:25Z</time>
      </trkpt>
      <trkpt lat="45.7027" lon="6.03829">
        <ele>1375</ele>
        <time>2011-06-07T08:58:26Z</time>
      </trkpt>
      <trkpt lat="45.70265" lon="6.03819">
        <ele>1376</ele>
        <time>2011-06-07T08:58:29Z</time>
      </trkpt>
      <trkpt lat="45.70258" lon="6.03816">
        <ele>1376.5</ele>
        <time>2011-06-07T08:58:32Z</time>
      </trkpt>
      <trkpt lat="45.70258" lon="6.03814">
        <ele>1376.5</ele>
        <time>2011-06-07T08:58:32Z</time>
      </trkpt>
      <trkpt lat="45.70252" lon="6.03809">
        <ele>1376.9</ele>
        <time>2011-06-07T08:58:35Z</time>
      </trkpt>
      <trkpt lat="45.70248" lon="6.03805">
        <ele>1377.2</ele>
        <time>2011-06-07T08:58:37Z</time>
      </trkpt>
      <trkpt lat="45.70242" lon="6.03798">
        <ele>1377.7</ele>
        <time>2011-06-07T08:58:40Z</time>
      </trkpt>
      <trkpt lat="45.7024" lon="6.03792">
        <ele>1377.9</ele>
        <time>2011-06-07T08:58:42Z</time>
      </trkpt>
      <trkpt lat="45.70235" lon="6.03791">
        <ele>1378</ele>
        <time>2011-06-07T08:58:44Z</time>
      </trkpt>
      <trkpt lat="45.70229" lon="6.03788">
        <ele>1378.2</ele>
        <time>2011-06-07T08:58:46Z</time>
      </trkpt>
      <trkpt lat="45.70224" lon="6.03786">
        <ele>1378.3</ele>
        <time>2011-06-07T08:58:48Z</time>
      </trkpt>
      <trkpt lat="45.70218" lon="6.03788">
        <ele>1378</ele>
        <time>2011-06-07T08:58:51Z</time>
      </trkpt>
      <trkpt lat="45.7021" lon="6.0379">
        <ele>1377.5</ele>
        <time>2011-06-07T08:58:54Z</time>
      </trkpt>
      <trkpt lat="45.70207" lon="6.03786">
        <ele>1376.9</ele>
        <time>2011-06-07T08:58:56Z</time>
      </trkpt>
      <trkpt lat="45.70199" lon="6.03782">
        <ele>1375.9</ele>
        <time>2011-06-07T08:58:59Z</time>
      </trkpt>
      <trkpt lat="45.70196" lon="6.03774">
        <ele>1374.4</ele>
        <time>2011-06-07T08:59:02Z</time>
      </trkpt>
      <trkpt lat="45.70191" lon="6.03769">
        <ele>1372.6</ele>
        <time>2011-06-07T08:59:04Z</time>
      </trkpt>
      <trkpt lat="45.70185" lon="6.03755">
        <ele>1368.8</ele>
        <time>2011-06-07T08:59:08Z</time>
      </trkpt>
      <trkpt lat="45.70178" lon="6.0374">
        <ele>1364.8</ele>
        <time>2011-06-07T08:59:14Z</time>
      </trkpt>
      <trkpt lat="45.70168" lon="6.03726">
        <ele>1360.9</ele>
        <time>2011-06-07T08:59:19Z</time>
      </trkpt>
      <trkpt lat="45.70161" lon="6.03712">
        <ele>1356.7</ele>
        <time>2011-06-07T08:59:24Z</time>
      </trkpt>
      <trkpt lat="45.70158" lon="6.03707">
        <ele>1355</ele>
        <time>2011-06-07T08:59:26Z</time>
      </trkpt>
      <trkpt lat="45.70149" lon="6.03707">
        <ele>1353.3</ele>
        <time>2011-06-07T08:59:29Z</time>
      </trkpt>
      <trkpt lat="45.70144" lon="6.03705">
        <ele>1351.9</ele>
        <time>2011-06-07T08:59:31Z</time>
      </trkpt>
      <trkpt lat="45.7014" lon="6.03706">
        <ele>1351.2</ele>
        <time>2011-06-07T08:59:33Z</time>
      </trkpt>
      <trkpt lat="45.7013" lon="6.03708">
        <ele>1349.9</ele>
        <time>2011-06-07T08:59:37Z</time>
      </trkpt>
      <trkpt lat="45.7012" lon="6.03716">
        <ele>1348.7</ele>
        <time>2011-06-07T08:59:42Z</time>
      </trkpt>
      <trkpt lat="45.70112" lon="6.03722">
        <ele>1347.3</ele>
        <time>2011-06-07T08:59:45Z</time>
      </trkpt>
      <trkpt lat="45.70104" lon="6.03734">
        <ele>1347</ele>
        <time>2011-06-07T08:59:50Z</time>
      </trkpt>
      <trkpt lat="45.70102" lon="6.03738">
        <ele>1347</ele>
        <time>2011-06-07T08:59:51Z</time>
      </trkpt>
      <trkpt lat="45.70097" lon="6.03747">
        <ele>1346.4</ele>
        <time>2011-06-07T08:59:54Z</time>
      </trkpt>
      <trkpt lat="45.7009" lon="6.03762">
        <ele>1345.3</ele>
        <time>2011-06-07T08:59:59Z</time>
      </trkpt>
      <trkpt lat="45.70083" lon="6.03776">
        <ele>1343.9</ele>
        <time>2011-06-07T09:00:04Z</time>
      </trkpt>
      <trkpt lat="45.70077" lon="6.03791">
        <ele>1343.5</ele>
        <time>2011-06-07T09:00:09Z</time>
      </trkpt>
      <trkpt lat="45.70072" lon="6.03804">
        <ele>1342.5</ele>
        <time>2011-06-07T09:00:13Z</time>
      </trkpt>
      <trkpt lat="45.70068" lon="6.03813">
        <ele>1341.8</ele>
        <time>2011-06-07T09:00:16Z</time>
      </trkpt>
      <trkpt lat="45.70062" lon="6.03833">
        <ele>1340.7</ele>
        <time>2011-06-07T09:00:22Z</time>
      </trkpt>
      <trkpt lat="45.70057" lon="6.03847">
        <ele>1338.8</ele>
        <time>2011-06-07T09:00:27Z</time>
      </trkpt>
      <trkpt lat="45.70054" lon="6.03853">
        <ele>1338.2</ele>
        <time>2011-06-07T09:00:29Z</time>
      </trkpt>
      <trkpt lat="45.7005" lon="6.03866">
        <ele>1337.7</ele>
        <time>2011-06-07T09:00:33Z</time>
      </trkpt>
      <trkpt lat="45.70047" lon="6.03884">
        <ele>1337.2</ele>
        <time>2011-06-07T09:00:38Z</time>
      </trkpt>
      <trkpt lat="45.70045" lon="6.03891">
        <ele>1336.7</ele>
        <time>2011-06-07T09:00:40Z</time>
      </trkpt>
      <trkpt lat="45.70045" lon="6.03905">
        <ele>1335.9</ele>
        <time>2011-06-07T09:00:44Z</time>
      </trkpt>
      <trkpt lat="45.70045" lon="6.03917">
        <ele>1335.3</ele>
        <time>2011-06-07T09:00:47Z</time>
      </trkpt>
      <trkpt lat="45.70045" lon="6.03929">
        <ele>1335.6</ele>
        <time>2011-06-07T09:00:51Z</time>
      </trkpt>
      <trkpt lat="45.70044" lon="6.03938">
        <ele>1335.4</ele>
        <time>2011-06-07T09:00:53Z</time>
      </trkpt>
      <trkpt lat="45.70042" lon="6.0395">
        <ele>1335</ele>
        <time>2011-06-07T09:00:57Z</time>
      </trkpt>
      <trkpt lat="45.70038" lon="6.03959">
        <ele>1334</ele>
        <time>2011-06-07T09:01:00Z</time>
      </trkpt>
      <trkpt lat="45.70035" lon="6.03966">
        <ele>1333.3</ele>
        <time>2011-06-07T09:01:02Z</time>
      </trkpt>
      <trkpt lat="45.7003" lon="6.03976">
        <ele>1332</ele>
        <time>2011-06-07T09:01:05Z</time>
      </trkpt>
      <trkpt lat="45.70027" lon="6.03982">
        <ele>1330.7</ele>
        <time>2011-06-07T09:01:07Z</time>
      </trkpt>
      <trkpt lat="45.70021" lon="6.03995">
        <ele>1328.7</ele>
        <time>2011-06-07T09:01:12Z</time>
      </trkpt>
      <trkpt lat="45.70018" lon="6.04">
        <ele>1327.9</ele>
        <time>2011-06-07T09:01:14Z</time>
      </trkpt>
      <trkpt lat="45.70017" lon="6.04003">
        <ele>1327.6</ele>
        <time>2011-06-07T09:01:14Z</time>
      </trkpt>
      <trkpt lat="45.70014" lon="6.0401">
        <ele>1326.7</ele>
        <time>2011-06-07T09:01:17Z</time>
      </trkpt>
      <trkpt lat="45.70012" lon="6.04017">
        <ele>1326.1</ele>
        <time>2011-06-07T09:01:19Z</time>
      </trkpt>
      <trkpt lat="45.70009" lon="6.04023">
        <ele>1325.2</ele>
        <time>2011-06-07T09:01:21Z</time>
      </trkpt>
      <trkpt lat="45.70008" lon="6.04034">
        <ele>1324.9</ele>
        <time>2011-06-07T09:01:24Z</time>
      </trkpt>
      <trkpt lat="45.70007" lon="6.04037">
        <ele>1324.6</ele>
        <time>2011-06-07T09:01:25Z</time>
      </trkpt>
      <trkpt lat="45.70007" lon="6.04042">
        <ele>1324.5</ele>
        <time>2011-06-07T09:01:26Z</time>
      </trkpt>
      <trkpt lat="45.69993" lon="6.04094">
        <ele>1318.3</ele>
        <time>2011-06-07T09:01:42Z</time>
      </trkpt>
      <trkpt lat="45.69989" lon="6.04107">
        <ele>1316.4</ele>
        <time>2011-06-07T09:01:46Z</time>
      </trkpt>
      <trkpt lat="45.69986" lon="6.04115">
        <ele>1315.6</ele>
        <time>2011-06-07T09:01:49Z</time>
      </trkpt>
      <trkpt lat="45.69985" lon="6.04128">
        <ele>1315.9</ele>
        <time>2011-06-07T09:01:52Z</time>
      </trkpt>
      <trkpt lat="45.69982" lon="6.04146">
        <ele>1314.8</ele>
        <time>2011-06-07T09:01:57Z</time>
      </trkpt>
      <trkpt lat="45.69979" lon="6.04155">
        <ele>1313.7</ele>
        <time>2011-06-07T09:02:00Z</time>
      </trkpt>
      <trkpt lat="45.69975" lon="6.04169">
        <ele>1311.9</ele>
        <time>2011-06-07T09:02:04Z</time>
      </trkpt>
      <trkpt lat="45.69973" lon="6.04185">
        <ele>1310.5</ele>
        <time>2011-06-07T09:02:09Z</time>
      </trkpt>
      <trkpt lat="45.69968" lon="6.04202">
        <ele>1308.6</ele>
        <time>2011-06-07T09:02:14Z</time>
      </trkpt>
      <trkpt lat="45.69967" lon="6.04213">
        <ele>1308.2</ele>
        <time>2011-06-07T09:02:17Z</time>
      </trkpt>
      <trkpt lat="45.69965" lon="6.04226">
        <ele>1307.3</ele>
        <time>2011-06-07T09:02:21Z</time>
      </trkpt>
      <trkpt lat="45.69966" lon="6.04234">
        <ele>1307.2</ele>
        <time>2011-06-07T09:02:23Z</time>
      </trkpt>
      <trkpt lat="45.69959" lon="6.04253">
        <ele>1305.2</ele>
        <time>2011-06-07T09:02:29Z</time>
      </trkpt>
      <trkpt lat="45.69959" lon="6.04254">
        <ele>1305</ele>
        <time>2011-06-07T09:02:29Z</time>
      </trkpt>
      <trkpt lat="45.69956" lon="6.04263">
        <ele>1304.2</ele>
        <time>2011-06-07T09:02:32Z</time>
      </trkpt>
      <trkpt lat="45.69954" lon="6.04272">
        <ele>1303.5</ele>
        <time>2011-06-07T09:02:35Z</time>
      </trkpt>
      <trkpt lat="45.69953" lon="6.04276">
        <ele>1303.2</ele>
        <time>2011-06-07T09:02:36Z</time>
      </trkpt>
      <trkpt lat="45.69953" lon="6.0428">
        <ele>1303.2</ele>
        <time>2011-06-07T09:02:37Z</time>
      </trkpt>
      <trkpt lat="45.69952" lon="6.04284">
        <ele>1302.6</ele>
        <time>2011-06-07T09:02:38Z</time>
      </trkpt>
      <trkpt lat="45.6995" lon="6.04285">
        <ele>1302</ele>
        <time>2011-06-07T09:02:39Z</time>
      </trkpt>
      <trkpt lat="45.69945" lon="6.04285">
        <ele>1300.8</ele>
        <time>2011-06-07T09:02:41Z</time>
      </trkpt>
      <trkpt lat="45.69941" lon="6.04286">
        <ele>1300.5</ele>
        <time>2011-06-07T09:02:43Z</time>
      </trkpt>
      <trkpt lat="45.6994" lon="6.04284">
        <ele>1300.6</ele>
        <time>2011-06-07T09:02:43Z</time>
      </trkpt>
      <trkpt lat="45.69936" lon="6.04284">
        <ele>1300.4</ele>
        <time>2011-06-07T09:02:45Z</time>
      </trkpt>
      <trkpt lat="45.69933" lon="6.04282">
        <ele>1300.4</ele>
        <time>2011-06-07T09:02:46Z</time>
      </trkpt>
      <trkpt lat="45.69933" lon="6.04281">
        <ele>1300.4</ele>
        <time>2011-06-07T09:02:46Z</time>
      </trkpt>
      <trkpt lat="45.6993" lon="6.04281">
        <ele>1300.3</ele>
        <time>2011-06-07T09:02:47Z</time>
      </trkpt>
      <trkpt lat="45.69926" lon="6.0428">
        <ele>1300.2</ele>
        <time>2011-06-07T09:02:49Z</time>
      </trkpt>
      <trkpt lat="45.69924" lon="6.04279">
        <ele>1300.1</ele>
        <time>2011-06-07T09:02:50Z</time>
      </trkpt>
      <trkpt lat="45.69922" lon="6.04279">
        <ele>1300.1</ele>
        <time>2011-06-07T09:02:51Z</time>
      </trkpt>
      <trkpt lat="45.69916" lon="6.0428">
        <ele>1299.8</ele>
        <time>2011-06-07T09:02:53Z</time>
      </trkpt>
      <trkpt lat="45.69915" lon="6.0428">
        <ele>1299.9</ele>
        <time>2011-06-07T09:02:54Z</time>
      </trkpt>
      <trkpt lat="45.69912" lon="6.04283">
        <ele>1299.6</ele>
        <time>2011-06-07T09:02:55Z</time>
      </trkpt>
      <trkpt lat="45.69909" lon="6.04289">
        <ele>1299.2</ele>
        <time>2011-06-07T09:02:57Z</time>
      </trkpt>
      <trkpt lat="45.69907" lon="6.04292">
        <ele>1299</ele>
        <time>2011-06-07T09:02:58Z</time>
      </trkpt>
      <trkpt lat="45.69903" lon="6.043">
        <ele>1298.4</ele>
        <time>2011-06-07T09:03:01Z</time>
      </trkpt>
      <trkpt lat="45.699" lon="6.04307">
        <ele>1298</ele>
        <time>2011-06-07T09:03:03Z</time>
      </trkpt>
      <trkpt lat="45.69899" lon="6.04312">
        <ele>1297.9</ele>
        <time>2011-06-07T09:03:05Z</time>
      </trkpt>
      <trkpt lat="45.69897" lon="6.04314">
        <ele>1297.9</ele>
        <time>2011-06-07T09:03:06Z</time>
      </trkpt>
      <trkpt lat="45.69896" lon="6.04319">
        <ele>1297.7</ele>
        <time>2011-06-07T09:03:07Z</time>
      </trkpt>
      <trkpt lat="45.69893" lon="6.04326">
        <ele>1297.5</ele>
        <time>2011-06-07T09:03:09Z</time>
      </trkpt>
      <trkpt lat="45.69891" lon="6.04331">
        <ele>1297.2</ele>
        <time>2011-06-07T09:03:11Z</time>
      </trkpt>
      <trkpt lat="45.69889" lon="6.04336">
        <ele>1297</ele>
        <time>2011-06-07T09:03:13Z</time>
      </trkpt>
      <trkpt lat="45.69887" lon="6.04343">
        <ele>1297.1</ele>
        <time>2011-06-07T09:03:15Z</time>
      </trkpt>
      <trkpt lat="45.69885" lon="6.0435">
        <ele>1297.1</ele>
        <time>2011-06-07T09:03:17Z</time>
      </trkpt>
      <trkpt lat="45.69885" lon="6.04352">
        <ele>1297.2</ele>
        <time>2011-06-07T09:03:18Z</time>
      </trkpt>
      <trkpt lat="45.69885" lon="6.04362">
        <ele>1297.3</ele>
        <time>2011-06-07T09:03:20Z</time>
      </trkpt>
      <trkpt lat="45.69885" lon="6.04366">
        <ele>1297.8</ele>
        <time>2011-06-07T09:03:22Z</time>
      </trkpt>
      <trkpt lat="45.69885" lon="6.04371">
        <ele>1298.4</ele>
        <time>2011-06-07T09:03:23Z</time>
      </trkpt>
      <trkpt lat="45.69886" lon="6.04375">
        <ele>1298.8</ele>
        <time>2011-06-07T09:03:24Z</time>
      </trkpt>
      <trkpt lat="45.69886" lon="6.04379">
        <ele>1299.1</ele>
        <time>2011-06-07T09:03:25Z</time>
      </trkpt>
      <trkpt lat="45.69884" lon="6.04383">
        <ele>1299.7</ele>
        <time>2011-06-07T09:03:26Z</time>
      </trkpt>
      <trkpt lat="45.69883" lon="6.04389">
        <ele>1300.4</ele>
        <time>2011-06-07T09:03:28Z</time>
      </trkpt>
      <trkpt lat="45.69882" lon="6.04392">
        <ele>1300.1</ele>
        <time>2011-06-07T09:03:29Z</time>
      </trkpt>
      <trkpt lat="45.69881" lon="6.04391">
        <ele>1300.4</ele>
        <time>2011-06-07T09:03:30Z</time>
      </trkpt>
      <trkpt lat="45.69881" lon="6.0439">
        <ele>1300.5</ele>
        <time>2011-06-07T09:03:30Z</time>
      </trkpt>
      <trkpt lat="45.69879" lon="6.04386">
        <ele>1300.4</ele>
        <time>2011-06-07T09:03:31Z</time>
      </trkpt>
      <trkpt lat="45.69879" lon="6.04383">
        <ele>1300.1</ele>
        <time>2011-06-07T09:03:32Z</time>
      </trkpt>
      <trkpt lat="45.69878" lon="6.04381">
        <ele>1299.9</ele>
        <time>2011-06-07T09:03:33Z</time>
      </trkpt>
      <trkpt lat="45.69875" lon="6.04382">
        <ele>1300.3</ele>
        <time>2011-06-07T09:03:34Z</time>
      </trkpt>
      <trkpt lat="45.69873" lon="6.04385">
        <ele>1300.8</ele>
        <time>2011-06-07T09:03:35Z</time>
      </trkpt>
      <trkpt lat="45.69873" lon="6.04388">
        <ele>1301</ele>
        <time>2011-06-07T09:03:36Z</time>
      </trkpt>
      <trkpt lat="45.69874" lon="6.04391">
        <ele>1300.9</ele>
        <time>2011-06-07T09:03:37Z</time>
      </trkpt>
      <trkpt lat="45.69875" lon="6.04396">
        <ele>1300.3</ele>
        <time>2011-06-07T09:03:38Z</time>
      </trkpt>
      <trkpt lat="45.69877" lon="6.04399">
        <ele>1299.8</ele>
        <time>2011-06-07T09:03:40Z</time>
      </trkpt>
      <trkpt lat="45.69878" lon="6.044">
        <ele>1299.6</ele>
        <time>2011-06-07T09:03:40Z</time>
      </trkpt>
      <trkpt lat="45.6988" lon="6.04403">
        <ele>1299.1</ele>
        <time>2011-06-07T09:03:41Z</time>
      </trkpt>
      <trkpt lat="45.69884" lon="6.044">
        <ele>1299.2</ele>
        <time>2011-06-07T09:03:43Z</time>
      </trkpt>
      <trkpt lat="45.69885" lon="6.04399">
        <ele>1299.3</ele>
        <time>2011-06-07T09:03:44Z</time>
      </trkpt>
      <trkpt lat="45.69887" lon="6.04396">
        <ele>1299.4</ele>
        <time>2011-06-07T09:03:45Z</time>
      </trkpt>
      <trkpt lat="45.6989" lon="6.04391">
        <ele>1299.5</ele>
        <time>2011-06-07T09:03:47Z</time>
      </trkpt>
      <trkpt lat="45.69889" lon="6.04388">
        <ele>1299.9</ele>
        <time>2011-06-07T09:03:48Z</time>
      </trkpt>
      <trkpt lat="45.69887" lon="6.04383">
        <ele>1299.5</ele>
        <time>2011-06-07T09:03:49Z</time>
      </trkpt>
      <trkpt lat="45.69886" lon="6.04381">
        <ele>1299.3</ele>
        <time>2011-06-07T09:03:50Z</time>
      </trkpt>
      <trkpt lat="45.69885" lon="6.04378">
        <ele>1299.1</ele>
        <time>2011-06-07T09:03:51Z</time>
      </trkpt>
      <trkpt lat="45.69881" lon="6.04374">
        <ele>1298.9</ele>
        <time>2011-06-07T09:03:53Z</time>
      </trkpt>
      <trkpt lat="45.6988" lon="6.04373">
        <ele>1298.9</ele>
        <time>2011-06-07T09:03:53Z</time>
      </trkpt>
      <trkpt lat="45.6988" lon="6.04368">
        <ele>1298.4</ele>
        <time>2011-06-07T09:03:55Z</time>
      </trkpt>
      <trkpt lat="45.69881" lon="6.04362">
        <ele>1297.6</ele>
        <time>2011-06-07T09:03:56Z</time>
      </trkpt>
      <trkpt lat="45.69881" lon="6.04355">
        <ele>1297.4</ele>
        <time>2011-06-07T09:03:58Z</time>
      </trkpt>
      <trkpt lat="45.69882" lon="6.04352">
        <ele>1297.3</ele>
        <time>2011-06-07T09:03:59Z</time>
      </trkpt>
      <trkpt lat="45.69883" lon="6.04348">
        <ele>1297.2</ele>
        <time>2011-06-07T09:04:00Z</time>
      </trkpt>
      <trkpt lat="45.69885" lon="6.04343">
        <ele>1297.1</ele>
        <time>2011-06-07T09:04:02Z</time>
      </trkpt>
      <trkpt lat="45.69888" lon="6.04337">
        <ele>1297</ele>
        <time>2011-06-07T09:04:04Z</time>
      </trkpt>
      <trkpt lat="45.6989" lon="6.04334">
        <ele>1297.1</ele>
        <time>2011-06-07T09:04:05Z</time>
      </trkpt>
      <trkpt lat="45.6989" lon="6.04333">
        <ele>1297.1</ele>
        <time>2011-06-07T09:04:06Z</time>
      </trkpt>
      <trkpt lat="45.69891" lon="6.04327">
        <ele>1297.3</ele>
        <time>2011-06-07T09:04:07Z</time>
      </trkpt>
      <trkpt lat="45.69891" lon="6.04322">
        <ele>1297.5</ele>
        <time>2011-06-07T09:04:08Z</time>
      </trkpt>
      <trkpt lat="45.69894" lon="6.04315">
        <ele>1297.8</ele>
        <time>2011-06-07T09:04:11Z</time>
      </trkpt>
      <trkpt lat="45.69897" lon="6.04309">
        <ele>1298</ele>
        <time>2011-06-07T09:04:13Z</time>
      </trkpt>
      <trkpt lat="45.69901" lon="6.04302">
        <ele>1298.3</ele>
        <time>2011-06-07T09:04:15Z</time>
      </trkpt>
      <trkpt lat="45.69904" lon="6.04297">
        <ele>1298.6</ele>
        <time>2011-06-07T09:04:17Z</time>
      </trkpt>
      <trkpt lat="45.69906" lon="6.04293">
        <ele>1298.9</ele>
        <time>2011-06-07T09:04:18Z</time>
      </trkpt>
      <trkpt lat="45.69909" lon="6.04287">
        <ele>1299.3</ele>
        <time>2011-06-07T09:04:21Z</time>
      </trkpt>
      <trkpt lat="45.6991" lon="6.0428">
        <ele>1299.8</ele>
        <time>2011-06-07T09:04:23Z</time>
      </trkpt>
      <trkpt lat="45.69908" lon="6.04279">
        <ele>1299.9</ele>
        <time>2011-06-07T09:04:23Z</time>
      </trkpt>
      <trkpt lat="45.69906" lon="6.04278">
        <ele>1300</ele>
        <time>2011-06-07T09:04:24Z</time>
      </trkpt>
      <trkpt lat="45.69904" lon="6.04275">
        <ele>1300</ele>
        <time>2011-06-07T09:04:26Z</time>
      </trkpt>
      <trkpt lat="45.69904" lon="6.0427">
        <ele>1300</ele>
        <time>2011-06-07T09:04:27Z</time>
      </trkpt>
      <trkpt lat="45.69904" lon="6.04263">
        <ele>1300</ele>
        <time>2011-06-07T09:04:29Z</time>
      </trkpt>
      <trkpt lat="45.69902" lon="6.04254">
        <ele>1300</ele>
        <time>2011-06-07T09:04:31Z</time>
      </trkpt>
      <trkpt lat="45.69903" lon="6.04249">
        <ele>1300</ele>
        <time>2011-06-07T09:04:33Z</time>
      </trkpt>
      <trkpt lat="45.69903" lon="6.04244">
        <ele>1300.1</ele>
        <time>2011-06-07T09:04:34Z</time>
      </trkpt>
      <trkpt lat="45.69904" lon="6.0424">
        <ele>1300.2</ele>
        <time>2011-06-07T09:04:35Z</time>
      </trkpt>
      <trkpt lat="45.69904" lon="6.04231">
        <ele>1300.4</ele>
        <time>2011-06-07T09:04:38Z</time>
      </trkpt>
      <trkpt lat="45.69904" lon="6.04224">
        <ele>1300.5</ele>
        <time>2011-06-07T09:04:40Z</time>
      </trkpt>
      <trkpt lat="45.69903" lon="6.04221">
        <ele>1300.6</ele>
        <time>2011-06-07T09:04:41Z</time>
      </trkpt>
      <trkpt lat="45.69903" lon="6.04218">
        <ele>1300.7</ele>
        <time>2011-06-07T09:04:41Z</time>
      </trkpt>
      <trkpt lat="45.699" lon="6.04214">
        <ele>1300.9</ele>
        <time>2011-06-07T09:04:43Z</time>
      </trkpt>
      <trkpt lat="45.69899" lon="6.0421">
        <ele>1301.2</ele>
        <time>2011-06-07T09:04:44Z</time>
      </trkpt>
      <trkpt lat="45.69899" lon="6.04207">
        <ele>1301.4</ele>
        <time>2011-06-07T09:04:45Z</time>
      </trkpt>
      <trkpt lat="45.69898" lon="6.04202">
        <ele>1301.8</ele>
        <time>2011-06-07T09:04:47Z</time>
      </trkpt>
      <trkpt lat="45.69897" lon="6.04198">
        <ele>1302.1</ele>
        <time>2011-06-07T09:04:48Z</time>
      </trkpt>
      <trkpt lat="45.69895" lon="6.04196">
        <ele>1302.4</ele>
        <time>2011-06-07T09:04:49Z</time>
      </trkpt>
      <trkpt lat="45.69892" lon="6.04194">
        <ele>1302.9</ele>
        <time>2011-06-07T09:04:50Z</time>
      </trkpt>
      <trkpt lat="45.6989" lon="6.04191">
        <ele>1303.5</ele>
        <time>2011-06-07T09:04:51Z</time>
      </trkpt>
      <trkpt lat="45.69887" lon="6.04193">
        <ele>1303.2</ele>
        <time>2011-06-07T09:04:53Z</time>
      </trkpt>
      <trkpt lat="45.69883" lon="6.04194">
        <ele>1302.6</ele>
        <time>2011-06-07T09:04:54Z</time>
      </trkpt>
      <trkpt lat="45.6988" lon="6.04194">
        <ele>1302.5</ele>
        <time>2011-06-07T09:04:55Z</time>
      </trkpt>
      <trkpt lat="45.69879" lon="6.04193">
        <ele>1302.5</ele>
        <time>2011-06-07T09:04:56Z</time>
      </trkpt>
      <trkpt lat="45.69875" lon="6.04196">
        <ele>1301.8</ele>
        <time>2011-06-07T09:04:57Z</time>
      </trkpt>
      <trkpt lat="45.69871" lon="6.04197">
        <ele>1301.4</ele>
        <time>2011-06-07T09:04:59Z</time>
      </trkpt>
      <trkpt lat="45.69869" lon="6.04194">
        <ele>1301.6</ele>
        <time>2011-06-07T09:05:00Z</time>
      </trkpt>
      <trkpt lat="45.69866" lon="6.04195">
        <ele>1301.3</ele>
        <time>2011-06-07T09:05:01Z</time>
      </trkpt>
      <trkpt lat="45.69863" lon="6.04194">
        <ele>1301.2</ele>
        <time>2011-06-07T09:05:03Z</time>
      </trkpt>
      <trkpt lat="45.6986" lon="6.04195">
        <ele>1300.9</ele>
        <time>2011-06-07T09:05:04Z</time>
      </trkpt>
      <trkpt lat="45.69857" lon="6.04197">
        <ele>1300.4</ele>
        <time>2011-06-07T09:05:05Z</time>
      </trkpt>
      <trkpt lat="45.69854" lon="6.04202">
        <ele>1299.6</ele>
        <time>2011-06-07T09:05:07Z</time>
      </trkpt>
      <trkpt lat="45.69851" lon="6.04204">
        <ele>1299.2</ele>
        <time>2011-06-07T09:05:08Z</time>
      </trkpt>
      <trkpt lat="45.69847" lon="6.04206">
        <ele>1298.9</ele>
        <time>2011-06-07T09:05:10Z</time>
      </trkpt>
      <trkpt lat="45.69845" lon="6.04204">
        <ele>1299.1</ele>
        <time>2011-06-07T09:05:11Z</time>
      </trkpt>
      <trkpt lat="45.69842" lon="6.04204">
        <ele>1299.1</ele>
        <time>2011-06-07T09:05:12Z</time>
      </trkpt>
      <trkpt lat="45.6984" lon="6.04202">
        <ele>1299.3</ele>
        <time>2011-06-07T09:05:13Z</time>
      </trkpt>
      <trkpt lat="45.69838" lon="6.04199">
        <ele>1299.6</ele>
        <time>2011-06-07T09:05:14Z</time>
      </trkpt>
      <trkpt lat="45.69836" lon="6.04197">
        <ele>1299.8</ele>
        <time>2011-06-07T09:05:15Z</time>
      </trkpt>
      <trkpt lat="45.69834" lon="6.04196">
        <ele>1299.9</ele>
        <time>2011-06-07T09:05:16Z</time>
      </trkpt>
      <trkpt lat="45.69831" lon="6.04196">
        <ele>1299.7</ele>
        <time>2011-06-07T09:05:17Z</time>
      </trkpt>
      <trkpt lat="45.69829" lon="6.04194">
        <ele>1299.7</ele>
        <time>2011-06-07T09:05:18Z</time>
      </trkpt>
      <trkpt lat="45.69826" lon="6.04193">
        <ele>1299.6</ele>
        <time>2011-06-07T09:05:19Z</time>
      </trkpt>
      <trkpt lat="45.69826" lon="6.04193">
        <ele>1299.6</ele>
        <time>2011-06-07T09:05:19Z</time>
      </trkpt>
      <trkpt lat="45.69818" lon="6.04193">
        <ele>1298.9</ele>
        <time>2011-06-07T09:05:22Z</time>
      </trkpt>
      <trkpt lat="45.69815" lon="6.04191">
        <ele>1298.6</ele>
        <time>2011-06-07T09:05:24Z</time>
      </trkpt>
      <trkpt lat="45.69813" lon="6.04187">
        <ele>1298.4</ele>
        <time>2011-06-07T09:05:25Z</time>
      </trkpt>
      <trkpt lat="45.69813" lon="6.04183">
        <ele>1298.2</ele>
        <time>2011-06-07T09:05:26Z</time>
      </trkpt>
      <trkpt lat="45.69813" lon="6.04179">
        <ele>1298.1</ele>
        <time>2011-06-07T09:05:27Z</time>
      </trkpt>
      <trkpt lat="45.69812" lon="6.04177">
        <ele>1298</ele>
        <time>2011-06-07T09:05:28Z</time>
      </trkpt>
      <trkpt lat="45.69811" lon="6.04172">
        <ele>1297.7</ele>
        <time>2011-06-07T09:05:29Z</time>
      </trkpt>
      <trkpt lat="45.69811" lon="6.04169">
        <ele>1297.5</ele>
        <time>2011-06-07T09:05:30Z</time>
      </trkpt>
      <trkpt lat="45.6981" lon="6.04166">
        <ele>1297.1</ele>
        <time>2011-06-07T09:05:31Z</time>
      </trkpt>
      <trkpt lat="45.69809" lon="6.04164">
        <ele>1296.9</ele>
        <time>2011-06-07T09:05:32Z</time>
      </trkpt>
      <trkpt lat="45.69807" lon="6.04161">
        <ele>1296.3</ele>
        <time>2011-06-07T09:05:33Z</time>
      </trkpt>
      <trkpt lat="45.69804" lon="6.0416">
        <ele>1296</ele>
        <time>2011-06-07T09:05:34Z</time>
      </trkpt>
      <trkpt lat="45.69802" lon="6.04156">
        <ele>1296</ele>
        <time>2011-06-07T09:05:36Z</time>
      </trkpt>
      <trkpt lat="45.698" lon="6.04152">
        <ele>1296</ele>
        <time>2011-06-07T09:05:37Z</time>
      </trkpt>
      <trkpt lat="45.698" lon="6.04148">
        <ele>1296.1</ele>
        <time>2011-06-07T09:05:38Z</time>
      </trkpt>
      <trkpt lat="45.69799" lon="6.04142">
        <ele>1296.2</ele>
        <time>2011-06-07T09:05:40Z</time>
      </trkpt>
      <trkpt lat="45.69798" lon="6.04139">
        <ele>1296.3</ele>
        <time>2011-06-07T09:05:41Z</time>
      </trkpt>
      <trkpt lat="45.69797" lon="6.04136">
        <ele>1296.6</ele>
        <time>2011-06-07T09:05:42Z</time>
      </trkpt>
      <trkpt lat="45.69796" lon="6.04134">
        <ele>1296.9</ele>
        <time>2011-06-07T09:05:42Z</time>
      </trkpt>
      <trkpt lat="45.69794" lon="6.04131">
        <ele>1297.2</ele>
        <time>2011-06-07T09:05:44Z</time>
      </trkpt>
      <trkpt lat="45.69791" lon="6.04127">
        <ele>1297.5</ele>
        <time>2011-06-07T09:05:45Z</time>
      </trkpt>
      <trkpt lat="45.69789" lon="6.04126">
        <ele>1297.7</ele>
        <time>2011-06-07T09:05:46Z</time>
      </trkpt>
      <trkpt lat="45.69789" lon="6.04125">
        <ele>1297.7</ele>
        <time>2011-06-07T09:05:46Z</time>
      </trkpt>
      <trkpt lat="45.69786" lon="6.0412">
        <ele>1298</ele>
        <time>2011-06-07T09:05:48Z</time>
      </trkpt>
      <trkpt lat="45.69785" lon="6.04118">
        <ele>1298.1</ele>
        <time>2011-06-07T09:05:49Z</time>
      </trkpt>
      <trkpt lat="45.69785" lon="6.04115">
        <ele>1298.3</ele>
        <time>2011-06-07T09:05:50Z</time>
      </trkpt>
      <trkpt lat="45.69784" lon="6.04112">
        <ele>1298.4</ele>
        <time>2011-06-07T09:05:51Z</time>
      </trkpt>
      <trkpt lat="45.69783" lon="6.04106">
        <ele>1298.6</ele>
        <time>2011-06-07T09:05:52Z</time>
      </trkpt>
      <trkpt lat="45.69783" lon="6.04103">
        <ele>1298.6</ele>
        <time>2011-06-07T09:05:53Z</time>
      </trkpt>
      <trkpt lat="45.69782" lon="6.04099">
        <ele>1298.7</ele>
        <time>2011-06-07T09:05:54Z</time>
      </trkpt>
      <trkpt lat="45.69782" lon="6.04095">
        <ele>1298.7</ele>
        <time>2011-06-07T09:05:55Z</time>
      </trkpt>
      <trkpt lat="45.69781" lon="6.04088">
        <ele>1298.6</ele>
        <time>2011-06-07T09:05:57Z</time>
      </trkpt>
      <trkpt lat="45.6978" lon="6.04081">
        <ele>1298.8</ele>
        <time>2011-06-07T09:05:59Z</time>
      </trkpt>
      <trkpt lat="45.69779" lon="6.04077">
        <ele>1299.3</ele>
        <time>2011-06-07T09:06:01Z</time>
      </trkpt>
      <trkpt lat="45.69779" lon="6.04074">
        <ele>1299.6</ele>
        <time>2011-06-07T09:06:01Z</time>
      </trkpt>
      <trkpt lat="45.69778" lon="6.04071">
        <ele>1299.9</ele>
        <time>2011-06-07T09:06:02Z</time>
      </trkpt>
      <trkpt lat="45.69775" lon="6.04065">
        <ele>1300.9</ele>
        <time>2011-06-07T09:06:04Z</time>
      </trkpt>
      <trkpt lat="45.69775" lon="6.04063">
        <ele>1301.2</ele>
        <time>2011-06-07T09:06:05Z</time>
      </trkpt>
      <trkpt lat="45.69774" lon="6.04061">
        <ele>1301.6</ele>
        <time>2011-06-07T09:06:05Z</time>
      </trkpt>
      <trkpt lat="45.69773" lon="6.04057">
        <ele>1302.3</ele>
        <time>2011-06-07T09:06:07Z</time>
      </trkpt>
      <trkpt lat="45.69771" lon="6.04054">
        <ele>1303</ele>
        <time>2011-06-07T09:06:08Z</time>
      </trkpt>
      <trkpt lat="45.6977" lon="6.0405">
        <ele>1303.9</ele>
        <time>2011-06-07T09:06:09Z</time>
      </trkpt>
      <trkpt lat="45.6977" lon="6.04047">
        <ele>1304.6</ele>
        <time>2011-06-07T09:06:10Z</time>
      </trkpt>
      <trkpt lat="45.69768" lon="6.04043">
        <ele>1305.5</ele>
        <time>2011-06-07T09:06:11Z</time>
      </trkpt>
      <trkpt lat="45.69766" lon="6.04038">
        <ele>1306.6</ele>
        <time>2011-06-07T09:06:13Z</time>
      </trkpt>
      <trkpt lat="45.69764" lon="6.04031">
        <ele>1308</ele>
        <time>2011-06-07T09:06:15Z</time>
      </trkpt>
      <trkpt lat="45.69763" lon="6.04029">
        <ele>1308.3</ele>
        <time>2011-06-07T09:06:16Z</time>
      </trkpt>
      <trkpt lat="45.69763" lon="6.04026">
        <ele>1308.6</ele>
        <time>2011-06-07T09:06:16Z</time>
      </trkpt>
      <trkpt lat="45.69762" lon="6.04023">
        <ele>1308.7</ele>
        <time>2011-06-07T09:06:17Z</time>
      </trkpt>
      <trkpt lat="45.69761" lon="6.04016">
        <ele>1308.9</ele>
        <time>2011-06-07T09:06:19Z</time>
      </trkpt>
      <trkpt lat="45.69761" lon="6.04014">
        <ele>1309</ele>
        <time>2011-06-07T09:06:20Z</time>
      </trkpt>
      <trkpt lat="45.6976" lon="6.04012">
        <ele>1308.9</ele>
        <time>2011-06-07T09:06:21Z</time>
      </trkpt>
      <trkpt lat="45.69759" lon="6.0401">
        <ele>1308.9</ele>
        <time>2011-06-07T09:06:21Z</time>
      </trkpt>
      <trkpt lat="45.69758" lon="6.04003">
        <ele>1308.6</ele>
        <time>2011-06-07T09:06:23Z</time>
      </trkpt>
      <trkpt lat="45.69757" lon="6.04002">
        <ele>1308.6</ele>
        <time>2011-06-07T09:06:23Z</time>
      </trkpt>
      <trkpt lat="45.69756" lon="6.03998">
        <ele>1308.6</ele>
        <time>2011-06-07T09:06:25Z</time>
      </trkpt>
      <trkpt lat="45.69752" lon="6.03992">
        <ele>1308.1</ele>
        <time>2011-06-07T09:06:27Z</time>
      </trkpt>
      <trkpt lat="45.69751" lon="6.03992">
        <ele>1307.9</ele>
        <time>2011-06-07T09:06:27Z</time>
      </trkpt>
      <trkpt lat="45.69749" lon="6.03989">
        <ele>1307.8</ele>
        <time>2011-06-07T09:06:29Z</time>
      </trkpt>
      <trkpt lat="45.69746" lon="6.03985">
        <ele>1308.1</ele>
        <time>2011-06-07T09:06:30Z</time>
      </trkpt>
      <trkpt lat="45.69744" lon="6.03982">
        <ele>1308.4</ele>
        <time>2011-06-07T09:06:31Z</time>
      </trkpt>
      <trkpt lat="45.69743" lon="6.03981">
        <ele>1308.6</ele>
        <time>2011-06-07T09:06:32Z</time>
      </trkpt>
      <trkpt lat="45.69743" lon="6.03978">
        <ele>1308.8</ele>
        <time>2011-06-07T09:06:33Z</time>
      </trkpt>
      <trkpt lat="45.69742" lon="6.03976">
        <ele>1309</ele>
        <time>2011-06-07T09:06:33Z</time>
      </trkpt>
      <trkpt lat="45.6974" lon="6.03969">
        <ele>1309.4</ele>
        <time>2011-06-07T09:06:35Z</time>
      </trkpt>
      <trkpt lat="45.69738" lon="6.03964">
        <ele>1309.5</ele>
        <time>2011-06-07T09:06:37Z</time>
      </trkpt>
      <trkpt lat="45.69736" lon="6.0396">
        <ele>1309.7</ele>
        <time>2011-06-07T09:06:38Z</time>
      </trkpt>
      <trkpt lat="45.69736" lon="6.03958">
        <ele>1309.8</ele>
        <time>2011-06-07T09:06:39Z</time>
      </trkpt>
      <trkpt lat="45.69734" lon="6.03954">
        <ele>1310</ele>
        <time>2011-06-07T09:06:40Z</time>
      </trkpt>
      <trkpt lat="45.69737" lon="6.03956">
        <ele>1309.8</ele>
        <time>2011-06-07T09:06:42Z</time>
      </trkpt>
      <trkpt lat="45.69739" lon="6.03958">
        <ele>1309.6</ele>
        <time>2011-06-07T09:06:43Z</time>
      </trkpt>
      <trkpt lat="45.6974" lon="6.03959">
        <ele>1309.5</ele>
        <time>2011-06-07T09:06:43Z</time>
      </trkpt>
      <trkpt lat="45.69746" lon="6.03964">
        <ele>1309.2</ele>
        <time>2011-06-07T09:06:46Z</time>
      </trkpt>
      <trkpt lat="45.6975" lon="6.0397">
        <ele>1309</ele>
        <time>2011-06-07T09:06:48Z</time>
      </trkpt>
      <trkpt lat="45.69752" lon="6.03974">
        <ele>1309.5</ele>
        <time>2011-06-07T09:06:50Z</time>
      </trkpt>
      <trkpt lat="45.69753" lon="6.03977">
        <ele>1309.4</ele>
        <time>2011-06-07T09:06:51Z</time>
      </trkpt>
      <trkpt lat="45.69754" lon="6.03982">
        <ele>1309.3</ele>
        <time>2011-06-07T09:06:52Z</time>
      </trkpt>
      <trkpt lat="45.69754" lon="6.03985">
        <ele>1309.2</ele>
        <time>2011-06-07T09:06:53Z</time>
      </trkpt>
      <trkpt lat="45.69755" lon="6.03988">
        <ele>1309</ele>
        <time>2011-06-07T09:06:54Z</time>
      </trkpt>
      <trkpt lat="45.69756" lon="6.03994">
        <ele>1308.8</ele>
        <time>2011-06-07T09:06:56Z</time>
      </trkpt>
      <trkpt lat="45.69757" lon="6.04001">
        <ele>1308.6</ele>
        <time>2011-06-07T09:06:58Z</time>
      </trkpt>
      <trkpt lat="45.69758" lon="6.04005">
        <ele>1308.7</ele>
        <time>2011-06-07T09:06:59Z</time>
      </trkpt>
      <trkpt lat="45.6976" lon="6.0401">
        <ele>1309</ele>
        <time>2011-06-07T09:07:01Z</time>
      </trkpt>
      <trkpt lat="45.6976" lon="6.04012">
        <ele>1309</ele>
        <time>2011-06-07T09:07:01Z</time>
      </trkpt>
      <trkpt lat="45.69763" lon="6.04017">
        <ele>1309</ele>
        <time>2011-06-07T09:07:03Z</time>
      </trkpt>
      <trkpt lat="45.69764" lon="6.04022">
        <ele>1308.8</ele>
        <time>2011-06-07T09:07:04Z</time>
      </trkpt>
      <trkpt lat="45.69765" lon="6.04027">
        <ele>1308.5</ele>
        <time>2011-06-07T09:07:06Z</time>
      </trkpt>
      <trkpt lat="45.69767" lon="6.04033">
        <ele>1307.4</ele>
        <time>2011-06-07T09:07:08Z</time>
      </trkpt>
      <trkpt lat="45.69768" lon="6.04038">
        <ele>1306.4</ele>
        <time>2011-06-07T09:07:09Z</time>
      </trkpt>
      <trkpt lat="45.69769" lon="6.04041">
        <ele>1305.7</ele>
        <time>2011-06-07T09:07:10Z</time>
      </trkpt>
      <trkpt lat="45.69769" lon="6.04043">
        <ele>1305.4</ele>
        <time>2011-06-07T09:07:10Z</time>
      </trkpt>
      <trkpt lat="45.69767" lon="6.04046">
        <ele>1305</ele>
        <time>2011-06-07T09:07:12Z</time>
      </trkpt>
      <trkpt lat="45.69766" lon="6.04047">
        <ele>1304.9</ele>
        <time>2011-06-07T09:07:12Z</time>
      </trkpt>
      <trkpt lat="45.69763" lon="6.04049">
        <ele>1304.7</ele>
        <time>2011-06-07T09:07:13Z</time>
      </trkpt>
      <trkpt lat="45.69762" lon="6.04052">
        <ele>1304.3</ele>
        <time>2011-06-07T09:07:14Z</time>
      </trkpt>
      <trkpt lat="45.69763" lon="6.04056">
        <ele>1303.5</ele>
        <time>2011-06-07T09:07:16Z</time>
      </trkpt>
      <trkpt lat="45.69764" lon="6.04062">
        <ele>1302.5</ele>
        <time>2011-06-07T09:07:17Z</time>
      </trkpt>
      <trkpt lat="45.69764" lon="6.04064">
        <ele>1302.2</ele>
        <time>2011-06-07T09:07:18Z</time>
      </trkpt>
      <trkpt lat="45.69764" lon="6.04067">
        <ele>1301.7</ele>
        <time>2011-06-07T09:07:19Z</time>
      </trkpt>
      <trkpt lat="45.69765" lon="6.04071">
        <ele>1300.9</ele>
        <time>2011-06-07T09:07:20Z</time>
      </trkpt>
      <trkpt lat="45.69765" lon="6.04073">
        <ele>1300.5</ele>
        <time>2011-06-07T09:07:20Z</time>
      </trkpt>
      <trkpt lat="45.69766" lon="6.04077">
        <ele>1299.8</ele>
        <time>2011-06-07T09:07:22Z</time>
      </trkpt>
      <trkpt lat="45.69766" lon="6.04084">
        <ele>1298.9</ele>
        <time>2011-06-07T09:07:23Z</time>
      </trkpt>
      <trkpt lat="45.69765" lon="6.04085">
        <ele>1298.8</ele>
        <time>2011-06-07T09:07:24Z</time>
      </trkpt>
      <trkpt lat="45.69765" lon="6.04088">
        <ele>1298.6</ele>
        <time>2011-06-07T09:07:25Z</time>
      </trkpt>
      <trkpt lat="45.69766" lon="6.04089">
        <ele>1298.5</ele>
        <time>2011-06-07T09:07:25Z</time>
      </trkpt>
      <trkpt lat="45.69764" lon="6.04095">
        <ele>1298.2</ele>
        <time>2011-06-07T09:07:27Z</time>
      </trkpt>
      <trkpt lat="45.69763" lon="6.04097">
        <ele>1298</ele>
        <time>2011-06-07T09:07:27Z</time>
      </trkpt>
      <trkpt lat="45.69762" lon="6.04099">
        <ele>1297.9</ele>
        <time>2011-06-07T09:07:28Z</time>
      </trkpt>
      <trkpt lat="45.69759" lon="6.04102">
        <ele>1297.5</ele>
        <time>2011-06-07T09:07:29Z</time>
      </trkpt>
      <trkpt lat="45.69758" lon="6.04106">
        <ele>1297.1</ele>
        <time>2011-06-07T09:07:31Z</time>
      </trkpt>
      <trkpt lat="45.69757" lon="6.04108">
        <ele>1296.8</ele>
        <time>2011-06-07T09:07:31Z</time>
      </trkpt>
      <trkpt lat="45.69754" lon="6.04112">
        <ele>1296.2</ele>
        <time>2011-06-07T09:07:33Z</time>
      </trkpt>
      <trkpt lat="45.69753" lon="6.04115">
        <ele>1295.8</ele>
        <time>2011-06-07T09:07:34Z</time>
      </trkpt>
      <trkpt lat="45.69752" lon="6.04118">
        <ele>1295.5</ele>
        <time>2011-06-07T09:07:35Z</time>
      </trkpt>
      <trkpt lat="45.69751" lon="6.04122">
        <ele>1294.9</ele>
        <time>2011-06-07T09:07:36Z</time>
      </trkpt>
      <trkpt lat="45.69749" lon="6.04129">
        <ele>1293.9</ele>
        <time>2011-06-07T09:07:38Z</time>
      </trkpt>
      <trkpt lat="45.69748" lon="6.04133">
        <ele>1293.3</ele>
        <time>2011-06-07T09:07:39Z</time>
      </trkpt>
      <trkpt lat="45.6975" lon="6.04141">
        <ele>1292.7</ele>
        <time>2011-06-07T09:07:42Z</time>
      </trkpt>
      <trkpt lat="45.6975" lon="6.04148">
        <ele>1292</ele>
        <time>2011-06-07T09:07:43Z</time>
      </trkpt>
      <trkpt lat="45.6975" lon="6.04151">
        <ele>1291.7</ele>
        <time>2011-06-07T09:07:44Z</time>
      </trkpt>
      <trkpt lat="45.69748" lon="6.04155">
        <ele>1291</ele>
        <time>2011-06-07T09:07:46Z</time>
      </trkpt>
      <trkpt lat="45.69744" lon="6.04163">
        <ele>1289.9</ele>
        <time>2011-06-07T09:07:48Z</time>
      </trkpt>
      <trkpt lat="45.69743" lon="6.04167">
        <ele>1289.5</ele>
        <time>2011-06-07T09:07:49Z</time>
      </trkpt>
      <trkpt lat="45.69739" lon="6.04175">
        <ele>1289.7</ele>
        <time>2011-06-07T09:07:52Z</time>
      </trkpt>
      <trkpt lat="45.69736" lon="6.0418">
        <ele>1289.4</ele>
        <time>2011-06-07T09:07:54Z</time>
      </trkpt>
      <trkpt lat="45.69732" lon="6.04184">
        <ele>1289</ele>
        <time>2011-06-07T09:07:56Z</time>
      </trkpt>
      <trkpt lat="45.69728" lon="6.0419">
        <ele>1288.2</ele>
        <time>2011-06-07T09:07:59Z</time>
      </trkpt>
      <trkpt lat="45.69723" lon="6.04196">
        <ele>1287.2</ele>
        <time>2011-06-07T09:08:01Z</time>
      </trkpt>
      <trkpt lat="45.69719" lon="6.04201">
        <ele>1286.8</ele>
        <time>2011-06-07T09:08:03Z</time>
      </trkpt>
      <trkpt lat="45.69716" lon="6.04203">
        <ele>1286.6</ele>
        <time>2011-06-07T09:08:05Z</time>
      </trkpt>
      <trkpt lat="45.69711" lon="6.04205">
        <ele>1286.3</ele>
        <time>2011-06-07T09:08:07Z</time>
      </trkpt>
      <trkpt lat="45.69707" lon="6.04203">
        <ele>1286.1</ele>
        <time>2011-06-07T09:08:08Z</time>
      </trkpt>
      <trkpt lat="45.69703" lon="6.042">
        <ele>1286</ele>
        <time>2011-06-07T09:08:10Z</time>
      </trkpt>
      <trkpt lat="45.69703" lon="6.04196">
        <ele>1286.2</ele>
        <time>2011-06-07T09:08:11Z</time>
      </trkpt>
      <trkpt lat="45.69702" lon="6.04191">
        <ele>1286.4</ele>
        <time>2011-06-07T09:08:13Z</time>
      </trkpt>
      <trkpt lat="45.69701" lon="6.04186">
        <ele>1286.5</ele>
        <time>2011-06-07T09:08:14Z</time>
      </trkpt>
      <trkpt lat="45.697" lon="6.04183">
        <ele>1286.6</ele>
        <time>2011-06-07T09:08:15Z</time>
      </trkpt>
      <trkpt lat="45.69698" lon="6.04179">
        <ele>1286.7</ele>
        <time>2011-06-07T09:08:17Z</time>
      </trkpt>
      <trkpt lat="45.69693" lon="6.04174">
        <ele>1286.6</ele>
        <time>2011-06-07T09:08:19Z</time>
      </trkpt>
      <trkpt lat="45.69686" lon="6.0417">
        <ele>1286.5</ele>
        <time>2011-06-07T09:08:22Z</time>
      </trkpt>
      <trkpt lat="45.69682" lon="6.04169">
        <ele>1286.4</ele>
        <time>2011-06-07T09:08:24Z</time>
      </trkpt>
      <trkpt lat="45.69677" lon="6.04167">
        <ele>1286.3</ele>
        <time>2011-06-07T09:08:26Z</time>
      </trkpt>
      <trkpt lat="45.6967" lon="6.04166">
        <ele>1286.2</ele>
        <time>2011-06-07T09:08:28Z</time>
      </trkpt>
      <trkpt lat="45.69662" lon="6.04165">
        <ele>1286.3</ele>
        <time>2011-06-07T09:08:32Z</time>
      </trkpt>
      <trkpt lat="45.69659" lon="6.04164">
        <ele>1286.6</ele>
        <time>2011-06-07T09:08:33Z</time>
      </trkpt>
      <trkpt lat="45.69655" lon="6.04162">
        <ele>1287</ele>
        <time>2011-06-07T09:08:35Z</time>
      </trkpt>
      <trkpt lat="45.69651" lon="6.0416">
        <ele>1287.4</ele>
        <time>2011-06-07T09:08:36Z</time>
      </trkpt>
      <trkpt lat="45.69645" lon="6.04157">
        <ele>1288.1</ele>
        <time>2011-06-07T09:08:39Z</time>
      </trkpt>
      <trkpt lat="45.69637" lon="6.04155">
        <ele>1288.5</ele>
        <time>2011-06-07T09:08:42Z</time>
      </trkpt>
      <trkpt lat="45.69633" lon="6.04152">
        <ele>1288.3</ele>
        <time>2011-06-07T09:08:44Z</time>
      </trkpt>
      <trkpt lat="45.6963" lon="6.04148">
        <ele>1288.4</ele>
        <time>2011-06-07T09:08:45Z</time>
      </trkpt>
      <trkpt lat="45.69627" lon="6.04143">
        <ele>1288.8</ele>
        <time>2011-06-07T09:08:47Z</time>
      </trkpt>
      <trkpt lat="45.69621" lon="6.04141">
        <ele>1288.1</ele>
        <time>2011-06-07T09:08:50Z</time>
      </trkpt>
      <trkpt lat="45.69616" lon="6.04138">
        <ele>1287.8</ele>
        <time>2011-06-07T09:08:52Z</time>
      </trkpt>
      <trkpt lat="45.69611" lon="6.04138">
        <ele>1287.1</ele>
        <time>2011-06-07T09:08:54Z</time>
      </trkpt>
      <trkpt lat="45.69605" lon="6.04139">
        <ele>1287.6</ele>
        <time>2011-06-07T09:08:56Z</time>
      </trkpt>
      <trkpt lat="45.69601" lon="6.04139">
        <ele>1288.1</ele>
        <time>2011-06-07T09:08:58Z</time>
      </trkpt>
      <trkpt lat="45.69595" lon="6.04139">
        <ele>1288.8</ele>
        <time>2011-06-07T09:09:01Z</time>
      </trkpt>
      <trkpt lat="45.69588" lon="6.04139">
        <ele>1289.5</ele>
        <time>2011-06-07T09:09:03Z</time>
      </trkpt>
      <trkpt lat="45.69581" lon="6.04138">
        <ele>1290.4</ele>
        <time>2011-06-07T09:09:06Z</time>
      </trkpt>
      <trkpt lat="45.69577" lon="6.04139">
        <ele>1290.9</ele>
        <time>2011-06-07T09:09:08Z</time>
      </trkpt>
      <trkpt lat="45.6957" lon="6.04141">
        <ele>1291.7</ele>
        <time>2011-06-07T09:09:11Z</time>
      </trkpt>
      <trkpt lat="45.69564" lon="6.04143">
        <ele>1292.2</ele>
        <time>2011-06-07T09:09:13Z</time>
      </trkpt>
      <trkpt lat="45.69557" lon="6.04147">
        <ele>1292.7</ele>
        <time>2011-06-07T09:09:16Z</time>
      </trkpt>
      <trkpt lat="45.69551" lon="6.0415">
        <ele>1293</ele>
        <time>2011-06-07T09:09:19Z</time>
      </trkpt>
      <trkpt lat="45.69542" lon="6.04158">
        <ele>1294.5</ele>
        <time>2011-06-07T09:09:23Z</time>
      </trkpt>
      <trkpt lat="45.69536" lon="6.04164">
        <ele>1296.2</ele>
        <time>2011-06-07T09:09:26Z</time>
      </trkpt>
      <trkpt lat="45.69535" lon="6.0417">
        <ele>1296.5</ele>
        <time>2011-06-07T09:09:27Z</time>
      </trkpt>
      <trkpt lat="45.69533" lon="6.04172">
        <ele>1296.8</ele>
        <time>2011-06-07T09:09:28Z</time>
      </trkpt>
      <trkpt lat="45.69532" lon="6.04177">
        <ele>1296.8</ele>
        <time>2011-06-07T09:09:30Z</time>
      </trkpt>
      <trkpt lat="45.69533" lon="6.04183">
        <ele>1296.2</ele>
        <time>2011-06-07T09:09:31Z</time>
      </trkpt>
      <trkpt lat="45.69532" lon="6.04188">
        <ele>1296.3</ele>
        <time>2011-06-07T09:09:33Z</time>
      </trkpt>
      <trkpt lat="45.69529" lon="6.04195">
        <ele>1296.6</ele>
        <time>2011-06-07T09:09:35Z</time>
      </trkpt>
      <trkpt lat="45.69528" lon="6.04198">
        <ele>1296.6</ele>
        <time>2011-06-07T09:09:36Z</time>
      </trkpt>
      <trkpt lat="45.69515" lon="6.04203">
        <ele>1295.9</ele>
        <time>2011-06-07T09:09:41Z</time>
      </trkpt>
      <trkpt lat="45.69505" lon="6.04203">
        <ele>1295.8</ele>
        <time>2011-06-07T09:09:45Z</time>
      </trkpt>
      <trkpt lat="45.69503" lon="6.04198">
        <ele>1296.5</ele>
        <time>2011-06-07T09:09:47Z</time>
      </trkpt>
      <trkpt lat="45.69503" lon="6.04194">
        <ele>1297</ele>
        <time>2011-06-07T09:09:48Z</time>
      </trkpt>
      <trkpt lat="45.69503" lon="6.04191">
        <ele>1297.4</ele>
        <time>2011-06-07T09:09:49Z</time>
      </trkpt>
      <trkpt lat="45.69503" lon="6.04185">
        <ele>1298</ele>
        <time>2011-06-07T09:09:51Z</time>
      </trkpt>
      <trkpt lat="45.69503" lon="6.0418">
        <ele>1298.5</ele>
        <time>2011-06-07T09:09:52Z</time>
      </trkpt>
      <trkpt lat="45.69503" lon="6.04178">
        <ele>1298.8</ele>
        <time>2011-06-07T09:09:53Z</time>
      </trkpt>
      <trkpt lat="45.69502" lon="6.04169">
        <ele>1299.6</ele>
        <time>2011-06-07T09:09:55Z</time>
      </trkpt>
      <trkpt lat="45.695" lon="6.04162">
        <ele>1300</ele>
        <time>2011-06-07T09:09:57Z</time>
      </trkpt>
      <trkpt lat="45.69498" lon="6.04158">
        <ele>1299.3</ele>
        <time>2011-06-07T09:09:59Z</time>
      </trkpt>
      <trkpt lat="45.69494" lon="6.04156">
        <ele>1298.1</ele>
        <time>2011-06-07T09:10:00Z</time>
      </trkpt>
      <trkpt lat="45.69494" lon="6.04151">
        <ele>1298.2</ele>
        <time>2011-06-07T09:10:02Z</time>
      </trkpt>
      <trkpt lat="45.69494" lon="6.04148">
        <ele>1298.2</ele>
        <time>2011-06-07T09:10:03Z</time>
      </trkpt>
      <trkpt lat="45.69493" lon="6.04142">
        <ele>1298.4</ele>
        <time>2011-06-07T09:10:04Z</time>
      </trkpt>
      <trkpt lat="45.69493" lon="6.04135">
        <ele>1298.8</ele>
        <time>2011-06-07T09:10:06Z</time>
      </trkpt>
      <trkpt lat="45.69492" lon="6.04128">
        <ele>1299.5</ele>
        <time>2011-06-07T09:10:08Z</time>
      </trkpt>
      <trkpt lat="45.6949" lon="6.04122">
        <ele>1300</ele>
        <time>2011-06-07T09:10:10Z</time>
      </trkpt>
      <trkpt lat="45.69488" lon="6.04114">
        <ele>1300.7</ele>
        <time>2011-06-07T09:10:12Z</time>
      </trkpt>
      <trkpt lat="45.69486" lon="6.0411">
        <ele>1301.2</ele>
        <time>2011-06-07T09:10:14Z</time>
      </trkpt>
      <trkpt lat="45.69484" lon="6.04102">
        <ele>1302.2</ele>
        <time>2011-06-07T09:10:16Z</time>
      </trkpt>
      <trkpt lat="45.69482" lon="6.04098">
        <ele>1302.5</ele>
        <time>2011-06-07T09:10:17Z</time>
      </trkpt>
      <trkpt lat="45.69477" lon="6.04088">
        <ele>1303.3</ele>
        <time>2011-06-07T09:10:21Z</time>
      </trkpt>
      <trkpt lat="45.69477" lon="6.04083">
        <ele>1303.8</ele>
        <time>2011-06-07T09:10:22Z</time>
      </trkpt>
      <trkpt lat="45.69474" lon="6.04077">
        <ele>1303.4</ele>
        <time>2011-06-07T09:10:24Z</time>
      </trkpt>
      <trkpt lat="45.69467" lon="6.04074">
        <ele>1302.7</ele>
        <time>2011-06-07T09:10:27Z</time>
      </trkpt>
      <trkpt lat="45.69461" lon="6.04075">
        <ele>1302.3</ele>
        <time>2011-06-07T09:10:30Z</time>
      </trkpt>
      <trkpt lat="45.69458" lon="6.04075">
        <ele>1302.2</ele>
        <time>2011-06-07T09:10:31Z</time>
      </trkpt>
      <trkpt lat="45.69449" lon="6.04078">
        <ele>1301.8</ele>
        <time>2011-06-07T09:10:34Z</time>
      </trkpt>
      <trkpt lat="45.69445" lon="6.04082">
        <ele>1301.9</ele>
        <time>2011-06-07T09:10:36Z</time>
      </trkpt>
      <trkpt lat="45.69439" lon="6.04085">
        <ele>1302.6</ele>
        <time>2011-06-07T09:10:39Z</time>
      </trkpt>
      <trkpt lat="45.6943" lon="6.04087">
        <ele>1303.6</ele>
        <time>2011-06-07T09:10:43Z</time>
      </trkpt>
      <trkpt lat="45.69427" lon="6.04089">
        <ele>1303.9</ele>
        <time>2011-06-07T09:10:44Z</time>
      </trkpt>
      <trkpt lat="45.69416" lon="6.04093">
        <ele>1304.4</ele>
        <time>2011-06-07T09:10:49Z</time>
      </trkpt>
      <trkpt lat="45.69408" lon="6.04096">
        <ele>1304.7</ele>
        <time>2011-06-07T09:10:52Z</time>
      </trkpt>
      <trkpt lat="45.69403" lon="6.04098">
        <ele>1304.8</ele>
        <time>2011-06-07T09:10:54Z</time>
      </trkpt>
      <trkpt lat="45.69396" lon="6.04104">
        <ele>1304.8</ele>
        <time>2011-06-07T09:10:57Z</time>
      </trkpt>
      <trkpt lat="45.6939" lon="6.04108">
        <ele>1305.2</ele>
        <time>2011-06-07T09:11:00Z</time>
      </trkpt>
      <trkpt lat="45.69381" lon="6.04115">
        <ele>1306</ele>
        <time>2011-06-07T09:11:04Z</time>
      </trkpt>
      <trkpt lat="45.69369" lon="6.04126">
        <ele>1308.1</ele>
        <time>2011-06-07T09:11:10Z</time>
      </trkpt>
      <trkpt lat="45.69364" lon="6.04124">
        <ele>1308.6</ele>
        <time>2011-06-07T09:11:12Z</time>
      </trkpt>
      <trkpt lat="45.6936" lon="6.04123">
        <ele>1309</ele>
        <time>2011-06-07T09:11:13Z</time>
      </trkpt>
      <trkpt lat="45.69355" lon="6.0412">
        <ele>1309</ele>
        <time>2011-06-07T09:11:15Z</time>
      </trkpt>
      <trkpt lat="45.69353" lon="6.0412">
        <ele>1309.1</ele>
        <time>2011-06-07T09:11:16Z</time>
      </trkpt>
      <trkpt lat="45.69348" lon="6.04116">
        <ele>1308.8</ele>
        <time>2011-06-07T09:11:18Z</time>
      </trkpt>
      <trkpt lat="45.69345" lon="6.04114">
        <ele>1308.4</ele>
        <time>2011-06-07T09:11:20Z</time>
      </trkpt>
      <trkpt lat="45.69342" lon="6.04111">
        <ele>1308</ele>
        <time>2011-06-07T09:11:21Z</time>
      </trkpt>
      <trkpt lat="45.69337" lon="6.04106">
        <ele>1308</ele>
        <time>2011-06-07T09:11:24Z</time>
      </trkpt>
      <trkpt lat="45.69334" lon="6.04104">
        <ele>1308</ele>
        <time>2011-06-07T09:11:25Z</time>
      </trkpt>
      <trkpt lat="45.69333" lon="6.04101">
        <ele>1308</ele>
        <time>2011-06-07T09:11:26Z</time>
      </trkpt>
      <trkpt lat="45.69331" lon="6.04098">
        <ele>1308.1</ele>
        <time>2011-06-07T09:11:27Z</time>
      </trkpt>
      <trkpt lat="45.69329" lon="6.04095">
        <ele>1308.1</ele>
        <time>2011-06-07T09:11:28Z</time>
      </trkpt>
      <trkpt lat="45.69327" lon="6.04092">
        <ele>1308</ele>
        <time>2011-06-07T09:11:30Z</time>
      </trkpt>
      <trkpt lat="45.69324" lon="6.04088">
        <ele>1307.9</ele>
        <time>2011-06-07T09:11:31Z</time>
      </trkpt>
      <trkpt lat="45.69321" lon="6.04085">
        <ele>1307.7</ele>
        <time>2011-06-07T09:11:32Z</time>
      </trkpt>
      <trkpt lat="45.69316" lon="6.04081">
        <ele>1307.5</ele>
        <time>2011-06-07T09:11:35Z</time>
      </trkpt>
      <trkpt lat="45.69314" lon="6.04078">
        <ele>1307.5</ele>
        <time>2011-06-07T09:11:36Z</time>
      </trkpt>
      <trkpt lat="45.69314" lon="6.04076">
        <ele>1307.5</ele>
        <time>2011-06-07T09:11:36Z</time>
      </trkpt>
      <trkpt lat="45.69311" lon="6.04074">
        <ele>1307.5</ele>
        <time>2011-06-07T09:11:38Z</time>
      </trkpt>
      <trkpt lat="45.69309" lon="6.04072">
        <ele>1307.5</ele>
        <time>2011-06-07T09:11:38Z</time>
      </trkpt>
      <trkpt lat="45.69307" lon="6.04069">
        <ele>1307.6</ele>
        <time>2011-06-07T09:11:40Z</time>
      </trkpt>
      <trkpt lat="45.69305" lon="6.04065">
        <ele>1307.7</ele>
        <time>2011-06-07T09:11:41Z</time>
      </trkpt>
      <trkpt lat="45.69302" lon="6.04059">
        <ele>1308.1</ele>
        <time>2011-06-07T09:11:43Z</time>
      </trkpt>
      <trkpt lat="45.69302" lon="6.04057">
        <ele>1308.1</ele>
        <time>2011-06-07T09:11:44Z</time>
      </trkpt>
      <trkpt lat="45.693" lon="6.04054">
        <ele>1308.3</ele>
        <time>2011-06-07T09:11:45Z</time>
      </trkpt>
      <trkpt lat="45.693" lon="6.04053">
        <ele>1308.3</ele>
        <time>2011-06-07T09:11:45Z</time>
      </trkpt>
      <trkpt lat="45.69299" lon="6.04051">
        <ele>1308.4</ele>
        <time>2011-06-07T09:11:46Z</time>
      </trkpt>
      <trkpt lat="45.69298" lon="6.04048">
        <ele>1308.5</ele>
        <time>2011-06-07T09:11:47Z</time>
      </trkpt>
      <trkpt lat="45.69296" lon="6.04045">
        <ele>1308.7</ele>
        <time>2011-06-07T09:11:48Z</time>
      </trkpt>
      <trkpt lat="45.69291" lon="6.04039">
        <ele>1309.1</ele>
        <time>2011-06-07T09:11:51Z</time>
      </trkpt>
      <trkpt lat="45.69287" lon="6.04035">
        <ele>1309.4</ele>
        <time>2011-06-07T09:11:52Z</time>
      </trkpt>
      <trkpt lat="45.69285" lon="6.04031">
        <ele>1309.6</ele>
        <time>2011-06-07T09:11:54Z</time>
      </trkpt>
      <trkpt lat="45.69283" lon="6.04028">
        <ele>1309.8</ele>
        <time>2011-06-07T09:11:55Z</time>
      </trkpt>
      <trkpt lat="45.69281" lon="6.04025">
        <ele>1309.8</ele>
        <time>2011-06-07T09:11:56Z</time>
      </trkpt>
      <trkpt lat="45.6928" lon="6.04023">
        <ele>1309.7</ele>
        <time>2011-06-07T09:11:57Z</time>
      </trkpt>
      <trkpt lat="45.69279" lon="6.04019">
        <ele>1309.6</ele>
        <time>2011-06-07T09:11:58Z</time>
      </trkpt>
      <trkpt lat="45.69279" lon="6.04016">
        <ele>1309.4</ele>
        <time>2011-06-07T09:11:59Z</time>
      </trkpt>
      <trkpt lat="45.69278" lon="6.04012">
        <ele>1309.4</ele>
        <time>2011-06-07T09:12:00Z</time>
      </trkpt>
      <trkpt lat="45.69278" lon="6.0401">
        <ele>1309.3</ele>
        <time>2011-06-07T09:12:01Z</time>
      </trkpt>
      <trkpt lat="45.69278" lon="6.04007">
        <ele>1309.2</ele>
        <time>2011-06-07T09:12:01Z</time>
      </trkpt>
      <trkpt lat="45.69276" lon="6.04004">
        <ele>1309.4</ele>
        <time>2011-06-07T09:12:02Z</time>
      </trkpt>
      <trkpt lat="45.69275" lon="6.04003">
        <ele>1309.6</ele>
        <time>2011-06-07T09:12:03Z</time>
      </trkpt>
      <trkpt lat="45.69275" lon="6.04002">
        <ele>1309.6</ele>
        <time>2011-06-07T09:12:03Z</time>
      </trkpt>
      <trkpt lat="45.69273" lon="6.04">
        <ele>1309.8</ele>
        <time>2011-06-07T09:12:04Z</time>
      </trkpt>
      <trkpt lat="45.69271" lon="6.03994">
        <ele>1310</ele>
        <time>2011-06-07T09:12:06Z</time>
      </trkpt>
      <trkpt lat="45.6927" lon="6.03992">
        <ele>1310</ele>
        <time>2011-06-07T09:12:07Z</time>
      </trkpt>
      <trkpt lat="45.69269" lon="6.03989">
        <ele>1310</ele>
        <time>2011-06-07T09:12:08Z</time>
      </trkpt>
      <trkpt lat="45.69269" lon="6.03985">
        <ele>1309.9</ele>
        <time>2011-06-07T09:12:09Z</time>
      </trkpt>
      <trkpt lat="45.69269" lon="6.03982">
        <ele>1309.8</ele>
        <time>2011-06-07T09:12:10Z</time>
      </trkpt>
      <trkpt lat="45.69268" lon="6.03979">
        <ele>1309.8</ele>
        <time>2011-06-07T09:12:10Z</time>
      </trkpt>
      <trkpt lat="45.69268" lon="6.03976">
        <ele>1309.6</ele>
        <time>2011-06-07T09:12:11Z</time>
      </trkpt>
      <trkpt lat="45.69266" lon="6.03973">
        <ele>1309.7</ele>
        <time>2011-06-07T09:12:12Z</time>
      </trkpt>
      <trkpt lat="45.69265" lon="6.0397">
        <ele>1310.2</ele>
        <time>2011-06-07T09:12:14Z</time>
      </trkpt>
      <trkpt lat="45.69262" lon="6.03964">
        <ele>1311</ele>
        <time>2011-06-07T09:12:15Z</time>
      </trkpt>
      <trkpt lat="45.6926" lon="6.03961">
        <ele>1311.5</ele>
        <time>2011-06-07T09:12:17Z</time>
      </trkpt>
      <trkpt lat="45.6926" lon="6.0396">
        <ele>1311.6</ele>
        <time>2011-06-07T09:12:17Z</time>
      </trkpt>
      <trkpt lat="45.69257" lon="6.03957">
        <ele>1312.1</ele>
        <time>2011-06-07T09:12:18Z</time>
      </trkpt>
      <trkpt lat="45.69255" lon="6.03955">
        <ele>1312.3</ele>
        <time>2011-06-07T09:12:19Z</time>
      </trkpt>
      <trkpt lat="45.69254" lon="6.03954">
        <ele>1312.5</ele>
        <time>2011-06-07T09:12:20Z</time>
      </trkpt>
      <trkpt lat="45.69253" lon="6.03953">
        <ele>1312.6</ele>
        <time>2011-06-07T09:12:20Z</time>
      </trkpt>
      <trkpt lat="45.6925" lon="6.03951">
        <ele>1312.8</ele>
        <time>2011-06-07T09:12:22Z</time>
      </trkpt>
      <trkpt lat="45.69249" lon="6.03951">
        <ele>1312.8</ele>
        <time>2011-06-07T09:12:22Z</time>
      </trkpt>
      <trkpt lat="45.69248" lon="6.03949">
        <ele>1313</ele>
        <time>2011-06-07T09:12:23Z</time>
      </trkpt>
      <trkpt lat="45.69245" lon="6.03947">
        <ele>1313.1</ele>
        <time>2011-06-07T09:12:24Z</time>
      </trkpt>
      <trkpt lat="45.69241" lon="6.03944">
        <ele>1313.4</ele>
        <time>2011-06-07T09:12:26Z</time>
      </trkpt>
      <trkpt lat="45.6924" lon="6.03943">
        <ele>1313.5</ele>
        <time>2011-06-07T09:12:26Z</time>
      </trkpt>
      <trkpt lat="45.69238" lon="6.03943">
        <ele>1313.6</ele>
        <time>2011-06-07T09:12:27Z</time>
      </trkpt>
      <trkpt lat="45.69236" lon="6.03941">
        <ele>1314</ele>
        <time>2011-06-07T09:12:28Z</time>
      </trkpt>
      <trkpt lat="45.69234" lon="6.03941">
        <ele>1314.1</ele>
        <time>2011-06-07T09:12:29Z</time>
      </trkpt>
      <trkpt lat="45.69232" lon="6.0394">
        <ele>1314.2</ele>
        <time>2011-06-07T09:12:29Z</time>
      </trkpt>
      <trkpt lat="45.69229" lon="6.03939">
        <ele>1314.5</ele>
        <time>2011-06-07T09:12:31Z</time>
      </trkpt>
      <trkpt lat="45.69228" lon="6.03939">
        <ele>1314.6</ele>
        <time>2011-06-07T09:12:31Z</time>
      </trkpt>
      <trkpt lat="45.69225" lon="6.03939">
        <ele>1314.7</ele>
        <time>2011-06-07T09:12:32Z</time>
      </trkpt>
      <trkpt lat="45.69224" lon="6.03937">
        <ele>1315</ele>
        <time>2011-06-07T09:12:33Z</time>
      </trkpt>
      <trkpt lat="45.69212" lon="6.0393">
        <ele>1316.4</ele>
        <time>2011-06-07T09:12:38Z</time>
      </trkpt>
      <trkpt lat="45.69209" lon="6.03929">
        <ele>1316.6</ele>
        <time>2011-06-07T09:12:39Z</time>
      </trkpt>
      <trkpt lat="45.69207" lon="6.03926">
        <ele>1316.9</ele>
        <time>2011-06-07T09:12:41Z</time>
      </trkpt>
      <trkpt lat="45.69198" lon="6.03921">
        <ele>1317.1</ele>
        <time>2011-06-07T09:12:45Z</time>
      </trkpt>
      <trkpt lat="45.69189" lon="6.03917">
        <ele>1317.2</ele>
        <time>2011-06-07T09:12:49Z</time>
      </trkpt>
      <trkpt lat="45.69185" lon="6.03916">
        <ele>1317.4</ele>
        <time>2011-06-07T09:12:50Z</time>
      </trkpt>
      <trkpt lat="45.69179" lon="6.03914">
        <ele>1317.8</ele>
        <time>2011-06-07T09:12:52Z</time>
      </trkpt>
      <trkpt lat="45.69172" lon="6.03912">
        <ele>1318.1</ele>
        <time>2011-06-07T09:12:55Z</time>
      </trkpt>
      <trkpt lat="45.69167" lon="6.03907">
        <ele>1318.3</ele>
        <time>2011-06-07T09:12:58Z</time>
      </trkpt>
      <trkpt lat="45.69162" lon="6.03905">
        <ele>1318.2</ele>
        <time>2011-06-07T09:13:00Z</time>
      </trkpt>
      <trkpt lat="45.69158" lon="6.03903">
        <ele>1318</ele>
        <time>2011-06-07T09:13:02Z</time>
      </trkpt>
      <trkpt lat="45.69155" lon="6.03901">
        <ele>1317.9</ele>
        <time>2011-06-07T09:13:03Z</time>
      </trkpt>
      <trkpt lat="45.69152" lon="6.03898">
        <ele>1317.8</ele>
        <time>2011-06-07T09:13:04Z</time>
      </trkpt>
      <trkpt lat="45.69148" lon="6.03894">
        <ele>1317.6</ele>
        <time>2011-06-07T09:13:06Z</time>
      </trkpt>
      <trkpt lat="45.69147" lon="6.03893">
        <ele>1317.5</ele>
        <time>2011-06-07T09:13:07Z</time>
      </trkpt>
      <trkpt lat="45.69145" lon="6.0389">
        <ele>1317.5</ele>
        <time>2011-06-07T09:13:08Z</time>
      </trkpt>
      <trkpt lat="45.69143" lon="6.03886">
        <ele>1317.5</ele>
        <time>2011-06-07T09:13:09Z</time>
      </trkpt>
      <trkpt lat="45.6914" lon="6.03882">
        <ele>1317.8</ele>
        <time>2011-06-07T09:13:11Z</time>
      </trkpt>
      <trkpt lat="45.69139" lon="6.03881">
        <ele>1317.9</ele>
        <time>2011-06-07T09:13:12Z</time>
      </trkpt>
      <trkpt lat="45.69135" lon="6.03874">
        <ele>1318.4</ele>
        <time>2011-06-07T09:13:14Z</time>
      </trkpt>
      <trkpt lat="45.69133" lon="6.0387">
        <ele>1318.5</ele>
        <time>2011-06-07T09:13:15Z</time>
      </trkpt>
      <trkpt lat="45.69131" lon="6.03868">
        <ele>1318.6</ele>
        <time>2011-06-07T09:13:16Z</time>
      </trkpt>
      <trkpt lat="45.69129" lon="6.03864">
        <ele>1318.8</ele>
        <time>2011-06-07T09:13:17Z</time>
      </trkpt>
      <trkpt lat="45.69124" lon="6.03862">
        <ele>1318.3</ele>
        <time>2011-06-07T09:13:20Z</time>
      </trkpt>
      <trkpt lat="45.69122" lon="6.0386">
        <ele>1318.3</ele>
        <time>2011-06-07T09:13:21Z</time>
      </trkpt>
      <trkpt lat="45.69118" lon="6.03859">
        <ele>1318.1</ele>
        <time>2011-06-07T09:13:22Z</time>
      </trkpt>
      <trkpt lat="45.69113" lon="6.03859">
        <ele>1317.6</ele>
        <time>2011-06-07T09:13:24Z</time>
      </trkpt>
      <trkpt lat="45.69111" lon="6.03858">
        <ele>1317.5</ele>
        <time>2011-06-07T09:13:25Z</time>
      </trkpt>
      <trkpt lat="45.69106" lon="6.03858">
        <ele>1317.2</ele>
        <time>2011-06-07T09:13:27Z</time>
      </trkpt>
      <trkpt lat="45.69103" lon="6.03857">
        <ele>1317.2</ele>
        <time>2011-06-07T09:13:28Z</time>
      </trkpt>
      <trkpt lat="45.69099" lon="6.03857">
        <ele>1317</ele>
        <time>2011-06-07T09:13:30Z</time>
      </trkpt>
      <trkpt lat="45.69097" lon="6.03857">
        <ele>1316.9</ele>
        <time>2011-06-07T09:13:31Z</time>
      </trkpt>
      <trkpt lat="45.69093" lon="6.03857">
        <ele>1316.6</ele>
        <time>2011-06-07T09:13:32Z</time>
      </trkpt>
      <trkpt lat="45.6909" lon="6.03857">
        <ele>1316.4</ele>
        <time>2011-06-07T09:13:33Z</time>
      </trkpt>
      <trkpt lat="45.69088" lon="6.03857">
        <ele>1316.3</ele>
        <time>2011-06-07T09:13:34Z</time>
      </trkpt>
      <trkpt lat="45.69086" lon="6.03855">
        <ele>1316.2</ele>
        <time>2011-06-07T09:13:35Z</time>
      </trkpt>
      <trkpt lat="45.69082" lon="6.03854">
        <ele>1316</ele>
        <time>2011-06-07T09:13:37Z</time>
      </trkpt>
      <trkpt lat="45.69076" lon="6.03853">
        <ele>1315.9</ele>
        <time>2011-06-07T09:13:39Z</time>
      </trkpt>
      <trkpt lat="45.69069" lon="6.03853">
        <ele>1315.8</ele>
        <time>2011-06-07T09:13:42Z</time>
      </trkpt>
      <trkpt lat="45.69065" lon="6.03853">
        <ele>1315.7</ele>
        <time>2011-06-07T09:13:44Z</time>
      </trkpt>
      <trkpt lat="45.6906" lon="6.03852">
        <ele>1315.7</ele>
        <time>2011-06-07T09:13:46Z</time>
      </trkpt>
      <trkpt lat="45.69055" lon="6.03852">
        <ele>1315.6</ele>
        <time>2011-06-07T09:13:48Z</time>
      </trkpt>
      <trkpt lat="45.69054" lon="6.03849">
        <ele>1315.7</ele>
        <time>2011-06-07T09:13:49Z</time>
      </trkpt>
      <trkpt lat="45.69053" lon="6.03847">
        <ele>1315.8</ele>
        <time>2011-06-07T09:13:49Z</time>
      </trkpt>
      <trkpt lat="45.69052" lon="6.03845">
        <ele>1315.9</ele>
        <time>2011-06-07T09:13:50Z</time>
      </trkpt>
      <trkpt lat="45.69052" lon="6.03842">
        <ele>1315.9</ele>
        <time>2011-06-07T09:13:51Z</time>
      </trkpt>
      <trkpt lat="45.69051" lon="6.03839">
        <ele>1316</ele>
        <time>2011-06-07T09:13:52Z</time>
      </trkpt>
      <trkpt lat="45.6905" lon="6.03835">
        <ele>1316</ele>
        <time>2011-06-07T09:13:53Z</time>
      </trkpt>
      <trkpt lat="45.69049" lon="6.03829">
        <ele>1316.4</ele>
        <time>2011-06-07T09:13:55Z</time>
      </trkpt>
      <trkpt lat="45.69048" lon="6.03824">
        <ele>1317.1</ele>
        <time>2011-06-07T09:13:56Z</time>
      </trkpt>
      <trkpt lat="45.69047" lon="6.0382">
        <ele>1317.3</ele>
        <time>2011-06-07T09:13:57Z</time>
      </trkpt>
      <trkpt lat="45.69047" lon="6.03816">
        <ele>1317.8</ele>
        <time>2011-06-07T09:13:58Z</time>
      </trkpt>
      <trkpt lat="45.69046" lon="6.03815">
        <ele>1317.8</ele>
        <time>2011-06-07T09:13:59Z</time>
      </trkpt>
      <trkpt lat="45.69046" lon="6.03812">
        <ele>1318.1</ele>
        <time>2011-06-07T09:14:00Z</time>
      </trkpt>
      <trkpt lat="45.69046" lon="6.03808">
        <ele>1318.6</ele>
        <time>2011-06-07T09:14:01Z</time>
      </trkpt>
      <trkpt lat="45.6904" lon="6.03798">
        <ele>1318.2</ele>
        <time>2011-06-07T09:14:04Z</time>
      </trkpt>
      <trkpt lat="45.69039" lon="6.03794">
        <ele>1318.4</ele>
        <time>2011-06-07T09:14:05Z</time>
      </trkpt>
      <trkpt lat="45.69039" lon="6.03792">
        <ele>1318.5</ele>
        <time>2011-06-07T09:14:06Z</time>
      </trkpt>
      <trkpt lat="45.69037" lon="6.03787">
        <ele>1318.6</ele>
        <time>2011-06-07T09:14:08Z</time>
      </trkpt>
      <trkpt lat="45.69037" lon="6.03783">
        <ele>1319.1</ele>
        <time>2011-06-07T09:14:09Z</time>
      </trkpt>
      <trkpt lat="45.69036" lon="6.03779">
        <ele>1319.4</ele>
        <time>2011-06-07T09:14:10Z</time>
      </trkpt>
      <trkpt lat="45.69035" lon="6.03774">
        <ele>1319.6</ele>
        <time>2011-06-07T09:14:12Z</time>
      </trkpt>
      <trkpt lat="45.69035" lon="6.03769">
        <ele>1319.9</ele>
        <time>2011-06-07T09:14:13Z</time>
      </trkpt>
      <trkpt lat="45.69036" lon="6.03764">
        <ele>1320.2</ele>
        <time>2011-06-07T09:14:14Z</time>
      </trkpt>
      <trkpt lat="45.69035" lon="6.03761">
        <ele>1320</ele>
        <time>2011-06-07T09:14:15Z</time>
      </trkpt>
      <trkpt lat="45.69034" lon="6.03756">
        <ele>1320</ele>
        <time>2011-06-07T09:14:17Z</time>
      </trkpt>
      <trkpt lat="45.69034" lon="6.03754">
        <ele>1320.1</ele>
        <time>2011-06-07T09:14:17Z</time>
      </trkpt>
      <trkpt lat="45.69033" lon="6.03752">
        <ele>1319.9</ele>
        <time>2011-06-07T09:14:18Z</time>
      </trkpt>
      <trkpt lat="45.69032" lon="6.0375">
        <ele>1319.7</ele>
        <time>2011-06-07T09:14:18Z</time>
      </trkpt>
      <trkpt lat="45.69033" lon="6.03749">
        <ele>1319.8</ele>
        <time>2011-06-07T09:14:19Z</time>
      </trkpt>
      <trkpt lat="45.69031" lon="6.03746">
        <ele>1319.6</ele>
        <time>2011-06-07T09:14:20Z</time>
      </trkpt>
      <trkpt lat="45.69031" lon="6.03746">
        <ele>1319.4</ele>
        <time>2011-06-07T09:14:20Z</time>
      </trkpt>
      <trkpt lat="45.6903" lon="6.03743">
        <ele>1319.4</ele>
        <time>2011-06-07T09:14:21Z</time>
      </trkpt>
      <trkpt lat="45.69029" lon="6.03741">
        <ele>1319.4</ele>
        <time>2011-06-07T09:14:22Z</time>
      </trkpt>
      <trkpt lat="45.69028" lon="6.0374">
        <ele>1319.1</ele>
        <time>2011-06-07T09:14:22Z</time>
      </trkpt>
      <trkpt lat="45.69026" lon="6.03734">
        <ele>1319.3</ele>
        <time>2011-06-07T09:14:24Z</time>
      </trkpt>
      <trkpt lat="45.69025" lon="6.03733">
        <ele>1319.2</ele>
        <time>2011-06-07T09:14:24Z</time>
      </trkpt>
      <trkpt lat="45.69024" lon="6.0373">
        <ele>1319.2</ele>
        <time>2011-06-07T09:14:25Z</time>
      </trkpt>
      <trkpt lat="45.69023" lon="6.03729">
        <ele>1318.9</ele>
        <time>2011-06-07T09:14:26Z</time>
      </trkpt>
      <trkpt lat="45.69022" lon="6.03726">
        <ele>1319</ele>
        <time>2011-06-07T09:14:27Z</time>
      </trkpt>
      <trkpt lat="45.69022" lon="6.03723">
        <ele>1319.2</ele>
        <time>2011-06-07T09:14:27Z</time>
      </trkpt>
      <trkpt lat="45.69021" lon="6.03721">
        <ele>1319.4</ele>
        <time>2011-06-07T09:14:28Z</time>
      </trkpt>
      <trkpt lat="45.69021" lon="6.0372">
        <ele>1319.6</ele>
        <time>2011-06-07T09:14:28Z</time>
      </trkpt>
      <trkpt lat="45.6902" lon="6.03713">
        <ele>1320.5</ele>
        <time>2011-06-07T09:14:31Z</time>
      </trkpt>
      <trkpt lat="45.69019" lon="6.03707">
        <ele>1321</ele>
        <time>2011-06-07T09:14:32Z</time>
      </trkpt>
      <trkpt lat="45.69017" lon="6.03701">
        <ele>1321.4</ele>
        <time>2011-06-07T09:14:34Z</time>
      </trkpt>
      <trkpt lat="45.69016" lon="6.03697">
        <ele>1321.8</ele>
        <time>2011-06-07T09:14:35Z</time>
      </trkpt>
      <trkpt lat="45.69015" lon="6.03692">
        <ele>1322</ele>
        <time>2011-06-07T09:14:37Z</time>
      </trkpt>
      <trkpt lat="45.69012" lon="6.03688">
        <ele>1321.6</ele>
        <time>2011-06-07T09:14:38Z</time>
      </trkpt>
      <trkpt lat="45.6901" lon="6.03683">
        <ele>1321.5</ele>
        <time>2011-06-07T09:14:40Z</time>
      </trkpt>
      <trkpt lat="45.69008" lon="6.03681">
        <ele>1321.4</ele>
        <time>2011-06-07T09:14:41Z</time>
      </trkpt>
      <trkpt lat="45.69007" lon="6.03679">
        <ele>1321.3</ele>
        <time>2011-06-07T09:14:41Z</time>
      </trkpt>
      <trkpt lat="45.69007" lon="6.03678">
        <ele>1321.1</ele>
        <time>2011-06-07T09:14:42Z</time>
      </trkpt>
      <trkpt lat="45.69005" lon="6.03675">
        <ele>1320.7</ele>
        <time>2011-06-07T09:14:43Z</time>
      </trkpt>
      <trkpt lat="45.69004" lon="6.03674">
        <ele>1320.7</ele>
        <time>2011-06-07T09:14:43Z</time>
      </trkpt>
      <trkpt lat="45.69003" lon="6.0367">
        <ele>1320.8</ele>
        <time>2011-06-07T09:14:45Z</time>
      </trkpt>
      <trkpt lat="45.69002" lon="6.03667">
        <ele>1320.8</ele>
        <time>2011-06-07T09:14:45Z</time>
      </trkpt>
      <trkpt lat="45.69002" lon="6.03667">
        <ele>1320.7</ele>
        <time>2011-06-07T09:14:46Z</time>
      </trkpt>
      <trkpt lat="45.68998" lon="6.03663">
        <ele>1320.5</ele>
        <time>2011-06-07T09:14:47Z</time>
      </trkpt>
      <trkpt lat="45.68994" lon="6.03659">
        <ele>1320.9</ele>
        <time>2011-06-07T09:14:49Z</time>
      </trkpt>
      <trkpt lat="45.6899" lon="6.03655">
        <ele>1321.1</ele>
        <time>2011-06-07T09:14:51Z</time>
      </trkpt>
      <trkpt lat="45.68988" lon="6.03654">
        <ele>1321.1</ele>
        <time>2011-06-07T09:14:52Z</time>
      </trkpt>
      <trkpt lat="45.68986" lon="6.03651">
        <ele>1321.3</ele>
        <time>2011-06-07T09:14:53Z</time>
      </trkpt>
      <trkpt lat="45.68985" lon="6.03646">
        <ele>1322.1</ele>
        <time>2011-06-07T09:14:55Z</time>
      </trkpt>
      <trkpt lat="45.68983" lon="6.03641">
        <ele>1322.6</ele>
        <time>2011-06-07T09:14:56Z</time>
      </trkpt>
      <trkpt lat="45.68981" lon="6.03639">
        <ele>1322.5</ele>
        <time>2011-06-07T09:14:57Z</time>
      </trkpt>
      <trkpt lat="45.68978" lon="6.03637">
        <ele>1322.5</ele>
        <time>2011-06-07T09:14:59Z</time>
      </trkpt>
      <trkpt lat="45.68976" lon="6.03635">
        <ele>1322.4</ele>
        <time>2011-06-07T09:15:00Z</time>
      </trkpt>
      <trkpt lat="45.68973" lon="6.03634">
        <ele>1321.9</ele>
        <time>2011-06-07T09:15:01Z</time>
      </trkpt>
      <trkpt lat="45.68968" lon="6.03638">
        <ele>1320.8</ele>
        <time>2011-06-07T09:15:03Z</time>
      </trkpt>
      <trkpt lat="45.68966" lon="6.03639">
        <ele>1320.6</ele>
        <time>2011-06-07T09:15:04Z</time>
      </trkpt>
      <trkpt lat="45.68964" lon="6.03641">
        <ele>1320.3</ele>
        <time>2011-06-07T09:15:05Z</time>
      </trkpt>
      <trkpt lat="45.6896" lon="6.03645">
        <ele>1320.1</ele>
        <time>2011-06-07T09:15:07Z</time>
      </trkpt>
      <trkpt lat="45.68958" lon="6.03646">
        <ele>1320.1</ele>
        <time>2011-06-07T09:15:08Z</time>
      </trkpt>
      <trkpt lat="45.68952" lon="6.03653">
        <ele>1320.8</ele>
        <time>2011-06-07T09:15:11Z</time>
      </trkpt>
      <trkpt lat="45.68948" lon="6.03656">
        <ele>1321.5</ele>
        <time>2011-06-07T09:15:13Z</time>
      </trkpt>
      <trkpt lat="45.68947" lon="6.03656">
        <ele>1321.7</ele>
        <time>2011-06-07T09:15:13Z</time>
      </trkpt>
      <trkpt lat="45.68943" lon="6.03658">
        <ele>1322.2</ele>
        <time>2011-06-07T09:15:15Z</time>
      </trkpt>
      <trkpt lat="45.68942" lon="6.03658">
        <ele>1322</ele>
        <time>2011-06-07T09:15:15Z</time>
      </trkpt>
      <trkpt lat="45.68938" lon="6.03659">
        <ele>1321.4</ele>
        <time>2011-06-07T09:15:17Z</time>
      </trkpt>
      <trkpt lat="45.68935" lon="6.03662">
        <ele>1321.3</ele>
        <time>2011-06-07T09:15:18Z</time>
      </trkpt>
      <trkpt lat="45.68929" lon="6.03667">
        <ele>1321.2</ele>
        <time>2011-06-07T09:15:21Z</time>
      </trkpt>
      <trkpt lat="45.68927" lon="6.03668">
        <ele>1321.1</ele>
        <time>2011-06-07T09:15:22Z</time>
      </trkpt>
      <trkpt lat="45.68924" lon="6.0367">
        <ele>1320.9</ele>
        <time>2011-06-07T09:15:23Z</time>
      </trkpt>
      <trkpt lat="45.68922" lon="6.03672">
        <ele>1320.9</ele>
        <time>2011-06-07T09:15:24Z</time>
      </trkpt>
      <trkpt lat="45.6892" lon="6.03673">
        <ele>1321</ele>
        <time>2011-06-07T09:15:25Z</time>
      </trkpt>
      <trkpt lat="45.68914" lon="6.03677">
        <ele>1320.9</ele>
        <time>2011-06-07T09:15:28Z</time>
      </trkpt>
      <trkpt lat="45.68911" lon="6.03678">
        <ele>1320.7</ele>
        <time>2011-06-07T09:15:29Z</time>
      </trkpt>
      <trkpt lat="45.68909" lon="6.03678">
        <ele>1320.5</ele>
        <time>2011-06-07T09:15:30Z</time>
      </trkpt>
      <trkpt lat="45.68907" lon="6.03679">
        <ele>1320.5</ele>
        <time>2011-06-07T09:15:31Z</time>
      </trkpt>
      <trkpt lat="45.68905" lon="6.03679">
        <ele>1320.3</ele>
        <time>2011-06-07T09:15:31Z</time>
      </trkpt>
      <trkpt lat="45.68904" lon="6.03681">
        <ele>1320.4</ele>
        <time>2011-06-07T09:15:32Z</time>
      </trkpt>
      <trkpt lat="45.68902" lon="6.03681">
        <ele>1320.2</ele>
        <time>2011-06-07T09:15:33Z</time>
      </trkpt>
      <trkpt lat="45.68901" lon="6.0368">
        <ele>1319.9</ele>
        <time>2011-06-07T09:15:33Z</time>
      </trkpt>
      <trkpt lat="45.68899" lon="6.03679">
        <ele>1319.5</ele>
        <time>2011-06-07T09:15:34Z</time>
      </trkpt>
      <trkpt lat="45.68895" lon="6.03679">
        <ele>1319.1</ele>
        <time>2011-06-07T09:15:36Z</time>
      </trkpt>
      <trkpt lat="45.68893" lon="6.03678">
        <ele>1318.5</ele>
        <time>2011-06-07T09:15:37Z</time>
      </trkpt>
      <trkpt lat="45.68889" lon="6.03679">
        <ele>1318.2</ele>
        <time>2011-06-07T09:15:38Z</time>
      </trkpt>
      <trkpt lat="45.68885" lon="6.03678">
        <ele>1318.2</ele>
        <time>2011-06-07T09:15:40Z</time>
      </trkpt>
      <trkpt lat="45.68883" lon="6.03676">
        <ele>1318</ele>
        <time>2011-06-07T09:15:41Z</time>
      </trkpt>
      <trkpt lat="45.68882" lon="6.03676">
        <ele>1318</ele>
        <time>2011-06-07T09:15:41Z</time>
      </trkpt>
      <trkpt lat="45.6888" lon="6.03675">
        <ele>1318</ele>
        <time>2011-06-07T09:15:42Z</time>
      </trkpt>
      <trkpt lat="45.68877" lon="6.03673">
        <ele>1317.9</ele>
        <time>2011-06-07T09:15:43Z</time>
      </trkpt>
      <trkpt lat="45.68875" lon="6.03671">
        <ele>1317.8</ele>
        <time>2011-06-07T09:15:44Z</time>
      </trkpt>
      <trkpt lat="45.68871" lon="6.0367">
        <ele>1317.7</ele>
        <time>2011-06-07T09:15:46Z</time>
      </trkpt>
      <trkpt lat="45.6887" lon="6.0367">
        <ele>1317.8</ele>
        <time>2011-06-07T09:15:46Z</time>
      </trkpt>
      <trkpt lat="45.68866" lon="6.03667">
        <ele>1317.7</ele>
        <time>2011-06-07T09:15:48Z</time>
      </trkpt>
      <trkpt lat="45.68864" lon="6.03668">
        <ele>1318</ele>
        <time>2011-06-07T09:15:49Z</time>
      </trkpt>
      <trkpt lat="45.68863" lon="6.03667">
        <ele>1317.9</ele>
        <time>2011-06-07T09:15:49Z</time>
      </trkpt>
      <trkpt lat="45.68861" lon="6.03667">
        <ele>1318</ele>
        <time>2011-06-07T09:15:50Z</time>
      </trkpt>
      <trkpt lat="45.68858" lon="6.03667">
        <ele>1318.8</ele>
        <time>2011-06-07T09:15:51Z</time>
      </trkpt>
      <trkpt lat="45.68854" lon="6.03668">
        <ele>1319.6</ele>
        <time>2011-06-07T09:15:53Z</time>
      </trkpt>
      <trkpt lat="45.68851" lon="6.03666">
        <ele>1320.3</ele>
        <time>2011-06-07T09:15:54Z</time>
      </trkpt>
      <trkpt lat="45.68847" lon="6.03664">
        <ele>1320.7</ele>
        <time>2011-06-07T09:15:56Z</time>
      </trkpt>
      <trkpt lat="45.68846" lon="6.03664">
        <ele>1320.8</ele>
        <time>2011-06-07T09:15:56Z</time>
      </trkpt>
      <trkpt lat="45.68845" lon="6.03663">
        <ele>1320.9</ele>
        <time>2011-06-07T09:15:57Z</time>
      </trkpt>
      <trkpt lat="45.68843" lon="6.03661">
        <ele>1321.2</ele>
        <time>2011-06-07T09:15:58Z</time>
      </trkpt>
      <trkpt lat="45.68842" lon="6.0366">
        <ele>1321.5</ele>
        <time>2011-06-07T09:15:58Z</time>
      </trkpt>
      <trkpt lat="45.68839" lon="6.03655">
        <ele>1321.4</ele>
        <time>2011-06-07T09:16:00Z</time>
      </trkpt>
      <trkpt lat="45.68838" lon="6.03653">
        <ele>1321.4</ele>
        <time>2011-06-07T09:16:01Z</time>
      </trkpt>
      <trkpt lat="45.68836" lon="6.03649">
        <ele>1321.4</ele>
        <time>2011-06-07T09:16:02Z</time>
      </trkpt>
      <trkpt lat="45.68836" lon="6.03649">
        <ele>1321.4</ele>
        <time>2011-06-07T09:16:02Z</time>
      </trkpt>
      <trkpt lat="45.68834" lon="6.03647">
        <ele>1321.7</ele>
        <time>2011-06-07T09:16:03Z</time>
      </trkpt>
      <trkpt lat="45.6883" lon="6.03645">
        <ele>1322</ele>
        <time>2011-06-07T09:16:05Z</time>
      </trkpt>
      <trkpt lat="45.6883" lon="6.03644">
        <ele>1322</ele>
        <time>2011-06-07T09:16:05Z</time>
      </trkpt>
      <trkpt lat="45.68828" lon="6.03637">
        <ele>1321.8</ele>
        <time>2011-06-07T09:16:07Z</time>
      </trkpt>
      <trkpt lat="45.68827" lon="6.03633">
        <ele>1321.4</ele>
        <time>2011-06-07T09:16:09Z</time>
      </trkpt>
      <trkpt lat="45.68825" lon="6.03626">
        <ele>1320.9</ele>
        <time>2011-06-07T09:16:11Z</time>
      </trkpt>
      <trkpt lat="45.68824" lon="6.03619">
        <ele>1320.5</ele>
        <time>2011-06-07T09:16:12Z</time>
      </trkpt>
      <trkpt lat="45.68824" lon="6.03615">
        <ele>1320.1</ele>
        <time>2011-06-07T09:16:14Z</time>
      </trkpt>
      <trkpt lat="45.68824" lon="6.03608">
        <ele>1319.8</ele>
        <time>2011-06-07T09:16:16Z</time>
      </trkpt>
      <trkpt lat="45.68825" lon="6.03603">
        <ele>1319.8</ele>
        <time>2011-06-07T09:16:17Z</time>
      </trkpt>
      <trkpt lat="45.68826" lon="6.03594">
        <ele>1319.8</ele>
        <time>2011-06-07T09:16:20Z</time>
      </trkpt>
      <trkpt lat="45.68827" lon="6.03587">
        <ele>1319.7</ele>
        <time>2011-06-07T09:16:22Z</time>
      </trkpt>
      <trkpt lat="45.68828" lon="6.03579">
        <ele>1319.6</ele>
        <time>2011-06-07T09:16:24Z</time>
      </trkpt>
      <trkpt lat="45.68829" lon="6.03568">
        <ele>1319.4</ele>
        <time>2011-06-07T09:16:27Z</time>
      </trkpt>
      <trkpt lat="45.68831" lon="6.03556">
        <ele>1319.4</ele>
        <time>2011-06-07T09:16:31Z</time>
      </trkpt>
      <trkpt lat="45.68833" lon="6.03543">
        <ele>1318.8</ele>
        <time>2011-06-07T09:16:34Z</time>
      </trkpt>
      <trkpt lat="45.68833" lon="6.03538">
        <ele>1318.4</ele>
        <time>2011-06-07T09:16:35Z</time>
      </trkpt>
      <trkpt lat="45.68834" lon="6.03533">
        <ele>1318</ele>
        <time>2011-06-07T09:16:37Z</time>
      </trkpt>
      <trkpt lat="45.68835" lon="6.03519">
        <ele>1317.4</ele>
        <time>2011-06-07T09:16:41Z</time>
      </trkpt>
      <trkpt lat="45.68837" lon="6.03506">
        <ele>1317.1</ele>
        <time>2011-06-07T09:16:45Z</time>
      </trkpt>
      <trkpt lat="45.68838" lon="6.035">
        <ele>1317</ele>
        <time>2011-06-07T09:16:46Z</time>
      </trkpt>
      <trkpt lat="45.68838" lon="6.03486">
        <ele>1317.2</ele>
        <time>2011-06-07T09:16:50Z</time>
      </trkpt>
      <trkpt lat="45.68838" lon="6.03476">
        <ele>1317.5</ele>
        <time>2011-06-07T09:16:53Z</time>
      </trkpt>
      <trkpt lat="45.68837" lon="6.0347">
        <ele>1317.7</ele>
        <time>2011-06-07T09:16:55Z</time>
      </trkpt>
      <trkpt lat="45.68835" lon="6.03456">
        <ele>1318.9</ele>
        <time>2011-06-07T09:16:59Z</time>
      </trkpt>
      <trkpt lat="45.68834" lon="6.03451">
        <ele>1319.4</ele>
        <time>2011-06-07T09:17:00Z</time>
      </trkpt>
      <trkpt lat="45.68831" lon="6.03449">
        <ele>1319.8</ele>
        <time>2011-06-07T09:17:01Z</time>
      </trkpt>
      <trkpt lat="45.68828" lon="6.03443">
        <ele>1320</ele>
        <time>2011-06-07T09:17:03Z</time>
      </trkpt>
      <trkpt lat="45.68826" lon="6.03441">
        <ele>1319.9</ele>
        <time>2011-06-07T09:17:04Z</time>
      </trkpt>
      <trkpt lat="45.68823" lon="6.03439">
        <ele>1319.8</ele>
        <time>2011-06-07T09:17:06Z</time>
      </trkpt>
      <trkpt lat="45.68821" lon="6.03439">
        <ele>1319.8</ele>
        <time>2011-06-07T09:17:07Z</time>
      </trkpt>
      <trkpt lat="45.68817" lon="6.03435">
        <ele>1319.7</ele>
        <time>2011-06-07T09:17:08Z</time>
      </trkpt>
      <trkpt lat="45.68813" lon="6.03433">
        <ele>1319.6</ele>
        <time>2011-06-07T09:17:10Z</time>
      </trkpt>
      <trkpt lat="45.6881" lon="6.03432">
        <ele>1319.6</ele>
        <time>2011-06-07T09:17:11Z</time>
      </trkpt>
      <trkpt lat="45.68806" lon="6.0343">
        <ele>1319.5</ele>
        <time>2011-06-07T09:17:13Z</time>
      </trkpt>
      <trkpt lat="45.68803" lon="6.03427">
        <ele>1319.4</ele>
        <time>2011-06-07T09:17:15Z</time>
      </trkpt>
      <trkpt lat="45.68801" lon="6.03422">
        <ele>1319.3</ele>
        <time>2011-06-07T09:17:16Z</time>
      </trkpt>
      <trkpt lat="45.68796" lon="6.03415">
        <ele>1319.1</ele>
        <time>2011-06-07T09:17:19Z</time>
      </trkpt>
      <trkpt lat="45.68794" lon="6.03412">
        <ele>1319.1</ele>
        <time>2011-06-07T09:17:20Z</time>
      </trkpt>
      <trkpt lat="45.68793" lon="6.03412">
        <ele>1319.1</ele>
        <time>2011-06-07T09:17:21Z</time>
      </trkpt>
      <trkpt lat="45.68776" lon="6.03389">
        <ele>1319</ele>
        <time>2011-06-07T09:17:30Z</time>
      </trkpt>
      <trkpt lat="45.68775" lon="6.03387">
        <ele>1318.9</ele>
        <time>2011-06-07T09:17:30Z</time>
      </trkpt>
      <trkpt lat="45.68766" lon="6.03364">
        <ele>1318.3</ele>
        <time>2011-06-07T09:17:38Z</time>
      </trkpt>
      <trkpt lat="45.68758" lon="6.03351">
        <ele>1319.5</ele>
        <time>2011-06-07T09:17:43Z</time>
      </trkpt>
      <trkpt lat="45.68754" lon="6.03356">
        <ele>1319.8</ele>
        <time>2011-06-07T09:17:45Z</time>
      </trkpt>
      <trkpt lat="45.68752" lon="6.03352">
        <ele>1320.1</ele>
        <time>2011-06-07T09:17:46Z</time>
      </trkpt>
      <trkpt lat="45.68748" lon="6.03356">
        <ele>1320.6</ele>
        <time>2011-06-07T09:17:48Z</time>
      </trkpt>
      <trkpt lat="45.68742" lon="6.03343">
        <ele>1322</ele>
        <time>2011-06-07T09:17:53Z</time>
      </trkpt>
      <trkpt lat="45.6874" lon="6.03338">
        <ele>1322.4</ele>
        <time>2011-06-07T09:17:54Z</time>
      </trkpt>
      <trkpt lat="45.68736" lon="6.03325">
        <ele>1323.4</ele>
        <time>2011-06-07T09:17:58Z</time>
      </trkpt>
      <trkpt lat="45.6873" lon="6.03314">
        <ele>1325.1</ele>
        <time>2011-06-07T09:18:02Z</time>
      </trkpt>
      <trkpt lat="45.68723" lon="6.03312">
        <ele>1326.4</ele>
        <time>2011-06-07T09:18:05Z</time>
      </trkpt>
      <trkpt lat="45.68718" lon="6.03314">
        <ele>1326.9</ele>
        <time>2011-06-07T09:18:07Z</time>
      </trkpt>
      <trkpt lat="45.68712" lon="6.0331">
        <ele>1327.6</ele>
        <time>2011-06-07T09:18:10Z</time>
      </trkpt>
      <trkpt lat="45.68709" lon="6.03311">
        <ele>1327.8</ele>
        <time>2011-06-07T09:18:11Z</time>
      </trkpt>
      <trkpt lat="45.68704" lon="6.03309">
        <ele>1328</ele>
        <time>2011-06-07T09:18:13Z</time>
      </trkpt>
      <trkpt lat="45.68699" lon="6.03302">
        <ele>1327.7</ele>
        <time>2011-06-07T09:18:16Z</time>
      </trkpt>
      <trkpt lat="45.68694" lon="6.03293">
        <ele>1327.6</ele>
        <time>2011-06-07T09:18:19Z</time>
      </trkpt>
      <trkpt lat="45.68692" lon="6.03288">
        <ele>1327.6</ele>
        <time>2011-06-07T09:18:21Z</time>
      </trkpt>
      <trkpt lat="45.68691" lon="6.03285">
        <ele>1327.5</ele>
        <time>2011-06-07T09:18:22Z</time>
      </trkpt>
      <trkpt lat="45.68684" lon="6.03276">
        <ele>1326.8</ele>
        <time>2011-06-07T09:18:25Z</time>
      </trkpt>
      <trkpt lat="45.68681" lon="6.03275">
        <ele>1326.7</ele>
        <time>2011-06-07T09:18:26Z</time>
      </trkpt>
      <trkpt lat="45.68676" lon="6.03278">
        <ele>1327.1</ele>
        <time>2011-06-07T09:18:29Z</time>
      </trkpt>
      <trkpt lat="45.68671" lon="6.03286">
        <ele>1328.8</ele>
        <time>2011-06-07T09:18:32Z</time>
      </trkpt>
      <trkpt lat="45.68666" lon="6.03287">
        <ele>1329.4</ele>
        <time>2011-06-07T09:18:34Z</time>
      </trkpt>
      <trkpt lat="45.68657" lon="6.03282">
        <ele>1329.7</ele>
        <time>2011-06-07T09:18:38Z</time>
      </trkpt>
      <trkpt lat="45.68651" lon="6.03282">
        <ele>1330.8</ele>
        <time>2011-06-07T09:18:40Z</time>
      </trkpt>
      <trkpt lat="45.68648" lon="6.03282">
        <ele>1331.3</ele>
        <time>2011-06-07T09:18:41Z</time>
      </trkpt>
      <trkpt lat="45.68645" lon="6.03282">
        <ele>1331.8</ele>
        <time>2011-06-07T09:18:42Z</time>
      </trkpt>
      <trkpt lat="45.68641" lon="6.03282">
        <ele>1332.5</ele>
        <time>2011-06-07T09:18:44Z</time>
      </trkpt>
      <trkpt lat="45.68635" lon="6.03274">
        <ele>1332.5</ele>
        <time>2011-06-07T09:18:47Z</time>
      </trkpt>
      <trkpt lat="45.68634" lon="6.03274">
        <ele>1332.6</ele>
        <time>2011-06-07T09:18:48Z</time>
      </trkpt>
      <trkpt lat="45.68626" lon="6.03265">
        <ele>1331.4</ele>
        <time>2011-06-07T09:18:52Z</time>
      </trkpt>
      <trkpt lat="45.68623" lon="6.0326">
        <ele>1330.7</ele>
        <time>2011-06-07T09:18:54Z</time>
      </trkpt>
      <trkpt lat="45.68617" lon="6.03261">
        <ele>1330.8</ele>
        <time>2011-06-07T09:18:56Z</time>
      </trkpt>
      <trkpt lat="45.68615" lon="6.03261">
        <ele>1330.9</ele>
        <time>2011-06-07T09:18:57Z</time>
      </trkpt>
      <trkpt lat="45.68609" lon="6.03256">
        <ele>1330</ele>
        <time>2011-06-07T09:19:00Z</time>
      </trkpt>
      <trkpt lat="45.68603" lon="6.03256">
        <ele>1329.9</ele>
        <time>2011-06-07T09:19:02Z</time>
      </trkpt>
      <trkpt lat="45.68597" lon="6.03257">
        <ele>1329.7</ele>
        <time>2011-06-07T09:19:04Z</time>
      </trkpt>
      <trkpt lat="45.68592" lon="6.03257">
        <ele>1329.6</ele>
        <time>2011-06-07T09:19:07Z</time>
      </trkpt>
      <trkpt lat="45.68586" lon="6.03255">
        <ele>1328.9</ele>
        <time>2011-06-07T09:19:09Z</time>
      </trkpt>
      <trkpt lat="45.68575" lon="6.03255">
        <ele>1328.5</ele>
        <time>2011-06-07T09:19:13Z</time>
      </trkpt>
      <trkpt lat="45.68572" lon="6.03256">
        <ele>1328.5</ele>
        <time>2011-06-07T09:19:14Z</time>
      </trkpt>
      <trkpt lat="45.68567" lon="6.03257">
        <ele>1328.5</ele>
        <time>2011-06-07T09:19:17Z</time>
      </trkpt>
      <trkpt lat="45.68559" lon="6.03257">
        <ele>1328.1</ele>
        <time>2011-06-07T09:19:20Z</time>
      </trkpt>
      <trkpt lat="45.68557" lon="6.03257">
        <ele>1328.1</ele>
        <time>2011-06-07T09:19:21Z</time>
      </trkpt>
      <trkpt lat="45.68551" lon="6.03259">
        <ele>1327.8</ele>
        <time>2011-06-07T09:19:23Z</time>
      </trkpt>
      <trkpt lat="45.68548" lon="6.03259">
        <ele>1327.5</ele>
        <time>2011-06-07T09:19:24Z</time>
      </trkpt>
      <trkpt lat="45.68543" lon="6.03258">
        <ele>1326.9</ele>
        <time>2011-06-07T09:19:26Z</time>
      </trkpt>
      <trkpt lat="45.68539" lon="6.03256">
        <ele>1326.5</ele>
        <time>2011-06-07T09:19:28Z</time>
      </trkpt>
      <trkpt lat="45.68536" lon="6.03255">
        <ele>1326.3</ele>
        <time>2011-06-07T09:19:29Z</time>
      </trkpt>
      <trkpt lat="45.68529" lon="6.03254">
        <ele>1325.8</ele>
        <time>2011-06-07T09:19:32Z</time>
      </trkpt>
      <trkpt lat="45.68526" lon="6.03252">
        <ele>1325.7</ele>
        <time>2011-06-07T09:19:34Z</time>
      </trkpt>
      <trkpt lat="45.68519" lon="6.03252">
        <ele>1325.1</ele>
        <time>2011-06-07T09:19:36Z</time>
      </trkpt>
      <trkpt lat="45.68518" lon="6.03252">
        <ele>1325</ele>
        <time>2011-06-07T09:19:37Z</time>
      </trkpt>
      <trkpt lat="45.68509" lon="6.03253">
        <ele>1324.3</ele>
        <time>2011-06-07T09:19:40Z</time>
      </trkpt>
      <trkpt lat="45.68505" lon="6.03251">
        <ele>1324.2</ele>
        <time>2011-06-07T09:19:42Z</time>
      </trkpt>
      <trkpt lat="45.685" lon="6.03249">
        <ele>1324</ele>
        <time>2011-06-07T09:19:44Z</time>
      </trkpt>
      <trkpt lat="45.6849" lon="6.03246">
        <ele>1324.2</ele>
        <time>2011-06-07T09:19:48Z</time>
      </trkpt>
      <trkpt lat="45.68482" lon="6.03243">
        <ele>1325</ele>
        <time>2011-06-07T09:19:52Z</time>
      </trkpt>
      <trkpt lat="45.68478" lon="6.03239">
        <ele>1326</ele>
        <time>2011-06-07T09:19:53Z</time>
      </trkpt>
      <trkpt lat="45.68476" lon="6.03223">
        <ele>1329.5</ele>
        <time>2011-06-07T09:19:58Z</time>
      </trkpt>
      <trkpt lat="45.68478" lon="6.03222">
        <ele>1329.2</ele>
        <time>2011-06-07T09:19:59Z</time>
      </trkpt>
      <trkpt lat="45.68479" lon="6.0322">
        <ele>1329.2</ele>
        <time>2011-06-07T09:19:59Z</time>
      </trkpt>
      <trkpt lat="45.68483" lon="6.03217">
        <ele>1328</ele>
        <time>2011-06-07T09:20:01Z</time>
      </trkpt>
      <trkpt lat="45.68485" lon="6.03211">
        <ele>1328</ele>
        <time>2011-06-07T09:20:03Z</time>
      </trkpt>
      <trkpt lat="45.68487" lon="6.0321">
        <ele>1327.5</ele>
        <time>2011-06-07T09:20:04Z</time>
      </trkpt>
      <trkpt lat="45.68489" lon="6.03201">
        <ele>1327.6</ele>
        <time>2011-06-07T09:20:07Z</time>
      </trkpt>
      <trkpt lat="45.68488" lon="6.03195">
        <ele>1328.7</ele>
        <time>2011-06-07T09:20:08Z</time>
      </trkpt>
      <trkpt lat="45.68487" lon="6.0318">
        <ele>1329</ele>
        <time>2011-06-07T09:20:13Z</time>
      </trkpt>
      <trkpt lat="45.68484" lon="6.03161">
        <ele>1330.2</ele>
        <time>2011-06-07T09:20:18Z</time>
      </trkpt>
      <trkpt lat="45.68483" lon="6.03158">
        <ele>1330.7</ele>
        <time>2011-06-07T09:20:19Z</time>
      </trkpt>
      <trkpt lat="45.68477" lon="6.0313">
        <ele>1336</ele>
        <time>2011-06-07T09:20:27Z</time>
      </trkpt>
      <trkpt lat="45.68476" lon="6.03112">
        <ele>1340</ele>
        <time>2011-06-07T09:20:32Z</time>
      </trkpt>
      <trkpt lat="45.68478" lon="6.03111">
        <ele>1338.6</ele>
        <time>2011-06-07T09:20:33Z</time>
      </trkpt>
      <trkpt lat="45.68484" lon="6.0311">
        <ele>1334.5</ele>
        <time>2011-06-07T09:20:36Z</time>
      </trkpt>
      <trkpt lat="45.68488" lon="6.0311">
        <ele>1331.6</ele>
        <time>2011-06-07T09:20:37Z</time>
      </trkpt>
      <trkpt lat="45.68493" lon="6.03109">
        <ele>1328.1</ele>
        <time>2011-06-07T09:20:39Z</time>
      </trkpt>
      <trkpt lat="45.68495" lon="6.03099">
        <ele>1328.1</ele>
        <time>2011-06-07T09:20:42Z</time>
      </trkpt>
      <trkpt lat="45.68497" lon="6.03084">
        <ele>1329.6</ele>
        <time>2011-06-07T09:20:46Z</time>
      </trkpt>
      <trkpt lat="45.68499" lon="6.03074">
        <ele>1328.7</ele>
        <time>2011-06-07T09:20:49Z</time>
      </trkpt>
      <trkpt lat="45.68493" lon="6.03045">
        <ele>1331.7</ele>
        <time>2011-06-07T09:20:58Z</time>
      </trkpt>
      <trkpt lat="45.68492" lon="6.03041">
        <ele>1332.2</ele>
        <time>2011-06-07T09:20:59Z</time>
      </trkpt>
      <trkpt lat="45.68487" lon="6.0302">
        <ele>1334.3</ele>
        <time>2011-06-07T09:21:05Z</time>
      </trkpt>
      <trkpt lat="45.6848" lon="6.02999">
        <ele>1335.8</ele>
        <time>2011-06-07T09:21:12Z</time>
      </trkpt>
      <trkpt lat="45.68476" lon="6.02997">
        <ele>1337.7</ele>
        <time>2011-06-07T09:21:13Z</time>
      </trkpt>
      <trkpt lat="45.68473" lon="6.02995">
        <ele>1338.5</ele>
        <time>2011-06-07T09:21:15Z</time>
      </trkpt>
      <trkpt lat="45.68465" lon="6.02982">
        <ele>1337.3</ele>
        <time>2011-06-07T09:21:19Z</time>
      </trkpt>
      <trkpt lat="45.68459" lon="6.02972">
        <ele>1335.5</ele>
        <time>2011-06-07T09:21:23Z</time>
      </trkpt>
      <trkpt lat="45.6845" lon="6.02958">
        <ele>1335.5</ele>
        <time>2011-06-07T09:21:29Z</time>
      </trkpt>
      <trkpt lat="45.68434" lon="6.02918">
        <ele>1342</ele>
        <time>2011-06-07T09:21:41Z</time>
      </trkpt>
      <trkpt lat="45.68437" lon="6.02909">
        <ele>1339.9</ele>
        <time>2011-06-07T09:21:44Z</time>
      </trkpt>
      <trkpt lat="45.68439" lon="6.02897">
        <ele>1338.9</ele>
        <time>2011-06-07T09:21:48Z</time>
      </trkpt>
      <trkpt lat="45.68438" lon="6.0288">
        <ele>1340.4</ele>
        <time>2011-06-07T09:21:52Z</time>
      </trkpt>
      <trkpt lat="45.68438" lon="6.02872">
        <ele>1341.5</ele>
        <time>2011-06-07T09:21:55Z</time>
      </trkpt>
      <trkpt lat="45.6844" lon="6.02854">
        <ele>1343.3</ele>
        <time>2011-06-07T09:22:00Z</time>
      </trkpt>
      <trkpt lat="45.68445" lon="6.02851">
        <ele>1342.4</ele>
        <time>2011-06-07T09:22:02Z</time>
      </trkpt>
      <trkpt lat="45.68454" lon="6.02861">
        <ele>1340.3</ele>
        <time>2011-06-07T09:22:07Z</time>
      </trkpt>
      <trkpt lat="45.68456" lon="6.0286">
        <ele>1340.3</ele>
        <time>2011-06-07T09:22:08Z</time>
      </trkpt>
      <trkpt lat="45.68459" lon="6.02859">
        <ele>1340.2</ele>
        <time>2011-06-07T09:22:09Z</time>
      </trkpt>
      <trkpt lat="45.68461" lon="6.02859">
        <ele>1340.1</ele>
        <time>2011-06-07T09:22:10Z</time>
      </trkpt>
      <trkpt lat="45.68463" lon="6.02859">
        <ele>1340</ele>
        <time>2011-06-07T09:22:10Z</time>
      </trkpt>
      <trkpt lat="45.68465" lon="6.02857">
        <ele>1340</ele>
        <time>2011-06-07T09:22:11Z</time>
      </trkpt>
      <trkpt lat="45.68466" lon="6.02857">
        <ele>1339.9</ele>
        <time>2011-06-07T09:22:12Z</time>
      </trkpt>
      <trkpt lat="45.68467" lon="6.02855">
        <ele>1340.1</ele>
        <time>2011-06-07T09:22:12Z</time>
      </trkpt>
      <trkpt lat="45.68468" lon="6.02853">
        <ele>1340.1</ele>
        <time>2011-06-07T09:22:13Z</time>
      </trkpt>
      <trkpt lat="45.68469" lon="6.02851">
        <ele>1340.3</ele>
        <time>2011-06-07T09:22:14Z</time>
      </trkpt>
      <trkpt lat="45.6847" lon="6.02848">
        <ele>1340.5</ele>
        <time>2011-06-07T09:22:15Z</time>
      </trkpt>
      <trkpt lat="45.68472" lon="6.02846">
        <ele>1340.6</ele>
        <time>2011-06-07T09:22:16Z</time>
      </trkpt>
      <trkpt lat="45.68474" lon="6.02844">
        <ele>1340.4</ele>
        <time>2011-06-07T09:22:17Z</time>
      </trkpt>
      <trkpt lat="45.68476" lon="6.02842">
        <ele>1340.3</ele>
        <time>2011-06-07T09:22:18Z</time>
      </trkpt>
      <trkpt lat="45.68477" lon="6.02841">
        <ele>1340.1</ele>
        <time>2011-06-07T09:22:18Z</time>
      </trkpt>
      <trkpt lat="45.68486" lon="6.02813">
        <ele>1341.5</ele>
        <time>2011-06-07T09:22:27Z</time>
      </trkpt>
      <trkpt lat="45.68488" lon="6.02809">
        <ele>1341.6</ele>
        <time>2011-06-07T09:22:28Z</time>
      </trkpt>
      <trkpt lat="45.6849" lon="6.02803">
        <ele>1341.8</ele>
        <time>2011-06-07T09:22:30Z</time>
      </trkpt>
      <trkpt lat="45.68491" lon="6.02794">
        <ele>1342.4</ele>
        <time>2011-06-07T09:22:33Z</time>
      </trkpt>
      <trkpt lat="45.68491" lon="6.02787">
        <ele>1342.9</ele>
        <time>2011-06-07T09:22:35Z</time>
      </trkpt>
      <trkpt lat="45.68491" lon="6.0278">
        <ele>1343.7</ele>
        <time>2011-06-07T09:22:36Z</time>
      </trkpt>
      <trkpt lat="45.68492" lon="6.02771">
        <ele>1344.2</ele>
        <time>2011-06-07T09:22:39Z</time>
      </trkpt>
      <trkpt lat="45.68492" lon="6.02766">
        <ele>1344.7</ele>
        <time>2011-06-07T09:22:41Z</time>
      </trkpt>
      <trkpt lat="45.68494" lon="6.02758">
        <ele>1345.1</ele>
        <time>2011-06-07T09:22:43Z</time>
      </trkpt>
      <trkpt lat="45.68494" lon="6.02747">
        <ele>1346</ele>
        <time>2011-06-07T09:22:46Z</time>
      </trkpt>
      <trkpt lat="45.68494" lon="6.0274">
        <ele>1346.4</ele>
        <time>2011-06-07T09:22:48Z</time>
      </trkpt>
      <trkpt lat="45.68495" lon="6.02734">
        <ele>1346.5</ele>
        <time>2011-06-07T09:22:49Z</time>
      </trkpt>
      <trkpt lat="45.68498" lon="6.02726">
        <ele>1346.4</ele>
        <time>2011-06-07T09:22:52Z</time>
      </trkpt>
      <trkpt lat="45.68498" lon="6.02714">
        <ele>1346.7</ele>
        <time>2011-06-07T09:22:55Z</time>
      </trkpt>
      <trkpt lat="45.68497" lon="6.02705">
        <ele>1347.4</ele>
        <time>2011-06-07T09:22:58Z</time>
      </trkpt>
      <trkpt lat="45.68496" lon="6.02699">
        <ele>1347.6</ele>
        <time>2011-06-07T09:23:00Z</time>
      </trkpt>
      <trkpt lat="45.68496" lon="6.02684">
        <ele>1348.3</ele>
        <time>2011-06-07T09:23:04Z</time>
      </trkpt>
      <trkpt lat="45.68494" lon="6.02675">
        <ele>1349</ele>
        <time>2011-06-07T09:23:06Z</time>
      </trkpt>
      <trkpt lat="45.68493" lon="6.02667">
        <ele>1349.6</ele>
        <time>2011-06-07T09:23:09Z</time>
      </trkpt>
      <trkpt lat="45.68491" lon="6.02662">
        <ele>1350</ele>
        <time>2011-06-07T09:23:10Z</time>
      </trkpt>
      <trkpt lat="45.68492" lon="6.0265">
        <ele>1350</ele>
        <time>2011-06-07T09:23:14Z</time>
      </trkpt>
      <trkpt lat="45.68492" lon="6.02641">
        <ele>1350.3</ele>
        <time>2011-06-07T09:23:16Z</time>
      </trkpt>
      <trkpt lat="45.68493" lon="6.02634">
        <ele>1350.1</ele>
        <time>2011-06-07T09:23:18Z</time>
      </trkpt>
      <trkpt lat="45.68491" lon="6.02619">
        <ele>1350.7</ele>
        <time>2011-06-07T09:23:22Z</time>
      </trkpt>
      <trkpt lat="45.68491" lon="6.02612">
        <ele>1350.7</ele>
        <time>2011-06-07T09:23:24Z</time>
      </trkpt>
      <trkpt lat="45.6849" lon="6.02603">
        <ele>1351.4</ele>
        <time>2011-06-07T09:23:27Z</time>
      </trkpt>
      <trkpt lat="45.68489" lon="6.02582">
        <ele>1352.7</ele>
        <time>2011-06-07T09:23:33Z</time>
      </trkpt>
      <trkpt lat="45.68487" lon="6.02572">
        <ele>1353.2</ele>
        <time>2011-06-07T09:23:36Z</time>
      </trkpt>
      <trkpt lat="45.68486" lon="6.0256">
        <ele>1353.4</ele>
        <time>2011-06-07T09:23:39Z</time>
      </trkpt>
      <trkpt lat="45.68483" lon="6.02538">
        <ele>1353.3</ele>
        <time>2011-06-07T09:23:45Z</time>
      </trkpt>
      <trkpt lat="45.68481" lon="6.02527">
        <ele>1353.3</ele>
        <time>2011-06-07T09:23:48Z</time>
      </trkpt>
      <trkpt lat="45.68477" lon="6.02518">
        <ele>1353.4</ele>
        <time>2011-06-07T09:23:51Z</time>
      </trkpt>
      <trkpt lat="45.68474" lon="6.02507">
        <ele>1353.2</ele>
        <time>2011-06-07T09:23:55Z</time>
      </trkpt>
      <trkpt lat="45.68468" lon="6.02497">
        <ele>1353.1</ele>
        <time>2011-06-07T09:23:58Z</time>
      </trkpt>
      <trkpt lat="45.68463" lon="6.02496">
        <ele>1353.7</ele>
        <time>2011-06-07T09:24:00Z</time>
      </trkpt>
      <trkpt lat="45.68458" lon="6.02501">
        <ele>1355.8</ele>
        <time>2011-06-07T09:24:03Z</time>
      </trkpt>
      <trkpt lat="45.68453" lon="6.025">
        <ele>1356.4</ele>
        <time>2011-06-07T09:24:05Z</time>
      </trkpt>
      <trkpt lat="45.6845" lon="6.02497">
        <ele>1356.1</ele>
        <time>2011-06-07T09:24:06Z</time>
      </trkpt>
      <trkpt lat="45.68442" lon="6.02489">
        <ele>1355.6</ele>
        <time>2011-06-07T09:24:10Z</time>
      </trkpt>
      <trkpt lat="45.68436" lon="6.02484">
        <ele>1355.4</ele>
        <time>2011-06-07T09:24:13Z</time>
      </trkpt>
      <trkpt lat="45.68431" lon="6.02483">
        <ele>1355.8</ele>
        <time>2011-06-07T09:24:15Z</time>
      </trkpt>
      <trkpt lat="45.68426" lon="6.02486">
        <ele>1357.3</ele>
        <time>2011-06-07T09:24:17Z</time>
      </trkpt>
      <trkpt lat="45.68423" lon="6.02486">
        <ele>1358</ele>
        <time>2011-06-07T09:24:19Z</time>
      </trkpt>
      <trkpt lat="45.68416" lon="6.02487">
        <ele>1359.3</ele>
        <time>2011-06-07T09:24:21Z</time>
      </trkpt>
      <trkpt lat="45.68411" lon="6.02486">
        <ele>1359.4</ele>
        <time>2011-06-07T09:24:23Z</time>
      </trkpt>
      <trkpt lat="45.68406" lon="6.0248">
        <ele>1358.4</ele>
        <time>2011-06-07T09:24:26Z</time>
      </trkpt>
      <trkpt lat="45.68402" lon="6.02474">
        <ele>1357.3</ele>
        <time>2011-06-07T09:24:28Z</time>
      </trkpt>
      <trkpt lat="45.68397" lon="6.02473">
        <ele>1357.3</ele>
        <time>2011-06-07T09:24:30Z</time>
      </trkpt>
      <trkpt lat="45.68387" lon="6.02466">
        <ele>1357</ele>
        <time>2011-06-07T09:24:35Z</time>
      </trkpt>
      <trkpt lat="45.68382" lon="6.02461">
        <ele>1357.1</ele>
        <time>2011-06-07T09:24:37Z</time>
      </trkpt>
      <trkpt lat="45.6838" lon="6.0246">
        <ele>1357.8</ele>
        <time>2011-06-07T09:24:38Z</time>
      </trkpt>
      <trkpt lat="45.68375" lon="6.02459">
        <ele>1359</ele>
        <time>2011-06-07T09:24:40Z</time>
      </trkpt>
      <trkpt lat="45.68368" lon="6.02449">
        <ele>1359</ele>
        <time>2011-06-07T09:24:44Z</time>
      </trkpt>
      <trkpt lat="45.68366" lon="6.02452">
        <ele>1360.1</ele>
        <time>2011-06-07T09:24:45Z</time>
      </trkpt>
      <trkpt lat="45.68361" lon="6.02444">
        <ele>1359.9</ele>
        <time>2011-06-07T09:24:48Z</time>
      </trkpt>
      <trkpt lat="45.68356" lon="6.02443">
        <ele>1360.9</ele>
        <time>2011-06-07T09:24:50Z</time>
      </trkpt>
      <trkpt lat="45.6835" lon="6.02435">
        <ele>1359.9</ele>
        <time>2011-06-07T09:24:53Z</time>
      </trkpt>
      <trkpt lat="45.68344" lon="6.02428">
        <ele>1359.8</ele>
        <time>2011-06-07T09:24:56Z</time>
      </trkpt>
      <trkpt lat="45.68341" lon="6.02427">
        <ele>1360.4</ele>
        <time>2011-06-07T09:24:57Z</time>
      </trkpt>
      <trkpt lat="45.68336" lon="6.02422">
        <ele>1360.5</ele>
        <time>2011-06-07T09:25:00Z</time>
      </trkpt>
      <trkpt lat="45.68327" lon="6.02412">
        <ele>1360.2</ele>
        <time>2011-06-07T09:25:05Z</time>
      </trkpt>
      <trkpt lat="45.68322" lon="6.02407">
        <ele>1359.9</ele>
        <time>2011-06-07T09:25:07Z</time>
      </trkpt>
      <trkpt lat="45.68314" lon="6.02401">
        <ele>1360</ele>
        <time>2011-06-07T09:25:10Z</time>
      </trkpt>
      <trkpt lat="45.6831" lon="6.02403">
        <ele>1361.2</ele>
        <time>2011-06-07T09:25:12Z</time>
      </trkpt>
      <trkpt lat="45.68306" lon="6.02404">
        <ele>1362.4</ele>
        <time>2011-06-07T09:25:14Z</time>
      </trkpt>
      <trkpt lat="45.683" lon="6.02403">
        <ele>1362.6</ele>
        <time>2011-06-07T09:25:16Z</time>
      </trkpt>
      <trkpt lat="45.68291" lon="6.024">
        <ele>1362.8</ele>
        <time>2011-06-07T09:25:20Z</time>
      </trkpt>
      <trkpt lat="45.68284" lon="6.02397">
        <ele>1363.1</ele>
        <time>2011-06-07T09:25:23Z</time>
      </trkpt>
      <trkpt lat="45.68278" lon="6.02397">
        <ele>1363.8</ele>
        <time>2011-06-07T09:25:25Z</time>
      </trkpt>
      <trkpt lat="45.6827" lon="6.02392">
        <ele>1366.4</ele>
        <time>2011-06-07T09:25:29Z</time>
      </trkpt>
      <trkpt lat="45.68265" lon="6.02387">
        <ele>1367</ele>
        <time>2011-06-07T09:25:31Z</time>
      </trkpt>
      <trkpt lat="45.68259" lon="6.02379">
        <ele>1366.5</ele>
        <time>2011-06-07T09:25:35Z</time>
      </trkpt>
      <trkpt lat="45.6825" lon="6.02365">
        <ele>1365.2</ele>
        <time>2011-06-07T09:25:40Z</time>
      </trkpt>
      <trkpt lat="45.68241" lon="6.02352">
        <ele>1367.3</ele>
        <time>2011-06-07T09:25:45Z</time>
      </trkpt>
      <trkpt lat="45.68235" lon="6.02345">
        <ele>1368.6</ele>
        <time>2011-06-07T09:25:48Z</time>
      </trkpt>
      <trkpt lat="45.68227" lon="6.02332">
        <ele>1369.1</ele>
        <time>2011-06-07T09:25:53Z</time>
      </trkpt>
      <trkpt lat="45.68224" lon="6.02327">
        <ele>1369</ele>
        <time>2011-06-07T09:25:55Z</time>
      </trkpt>
      <trkpt lat="45.68214" lon="6.02314">
        <ele>1370.3</ele>
        <time>2011-06-07T09:26:00Z</time>
      </trkpt>
      <trkpt lat="45.68205" lon="6.023">
        <ele>1370.2</ele>
        <time>2011-06-07T09:26:05Z</time>
      </trkpt>
      <trkpt lat="45.68197" lon="6.02285">
        <ele>1369.6</ele>
        <time>2011-06-07T09:26:11Z</time>
      </trkpt>
      <trkpt lat="45.68191" lon="6.02278">
        <ele>1369.2</ele>
        <time>2011-06-07T09:26:14Z</time>
      </trkpt>
      <trkpt lat="45.68183" lon="6.02267">
        <ele>1368.3</ele>
        <time>2011-06-07T09:26:18Z</time>
      </trkpt>
      <trkpt lat="45.68178" lon="6.02259">
        <ele>1367.4</ele>
        <time>2011-06-07T09:26:21Z</time>
      </trkpt>
      <trkpt lat="45.68166" lon="6.0224">
        <ele>1364.5</ele>
        <time>2011-06-07T09:26:28Z</time>
      </trkpt>
      <trkpt lat="45.68158" lon="6.02228">
        <ele>1364.3</ele>
        <time>2011-06-07T09:26:33Z</time>
      </trkpt>
      <trkpt lat="45.68149" lon="6.02217">
        <ele>1365.2</ele>
        <time>2011-06-07T09:26:38Z</time>
      </trkpt>
      <trkpt lat="45.68138" lon="6.02197">
        <ele>1362.9</ele>
        <time>2011-06-07T09:26:45Z</time>
      </trkpt>
      <trkpt lat="45.68131" lon="6.02179">
        <ele>1362.1</ele>
        <time>2011-06-07T09:26:51Z</time>
      </trkpt>
      <trkpt lat="45.68121" lon="6.02162">
        <ele>1360.9</ele>
        <time>2011-06-07T09:26:57Z</time>
      </trkpt>
      <trkpt lat="45.68113" lon="6.02151">
        <ele>1360</ele>
        <time>2011-06-07T09:27:01Z</time>
      </trkpt>
      <trkpt lat="45.68103" lon="6.0214">
        <ele>1358.9</ele>
        <time>2011-06-07T09:27:06Z</time>
      </trkpt>
      <trkpt lat="45.68099" lon="6.02144">
        <ele>1360.1</ele>
        <time>2011-06-07T09:27:08Z</time>
      </trkpt>
      <trkpt lat="45.68093" lon="6.02143">
        <ele>1360.4</ele>
        <time>2011-06-07T09:27:11Z</time>
      </trkpt>
      <trkpt lat="45.68088" lon="6.02146">
        <ele>1361.6</ele>
        <time>2011-06-07T09:27:13Z</time>
      </trkpt>
      <trkpt lat="45.68084" lon="6.02143">
        <ele>1361.1</ele>
        <time>2011-06-07T09:27:15Z</time>
      </trkpt>
      <trkpt lat="45.68073" lon="6.02137">
        <ele>1361.2</ele>
        <time>2011-06-07T09:27:19Z</time>
      </trkpt>
      <trkpt lat="45.68065" lon="6.02131">
        <ele>1360.7</ele>
        <time>2011-06-07T09:27:23Z</time>
      </trkpt>
      <trkpt lat="45.68054" lon="6.02114">
        <ele>1356.8</ele>
        <time>2011-06-07T09:27:29Z</time>
      </trkpt>
      <trkpt lat="45.68046" lon="6.0209">
        <ele>1354.6</ele>
        <time>2011-06-07T09:27:37Z</time>
      </trkpt>
      <trkpt lat="45.6804" lon="6.02074">
        <ele>1353.8</ele>
        <time>2011-06-07T09:27:42Z</time>
      </trkpt>
      <trkpt lat="45.68033" lon="6.02071">
        <ele>1353.9</ele>
        <time>2011-06-07T09:27:45Z</time>
      </trkpt>
      <trkpt lat="45.68029" lon="6.02078">
        <ele>1354</ele>
        <time>2011-06-07T09:27:47Z</time>
      </trkpt>
      <trkpt lat="45.68026" lon="6.02087">
        <ele>1355.3</ele>
        <time>2011-06-07T09:27:50Z</time>
      </trkpt>
      <trkpt lat="45.6802" lon="6.02095">
        <ele>1358.7</ele>
        <time>2011-06-07T09:27:53Z</time>
      </trkpt>
      <trkpt lat="45.68018" lon="6.02099">
        <ele>1360</ele>
        <time>2011-06-07T09:27:55Z</time>
      </trkpt>
      <trkpt lat="45.68012" lon="6.02107">
        <ele>1362</ele>
        <time>2011-06-07T09:27:58Z</time>
      </trkpt>
      <trkpt lat="45.68012" lon="6.02124">
        <ele>1362.4</ele>
        <time>2011-06-07T09:28:03Z</time>
      </trkpt>
      <trkpt lat="45.68012" lon="6.02132">
        <ele>1362.7</ele>
        <time>2011-06-07T09:28:05Z</time>
      </trkpt>
      <trkpt lat="45.68002" lon="6.0215">
        <ele>1362.2</ele>
        <time>2011-06-07T09:28:12Z</time>
      </trkpt>
      <trkpt lat="45.68004" lon="6.02163">
        <ele>1362.6</ele>
        <time>2011-06-07T09:28:15Z</time>
      </trkpt>
      <trkpt lat="45.68001" lon="6.02167">
        <ele>1362.2</ele>
        <time>2011-06-07T09:28:17Z</time>
      </trkpt>
      <trkpt lat="45.67997" lon="6.02173">
        <ele>1363.2</ele>
        <time>2011-06-07T09:28:19Z</time>
      </trkpt>
      <trkpt lat="45.67992" lon="6.0218">
        <ele>1364.3</ele>
        <time>2011-06-07T09:28:22Z</time>
      </trkpt>
      <trkpt lat="45.67989" lon="6.02184">
        <ele>1364.8</ele>
        <time>2011-06-07T09:28:24Z</time>
      </trkpt>
      <trkpt lat="45.67985" lon="6.0219">
        <ele>1365</ele>
        <time>2011-06-07T09:28:26Z</time>
      </trkpt>
      <trkpt lat="45.6798" lon="6.02198">
        <ele>1364.9</ele>
        <time>2011-06-07T09:28:29Z</time>
      </trkpt>
      <trkpt lat="45.67981" lon="6.02204">
        <ele>1364.9</ele>
        <time>2011-06-07T09:28:31Z</time>
      </trkpt>
      <trkpt lat="45.67978" lon="6.02202">
        <ele>1364.8</ele>
        <time>2011-06-07T09:28:32Z</time>
      </trkpt>
      <trkpt lat="45.67975" lon="6.02192">
        <ele>1365.2</ele>
        <time>2011-06-07T09:28:36Z</time>
      </trkpt>
      <trkpt lat="45.67971" lon="6.02183">
        <ele>1366.6</ele>
        <time>2011-06-07T09:28:39Z</time>
      </trkpt>
      <trkpt lat="45.67966" lon="6.02171">
        <ele>1369</ele>
        <time>2011-06-07T09:28:42Z</time>
      </trkpt>
      <trkpt lat="45.67958" lon="6.02158">
        <ele>1370.9</ele>
        <time>2011-06-07T09:28:47Z</time>
      </trkpt>
      <trkpt lat="45.67957" lon="6.02148">
        <ele>1370.9</ele>
        <time>2011-06-07T09:28:50Z</time>
      </trkpt>
      <trkpt lat="45.67947" lon="6.02133">
        <ele>1371.6</ele>
        <time>2011-06-07T09:28:56Z</time>
      </trkpt>
      <trkpt lat="45.67945" lon="6.02124">
        <ele>1371.5</ele>
        <time>2011-06-07T09:28:58Z</time>
      </trkpt>
      <trkpt lat="45.67942" lon="6.02119">
        <ele>1371.6</ele>
        <time>2011-06-07T09:29:00Z</time>
      </trkpt>
      <trkpt lat="45.67935" lon="6.02107">
        <ele>1372.3</ele>
        <time>2011-06-07T09:29:04Z</time>
      </trkpt>
      <trkpt lat="45.67931" lon="6.02093">
        <ele>1372.3</ele>
        <time>2011-06-07T09:29:09Z</time>
      </trkpt>
      <trkpt lat="45.67926" lon="6.02086">
        <ele>1372.2</ele>
        <time>2011-06-07T09:29:11Z</time>
      </trkpt>
      <trkpt lat="45.67919" lon="6.02075">
        <ele>1371.7</ele>
        <time>2011-06-07T09:29:16Z</time>
      </trkpt>
      <trkpt lat="45.67915" lon="6.02068">
        <ele>1371.5</ele>
        <time>2011-06-07T09:29:18Z</time>
      </trkpt>
      <trkpt lat="45.67911" lon="6.02061">
        <ele>1371.6</ele>
        <time>2011-06-07T09:29:21Z</time>
      </trkpt>
      <trkpt lat="45.67906" lon="6.02051">
        <ele>1372.1</ele>
        <time>2011-06-07T09:29:24Z</time>
      </trkpt>
      <trkpt lat="45.67904" lon="6.02044">
        <ele>1372.7</ele>
        <time>2011-06-07T09:29:26Z</time>
      </trkpt>
      <trkpt lat="45.679" lon="6.02039">
        <ele>1373.3</ele>
        <time>2011-06-07T09:29:28Z</time>
      </trkpt>
      <trkpt lat="45.679" lon="6.02031">
        <ele>1373.8</ele>
        <time>2011-06-07T09:29:31Z</time>
      </trkpt>
      <trkpt lat="45.67898" lon="6.02024">
        <ele>1374</ele>
        <time>2011-06-07T09:29:33Z</time>
      </trkpt>
      <trkpt lat="45.67895" lon="6.02016">
        <ele>1373.9</ele>
        <time>2011-06-07T09:29:35Z</time>
      </trkpt>
      <trkpt lat="45.67892" lon="6.02009">
        <ele>1373.9</ele>
        <time>2011-06-07T09:29:37Z</time>
      </trkpt>
      <trkpt lat="45.67891" lon="6.02003">
        <ele>1373.9</ele>
        <time>2011-06-07T09:29:39Z</time>
      </trkpt>
      <trkpt lat="45.67885" lon="6.01993">
        <ele>1373.7</ele>
        <time>2011-06-07T09:29:43Z</time>
      </trkpt>
      <trkpt lat="45.67879" lon="6.01989">
        <ele>1373.9</ele>
        <time>2011-06-07T09:29:45Z</time>
      </trkpt>
      <trkpt lat="45.67875" lon="6.01984">
        <ele>1373.8</ele>
        <time>2011-06-07T09:29:48Z</time>
      </trkpt>
      <trkpt lat="45.67868" lon="6.01979">
        <ele>1374</ele>
        <time>2011-06-07T09:29:51Z</time>
      </trkpt>
      <trkpt lat="45.67864" lon="6.01976">
        <ele>1374.1</ele>
        <time>2011-06-07T09:29:52Z</time>
      </trkpt>
      <trkpt lat="45.67857" lon="6.0197">
        <ele>1374.3</ele>
        <time>2011-06-07T09:29:56Z</time>
      </trkpt>
      <trkpt lat="45.67848" lon="6.01963">
        <ele>1375</ele>
        <time>2011-06-07T09:30:00Z</time>
      </trkpt>
      <trkpt lat="45.67843" lon="6.01959">
        <ele>1375.3</ele>
        <time>2011-06-07T09:30:02Z</time>
      </trkpt>
      <trkpt lat="45.67835" lon="6.0195">
        <ele>1375.8</ele>
        <time>2011-06-07T09:30:06Z</time>
      </trkpt>
      <trkpt lat="45.67835" lon="6.01944">
        <ele>1376</ele>
        <time>2011-06-07T09:30:08Z</time>
      </trkpt>
      <trkpt lat="45.67834" lon="6.01939">
        <ele>1376.9</ele>
        <time>2011-06-07T09:30:09Z</time>
      </trkpt>
      <trkpt lat="45.6783" lon="6.01932">
        <ele>1378.5</ele>
        <time>2011-06-07T09:30:12Z</time>
      </trkpt>
      <trkpt lat="45.67825" lon="6.01922">
        <ele>1380.2</ele>
        <time>2011-06-07T09:30:15Z</time>
      </trkpt>
      <trkpt lat="45.67822" lon="6.01916">
        <ele>1381</ele>
        <time>2011-06-07T09:30:17Z</time>
      </trkpt>
      <trkpt lat="45.67821" lon="6.01912">
        <ele>1381.1</ele>
        <time>2011-06-07T09:30:19Z</time>
      </trkpt>
      <trkpt lat="45.67816" lon="6.01904">
        <ele>1381.2</ele>
        <time>2011-06-07T09:30:21Z</time>
      </trkpt>
      <trkpt lat="45.67811" lon="6.01895">
        <ele>1381.2</ele>
        <time>2011-06-07T09:30:25Z</time>
      </trkpt>
      <trkpt lat="45.6781" lon="6.01891">
        <ele>1381.1</ele>
        <time>2011-06-07T09:30:26Z</time>
      </trkpt>
      <trkpt lat="45.67808" lon="6.01884">
        <ele>1381.2</ele>
        <time>2011-06-07T09:30:28Z</time>
      </trkpt>
      <trkpt lat="45.67806" lon="6.01878">
        <ele>1381.4</ele>
        <time>2011-06-07T09:30:30Z</time>
      </trkpt>
      <trkpt lat="45.67803" lon="6.01873">
        <ele>1381.3</ele>
        <time>2011-06-07T09:30:32Z</time>
      </trkpt>
      <trkpt lat="45.67795" lon="6.01867">
        <ele>1380.4</ele>
        <time>2011-06-07T09:30:35Z</time>
      </trkpt>
      <trkpt lat="45.67791" lon="6.01866">
        <ele>1379.9</ele>
        <time>2011-06-07T09:30:37Z</time>
      </trkpt>
      <trkpt lat="45.67784" lon="6.01861">
        <ele>1378.9</ele>
        <time>2011-06-07T09:30:40Z</time>
      </trkpt>
      <trkpt lat="45.67778" lon="6.01857">
        <ele>1378.3</ele>
        <time>2011-06-07T09:30:43Z</time>
      </trkpt>
      <trkpt lat="45.67771" lon="6.01849">
        <ele>1378.3</ele>
        <time>2011-06-07T09:30:46Z</time>
      </trkpt>
      <trkpt lat="45.67766" lon="6.01842">
        <ele>1378.1</ele>
        <time>2011-06-07T09:30:49Z</time>
      </trkpt>
      <trkpt lat="45.67761" lon="6.01833">
        <ele>1377.6</ele>
        <time>2011-06-07T09:30:52Z</time>
      </trkpt>
      <trkpt lat="45.67761" lon="6.01831">
        <ele>1377.7</ele>
        <time>2011-06-07T09:30:53Z</time>
      </trkpt>
      <trkpt lat="45.67758" lon="6.01822">
        <ele>1377.5</ele>
        <time>2011-06-07T09:30:56Z</time>
      </trkpt>
      <trkpt lat="45.67755" lon="6.01815">
        <ele>1377.6</ele>
        <time>2011-06-07T09:30:58Z</time>
      </trkpt>
      <trkpt lat="45.6775" lon="6.0181">
        <ele>1377.7</ele>
        <time>2011-06-07T09:31:00Z</time>
      </trkpt>
      <trkpt lat="45.67744" lon="6.01806">
        <ele>1377.2</ele>
        <time>2011-06-07T09:31:03Z</time>
      </trkpt>
      <trkpt lat="45.67739" lon="6.01802">
        <ele>1376.2</ele>
        <time>2011-06-07T09:31:05Z</time>
      </trkpt>
      <trkpt lat="45.67734" lon="6.01799">
        <ele>1375.6</ele>
        <time>2011-06-07T09:31:07Z</time>
      </trkpt>
      <trkpt lat="45.67729" lon="6.01796">
        <ele>1375</ele>
        <time>2011-06-07T09:31:10Z</time>
      </trkpt>
      <trkpt lat="45.67724" lon="6.01793">
        <ele>1374.6</ele>
        <time>2011-06-07T09:31:12Z</time>
      </trkpt>
      <trkpt lat="45.67721" lon="6.01791">
        <ele>1374.7</ele>
        <time>2011-06-07T09:31:13Z</time>
      </trkpt>
      <trkpt lat="45.67715" lon="6.01788">
        <ele>1376</ele>
        <time>2011-06-07T09:31:16Z</time>
      </trkpt>
      <trkpt lat="45.67711" lon="6.01785">
        <ele>1377</ele>
        <time>2011-06-07T09:31:18Z</time>
      </trkpt>
      <trkpt lat="45.67709" lon="6.01784">
        <ele>1377.5</ele>
        <time>2011-06-07T09:31:18Z</time>
      </trkpt>
      <trkpt lat="45.67707" lon="6.01775">
        <ele>1378</ele>
        <time>2011-06-07T09:31:21Z</time>
      </trkpt>
      <trkpt lat="45.6771" lon="6.0177">
        <ele>1377</ele>
        <time>2011-06-07T09:31:23Z</time>
      </trkpt>
      <trkpt lat="45.67713" lon="6.01766">
        <ele>1376.2</ele>
        <time>2011-06-07T09:31:24Z</time>
      </trkpt>
      <trkpt lat="45.67714" lon="6.01763">
        <ele>1375.7</ele>
        <time>2011-06-07T09:31:25Z</time>
      </trkpt>
      <trkpt lat="45.67716" lon="6.01759">
        <ele>1375</ele>
        <time>2011-06-07T09:31:27Z</time>
      </trkpt>
      <trkpt lat="45.67719" lon="6.01753">
        <ele>1373.8</ele>
        <time>2011-06-07T09:31:29Z</time>
      </trkpt>
      <trkpt lat="45.67721" lon="6.0175">
        <ele>1373.3</ele>
        <time>2011-06-07T09:31:30Z</time>
      </trkpt>
      <trkpt lat="45.67723" lon="6.01746">
        <ele>1372.3</ele>
        <time>2011-06-07T09:31:31Z</time>
      </trkpt>
      <trkpt lat="45.67726" lon="6.0174">
        <ele>1371.1</ele>
        <time>2011-06-07T09:31:33Z</time>
      </trkpt>
      <trkpt lat="45.67727" lon="6.01736">
        <ele>1370.4</ele>
        <time>2011-06-07T09:31:34Z</time>
      </trkpt>
      <trkpt lat="45.67729" lon="6.01732">
        <ele>1369.8</ele>
        <time>2011-06-07T09:31:36Z</time>
      </trkpt>
      <trkpt lat="45.67732" lon="6.01725">
        <ele>1368.7</ele>
        <time>2011-06-07T09:31:38Z</time>
      </trkpt>
      <trkpt lat="45.67735" lon="6.01717">
        <ele>1367.8</ele>
        <time>2011-06-07T09:31:41Z</time>
      </trkpt>
      <trkpt lat="45.67737" lon="6.01713">
        <ele>1367.4</ele>
        <time>2011-06-07T09:31:42Z</time>
      </trkpt>
      <trkpt lat="45.67737" lon="6.01704">
        <ele>1366.2</ele>
        <time>2011-06-07T09:31:44Z</time>
      </trkpt>
      <trkpt lat="45.67738" lon="6.01694">
        <ele>1365</ele>
        <time>2011-06-07T09:31:47Z</time>
      </trkpt>
      <trkpt lat="45.67738" lon="6.01692">
        <ele>1365.1</ele>
        <time>2011-06-07T09:31:48Z</time>
      </trkpt>
      <trkpt lat="45.67736" lon="6.01685">
        <ele>1365.3</ele>
        <time>2011-06-07T09:31:50Z</time>
      </trkpt>
      <trkpt lat="45.67735" lon="6.01682">
        <ele>1365.5</ele>
        <time>2011-06-07T09:31:51Z</time>
      </trkpt>
      <trkpt lat="45.67736" lon="6.01677">
        <ele>1365.6</ele>
        <time>2011-06-07T09:31:53Z</time>
      </trkpt>
      <trkpt lat="45.67736" lon="6.01671">
        <ele>1365.9</ele>
        <time>2011-06-07T09:31:54Z</time>
      </trkpt>
      <trkpt lat="45.67732" lon="6.01667">
        <ele>1366.3</ele>
        <time>2011-06-07T09:31:56Z</time>
      </trkpt>
      <trkpt lat="45.6771" lon="6.01639">
        <ele>1370.1</ele>
        <time>2011-06-07T09:32:08Z</time>
      </trkpt>
      <trkpt lat="45.677" lon="6.01626">
        <ele>1371.9</ele>
        <time>2011-06-07T09:32:13Z</time>
      </trkpt>
      <trkpt lat="45.67691" lon="6.01614">
        <ele>1373.1</ele>
        <time>2011-06-07T09:32:18Z</time>
      </trkpt>
      <trkpt lat="45.67689" lon="6.01607">
        <ele>1373.1</ele>
        <time>2011-06-07T09:32:20Z</time>
      </trkpt>
      <trkpt lat="45.67679" lon="6.01593">
        <ele>1375.1</ele>
        <time>2011-06-07T09:32:26Z</time>
      </trkpt>
      <trkpt lat="45.67673" lon="6.01585">
        <ele>1376.3</ele>
        <time>2011-06-07T09:32:29Z</time>
      </trkpt>
      <trkpt lat="45.67673" lon="6.01578">
        <ele>1376.7</ele>
        <time>2011-06-07T09:32:31Z</time>
      </trkpt>
      <trkpt lat="45.67672" lon="6.0157">
        <ele>1377.8</ele>
        <time>2011-06-07T09:32:34Z</time>
      </trkpt>
      <trkpt lat="45.67673" lon="6.01562">
        <ele>1378.5</ele>
        <time>2011-06-07T09:32:36Z</time>
      </trkpt>
      <trkpt lat="45.67676" lon="6.01549">
        <ele>1379</ele>
        <time>2011-06-07T09:32:40Z</time>
      </trkpt>
      <trkpt lat="45.67677" lon="6.0154">
        <ele>1379.3</ele>
        <time>2011-06-07T09:32:42Z</time>
      </trkpt>
      <trkpt lat="45.67678" lon="6.01533">
        <ele>1379.6</ele>
        <time>2011-06-07T09:32:44Z</time>
      </trkpt>
      <trkpt lat="45.67679" lon="6.01523">
        <ele>1379.7</ele>
        <time>2011-06-07T09:32:47Z</time>
      </trkpt>
      <trkpt lat="45.67679" lon="6.01519">
        <ele>1379.9</ele>
        <time>2011-06-07T09:32:48Z</time>
      </trkpt>
      <trkpt lat="45.67679" lon="6.01512">
        <ele>1379.9</ele>
        <time>2011-06-07T09:32:50Z</time>
      </trkpt>
      <trkpt lat="45.67679" lon="6.01502">
        <ele>1380.2</ele>
        <time>2011-06-07T09:32:53Z</time>
      </trkpt>
      <trkpt lat="45.67676" lon="6.01493">
        <ele>1380.5</ele>
        <time>2011-06-07T09:32:56Z</time>
      </trkpt>
      <trkpt lat="45.67668" lon="6.01472">
        <ele>1382.7</ele>
        <time>2011-06-07T09:33:02Z</time>
      </trkpt>
      <trkpt lat="45.67663" lon="6.01464">
        <ele>1383.4</ele>
        <time>2011-06-07T09:33:05Z</time>
      </trkpt>
      <trkpt lat="45.67658" lon="6.01456">
        <ele>1384</ele>
        <time>2011-06-07T09:33:08Z</time>
      </trkpt>
      <trkpt lat="45.6765" lon="6.01446">
        <ele>1384.9</ele>
        <time>2011-06-07T09:33:13Z</time>
      </trkpt>
      <trkpt lat="45.67643" lon="6.01438">
        <ele>1385.8</ele>
        <time>2011-06-07T09:33:16Z</time>
      </trkpt>
      <trkpt lat="45.67638" lon="6.01431">
        <ele>1386.1</ele>
        <time>2011-06-07T09:33:19Z</time>
      </trkpt>
      <trkpt lat="45.67631" lon="6.01424">
        <ele>1386.3</ele>
        <time>2011-06-07T09:33:22Z</time>
      </trkpt>
      <trkpt lat="45.67627" lon="6.01418">
        <ele>1386.5</ele>
        <time>2011-06-07T09:33:25Z</time>
      </trkpt>
      <trkpt lat="45.6762" lon="6.0141">
        <ele>1387.3</ele>
        <time>2011-06-07T09:33:28Z</time>
      </trkpt>
      <trkpt lat="45.67614" lon="6.01403">
        <ele>1387.3</ele>
        <time>2011-06-07T09:33:31Z</time>
      </trkpt>
      <trkpt lat="45.67608" lon="6.01396">
        <ele>1386.9</ele>
        <time>2011-06-07T09:33:35Z</time>
      </trkpt>
      <trkpt lat="45.67602" lon="6.01393">
        <ele>1386.7</ele>
        <time>2011-06-07T09:33:37Z</time>
      </trkpt>
      <trkpt lat="45.67596" lon="6.01386">
        <ele>1386.6</ele>
        <time>2011-06-07T09:33:40Z</time>
      </trkpt>
      <trkpt lat="45.67592" lon="6.01381">
        <ele>1386.3</ele>
        <time>2011-06-07T09:33:42Z</time>
      </trkpt>
      <trkpt lat="45.67587" lon="6.01375">
        <ele>1385.5</ele>
        <time>2011-06-07T09:33:45Z</time>
      </trkpt>
      <trkpt lat="45.67584" lon="6.01372">
        <ele>1384.8</ele>
        <time>2011-06-07T09:33:47Z</time>
      </trkpt>
      <trkpt lat="45.67577" lon="6.01365">
        <ele>1382.7</ele>
        <time>2011-06-07T09:33:50Z</time>
      </trkpt>
      <trkpt lat="45.67569" lon="6.01356">
        <ele>1380.2</ele>
        <time>2011-06-07T09:33:54Z</time>
      </trkpt>
      <trkpt lat="45.67566" lon="6.0135">
        <ele>1379.5</ele>
        <time>2011-06-07T09:33:56Z</time>
      </trkpt>
      <trkpt lat="45.67563" lon="6.01347">
        <ele>1378.9</ele>
        <time>2011-06-07T09:33:57Z</time>
      </trkpt>
      <trkpt lat="45.67558" lon="6.01342">
        <ele>1378.1</ele>
        <time>2011-06-07T09:34:00Z</time>
      </trkpt>
      <trkpt lat="45.67551" lon="6.01333">
        <ele>1377.3</ele>
        <time>2011-06-07T09:34:03Z</time>
      </trkpt>
      <trkpt lat="45.67546" lon="6.01328">
        <ele>1376.8</ele>
        <time>2011-06-07T09:34:06Z</time>
      </trkpt>
      <trkpt lat="45.67541" lon="6.01322">
        <ele>1375.9</ele>
        <time>2011-06-07T09:34:09Z</time>
      </trkpt>
      <trkpt lat="45.67536" lon="6.01316">
        <ele>1374.6</ele>
        <time>2011-06-07T09:34:11Z</time>
      </trkpt>
      <trkpt lat="45.67529" lon="6.0131">
        <ele>1372.7</ele>
        <time>2011-06-07T09:34:14Z</time>
      </trkpt>
      <trkpt lat="45.67527" lon="6.01307">
        <ele>1372</ele>
        <time>2011-06-07T09:34:16Z</time>
      </trkpt>
      <trkpt lat="45.67522" lon="6.01301">
        <ele>1371.6</ele>
        <time>2011-06-07T09:34:18Z</time>
      </trkpt>
      <trkpt lat="45.67517" lon="6.01296">
        <ele>1371.2</ele>
        <time>2011-06-07T09:34:21Z</time>
      </trkpt>
      <trkpt lat="45.67513" lon="6.01291">
        <ele>1370.7</ele>
        <time>2011-06-07T09:34:23Z</time>
      </trkpt>
      <trkpt lat="45.67507" lon="6.01285">
        <ele>1369.9</ele>
        <time>2011-06-07T09:34:26Z</time>
      </trkpt>
      <trkpt lat="45.67503" lon="6.01281">
        <ele>1369.4</ele>
        <time>2011-06-07T09:34:28Z</time>
      </trkpt>
      <trkpt lat="45.67502" lon="6.01275">
        <ele>1368.9</ele>
        <time>2011-06-07T09:34:29Z</time>
      </trkpt>
      <trkpt lat="45.67498" lon="6.01265">
        <ele>1368.3</ele>
        <time>2011-06-07T09:34:32Z</time>
      </trkpt>
      <trkpt lat="45.67498" lon="6.01258">
        <ele>1367.8</ele>
        <time>2011-06-07T09:34:34Z</time>
      </trkpt>
      <trkpt lat="45.67501" lon="6.01251">
        <ele>1367.1</ele>
        <time>2011-06-07T09:34:37Z</time>
      </trkpt>
      <trkpt lat="45.67503" lon="6.01245">
        <ele>1367.4</ele>
        <time>2011-06-07T09:34:38Z</time>
      </trkpt>
      <trkpt lat="45.67504" lon="6.01242">
        <ele>1367.6</ele>
        <time>2011-06-07T09:34:39Z</time>
      </trkpt>
      <trkpt lat="45.67506" lon="6.01236">
        <ele>1367.8</ele>
        <time>2011-06-07T09:34:41Z</time>
      </trkpt>
      <trkpt lat="45.67508" lon="6.01231">
        <ele>1368</ele>
        <time>2011-06-07T09:34:43Z</time>
      </trkpt>
      <trkpt lat="45.67511" lon="6.01226">
        <ele>1368</ele>
        <time>2011-06-07T09:34:45Z</time>
      </trkpt>
      <trkpt lat="45.67514" lon="6.0122">
        <ele>1368</ele>
        <time>2011-06-07T09:34:47Z</time>
      </trkpt>
      <trkpt lat="45.67515" lon="6.01217">
        <ele>1368</ele>
        <time>2011-06-07T09:34:48Z</time>
      </trkpt>
      <trkpt lat="45.67517" lon="6.01213">
        <ele>1367.9</ele>
        <time>2011-06-07T09:34:49Z</time>
      </trkpt>
      <trkpt lat="45.67519" lon="6.01208">
        <ele>1367.6</ele>
        <time>2011-06-07T09:34:51Z</time>
      </trkpt>
      <trkpt lat="45.67524" lon="6.01196">
        <ele>1366.7</ele>
        <time>2011-06-07T09:34:55Z</time>
      </trkpt>
      <trkpt lat="45.67527" lon="6.01195">
        <ele>1366.1</ele>
        <time>2011-06-07T09:34:56Z</time>
      </trkpt>
      <trkpt lat="45.67529" lon="6.01189">
        <ele>1365.9</ele>
        <time>2011-06-07T09:34:58Z</time>
      </trkpt>
      <trkpt lat="45.67531" lon="6.01184">
        <ele>1366.1</ele>
        <time>2011-06-07T09:34:59Z</time>
      </trkpt>
      <trkpt lat="45.67535" lon="6.01177">
        <ele>1366.8</ele>
        <time>2011-06-07T09:35:02Z</time>
      </trkpt>
      <trkpt lat="45.67536" lon="6.01172">
        <ele>1367.4</ele>
        <time>2011-06-07T09:35:03Z</time>
      </trkpt>
      <trkpt lat="45.67536" lon="6.0117">
        <ele>1367.4</ele>
        <time>2011-06-07T09:35:04Z</time>
      </trkpt>
      <trkpt lat="45.67537" lon="6.01161">
        <ele>1368.5</ele>
        <time>2011-06-07T09:35:06Z</time>
      </trkpt>
      <trkpt lat="45.67536" lon="6.01156">
        <ele>1368.8</ele>
        <time>2011-06-07T09:35:08Z</time>
      </trkpt>
      <trkpt lat="45.67538" lon="6.01152">
        <ele>1369.9</ele>
        <time>2011-06-07T09:35:09Z</time>
      </trkpt>
      <trkpt lat="45.67537" lon="6.01149">
        <ele>1369.9</ele>
        <time>2011-06-07T09:35:10Z</time>
      </trkpt>
      <trkpt lat="45.67535" lon="6.01137">
        <ele>1370.9</ele>
        <time>2011-06-07T09:35:14Z</time>
      </trkpt>
      <trkpt lat="45.67537" lon="6.01132">
        <ele>1371.5</ele>
        <time>2011-06-07T09:35:15Z</time>
      </trkpt>
      <trkpt lat="45.67537" lon="6.01126">
        <ele>1371.7</ele>
        <time>2011-06-07T09:35:17Z</time>
      </trkpt>
      <trkpt lat="45.67538" lon="6.01122">
        <ele>1372.1</ele>
        <time>2011-06-07T09:35:18Z</time>
      </trkpt>
      <trkpt lat="45.67541" lon="6.01117">
        <ele>1372.4</ele>
        <time>2011-06-07T09:35:20Z</time>
      </trkpt>
      <trkpt lat="45.67542" lon="6.01112">
        <ele>1372.5</ele>
        <time>2011-06-07T09:35:21Z</time>
      </trkpt>
      <trkpt lat="45.67545" lon="6.01105">
        <ele>1372.1</ele>
        <time>2011-06-07T09:35:24Z</time>
      </trkpt>
      <trkpt lat="45.67547" lon="6.01102">
        <ele>1371.9</ele>
        <time>2011-06-07T09:35:25Z</time>
      </trkpt>
      <trkpt lat="45.6755" lon="6.01093">
        <ele>1371.1</ele>
        <time>2011-06-07T09:35:28Z</time>
      </trkpt>
      <trkpt lat="45.67553" lon="6.01087">
        <ele>1370.4</ele>
        <time>2011-06-07T09:35:30Z</time>
      </trkpt>
      <trkpt lat="45.67555" lon="6.01081">
        <ele>1369.6</ele>
        <time>2011-06-07T09:35:32Z</time>
      </trkpt>
      <trkpt lat="45.67558" lon="6.01075">
        <ele>1368.8</ele>
        <time>2011-06-07T09:35:34Z</time>
      </trkpt>
      <trkpt lat="45.67561" lon="6.01069">
        <ele>1367.9</ele>
        <time>2011-06-07T09:35:36Z</time>
      </trkpt>
      <trkpt lat="45.67564" lon="6.01064">
        <ele>1367.2</ele>
        <time>2011-06-07T09:35:37Z</time>
      </trkpt>
      <trkpt lat="45.67565" lon="6.01061">
        <ele>1366.8</ele>
        <time>2011-06-07T09:35:38Z</time>
      </trkpt>
      <trkpt lat="45.67568" lon="6.01055">
        <ele>1365.8</ele>
        <time>2011-06-07T09:35:41Z</time>
      </trkpt>
      <trkpt lat="45.6757" lon="6.0105">
        <ele>1365.5</ele>
        <time>2011-06-07T09:35:42Z</time>
      </trkpt>
      <trkpt lat="45.67576" lon="6.01046">
        <ele>1365.2</ele>
        <time>2011-06-07T09:35:44Z</time>
      </trkpt>
      <trkpt lat="45.6758" lon="6.01045">
        <ele>1365.1</ele>
        <time>2011-06-07T09:35:46Z</time>
      </trkpt>
      <trkpt lat="45.67582" lon="6.01042">
        <ele>1364.5</ele>
        <time>2011-06-07T09:35:48Z</time>
      </trkpt>
      <trkpt lat="45.67591" lon="6.01037">
        <ele>1364.1</ele>
        <time>2011-06-07T09:35:51Z</time>
      </trkpt>
      <trkpt lat="45.67596" lon="6.01031">
        <ele>1363.5</ele>
        <time>2011-06-07T09:35:54Z</time>
      </trkpt>
      <trkpt lat="45.67603" lon="6.01026">
        <ele>1363.2</ele>
        <time>2011-06-07T09:35:57Z</time>
      </trkpt>
      <trkpt lat="45.67607" lon="6.01021">
        <ele>1362.7</ele>
        <time>2011-06-07T09:35:59Z</time>
      </trkpt>
      <trkpt lat="45.67607" lon="6.0102">
        <ele>1362.6</ele>
        <time>2011-06-07T09:35:59Z</time>
      </trkpt>
      <trkpt lat="45.67612" lon="6.01012">
        <ele>1362</ele>
        <time>2011-06-07T09:36:02Z</time>
      </trkpt>
      <trkpt lat="45.67616" lon="6.0101">
        <ele>1362.4</ele>
        <time>2011-06-07T09:36:04Z</time>
      </trkpt>
      <trkpt lat="45.67619" lon="6.01005">
        <ele>1362.1</ele>
        <time>2011-06-07T09:36:06Z</time>
      </trkpt>
      <trkpt lat="45.67625" lon="6.01001">
        <ele>1362.6</ele>
        <time>2011-06-07T09:36:08Z</time>
      </trkpt>
      <trkpt lat="45.67627" lon="6.00996">
        <ele>1362.1</ele>
        <time>2011-06-07T09:36:10Z</time>
      </trkpt>
      <trkpt lat="45.67632" lon="6.00986">
        <ele>1361.3</ele>
        <time>2011-06-07T09:36:14Z</time>
      </trkpt>
      <trkpt lat="45.67634" lon="6.0098">
        <ele>1360.5</ele>
        <time>2011-06-07T09:36:15Z</time>
      </trkpt>
      <trkpt lat="45.67636" lon="6.00976">
        <ele>1360.1</ele>
        <time>2011-06-07T09:36:17Z</time>
      </trkpt>
      <trkpt lat="45.67638" lon="6.00971">
        <ele>1359.9</ele>
        <time>2011-06-07T09:36:18Z</time>
      </trkpt>
      <trkpt lat="45.67639" lon="6.00962">
        <ele>1360.1</ele>
        <time>2011-06-07T09:36:21Z</time>
      </trkpt>
      <trkpt lat="45.67641" lon="6.00958">
        <ele>1360.6</ele>
        <time>2011-06-07T09:36:22Z</time>
      </trkpt>
      <trkpt lat="45.67643" lon="6.00951">
        <ele>1361.2</ele>
        <time>2011-06-07T09:36:25Z</time>
      </trkpt>
      <trkpt lat="45.67644" lon="6.00946">
        <ele>1361.7</ele>
        <time>2011-06-07T09:36:26Z</time>
      </trkpt>
      <trkpt lat="45.67645" lon="6.00941">
        <ele>1361.1</ele>
        <time>2011-06-07T09:36:28Z</time>
      </trkpt>
      <trkpt lat="45.67648" lon="6.00932">
        <ele>1360.2</ele>
        <time>2011-06-07T09:36:30Z</time>
      </trkpt>
      <trkpt lat="45.6765" lon="6.00926">
        <ele>1359.3</ele>
        <time>2011-06-07T09:36:32Z</time>
      </trkpt>
      <trkpt lat="45.67654" lon="6.00925">
        <ele>1360</ele>
        <time>2011-06-07T09:36:34Z</time>
      </trkpt>
      <trkpt lat="45.67659" lon="6.00921">
        <ele>1360</ele>
        <time>2011-06-07T09:36:36Z</time>
      </trkpt>
      <trkpt lat="45.67663" lon="6.00918">
        <ele>1359.8</ele>
        <time>2011-06-07T09:36:38Z</time>
      </trkpt>
      <trkpt lat="45.67668" lon="6.00917">
        <ele>1360.2</ele>
        <time>2011-06-07T09:36:40Z</time>
      </trkpt>
      <trkpt lat="45.6767" lon="6.00917">
        <ele>1360.8</ele>
        <time>2011-06-07T09:36:41Z</time>
      </trkpt>
      <trkpt lat="45.67679" lon="6.00915">
        <ele>1362.5</ele>
        <time>2011-06-07T09:36:44Z</time>
      </trkpt>
      <trkpt lat="45.67684" lon="6.00915">
        <ele>1363.6</ele>
        <time>2011-06-07T09:36:46Z</time>
      </trkpt>
      <trkpt lat="45.67689" lon="6.00915">
        <ele>1364.4</ele>
        <time>2011-06-07T09:36:48Z</time>
      </trkpt>
      <trkpt lat="45.67694" lon="6.00914">
        <ele>1365.4</ele>
        <time>2011-06-07T09:36:50Z</time>
      </trkpt>
      <trkpt lat="45.67699" lon="6.00913">
        <ele>1366.4</ele>
        <time>2011-06-07T09:36:52Z</time>
      </trkpt>
      <trkpt lat="45.67704" lon="6.00912">
        <ele>1367.3</ele>
        <time>2011-06-07T09:36:54Z</time>
      </trkpt>
      <trkpt lat="45.67709" lon="6.00909">
        <ele>1367.8</ele>
        <time>2011-06-07T09:36:56Z</time>
      </trkpt>
      <trkpt lat="45.67713" lon="6.00904">
        <ele>1367.5</ele>
        <time>2011-06-07T09:36:58Z</time>
      </trkpt>
      <trkpt lat="45.67722" lon="6.00903">
        <ele>1368.8</ele>
        <time>2011-06-07T09:37:02Z</time>
      </trkpt>
      <trkpt lat="45.67726" lon="6.00901">
        <ele>1368.8</ele>
        <time>2011-06-07T09:37:04Z</time>
      </trkpt>
      <trkpt lat="45.67733" lon="6.00898">
        <ele>1369</ele>
        <time>2011-06-07T09:37:07Z</time>
      </trkpt>
      <trkpt lat="45.67736" lon="6.00894">
        <ele>1368.5</ele>
        <time>2011-06-07T09:37:08Z</time>
      </trkpt>
      <trkpt lat="45.67738" lon="6.00892">
        <ele>1368.3</ele>
        <time>2011-06-07T09:37:09Z</time>
      </trkpt>
      <trkpt lat="45.6774" lon="6.00885">
        <ele>1367.1</ele>
        <time>2011-06-07T09:37:11Z</time>
      </trkpt>
      <trkpt lat="45.67744" lon="6.00876">
        <ele>1365.8</ele>
        <time>2011-06-07T09:37:14Z</time>
      </trkpt>
      <trkpt lat="45.67747" lon="6.00874">
        <ele>1365.4</ele>
        <time>2011-06-07T09:37:16Z</time>
      </trkpt>
      <trkpt lat="45.67749" lon="6.00869">
        <ele>1364.2</ele>
        <time>2011-06-07T09:37:17Z</time>
      </trkpt>
      <trkpt lat="45.67752" lon="6.00862">
        <ele>1362.2</ele>
        <time>2011-06-07T09:37:20Z</time>
      </trkpt>
      <trkpt lat="45.67755" lon="6.00857">
        <ele>1361.7</ele>
        <time>2011-06-07T09:37:21Z</time>
      </trkpt>
      <trkpt lat="45.67759" lon="6.00849">
        <ele>1360.8</ele>
        <time>2011-06-07T09:37:24Z</time>
      </trkpt>
      <trkpt lat="45.67761" lon="6.00844">
        <ele>1360.3</ele>
        <time>2011-06-07T09:37:26Z</time>
      </trkpt>
      <trkpt lat="45.67757" lon="6.00836">
        <ele>1359.7</ele>
        <time>2011-06-07T09:37:28Z</time>
      </trkpt>
      <trkpt lat="45.67753" lon="6.0083">
        <ele>1359.8</ele>
        <time>2011-06-07T09:37:30Z</time>
      </trkpt>
      <trkpt lat="45.67748" lon="6.00826">
        <ele>1360</ele>
        <time>2011-06-07T09:37:33Z</time>
      </trkpt>
      <trkpt lat="45.67743" lon="6.00823">
        <ele>1359.9</ele>
        <time>2011-06-07T09:37:35Z</time>
      </trkpt>
      <trkpt lat="45.67741" lon="6.00815">
        <ele>1359.5</ele>
        <time>2011-06-07T09:37:37Z</time>
      </trkpt>
      <trkpt lat="45.67739" lon="6.00809">
        <ele>1359</ele>
        <time>2011-06-07T09:37:39Z</time>
      </trkpt>
      <trkpt lat="45.67741" lon="6.00804">
        <ele>1358.9</ele>
        <time>2011-06-07T09:37:41Z</time>
      </trkpt>
      <trkpt lat="45.67742" lon="6.00804">
        <ele>1359</ele>
        <time>2011-06-07T09:37:41Z</time>
      </trkpt>
      <trkpt lat="45.67749" lon="6.00797">
        <ele>1359.2</ele>
        <time>2011-06-07T09:37:44Z</time>
      </trkpt>
      <trkpt lat="45.67753" lon="6.00792">
        <ele>1358.9</ele>
        <time>2011-06-07T09:37:47Z</time>
      </trkpt>
      <trkpt lat="45.67756" lon="6.00786">
        <ele>1358.4</ele>
        <time>2011-06-07T09:37:49Z</time>
      </trkpt>
      <trkpt lat="45.67759" lon="6.00781">
        <ele>1357.9</ele>
        <time>2011-06-07T09:37:51Z</time>
      </trkpt>
      <trkpt lat="45.67762" lon="6.00771">
        <ele>1357.7</ele>
        <time>2011-06-07T09:37:54Z</time>
      </trkpt>
      <trkpt lat="45.67764" lon="6.00769">
        <ele>1357.7</ele>
        <time>2011-06-07T09:37:55Z</time>
      </trkpt>
      <trkpt lat="45.67768" lon="6.00761">
        <ele>1357.7</ele>
        <time>2011-06-07T09:37:57Z</time>
      </trkpt>
      <trkpt lat="45.67773" lon="6.00756">
        <ele>1357.8</ele>
        <time>2011-06-07T09:38:00Z</time>
      </trkpt>
      <trkpt lat="45.67776" lon="6.00751">
        <ele>1358</ele>
        <time>2011-06-07T09:38:01Z</time>
      </trkpt>
      <trkpt lat="45.67776" lon="6.0075">
        <ele>1358</ele>
        <time>2011-06-07T09:38:02Z</time>
      </trkpt>
      <trkpt lat="45.6778" lon="6.0074">
        <ele>1357.5</ele>
        <time>2011-06-07T09:38:05Z</time>
      </trkpt>
      <trkpt lat="45.67783" lon="6.00733">
        <ele>1357.4</ele>
        <time>2011-06-07T09:38:07Z</time>
      </trkpt>
      <trkpt lat="45.67783" lon="6.00727">
        <ele>1357.4</ele>
        <time>2011-06-07T09:38:09Z</time>
      </trkpt>
      <trkpt lat="45.67783" lon="6.00723">
        <ele>1357.4</ele>
        <time>2011-06-07T09:38:10Z</time>
      </trkpt>
      <trkpt lat="45.67783" lon="6.00717">
        <ele>1357.6</ele>
        <time>2011-06-07T09:38:12Z</time>
      </trkpt>
      <trkpt lat="45.67787" lon="6.00707">
        <ele>1358.4</ele>
        <time>2011-06-07T09:38:15Z</time>
      </trkpt>
      <trkpt lat="45.67789" lon="6.007">
        <ele>1359</ele>
        <time>2011-06-07T09:38:17Z</time>
      </trkpt>
      <trkpt lat="45.67792" lon="6.00691">
        <ele>1359.7</ele>
        <time>2011-06-07T09:38:20Z</time>
      </trkpt>
      <trkpt lat="45.67793" lon="6.00688">
        <ele>1359.9</ele>
        <time>2011-06-07T09:38:21Z</time>
      </trkpt>
      <trkpt lat="45.67791" lon="6.00677">
        <ele>1360.1</ele>
        <time>2011-06-07T09:38:24Z</time>
      </trkpt>
      <trkpt lat="45.6779" lon="6.00671">
        <ele>1360.3</ele>
        <time>2011-06-07T09:38:26Z</time>
      </trkpt>
      <trkpt lat="45.67786" lon="6.00668">
        <ele>1360.2</ele>
        <time>2011-06-07T09:38:27Z</time>
      </trkpt>
      <trkpt lat="45.67781" lon="6.00662">
        <ele>1360.2</ele>
        <time>2011-06-07T09:38:30Z</time>
      </trkpt>
      <trkpt lat="45.6777" lon="6.00657">
        <ele>1359.5</ele>
        <time>2011-06-07T09:38:35Z</time>
      </trkpt>
      <trkpt lat="45.67761" lon="6.00653">
        <ele>1358.8</ele>
        <time>2011-06-07T09:38:39Z</time>
      </trkpt>
      <trkpt lat="45.67751" lon="6.00649">
        <ele>1358.1</ele>
        <time>2011-06-07T09:38:43Z</time>
      </trkpt>
      <trkpt lat="45.67741" lon="6.00645">
        <ele>1358.2</ele>
        <time>2011-06-07T09:38:47Z</time>
      </trkpt>
      <trkpt lat="45.67734" lon="6.0064">
        <ele>1359</ele>
        <time>2011-06-07T09:38:50Z</time>
      </trkpt>
      <trkpt lat="45.6773" lon="6.00634">
        <ele>1359.5</ele>
        <time>2011-06-07T09:38:52Z</time>
      </trkpt>
      <trkpt lat="45.67729" lon="6.00633">
        <ele>1359.5</ele>
        <time>2011-06-07T09:38:53Z</time>
      </trkpt>
      <trkpt lat="45.67723" lon="6.00623">
        <ele>1359.9</ele>
        <time>2011-06-07T09:38:56Z</time>
      </trkpt>
      <trkpt lat="45.6772" lon="6.00614">
        <ele>1360.1</ele>
        <time>2011-06-07T09:38:59Z</time>
      </trkpt>
      <trkpt lat="45.6772" lon="6.00611">
        <ele>1360.1</ele>
        <time>2011-06-07T09:39:00Z</time>
      </trkpt>
      <trkpt lat="45.67717" lon="6.00604">
        <ele>1360.6</ele>
        <time>2011-06-07T09:39:02Z</time>
      </trkpt>
      <trkpt lat="45.67717" lon="6.00602">
        <ele>1360.7</ele>
        <time>2011-06-07T09:39:03Z</time>
      </trkpt>
      <trkpt lat="45.67711" lon="6.00594">
        <ele>1361.1</ele>
        <time>2011-06-07T09:39:06Z</time>
      </trkpt>
      <trkpt lat="45.67709" lon="6.0059">
        <ele>1361.3</ele>
        <time>2011-06-07T09:39:07Z</time>
      </trkpt>
      <trkpt lat="45.67705" lon="6.00587">
        <ele>1361.3</ele>
        <time>2011-06-07T09:39:09Z</time>
      </trkpt>
      <trkpt lat="45.67701" lon="6.00581">
        <ele>1361.3</ele>
        <time>2011-06-07T09:39:12Z</time>
      </trkpt>
      <trkpt lat="45.67702" lon="6.00575">
        <ele>1361.4</ele>
        <time>2011-06-07T09:39:13Z</time>
      </trkpt>
      <trkpt lat="45.67702" lon="6.00568">
        <ele>1361.6</ele>
        <time>2011-06-07T09:39:15Z</time>
      </trkpt>
      <trkpt lat="45.67704" lon="6.00564">
        <ele>1361.8</ele>
        <time>2011-06-07T09:39:17Z</time>
      </trkpt>
      <trkpt lat="45.67706" lon="6.00559">
        <ele>1362.1</ele>
        <time>2011-06-07T09:39:18Z</time>
      </trkpt>
      <trkpt lat="45.67705" lon="6.00551">
        <ele>1362.3</ele>
        <time>2011-06-07T09:39:20Z</time>
      </trkpt>
      <trkpt lat="45.67709" lon="6.00551">
        <ele>1362.7</ele>
        <time>2011-06-07T09:39:22Z</time>
      </trkpt>
      <trkpt lat="45.67713" lon="6.00554">
        <ele>1362.9</ele>
        <time>2011-06-07T09:39:23Z</time>
      </trkpt>
      <trkpt lat="45.67688" lon="6.00517">
        <ele>1365.3</ele>
        <time>2011-06-07T09:39:38Z</time>
      </trkpt>
      <trkpt lat="45.67682" lon="6.00509">
        <ele>1365.8</ele>
        <time>2011-06-07T09:39:41Z</time>
      </trkpt>
      <trkpt lat="45.67677" lon="6.00504">
        <ele>1365.8</ele>
        <time>2011-06-07T09:39:43Z</time>
      </trkpt>
      <trkpt lat="45.67673" lon="6.00501">
        <ele>1365.6</ele>
        <time>2011-06-07T09:39:45Z</time>
      </trkpt>
      <trkpt lat="45.67667" lon="6.00494">
        <ele>1365.8</ele>
        <time>2011-06-07T09:39:48Z</time>
      </trkpt>
      <trkpt lat="45.67665" lon="6.00485">
        <ele>1366.4</ele>
        <time>2011-06-07T09:39:51Z</time>
      </trkpt>
      <trkpt lat="45.67662" lon="6.00473">
        <ele>1367.7</ele>
        <time>2011-06-07T09:39:54Z</time>
      </trkpt>
      <trkpt lat="45.67662" lon="6.00467">
        <ele>1367.9</ele>
        <time>2011-06-07T09:39:56Z</time>
      </trkpt>
      <trkpt lat="45.67662" lon="6.00458">
        <ele>1368.1</ele>
        <time>2011-06-07T09:39:59Z</time>
      </trkpt>
      <trkpt lat="45.67662" lon="6.00451">
        <ele>1368.2</ele>
        <time>2011-06-07T09:40:00Z</time>
      </trkpt>
      <trkpt lat="45.67662" lon="6.00445">
        <ele>1368.4</ele>
        <time>2011-06-07T09:40:02Z</time>
      </trkpt>
      <trkpt lat="45.6766" lon="6.00441">
        <ele>1368.6</ele>
        <time>2011-06-07T09:40:04Z</time>
      </trkpt>
      <trkpt lat="45.67658" lon="6.00429">
        <ele>1369.2</ele>
        <time>2011-06-07T09:40:07Z</time>
      </trkpt>
      <trkpt lat="45.67658" lon="6.00421">
        <ele>1369.5</ele>
        <time>2011-06-07T09:40:09Z</time>
      </trkpt>
      <trkpt lat="45.67654" lon="6.00407">
        <ele>1369.9</ele>
        <time>2011-06-07T09:40:13Z</time>
      </trkpt>
      <trkpt lat="45.67654" lon="6.00396">
        <ele>1370</ele>
        <time>2011-06-07T09:40:16Z</time>
      </trkpt>
      <trkpt lat="45.67651" lon="6.00389">
        <ele>1370</ele>
        <time>2011-06-07T09:40:19Z</time>
      </trkpt>
      <trkpt lat="45.67648" lon="6.00382">
        <ele>1370</ele>
        <time>2011-06-07T09:40:21Z</time>
      </trkpt>
      <trkpt lat="45.67635" lon="6.00368">
        <ele>1370.3</ele>
        <time>2011-06-07T09:40:27Z</time>
      </trkpt>
      <trkpt lat="45.67631" lon="6.00365">
        <ele>1370.6</ele>
        <time>2011-06-07T09:40:29Z</time>
      </trkpt>
      <trkpt lat="45.67629" lon="6.00366">
        <ele>1370.7</ele>
        <time>2011-06-07T09:40:30Z</time>
      </trkpt>
      <trkpt lat="45.67624" lon="6.00372">
        <ele>1371.1</ele>
        <time>2011-06-07T09:40:33Z</time>
      </trkpt>
      <trkpt lat="45.67621" lon="6.00375">
        <ele>1371.3</ele>
        <time>2011-06-07T09:40:34Z</time>
      </trkpt>
      <trkpt lat="45.6762" lon="6.00377">
        <ele>1371.3</ele>
        <time>2011-06-07T09:40:35Z</time>
      </trkpt>
      <trkpt lat="45.67617" lon="6.00375">
        <ele>1371.6</ele>
        <time>2011-06-07T09:40:36Z</time>
      </trkpt>
      <trkpt lat="45.67609" lon="6.00367">
        <ele>1371.9</ele>
        <time>2011-06-07T09:40:40Z</time>
      </trkpt>
      <trkpt lat="45.67607" lon="6.00362">
        <ele>1371.8</ele>
        <time>2011-06-07T09:40:42Z</time>
      </trkpt>
      <trkpt lat="45.67605" lon="6.00356">
        <ele>1372.4</ele>
        <time>2011-06-07T09:40:44Z</time>
      </trkpt>
      <trkpt lat="45.67602" lon="6.00353">
        <ele>1372.5</ele>
        <time>2011-06-07T09:40:45Z</time>
      </trkpt>
      <trkpt lat="45.67596" lon="6.00342">
        <ele>1373.5</ele>
        <time>2011-06-07T09:40:49Z</time>
      </trkpt>
      <trkpt lat="45.67592" lon="6.00341">
        <ele>1373.5</ele>
        <time>2011-06-07T09:40:51Z</time>
      </trkpt>
      <trkpt lat="45.6759" lon="6.00341">
        <ele>1373.4</ele>
        <time>2011-06-07T09:40:52Z</time>
      </trkpt>
      <trkpt lat="45.67585" lon="6.00338">
        <ele>1373.5</ele>
        <time>2011-06-07T09:40:54Z</time>
      </trkpt>
      <trkpt lat="45.6758" lon="6.00335">
        <ele>1373.9</ele>
        <time>2011-06-07T09:40:56Z</time>
      </trkpt>
      <trkpt lat="45.67579" lon="6.00329">
        <ele>1374.3</ele>
        <time>2011-06-07T09:40:58Z</time>
      </trkpt>
      <trkpt lat="45.67578" lon="6.00322">
        <ele>1374.5</ele>
        <time>2011-06-07T09:41:00Z</time>
      </trkpt>
      <trkpt lat="45.67578" lon="6.00315">
        <ele>1374.7</ele>
        <time>2011-06-07T09:41:02Z</time>
      </trkpt>
      <trkpt lat="45.67577" lon="6.00309">
        <ele>1374.9</ele>
        <time>2011-06-07T09:41:03Z</time>
      </trkpt>
      <trkpt lat="45.67578" lon="6.00302">
        <ele>1374.7</ele>
        <time>2011-06-07T09:41:05Z</time>
      </trkpt>
      <trkpt lat="45.67578" lon="6.00297">
        <ele>1374.4</ele>
        <time>2011-06-07T09:41:07Z</time>
      </trkpt>
      <trkpt lat="45.67579" lon="6.00294">
        <ele>1374.1</ele>
        <time>2011-06-07T09:41:08Z</time>
      </trkpt>
      <trkpt lat="45.6758" lon="6.00288">
        <ele>1373.7</ele>
        <time>2011-06-07T09:41:09Z</time>
      </trkpt>
      <trkpt lat="45.6758" lon="6.00284">
        <ele>1373.4</ele>
        <time>2011-06-07T09:41:10Z</time>
      </trkpt>
      <trkpt lat="45.67581" lon="6.00279">
        <ele>1373</ele>
        <time>2011-06-07T09:41:12Z</time>
      </trkpt>
      <trkpt lat="45.67582" lon="6.00275">
        <ele>1372.9</ele>
        <time>2011-06-07T09:41:13Z</time>
      </trkpt>
      <trkpt lat="45.67583" lon="6.0027">
        <ele>1373</ele>
        <time>2011-06-07T09:41:15Z</time>
      </trkpt>
      <trkpt lat="45.67585" lon="6.00262">
        <ele>1373.2</ele>
        <time>2011-06-07T09:41:17Z</time>
      </trkpt>
      <trkpt lat="45.67585" lon="6.00258">
        <ele>1373.3</ele>
        <time>2011-06-07T09:41:18Z</time>
      </trkpt>
      <trkpt lat="45.67586" lon="6.00251">
        <ele>1373.5</ele>
        <time>2011-06-07T09:41:20Z</time>
      </trkpt>
      <trkpt lat="45.67585" lon="6.00243">
        <ele>1373.8</ele>
        <time>2011-06-07T09:41:22Z</time>
      </trkpt>
      <trkpt lat="45.67585" lon="6.00238">
        <ele>1374.2</ele>
        <time>2011-06-07T09:41:24Z</time>
      </trkpt>
      <trkpt lat="45.67587" lon="6.00231">
        <ele>1374.9</ele>
        <time>2011-06-07T09:41:26Z</time>
      </trkpt>
      <trkpt lat="45.67589" lon="6.00222">
        <ele>1376</ele>
        <time>2011-06-07T09:41:29Z</time>
      </trkpt>
      <trkpt lat="45.6759" lon="6.00217">
        <ele>1376.4</ele>
        <time>2011-06-07T09:41:30Z</time>
      </trkpt>
      <trkpt lat="45.67591" lon="6.00213">
        <ele>1376.6</ele>
        <time>2011-06-07T09:41:31Z</time>
      </trkpt>
      <trkpt lat="45.6759" lon="6.00202">
        <ele>1376.7</ele>
        <time>2011-06-07T09:41:34Z</time>
      </trkpt>
      <trkpt lat="45.67589" lon="6.00194">
        <ele>1376.8</ele>
        <time>2011-06-07T09:41:36Z</time>
      </trkpt>
      <trkpt lat="45.67589" lon="6.0019">
        <ele>1376.7</ele>
        <time>2011-06-07T09:41:38Z</time>
      </trkpt>
      <trkpt lat="45.6759" lon="6.00186">
        <ele>1376.7</ele>
        <time>2011-06-07T09:41:39Z</time>
      </trkpt>
      <trkpt lat="45.67591" lon="6.0018">
        <ele>1376.7</ele>
        <time>2011-06-07T09:41:40Z</time>
      </trkpt>
      <trkpt lat="45.67592" lon="6.00175">
        <ele>1376.7</ele>
        <time>2011-06-07T09:41:42Z</time>
      </trkpt>
      <trkpt lat="45.67594" lon="6.00169">
        <ele>1376.9</ele>
        <time>2011-06-07T09:41:44Z</time>
      </trkpt>
      <trkpt lat="45.67595" lon="6.00165">
        <ele>1377</ele>
        <time>2011-06-07T09:41:45Z</time>
      </trkpt>
      <trkpt lat="45.67597" lon="6.00158">
        <ele>1377</ele>
        <time>2011-06-07T09:41:47Z</time>
      </trkpt>
      <trkpt lat="45.67599" lon="6.00153">
        <ele>1377</ele>
        <time>2011-06-07T09:41:49Z</time>
      </trkpt>
      <trkpt lat="45.676" lon="6.0015">
        <ele>1377</ele>
        <time>2011-06-07T09:41:50Z</time>
      </trkpt>
      <trkpt lat="45.67602" lon="6.00145">
        <ele>1377</ele>
        <time>2011-06-07T09:41:51Z</time>
      </trkpt>
      <trkpt lat="45.67604" lon="6.00138">
        <ele>1377</ele>
        <time>2011-06-07T09:41:54Z</time>
      </trkpt>
      <trkpt lat="45.67605" lon="6.00134">
        <ele>1377.1</ele>
        <time>2011-06-07T09:41:55Z</time>
      </trkpt>
      <trkpt lat="45.67607" lon="6.00128">
        <ele>1377.4</ele>
        <time>2011-06-07T09:41:57Z</time>
      </trkpt>
      <trkpt lat="45.67607" lon="6.00125">
        <ele>1377.4</ele>
        <time>2011-06-07T09:41:57Z</time>
      </trkpt>
      <trkpt lat="45.67609" lon="6.00121">
        <ele>1377.6</ele>
        <time>2011-06-07T09:41:59Z</time>
      </trkpt>
      <trkpt lat="45.67609" lon="6.00114">
        <ele>1377.7</ele>
        <time>2011-06-07T09:42:01Z</time>
      </trkpt>
      <trkpt lat="45.6761" lon="6.00109">
        <ele>1377.9</ele>
        <time>2011-06-07T09:42:02Z</time>
      </trkpt>
      <trkpt lat="45.67611" lon="6.00105">
        <ele>1378.4</ele>
        <time>2011-06-07T09:42:03Z</time>
      </trkpt>
      <trkpt lat="45.67611" lon="6.00101">
        <ele>1378.8</ele>
        <time>2011-06-07T09:42:04Z</time>
      </trkpt>
      <trkpt lat="45.67612" lon="6.00093">
        <ele>1379.5</ele>
        <time>2011-06-07T09:42:07Z</time>
      </trkpt>
      <trkpt lat="45.67614" lon="6.00088">
        <ele>1380.1</ele>
        <time>2011-06-07T09:42:08Z</time>
      </trkpt>
      <trkpt lat="45.67616" lon="6.0008">
        <ele>1380.7</ele>
        <time>2011-06-07T09:42:11Z</time>
      </trkpt>
      <trkpt lat="45.67617" lon="6.00075">
        <ele>1380.8</ele>
        <time>2011-06-07T09:42:12Z</time>
      </trkpt>
      <trkpt lat="45.67618" lon="6.00071">
        <ele>1381</ele>
        <time>2011-06-07T09:42:13Z</time>
      </trkpt>
      <trkpt lat="45.67619" lon="6.00068">
        <ele>1381.2</ele>
        <time>2011-06-07T09:42:14Z</time>
      </trkpt>
      <trkpt lat="45.6762" lon="6.00062">
        <ele>1381.3</ele>
        <time>2011-06-07T09:42:16Z</time>
      </trkpt>
      <trkpt lat="45.6762" lon="6.00055">
        <ele>1381.3</ele>
        <time>2011-06-07T09:42:18Z</time>
      </trkpt>
      <trkpt lat="45.6762" lon="6.00053">
        <ele>1381.2</ele>
        <time>2011-06-07T09:42:18Z</time>
      </trkpt>
      <trkpt lat="45.67618" lon="6.00045">
        <ele>1380.4</ele>
        <time>2011-06-07T09:42:21Z</time>
      </trkpt>
      <trkpt lat="45.67618" lon="6.0004">
        <ele>1380.1</ele>
        <time>2011-06-07T09:42:22Z</time>
      </trkpt>
      <trkpt lat="45.67618" lon="6.00036">
        <ele>1380</ele>
        <time>2011-06-07T09:42:23Z</time>
      </trkpt>
      <trkpt lat="45.67619" lon="6.00032">
        <ele>1380</ele>
        <time>2011-06-07T09:42:25Z</time>
      </trkpt>
      <trkpt lat="45.67621" lon="6.00029">
        <ele>1380.3</ele>
        <time>2011-06-07T09:42:26Z</time>
      </trkpt>
      <trkpt lat="45.67623" lon="6.00025">
        <ele>1380.5</ele>
        <time>2011-06-07T09:42:27Z</time>
      </trkpt>
      <trkpt lat="45.67625" lon="6.00023">
        <ele>1381</ele>
        <time>2011-06-07T09:42:28Z</time>
      </trkpt>
      <trkpt lat="45.67629" lon="6.00014">
        <ele>1381.6</ele>
        <time>2011-06-07T09:42:31Z</time>
      </trkpt>
      <trkpt lat="45.6763" lon="6.00011">
        <ele>1381.7</ele>
        <time>2011-06-07T09:42:32Z</time>
      </trkpt>
      <trkpt lat="45.6763" lon="6.00005">
        <ele>1381.5</ele>
        <time>2011-06-07T09:42:34Z</time>
      </trkpt>
      <trkpt lat="45.6763" lon="6.00002">
        <ele>1381.4</ele>
        <time>2011-06-07T09:42:35Z</time>
      </trkpt>
      <trkpt lat="45.67627" lon="5.99995">
        <ele>1380.8</ele>
        <time>2011-06-07T09:42:37Z</time>
      </trkpt>
      <trkpt lat="45.67624" lon="5.99991">
        <ele>1380.3</ele>
        <time>2011-06-07T09:42:38Z</time>
      </trkpt>
      <trkpt lat="45.67622" lon="5.99985">
        <ele>1379.8</ele>
        <time>2011-06-07T09:42:40Z</time>
      </trkpt>
      <trkpt lat="45.67623" lon="5.99981">
        <ele>1379.6</ele>
        <time>2011-06-07T09:42:41Z</time>
      </trkpt>
      <trkpt lat="45.67625" lon="5.99975">
        <ele>1379.2</ele>
        <time>2011-06-07T09:42:43Z</time>
      </trkpt>
      <trkpt lat="45.67624" lon="5.99969">
        <ele>1378.9</ele>
        <time>2011-06-07T09:42:45Z</time>
      </trkpt>
      <trkpt lat="45.67624" lon="5.99963">
        <ele>1378.8</ele>
        <time>2011-06-07T09:42:47Z</time>
      </trkpt>
      <trkpt lat="45.67623" lon="5.99958">
        <ele>1378.6</ele>
        <time>2011-06-07T09:42:48Z</time>
      </trkpt>
      <trkpt lat="45.67618" lon="5.99952">
        <ele>1378.1</ele>
        <time>2011-06-07T09:42:51Z</time>
      </trkpt>
      <trkpt lat="45.67615" lon="5.99949">
        <ele>1377.7</ele>
        <time>2011-06-07T09:42:52Z</time>
      </trkpt>
      <trkpt lat="45.67616" lon="5.99948">
        <ele>1377.7</ele>
        <time>2011-06-07T09:42:53Z</time>
      </trkpt>
      <trkpt lat="45.67618" lon="5.99948">
        <ele>1377.9</ele>
        <time>2011-06-07T09:42:53Z</time>
      </trkpt>
      <trkpt lat="45.67604" lon="5.99943">
        <ele>1376.6</ele>
        <time>2011-06-07T09:42:59Z</time>
      </trkpt>
      <trkpt lat="45.67599" lon="5.9995">
        <ele>1376.8</ele>
        <time>2011-06-07T09:43:02Z</time>
      </trkpt>
      <trkpt lat="45.67597" lon="5.99958">
        <ele>1377</ele>
        <time>2011-06-07T09:43:04Z</time>
      </trkpt>
      <trkpt lat="45.67594" lon="5.99963">
        <ele>1376.9</ele>
        <time>2011-06-07T09:43:06Z</time>
      </trkpt>
      <trkpt lat="45.67592" lon="5.9996">
        <ele>1376.7</ele>
        <time>2011-06-07T09:43:07Z</time>
      </trkpt>
      <trkpt lat="45.67592" lon="5.99955">
        <ele>1376.6</ele>
        <time>2011-06-07T09:43:08Z</time>
      </trkpt>
      <trkpt lat="45.67593" lon="5.99945">
        <ele>1376.4</ele>
        <time>2011-06-07T09:43:12Z</time>
      </trkpt>
      <trkpt lat="45.67591" lon="5.99938">
        <ele>1375.5</ele>
        <time>2011-06-07T09:43:14Z</time>
      </trkpt>
      <trkpt lat="45.6759" lon="5.99933">
        <ele>1374.8</ele>
        <time>2011-06-07T09:43:15Z</time>
      </trkpt>
      <trkpt lat="45.67589" lon="5.99923">
        <ele>1373.5</ele>
        <time>2011-06-07T09:43:18Z</time>
      </trkpt>
      <trkpt lat="45.67589" lon="5.99916">
        <ele>1372.6</ele>
        <time>2011-06-07T09:43:20Z</time>
      </trkpt>
      <trkpt lat="45.67587" lon="5.9991">
        <ele>1372.1</ele>
        <time>2011-06-07T09:43:22Z</time>
      </trkpt>
      <trkpt lat="45.67586" lon="5.99902">
        <ele>1371.6</ele>
        <time>2011-06-07T09:43:24Z</time>
      </trkpt>
      <trkpt lat="45.67585" lon="5.99893">
        <ele>1371.2</ele>
        <time>2011-06-07T09:43:26Z</time>
      </trkpt>
      <trkpt lat="45.67584" lon="5.99889">
        <ele>1371.1</ele>
        <time>2011-06-07T09:43:27Z</time>
      </trkpt>
      <trkpt lat="45.67583" lon="5.99882">
        <ele>1371</ele>
        <time>2011-06-07T09:43:30Z</time>
      </trkpt>
      <trkpt lat="45.67583" lon="5.99874">
        <ele>1371</ele>
        <time>2011-06-07T09:43:32Z</time>
      </trkpt>
      <trkpt lat="45.67582" lon="5.99864">
        <ele>1371</ele>
        <time>2011-06-07T09:43:35Z</time>
      </trkpt>
      <trkpt lat="45.6758" lon="5.99857">
        <ele>1371.1</ele>
        <time>2011-06-07T09:43:37Z</time>
      </trkpt>
      <trkpt lat="45.67579" lon="5.9985">
        <ele>1371.2</ele>
        <time>2011-06-07T09:43:39Z</time>
      </trkpt>
      <trkpt lat="45.67577" lon="5.99842">
        <ele>1371.4</ele>
        <time>2011-06-07T09:43:41Z</time>
      </trkpt>
      <trkpt lat="45.67573" lon="5.99832">
        <ele>1371.8</ele>
        <time>2011-06-07T09:43:44Z</time>
      </trkpt>
      <trkpt lat="45.6757" lon="5.99824">
        <ele>1371.8</ele>
        <time>2011-06-07T09:43:47Z</time>
      </trkpt>
      <trkpt lat="45.67565" lon="5.99815">
        <ele>1371.5</ele>
        <time>2011-06-07T09:43:50Z</time>
      </trkpt>
      <trkpt lat="45.67562" lon="5.99809">
        <ele>1370.9</ele>
        <time>2011-06-07T09:43:52Z</time>
      </trkpt>
      <trkpt lat="45.67557" lon="5.99794">
        <ele>1370.1</ele>
        <time>2011-06-07T09:43:57Z</time>
      </trkpt>
      <trkpt lat="45.67555" lon="5.99785">
        <ele>1370</ele>
        <time>2011-06-07T09:44:00Z</time>
      </trkpt>
      <trkpt lat="45.67553" lon="5.99777">
        <ele>1369.7</ele>
        <time>2011-06-07T09:44:02Z</time>
      </trkpt>
      <trkpt lat="45.67551" lon="5.99771">
        <ele>1369.5</ele>
        <time>2011-06-07T09:44:04Z</time>
      </trkpt>
      <trkpt lat="45.67549" lon="5.99768">
        <ele>1369.3</ele>
        <time>2011-06-07T09:44:05Z</time>
      </trkpt>
      <trkpt lat="45.67546" lon="5.99759">
        <ele>1368.8</ele>
        <time>2011-06-07T09:44:08Z</time>
      </trkpt>
      <trkpt lat="45.67543" lon="5.99748">
        <ele>1368.1</ele>
        <time>2011-06-07T09:44:11Z</time>
      </trkpt>
      <trkpt lat="45.67538" lon="5.99739">
        <ele>1366.8</ele>
        <time>2011-06-07T09:44:14Z</time>
      </trkpt>
      <trkpt lat="45.67536" lon="5.99733">
        <ele>1366.4</ele>
        <time>2011-06-07T09:44:16Z</time>
      </trkpt>
      <trkpt lat="45.67534" lon="5.99727">
        <ele>1365.9</ele>
        <time>2011-06-07T09:44:18Z</time>
      </trkpt>
      <trkpt lat="45.67533" lon="5.99722">
        <ele>1365.7</ele>
        <time>2011-06-07T09:44:20Z</time>
      </trkpt>
      <trkpt lat="45.67532" lon="5.99714">
        <ele>1366.3</ele>
        <time>2011-06-07T09:44:22Z</time>
      </trkpt>
      <trkpt lat="45.6753" lon="5.99707">
        <ele>1366.8</ele>
        <time>2011-06-07T09:44:24Z</time>
      </trkpt>
      <trkpt lat="45.67531" lon="5.99704">
        <ele>1367.3</ele>
        <time>2011-06-07T09:44:25Z</time>
      </trkpt>
      <trkpt lat="45.67532" lon="5.99698">
        <ele>1367.8</ele>
        <time>2011-06-07T09:44:26Z</time>
      </trkpt>
      <trkpt lat="45.67534" lon="5.99693">
        <ele>1368.4</ele>
        <time>2011-06-07T09:44:28Z</time>
      </trkpt>
      <trkpt lat="45.67535" lon="5.99686">
        <ele>1368.9</ele>
        <time>2011-06-07T09:44:30Z</time>
      </trkpt>
      <trkpt lat="45.67537" lon="5.99679">
        <ele>1369.6</ele>
        <time>2011-06-07T09:44:32Z</time>
      </trkpt>
      <trkpt lat="45.67537" lon="5.99674">
        <ele>1370.1</ele>
        <time>2011-06-07T09:44:34Z</time>
      </trkpt>
      <trkpt lat="45.67538" lon="5.99669">
        <ele>1370.5</ele>
        <time>2011-06-07T09:44:35Z</time>
      </trkpt>
      <trkpt lat="45.67538" lon="5.99661">
        <ele>1372.2</ele>
        <time>2011-06-07T09:44:37Z</time>
      </trkpt>
      <trkpt lat="45.67537" lon="5.99654">
        <ele>1373.5</ele>
        <time>2011-06-07T09:44:39Z</time>
      </trkpt>
      <trkpt lat="45.67535" lon="5.99643">
        <ele>1375.9</ele>
        <time>2011-06-07T09:44:43Z</time>
      </trkpt>
      <trkpt lat="45.67534" lon="5.99637">
        <ele>1376.9</ele>
        <time>2011-06-07T09:44:44Z</time>
      </trkpt>
      <trkpt lat="45.67534" lon="5.99634">
        <ele>1377.1</ele>
        <time>2011-06-07T09:44:45Z</time>
      </trkpt>
      <trkpt lat="45.67534" lon="5.99627">
        <ele>1377.7</ele>
        <time>2011-06-07T09:44:47Z</time>
      </trkpt>
      <trkpt lat="45.67533" lon="5.99621">
        <ele>1378.1</ele>
        <time>2011-06-07T09:44:49Z</time>
      </trkpt>
      <trkpt lat="45.67532" lon="5.99613">
        <ele>1378.6</ele>
        <time>2011-06-07T09:44:51Z</time>
      </trkpt>
      <trkpt lat="45.67527" lon="5.99604">
        <ele>1378.1</ele>
        <time>2011-06-07T09:44:54Z</time>
      </trkpt>
      <trkpt lat="45.67525" lon="5.99599">
        <ele>1378.1</ele>
        <time>2011-06-07T09:44:56Z</time>
      </trkpt>
      <trkpt lat="45.67524" lon="5.99599">
        <ele>1378.1</ele>
        <time>2011-06-07T09:44:56Z</time>
      </trkpt>
      <trkpt lat="45.67519" lon="5.99591">
        <ele>1377.8</ele>
        <time>2011-06-07T09:44:59Z</time>
      </trkpt>
      <trkpt lat="45.67514" lon="5.99587">
        <ele>1377.3</ele>
        <time>2011-06-07T09:45:02Z</time>
      </trkpt>
      <trkpt lat="45.67508" lon="5.99583">
        <ele>1376.8</ele>
        <time>2011-06-07T09:45:04Z</time>
      </trkpt>
      <trkpt lat="45.67506" lon="5.99581">
        <ele>1376.9</ele>
        <time>2011-06-07T09:45:05Z</time>
      </trkpt>
      <trkpt lat="45.67501" lon="5.9957">
        <ele>1377.2</ele>
        <time>2011-06-07T09:45:09Z</time>
      </trkpt>
      <trkpt lat="45.67501" lon="5.99565">
        <ele>1377.4</ele>
        <time>2011-06-07T09:45:10Z</time>
      </trkpt>
      <trkpt lat="45.675" lon="5.99561">
        <ele>1377.6</ele>
        <time>2011-06-07T09:45:11Z</time>
      </trkpt>
      <trkpt lat="45.67497" lon="5.99555">
        <ele>1377.6</ele>
        <time>2011-06-07T09:45:13Z</time>
      </trkpt>
      <trkpt lat="45.67495" lon="5.99549">
        <ele>1377.5</ele>
        <time>2011-06-07T09:45:15Z</time>
      </trkpt>
      <trkpt lat="45.67492" lon="5.99541">
        <ele>1377.3</ele>
        <time>2011-06-07T09:45:18Z</time>
      </trkpt>
      <trkpt lat="45.6749" lon="5.99538">
        <ele>1377</ele>
        <time>2011-06-07T09:45:19Z</time>
      </trkpt>
      <trkpt lat="45.67488" lon="5.99531">
        <ele>1376.8</ele>
        <time>2011-06-07T09:45:21Z</time>
      </trkpt>
      <trkpt lat="45.67486" lon="5.99526">
        <ele>1376.5</ele>
        <time>2011-06-07T09:45:23Z</time>
      </trkpt>
      <trkpt lat="45.67483" lon="5.9952">
        <ele>1376</ele>
        <time>2011-06-07T09:45:24Z</time>
      </trkpt>
      <trkpt lat="45.6748" lon="5.99517">
        <ele>1375.5</ele>
        <time>2011-06-07T09:45:26Z</time>
      </trkpt>
      <trkpt lat="45.67475" lon="5.99514">
        <ele>1374.5</ele>
        <time>2011-06-07T09:45:28Z</time>
      </trkpt>
      <trkpt lat="45.67472" lon="5.99511">
        <ele>1374</ele>
        <time>2011-06-07T09:45:30Z</time>
      </trkpt>
      <trkpt lat="45.6747" lon="5.99506">
        <ele>1373.9</ele>
        <time>2011-06-07T09:45:32Z</time>
      </trkpt>
      <trkpt lat="45.67469" lon="5.99501">
        <ele>1373.9</ele>
        <time>2011-06-07T09:45:33Z</time>
      </trkpt>
      <trkpt lat="45.67469" lon="5.99495">
        <ele>1373.4</ele>
        <time>2011-06-07T09:45:34Z</time>
      </trkpt>
      <trkpt lat="45.67466" lon="5.9949">
        <ele>1372.9</ele>
        <time>2011-06-07T09:45:36Z</time>
      </trkpt>
      <trkpt lat="45.67463" lon="5.99487">
        <ele>1372.7</ele>
        <time>2011-06-07T09:45:38Z</time>
      </trkpt>
      <trkpt lat="45.6747" lon="5.99493">
        <ele>1373.2</ele>
        <time>2011-06-07T09:45:41Z</time>
      </trkpt>
      <trkpt lat="45.67468" lon="5.99492">
        <ele>1373.1</ele>
        <time>2011-06-07T09:45:42Z</time>
      </trkpt>
      <trkpt lat="45.67467" lon="5.99487">
        <ele>1372.6</ele>
        <time>2011-06-07T09:45:44Z</time>
      </trkpt>
      <trkpt lat="45.67466" lon="5.99481">
        <ele>1372.2</ele>
        <time>2011-06-07T09:45:45Z</time>
      </trkpt>
      <trkpt lat="45.67465" lon="5.99476">
        <ele>1371.9</ele>
        <time>2011-06-07T09:45:47Z</time>
      </trkpt>
      <trkpt lat="45.67461" lon="5.99467">
        <ele>1371.3</ele>
        <time>2011-06-07T09:45:50Z</time>
      </trkpt>
      <trkpt lat="45.67462" lon="5.99461">
        <ele>1370.8</ele>
        <time>2011-06-07T09:45:51Z</time>
      </trkpt>
      <trkpt lat="45.67464" lon="5.99454">
        <ele>1370.1</ele>
        <time>2011-06-07T09:45:53Z</time>
      </trkpt>
      <trkpt lat="45.67464" lon="5.99449">
        <ele>1369.7</ele>
        <time>2011-06-07T09:45:55Z</time>
      </trkpt>
      <trkpt lat="45.67465" lon="5.99445">
        <ele>1369.3</ele>
        <time>2011-06-07T09:45:56Z</time>
      </trkpt>
      <trkpt lat="45.67465" lon="5.99438">
        <ele>1367.9</ele>
        <time>2011-06-07T09:45:58Z</time>
      </trkpt>
      <trkpt lat="45.67467" lon="5.99434">
        <ele>1367.1</ele>
        <time>2011-06-07T09:45:59Z</time>
      </trkpt>
      <trkpt lat="45.67469" lon="5.99429">
        <ele>1366.2</ele>
        <time>2011-06-07T09:46:01Z</time>
      </trkpt>
      <trkpt lat="45.67472" lon="5.99427">
        <ele>1365.9</ele>
        <time>2011-06-07T09:46:02Z</time>
      </trkpt>
      <trkpt lat="45.67464" lon="5.99412">
        <ele>1362.5</ele>
        <time>2011-06-07T09:46:07Z</time>
      </trkpt>
      <trkpt lat="45.67465" lon="5.99404">
        <ele>1360.9</ele>
        <time>2011-06-07T09:46:10Z</time>
      </trkpt>
      <trkpt lat="45.67464" lon="5.99395">
        <ele>1359.1</ele>
        <time>2011-06-07T09:46:12Z</time>
      </trkpt>
      <trkpt lat="45.67466" lon="5.99389">
        <ele>1358</ele>
        <time>2011-06-07T09:46:14Z</time>
      </trkpt>
      <trkpt lat="45.67466" lon="5.99388">
        <ele>1358</ele>
        <time>2011-06-07T09:46:14Z</time>
      </trkpt>
      <trkpt lat="45.67464" lon="5.99376">
        <ele>1356.5</ele>
        <time>2011-06-07T09:46:18Z</time>
      </trkpt>
      <trkpt lat="45.67465" lon="5.99372">
        <ele>1356.1</ele>
        <time>2011-06-07T09:46:19Z</time>
      </trkpt>
      <trkpt lat="45.67465" lon="5.99366">
        <ele>1355.5</ele>
        <time>2011-06-07T09:46:20Z</time>
      </trkpt>
      <trkpt lat="45.67464" lon="5.99358">
        <ele>1354.7</ele>
        <time>2011-06-07T09:46:23Z</time>
      </trkpt>
      <trkpt lat="45.67467" lon="5.9935">
        <ele>1354.6</ele>
        <time>2011-06-07T09:46:25Z</time>
      </trkpt>
      <trkpt lat="45.67469" lon="5.99344">
        <ele>1354.4</ele>
        <time>2011-06-07T09:46:27Z</time>
      </trkpt>
      <trkpt lat="45.67472" lon="5.99337">
        <ele>1354.3</ele>
        <time>2011-06-07T09:46:29Z</time>
      </trkpt>
      <trkpt lat="45.67474" lon="5.99333">
        <ele>1354.2</ele>
        <time>2011-06-07T09:46:31Z</time>
      </trkpt>
      <trkpt lat="45.67473" lon="5.99331">
        <ele>1354.1</ele>
        <time>2011-06-07T09:46:31Z</time>
      </trkpt>
      <trkpt lat="45.67475" lon="5.99323">
        <ele>1354</ele>
        <time>2011-06-07T09:46:34Z</time>
      </trkpt>
      <trkpt lat="45.67475" lon="5.99317">
        <ele>1353.8</ele>
        <time>2011-06-07T09:46:35Z</time>
      </trkpt>
      <trkpt lat="45.67476" lon="5.99311">
        <ele>1353.8</ele>
        <time>2011-06-07T09:46:37Z</time>
      </trkpt>
      <trkpt lat="45.67477" lon="5.99303">
        <ele>1353.7</ele>
        <time>2011-06-07T09:46:39Z</time>
      </trkpt>
      <trkpt lat="45.67478" lon="5.99299">
        <ele>1353.8</ele>
        <time>2011-06-07T09:46:40Z</time>
      </trkpt>
      <trkpt lat="45.67479" lon="5.99298">
        <ele>1353.9</ele>
        <time>2011-06-07T09:46:41Z</time>
      </trkpt>
      <trkpt lat="45.6748" lon="5.99295">
        <ele>1354</ele>
        <time>2011-06-07T09:46:42Z</time>
      </trkpt>
      <trkpt lat="45.67482" lon="5.99287">
        <ele>1354.2</ele>
        <time>2011-06-07T09:46:44Z</time>
      </trkpt>
      <trkpt lat="45.67482" lon="5.99286">
        <ele>1354.2</ele>
        <time>2011-06-07T09:46:45Z</time>
      </trkpt>
      <trkpt lat="45.67483" lon="5.99279">
        <ele>1354.2</ele>
        <time>2011-06-07T09:46:46Z</time>
      </trkpt>
      <trkpt lat="45.67483" lon="5.99273">
        <ele>1354.1</ele>
        <time>2011-06-07T09:46:48Z</time>
      </trkpt>
      <trkpt lat="45.67483" lon="5.9927">
        <ele>1354</ele>
        <time>2011-06-07T09:46:49Z</time>
      </trkpt>
      <trkpt lat="45.67482" lon="5.99263">
        <ele>1353.9</ele>
        <time>2011-06-07T09:46:51Z</time>
      </trkpt>
      <trkpt lat="45.67483" lon="5.9926">
        <ele>1353.9</ele>
        <time>2011-06-07T09:46:52Z</time>
      </trkpt>
      <trkpt lat="45.67483" lon="5.99256">
        <ele>1353.8</ele>
        <time>2011-06-07T09:46:53Z</time>
      </trkpt>
      <trkpt lat="45.67481" lon="5.99249">
        <ele>1353.7</ele>
        <time>2011-06-07T09:46:55Z</time>
      </trkpt>
      <trkpt lat="45.67482" lon="5.99245">
        <ele>1353.8</ele>
        <time>2011-06-07T09:46:56Z</time>
      </trkpt>
      <trkpt lat="45.67483" lon="5.99242">
        <ele>1354</ele>
        <time>2011-06-07T09:46:57Z</time>
      </trkpt>
      <trkpt lat="45.67483" lon="5.99235">
        <ele>1354.1</ele>
        <time>2011-06-07T09:46:59Z</time>
      </trkpt>
      <trkpt lat="45.67483" lon="5.99229">
        <ele>1354.2</ele>
        <time>2011-06-07T09:47:01Z</time>
      </trkpt>
      <trkpt lat="45.67483" lon="5.99226">
        <ele>1354.3</ele>
        <time>2011-06-07T09:47:02Z</time>
      </trkpt>
      <trkpt lat="45.67482" lon="5.9922">
        <ele>1354.5</ele>
        <time>2011-06-07T09:47:03Z</time>
      </trkpt>
      <trkpt lat="45.67482" lon="5.99217">
        <ele>1354.7</ele>
        <time>2011-06-07T09:47:04Z</time>
      </trkpt>
      <trkpt lat="45.67482" lon="5.99212">
        <ele>1355</ele>
        <time>2011-06-07T09:47:06Z</time>
      </trkpt>
      <trkpt lat="45.67481" lon="5.99207">
        <ele>1355.2</ele>
        <time>2011-06-07T09:47:07Z</time>
      </trkpt>
      <trkpt lat="45.67481" lon="5.99206">
        <ele>1355.3</ele>
        <time>2011-06-07T09:47:07Z</time>
      </trkpt>
      <trkpt lat="45.67479" lon="5.99199">
        <ele>1355.5</ele>
        <time>2011-06-07T09:47:09Z</time>
      </trkpt>
      <trkpt lat="45.67479" lon="5.99199">
        <ele>1355.5</ele>
        <time>2011-06-07T09:47:10Z</time>
      </trkpt>
      <trkpt lat="45.67479" lon="5.99191">
        <ele>1356</ele>
        <time>2011-06-07T09:47:12Z</time>
      </trkpt>
      <trkpt lat="45.67479" lon="5.99184">
        <ele>1356.6</ele>
        <time>2011-06-07T09:47:14Z</time>
      </trkpt>
      <trkpt lat="45.67481" lon="5.9918">
        <ele>1357.1</ele>
        <time>2011-06-07T09:47:15Z</time>
      </trkpt>
      <trkpt lat="45.67481" lon="5.99176">
        <ele>1357.5</ele>
        <time>2011-06-07T09:47:16Z</time>
      </trkpt>
      <trkpt lat="45.6748" lon="5.99169">
        <ele>1357.9</ele>
        <time>2011-06-07T09:47:18Z</time>
      </trkpt>
      <trkpt lat="45.67478" lon="5.99163">
        <ele>1358.3</ele>
        <time>2011-06-07T09:47:20Z</time>
      </trkpt>
      <trkpt lat="45.67476" lon="5.99159">
        <ele>1358.3</ele>
        <time>2011-06-07T09:47:22Z</time>
      </trkpt>
      <trkpt lat="45.67475" lon="5.99158">
        <ele>1358.3</ele>
        <time>2011-06-07T09:47:22Z</time>
      </trkpt>
      <trkpt lat="45.67472" lon="5.99152">
        <ele>1358.5</ele>
        <time>2011-06-07T09:47:24Z</time>
      </trkpt>
      <trkpt lat="45.67469" lon="5.99149">
        <ele>1358.7</ele>
        <time>2011-06-07T09:47:25Z</time>
      </trkpt>
      <trkpt lat="45.67469" lon="5.99145">
        <ele>1359</ele>
        <time>2011-06-07T09:47:27Z</time>
      </trkpt>
      <trkpt lat="45.67468" lon="5.99139">
        <ele>1359.6</ele>
        <time>2011-06-07T09:47:28Z</time>
      </trkpt>
      <trkpt lat="45.67467" lon="5.99135">
        <ele>1360.1</ele>
        <time>2011-06-07T09:47:29Z</time>
      </trkpt>
      <trkpt lat="45.67467" lon="5.9913">
        <ele>1360.6</ele>
        <time>2011-06-07T09:47:31Z</time>
      </trkpt>
      <trkpt lat="45.67467" lon="5.99126">
        <ele>1361.1</ele>
        <time>2011-06-07T09:47:32Z</time>
      </trkpt>
      <trkpt lat="45.67464" lon="5.99124">
        <ele>1361.2</ele>
        <time>2011-06-07T09:47:33Z</time>
      </trkpt>
      <trkpt lat="45.67462" lon="5.99122">
        <ele>1361.4</ele>
        <time>2011-06-07T09:47:34Z</time>
      </trkpt>
      <trkpt lat="45.67458" lon="5.9912">
        <ele>1361.4</ele>
        <time>2011-06-07T09:47:36Z</time>
      </trkpt>
      <trkpt lat="45.67457" lon="5.99117">
        <ele>1361.7</ele>
        <time>2011-06-07T09:47:37Z</time>
      </trkpt>
      <trkpt lat="45.67452" lon="5.99115">
        <ele>1361.8</ele>
        <time>2011-06-07T09:47:39Z</time>
      </trkpt>
      <trkpt lat="45.67449" lon="5.99111">
        <ele>1362.1</ele>
        <time>2011-06-07T09:47:40Z</time>
      </trkpt>
      <trkpt lat="45.67444" lon="5.99108">
        <ele>1362.8</ele>
        <time>2011-06-07T09:47:42Z</time>
      </trkpt>
      <trkpt lat="45.67441" lon="5.99105">
        <ele>1363.5</ele>
        <time>2011-06-07T09:47:44Z</time>
      </trkpt>
      <trkpt lat="45.67439" lon="5.99104">
        <ele>1364</ele>
        <time>2011-06-07T09:47:45Z</time>
      </trkpt>
      <trkpt lat="45.67436" lon="5.99101">
        <ele>1364.9</ele>
        <time>2011-06-07T09:47:46Z</time>
      </trkpt>
      <trkpt lat="45.67431" lon="5.99099">
        <ele>1365.6</ele>
        <time>2011-06-07T09:47:48Z</time>
      </trkpt>
      <trkpt lat="45.67429" lon="5.99098">
        <ele>1366.2</ele>
        <time>2011-06-07T09:47:49Z</time>
      </trkpt>
      <trkpt lat="45.67426" lon="5.99098">
        <ele>1366.6</ele>
        <time>2011-06-07T09:47:51Z</time>
      </trkpt>
      <trkpt lat="45.67419" lon="5.99097">
        <ele>1367.3</ele>
        <time>2011-06-07T09:47:53Z</time>
      </trkpt>
      <trkpt lat="45.67414" lon="5.99097">
        <ele>1367.9</ele>
        <time>2011-06-07T09:47:55Z</time>
      </trkpt>
      <trkpt lat="45.67409" lon="5.99097">
        <ele>1368.7</ele>
        <time>2011-06-07T09:47:57Z</time>
      </trkpt>
      <trkpt lat="45.67404" lon="5.99096">
        <ele>1369.6</ele>
        <time>2011-06-07T09:47:59Z</time>
      </trkpt>
      <trkpt lat="45.67401" lon="5.99097">
        <ele>1369.9</ele>
        <time>2011-06-07T09:48:01Z</time>
      </trkpt>
      <trkpt lat="45.67396" lon="5.99097">
        <ele>1370.5</ele>
        <time>2011-06-07T09:48:03Z</time>
      </trkpt>
      <trkpt lat="45.67394" lon="5.99097">
        <ele>1370.8</ele>
        <time>2011-06-07T09:48:03Z</time>
      </trkpt>
      <trkpt lat="45.67385" lon="5.99101">
        <ele>1372.1</ele>
        <time>2011-06-07T09:48:07Z</time>
      </trkpt>
      <trkpt lat="45.67381" lon="5.99102">
        <ele>1373.5</ele>
        <time>2011-06-07T09:48:09Z</time>
      </trkpt>
      <trkpt lat="45.67381" lon="5.99102">
        <ele>1373.7</ele>
        <time>2011-06-07T09:48:09Z</time>
      </trkpt>
      <trkpt lat="45.67373" lon="5.9912">
        <ele>1372.1</ele>
        <time>2011-06-07T09:48:15Z</time>
      </trkpt>
      <trkpt lat="45.67371" lon="5.99128">
        <ele>1371</ele>
        <time>2011-06-07T09:48:17Z</time>
      </trkpt>
      <trkpt lat="45.67362" lon="5.99132">
        <ele>1372.6</ele>
        <time>2011-06-07T09:48:21Z</time>
      </trkpt>
      <trkpt lat="45.67354" lon="5.99133">
        <ele>1375.1</ele>
        <time>2011-06-07T09:48:24Z</time>
      </trkpt>
      <trkpt lat="45.67346" lon="5.99134">
        <ele>1377.6</ele>
        <time>2011-06-07T09:48:27Z</time>
      </trkpt>
      <trkpt lat="45.67334" lon="5.99131">
        <ele>1382.1</ele>
        <time>2011-06-07T09:48:32Z</time>
      </trkpt>
      <trkpt lat="45.67317" lon="5.99125">
        <ele>1386.8</ele>
        <time>2011-06-07T09:48:39Z</time>
      </trkpt>
      <trkpt lat="45.67309" lon="5.99122">
        <ele>1388.5</ele>
        <time>2011-06-07T09:48:43Z</time>
      </trkpt>
      <trkpt lat="45.67301" lon="5.99117">
        <ele>1389.6</ele>
        <time>2011-06-07T09:48:46Z</time>
      </trkpt>
      <trkpt lat="45.67294" lon="5.9911">
        <ele>1390.4</ele>
        <time>2011-06-07T09:48:49Z</time>
      </trkpt>
      <trkpt lat="45.67289" lon="5.99107">
        <ele>1391.6</ele>
        <time>2011-06-07T09:48:51Z</time>
      </trkpt>
      <trkpt lat="45.67284" lon="5.99102">
        <ele>1392.9</ele>
        <time>2011-06-07T09:48:54Z</time>
      </trkpt>
      <trkpt lat="45.67273" lon="5.99097">
        <ele>1394.9</ele>
        <time>2011-06-07T09:48:59Z</time>
      </trkpt>
      <trkpt lat="45.67269" lon="5.99096">
        <ele>1395.4</ele>
        <time>2011-06-07T09:49:00Z</time>
      </trkpt>
      <trkpt lat="45.67259" lon="5.99093">
        <ele>1396.2</ele>
        <time>2011-06-07T09:49:04Z</time>
      </trkpt>
      <trkpt lat="45.67253" lon="5.9909">
        <ele>1396.4</ele>
        <time>2011-06-07T09:49:07Z</time>
      </trkpt>
      <trkpt lat="45.67246" lon="5.99087">
        <ele>1396</ele>
        <time>2011-06-07T09:49:10Z</time>
      </trkpt>
      <trkpt lat="45.67239" lon="5.99084">
        <ele>1395.3</ele>
        <time>2011-06-07T09:49:13Z</time>
      </trkpt>
      <trkpt lat="45.67233" lon="5.99083">
        <ele>1394.8</ele>
        <time>2011-06-07T09:49:15Z</time>
      </trkpt>
      <trkpt lat="45.67227" lon="5.99082">
        <ele>1394.5</ele>
        <time>2011-06-07T09:49:17Z</time>
      </trkpt>
      <trkpt lat="45.67223" lon="5.99082">
        <ele>1394.2</ele>
        <time>2011-06-07T09:49:19Z</time>
      </trkpt>
      <trkpt lat="45.67215" lon="5.99082">
        <ele>1394.2</ele>
        <time>2011-06-07T09:49:22Z</time>
      </trkpt>
      <trkpt lat="45.6721" lon="5.9908">
        <ele>1394.4</ele>
        <time>2011-06-07T09:49:24Z</time>
      </trkpt>
      <trkpt lat="45.67206" lon="5.99078">
        <ele>1394.6</ele>
        <time>2011-06-07T09:49:26Z</time>
      </trkpt>
      <trkpt lat="45.672" lon="5.99076">
        <ele>1394.8</ele>
        <time>2011-06-07T09:49:28Z</time>
      </trkpt>
      <trkpt lat="45.67191" lon="5.99075">
        <ele>1394.9</ele>
        <time>2011-06-07T09:49:32Z</time>
      </trkpt>
      <trkpt lat="45.67186" lon="5.99073">
        <ele>1394.9</ele>
        <time>2011-06-07T09:49:34Z</time>
      </trkpt>
      <trkpt lat="45.67178" lon="5.99072">
        <ele>1394.9</ele>
        <time>2011-06-07T09:49:37Z</time>
      </trkpt>
      <trkpt lat="45.67174" lon="5.99073">
        <ele>1394.7</ele>
        <time>2011-06-07T09:49:39Z</time>
      </trkpt>
      <trkpt lat="45.67171" lon="5.99072">
        <ele>1394.7</ele>
        <time>2011-06-07T09:49:40Z</time>
      </trkpt>
      <trkpt lat="45.67164" lon="5.99072">
        <ele>1394.7</ele>
        <time>2011-06-07T09:49:43Z</time>
      </trkpt>
      <trkpt lat="45.67163" lon="5.99072">
        <ele>1394.6</ele>
        <time>2011-06-07T09:49:43Z</time>
      </trkpt>
      <trkpt lat="45.67156" lon="5.99076">
        <ele>1394.2</ele>
        <time>2011-06-07T09:49:46Z</time>
      </trkpt>
      <trkpt lat="45.67152" lon="5.99077">
        <ele>1394.2</ele>
        <time>2011-06-07T09:49:48Z</time>
      </trkpt>
      <trkpt lat="45.67146" lon="5.99079">
        <ele>1394.1</ele>
        <time>2011-06-07T09:49:51Z</time>
      </trkpt>
      <trkpt lat="45.67141" lon="5.99078">
        <ele>1394.3</ele>
        <time>2011-06-07T09:49:53Z</time>
      </trkpt>
      <trkpt lat="45.67136" lon="5.99077">
        <ele>1394.2</ele>
        <time>2011-06-07T09:49:55Z</time>
      </trkpt>
      <trkpt lat="45.67132" lon="5.99078">
        <ele>1394</ele>
        <time>2011-06-07T09:49:56Z</time>
      </trkpt>
      <trkpt lat="45.67128" lon="5.99076">
        <ele>1393.8</ele>
        <time>2011-06-07T09:49:58Z</time>
      </trkpt>
      <trkpt lat="45.67121" lon="5.99075">
        <ele>1393.5</ele>
        <time>2011-06-07T09:50:01Z</time>
      </trkpt>
      <trkpt lat="45.67117" lon="5.99075">
        <ele>1393.3</ele>
        <time>2011-06-07T09:50:02Z</time>
      </trkpt>
      <trkpt lat="45.67114" lon="5.99075">
        <ele>1393.1</ele>
        <time>2011-06-07T09:50:04Z</time>
      </trkpt>
      <trkpt lat="45.6711" lon="5.99074">
        <ele>1392.9</ele>
        <time>2011-06-07T09:50:05Z</time>
      </trkpt>
      <trkpt lat="45.67106" lon="5.99073">
        <ele>1392.7</ele>
        <time>2011-06-07T09:50:07Z</time>
      </trkpt>
      <trkpt lat="45.67103" lon="5.99073">
        <ele>1392.6</ele>
        <time>2011-06-07T09:50:08Z</time>
      </trkpt>
      <trkpt lat="45.67099" lon="5.99075">
        <ele>1392.2</ele>
        <time>2011-06-07T09:50:10Z</time>
      </trkpt>
      <trkpt lat="45.67094" lon="5.99077">
        <ele>1391.8</ele>
        <time>2011-06-07T09:50:12Z</time>
      </trkpt>
      <trkpt lat="45.67087" lon="5.9908">
        <ele>1391.3</ele>
        <time>2011-06-07T09:50:15Z</time>
      </trkpt>
      <trkpt lat="45.67083" lon="5.99079">
        <ele>1391.1</ele>
        <time>2011-06-07T09:50:16Z</time>
      </trkpt>
      <trkpt lat="45.67079" lon="5.99078">
        <ele>1390.9</ele>
        <time>2011-06-07T09:50:18Z</time>
      </trkpt>
      <trkpt lat="45.67045" lon="5.99068">
        <ele>1388</ele>
        <time>2011-06-07T09:50:32Z</time>
      </trkpt>
      <trkpt lat="45.67038" lon="5.99063">
        <ele>1387.5</ele>
        <time>2011-06-07T09:50:35Z</time>
      </trkpt>
      <trkpt lat="45.67026" lon="5.99054">
        <ele>1387</ele>
        <time>2011-06-07T09:50:40Z</time>
      </trkpt>
      <trkpt lat="45.67017" lon="5.9906">
        <ele>1385.7</ele>
        <time>2011-06-07T09:50:44Z</time>
      </trkpt>
      <trkpt lat="45.67011" lon="5.99068">
        <ele>1385</ele>
        <time>2011-06-07T09:50:48Z</time>
      </trkpt>
      <trkpt lat="45.67005" lon="5.99069">
        <ele>1384.5</ele>
        <time>2011-06-07T09:50:50Z</time>
      </trkpt>
      <trkpt lat="45.66997" lon="5.99063">
        <ele>1384</ele>
        <time>2011-06-07T09:50:54Z</time>
      </trkpt>
      <trkpt lat="45.66982" lon="5.99052">
        <ele>1384.2</ele>
        <time>2011-06-07T09:51:00Z</time>
      </trkpt>
      <trkpt lat="45.66967" lon="5.99041">
        <ele>1384.1</ele>
        <time>2011-06-07T09:51:07Z</time>
      </trkpt>
      <trkpt lat="45.66963" lon="5.99038">
        <ele>1383.9</ele>
        <time>2011-06-07T09:51:09Z</time>
      </trkpt>
      <trkpt lat="45.66953" lon="5.99031">
        <ele>1382.9</ele>
        <time>2011-06-07T09:51:13Z</time>
      </trkpt>
      <trkpt lat="45.66942" lon="5.99025">
        <ele>1382.2</ele>
        <time>2011-06-07T09:51:18Z</time>
      </trkpt>
      <trkpt lat="45.66934" lon="5.9902">
        <ele>1382.4</ele>
        <time>2011-06-07T09:51:21Z</time>
      </trkpt>
      <trkpt lat="45.66927" lon="5.99014">
        <ele>1382.5</ele>
        <time>2011-06-07T09:51:25Z</time>
      </trkpt>
      <trkpt lat="45.66914" lon="5.99009">
        <ele>1382.2</ele>
        <time>2011-06-07T09:51:30Z</time>
      </trkpt>
      <trkpt lat="45.66903" lon="5.99006">
        <ele>1381.3</ele>
        <time>2011-06-07T09:51:35Z</time>
      </trkpt>
      <trkpt lat="45.66891" lon="5.99002">
        <ele>1380.2</ele>
        <time>2011-06-07T09:51:40Z</time>
      </trkpt>
      <trkpt lat="45.66877" lon="5.98996">
        <ele>1379.6</ele>
        <time>2011-06-07T09:51:46Z</time>
      </trkpt>
      <trkpt lat="45.66873" lon="5.98993">
        <ele>1379.5</ele>
        <time>2011-06-07T09:51:47Z</time>
      </trkpt>
      <trkpt lat="45.66859" lon="5.9898">
        <ele>1379</ele>
        <time>2011-06-07T09:51:54Z</time>
      </trkpt>
      <trkpt lat="45.66857" lon="5.98979">
        <ele>1378.9</ele>
        <time>2011-06-07T09:51:55Z</time>
      </trkpt>
      <trkpt lat="45.66843" lon="5.98968">
        <ele>1378.4</ele>
        <time>2011-06-07T09:52:01Z</time>
      </trkpt>
      <trkpt lat="45.66836" lon="5.98963">
        <ele>1378.1</ele>
        <time>2011-06-07T09:52:04Z</time>
      </trkpt>
      <trkpt lat="45.66824" lon="5.98957">
        <ele>1377.4</ele>
        <time>2011-06-07T09:52:09Z</time>
      </trkpt>
      <trkpt lat="45.66821" lon="5.98961">
        <ele>1377.1</ele>
        <time>2011-06-07T09:52:11Z</time>
      </trkpt>
      <trkpt lat="45.66818" lon="5.98972">
        <ele>1376.9</ele>
        <time>2011-06-07T09:52:14Z</time>
      </trkpt>
      <trkpt lat="45.66816" lon="5.98976">
        <ele>1377</ele>
        <time>2011-06-07T09:52:15Z</time>
      </trkpt>
      <trkpt lat="45.66813" lon="5.98987">
        <ele>1377.4</ele>
        <time>2011-06-07T09:52:19Z</time>
      </trkpt>
      <trkpt lat="45.66817" lon="5.99002">
        <ele>1378.3</ele>
        <time>2011-06-07T09:52:23Z</time>
      </trkpt>
      <trkpt lat="45.6682" lon="5.99018">
        <ele>1377.6</ele>
        <time>2011-06-07T09:52:28Z</time>
      </trkpt>
      <trkpt lat="45.66828" lon="5.99029">
        <ele>1378.2</ele>
        <time>2011-06-07T09:52:32Z</time>
      </trkpt>
      <trkpt lat="45.66828" lon="5.99036">
        <ele>1377.9</ele>
        <time>2011-06-07T09:52:34Z</time>
      </trkpt>
      <trkpt lat="45.66834" lon="5.99055">
        <ele>1378.1</ele>
        <time>2011-06-07T09:52:40Z</time>
      </trkpt>
      <trkpt lat="45.66836" lon="5.99061">
        <ele>1378.2</ele>
        <time>2011-06-07T09:52:42Z</time>
      </trkpt>
      <trkpt lat="45.66841" lon="5.99077">
        <ele>1378.1</ele>
        <time>2011-06-07T09:52:47Z</time>
      </trkpt>
      <trkpt lat="45.66844" lon="5.99087">
        <ele>1378.2</ele>
        <time>2011-06-07T09:52:50Z</time>
      </trkpt>
      <trkpt lat="45.6684" lon="5.99093">
        <ele>1377.9</ele>
        <time>2011-06-07T09:52:53Z</time>
      </trkpt>
      <trkpt lat="45.6683" lon="5.99087">
        <ele>1376.8</ele>
        <time>2011-06-07T09:52:57Z</time>
      </trkpt>
      <trkpt lat="45.66817" lon="5.99077">
        <ele>1375.3</ele>
        <time>2011-06-07T09:53:03Z</time>
      </trkpt>
      <trkpt lat="45.66808" lon="5.99069">
        <ele>1374.3</ele>
        <time>2011-06-07T09:53:07Z</time>
      </trkpt>
      <trkpt lat="45.66801" lon="5.99063">
        <ele>1374.3</ele>
        <time>2011-06-07T09:53:10Z</time>
      </trkpt>
      <trkpt lat="45.66793" lon="5.99057">
        <ele>1374.9</ele>
        <time>2011-06-07T09:53:14Z</time>
      </trkpt>
      <trkpt lat="45.66784" lon="5.9905">
        <ele>1375.3</ele>
        <time>2011-06-07T09:53:18Z</time>
      </trkpt>
      <trkpt lat="45.66751" lon="5.99042">
        <ele>1374</ele>
        <time>2011-06-07T09:53:32Z</time>
      </trkpt>
      <trkpt lat="45.66742" lon="5.99048">
        <ele>1374.2</ele>
        <time>2011-06-07T09:53:36Z</time>
      </trkpt>
      <trkpt lat="45.66734" lon="5.99049">
        <ele>1374.1</ele>
        <time>2011-06-07T09:53:39Z</time>
      </trkpt>
      <trkpt lat="45.66731" lon="5.99057">
        <ele>1374.4</ele>
        <time>2011-06-07T09:53:41Z</time>
      </trkpt>
      <trkpt lat="45.66725" lon="5.99055">
        <ele>1374.1</ele>
        <time>2011-06-07T09:53:44Z</time>
      </trkpt>
      <trkpt lat="45.66724" lon="5.99058">
        <ele>1374.2</ele>
        <time>2011-06-07T09:53:45Z</time>
      </trkpt>
      <trkpt lat="45.66717" lon="5.99062">
        <ele>1374.1</ele>
        <time>2011-06-07T09:53:48Z</time>
      </trkpt>
      <trkpt lat="45.66713" lon="5.99066">
        <ele>1374.1</ele>
        <time>2011-06-07T09:53:50Z</time>
      </trkpt>
      <trkpt lat="45.6671" lon="5.99073">
        <ele>1374.4</ele>
        <time>2011-06-07T09:53:52Z</time>
      </trkpt>
      <trkpt lat="45.66709" lon="5.99078">
        <ele>1374.6</ele>
        <time>2011-06-07T09:53:53Z</time>
      </trkpt>
      <trkpt lat="45.66706" lon="5.99085">
        <ele>1374.9</ele>
        <time>2011-06-07T09:53:56Z</time>
      </trkpt>
      <trkpt lat="45.66707" lon="5.9911">
        <ele>1375.4</ele>
        <time>2011-06-07T09:54:02Z</time>
      </trkpt>
      <trkpt lat="45.66708" lon="5.99115">
        <ele>1375.6</ele>
        <time>2011-06-07T09:54:04Z</time>
      </trkpt>
      <trkpt lat="45.66718" lon="5.99135">
        <ele>1375.4</ele>
        <time>2011-06-07T09:54:11Z</time>
      </trkpt>
      <trkpt lat="45.66724" lon="5.99165">
        <ele>1375</ele>
        <time>2011-06-07T09:54:20Z</time>
      </trkpt>
      <trkpt lat="45.66727" lon="5.9918">
        <ele>1375</ele>
        <time>2011-06-07T09:54:24Z</time>
      </trkpt>
      <trkpt lat="45.66732" lon="5.99195">
        <ele>1375</ele>
        <time>2011-06-07T09:54:29Z</time>
      </trkpt>
      <trkpt lat="45.66732" lon="5.99202">
        <ele>1375</ele>
        <time>2011-06-07T09:54:31Z</time>
      </trkpt>
      <trkpt lat="45.66731" lon="5.99221">
        <ele>1375</ele>
        <time>2011-06-07T09:54:36Z</time>
      </trkpt>
      <trkpt lat="45.6673" lon="5.99222">
        <ele>1375</ele>
        <time>2011-06-07T09:54:36Z</time>
      </trkpt>
      <trkpt lat="45.66726" lon="5.99235">
        <ele>1375.4</ele>
        <time>2011-06-07T09:54:40Z</time>
      </trkpt>
      <trkpt lat="45.66719" lon="5.99244">
        <ele>1375.8</ele>
        <time>2011-06-07T09:54:44Z</time>
      </trkpt>
      <trkpt lat="45.66712" lon="5.99242">
        <ele>1375.7</ele>
        <time>2011-06-07T09:54:47Z</time>
      </trkpt>
      <trkpt lat="45.667" lon="5.99246">
        <ele>1375.8</ele>
        <time>2011-06-07T09:54:52Z</time>
      </trkpt>
      <trkpt lat="45.66692" lon="5.99246">
        <ele>1375.7</ele>
        <time>2011-06-07T09:54:55Z</time>
      </trkpt>
      <trkpt lat="45.66685" lon="5.99251">
        <ele>1375.3</ele>
        <time>2011-06-07T09:54:58Z</time>
      </trkpt>
      <trkpt lat="45.66676" lon="5.99256">
        <ele>1374.4</ele>
        <time>2011-06-07T09:55:02Z</time>
      </trkpt>
      <trkpt lat="45.66666" lon="5.99256">
        <ele>1373.8</ele>
        <time>2011-06-07T09:55:06Z</time>
      </trkpt>
      <trkpt lat="45.66664" lon="5.99255">
        <ele>1373.8</ele>
        <time>2011-06-07T09:55:07Z</time>
      </trkpt>
      <trkpt lat="45.66656" lon="5.99257">
        <ele>1373.6</ele>
        <time>2011-06-07T09:55:10Z</time>
      </trkpt>
      <trkpt lat="45.66648" lon="5.99254">
        <ele>1373.8</ele>
        <time>2011-06-07T09:55:14Z</time>
      </trkpt>
      <trkpt lat="45.66644" lon="5.99266">
        <ele>1373</ele>
        <time>2011-06-07T09:55:17Z</time>
      </trkpt>
      <trkpt lat="45.66641" lon="5.99275">
        <ele>1372.3</ele>
        <time>2011-06-07T09:55:20Z</time>
      </trkpt>
      <trkpt lat="45.66638" lon="5.99281">
        <ele>1372.1</ele>
        <time>2011-06-07T09:55:22Z</time>
      </trkpt>
      <trkpt lat="45.66634" lon="5.99286">
        <ele>1372.1</ele>
        <time>2011-06-07T09:55:24Z</time>
      </trkpt>
      <trkpt lat="45.66625" lon="5.99292">
        <ele>1371.7</ele>
        <time>2011-06-07T09:55:28Z</time>
      </trkpt>
      <trkpt lat="45.66621" lon="5.99297">
        <ele>1371.3</ele>
        <time>2011-06-07T09:55:30Z</time>
      </trkpt>
      <trkpt lat="45.66615" lon="5.99307">
        <ele>1370.4</ele>
        <time>2011-06-07T09:55:34Z</time>
      </trkpt>
      <trkpt lat="45.66604" lon="5.99322">
        <ele>1370.1</ele>
        <time>2011-06-07T09:55:40Z</time>
      </trkpt>
      <trkpt lat="45.66603" lon="5.99328">
        <ele>1370.1</ele>
        <time>2011-06-07T09:55:42Z</time>
      </trkpt>
      <trkpt lat="45.66598" lon="5.99344">
        <ele>1369.4</ele>
        <time>2011-06-07T09:55:47Z</time>
      </trkpt>
      <trkpt lat="45.66594" lon="5.99357">
        <ele>1368.6</ele>
        <time>2011-06-07T09:55:51Z</time>
      </trkpt>
      <trkpt lat="45.66592" lon="5.99366">
        <ele>1368.3</ele>
        <time>2011-06-07T09:55:53Z</time>
      </trkpt>
      <trkpt lat="45.66588" lon="5.9938">
        <ele>1368.2</ele>
        <time>2011-06-07T09:55:57Z</time>
      </trkpt>
      <trkpt lat="45.66581" lon="5.99395">
        <ele>1367.4</ele>
        <time>2011-06-07T09:56:02Z</time>
      </trkpt>
      <trkpt lat="45.66577" lon="5.99405">
        <ele>1366.4</ele>
        <time>2011-06-07T09:56:06Z</time>
      </trkpt>
      <trkpt lat="45.6655" lon="5.99463">
        <ele>1362.6</ele>
        <time>2011-06-07T09:56:25Z</time>
      </trkpt>
      <trkpt lat="45.66543" lon="5.99483">
        <ele>1363.3</ele>
        <time>2011-06-07T09:56:31Z</time>
      </trkpt>
      <trkpt lat="45.66522" lon="5.99489">
        <ele>1364.6</ele>
        <time>2011-06-07T09:56:40Z</time>
      </trkpt>
      <trkpt lat="45.66521" lon="5.99491">
        <ele>1364.7</ele>
        <time>2011-06-07T09:56:41Z</time>
      </trkpt>
      <trkpt lat="45.66515" lon="5.99508">
        <ele>1365.1</ele>
        <time>2011-06-07T09:56:46Z</time>
      </trkpt>
      <trkpt lat="45.66507" lon="5.99531">
        <ele>1365.3</ele>
        <time>2011-06-07T09:56:53Z</time>
      </trkpt>
      <trkpt lat="45.665" lon="5.99551">
        <ele>1366</ele>
        <time>2011-06-07T09:57:00Z</time>
      </trkpt>
      <trkpt lat="45.66496" lon="5.99562">
        <ele>1367</ele>
        <time>2011-06-07T09:57:03Z</time>
      </trkpt>
      <trkpt lat="45.66492" lon="5.99573">
        <ele>1368.1</ele>
        <time>2011-06-07T09:57:07Z</time>
      </trkpt>
      <trkpt lat="45.66495" lon="5.99594">
        <ele>1368.9</ele>
        <time>2011-06-07T09:57:13Z</time>
      </trkpt>
      <trkpt lat="45.66507" lon="5.99618">
        <ele>1368.6</ele>
        <time>2011-06-07T09:57:21Z</time>
      </trkpt>
      <trkpt lat="45.66511" lon="5.99647">
        <ele>1369.5</ele>
        <time>2011-06-07T09:57:29Z</time>
      </trkpt>
      <trkpt lat="45.66503" lon="5.99673">
        <ele>1370.6</ele>
        <time>2011-06-07T09:57:37Z</time>
      </trkpt>
      <trkpt lat="45.66501" lon="5.99694">
        <ele>1370</ele>
        <time>2011-06-07T09:57:43Z</time>
      </trkpt>
      <trkpt lat="45.66494" lon="5.99715">
        <ele>1371</ele>
        <time>2011-06-07T09:57:50Z</time>
      </trkpt>
      <trkpt lat="45.6649" lon="5.9973">
        <ele>1371.7</ele>
        <time>2011-06-07T09:57:54Z</time>
      </trkpt>
      <trkpt lat="45.66484" lon="5.99748">
        <ele>1371.7</ele>
        <time>2011-06-07T09:58:00Z</time>
      </trkpt>
      <trkpt lat="45.66481" lon="5.9976">
        <ele>1371.7</ele>
        <time>2011-06-07T09:58:03Z</time>
      </trkpt>
      <trkpt lat="45.66471" lon="5.99774">
        <ele>1371.1</ele>
        <time>2011-06-07T09:58:09Z</time>
      </trkpt>
      <trkpt lat="45.66459" lon="5.99797">
        <ele>1372.5</ele>
        <time>2011-06-07T09:58:17Z</time>
      </trkpt>
      <trkpt lat="45.66445" lon="5.99842">
        <ele>1374.7</ele>
        <time>2011-06-07T09:58:31Z</time>
      </trkpt>
      <trkpt lat="45.66442" lon="5.99854">
        <ele>1375.3</ele>
        <time>2011-06-07T09:58:34Z</time>
      </trkpt>
      <trkpt lat="45.66441" lon="5.99857">
        <ele>1375.3</ele>
        <time>2011-06-07T09:58:35Z</time>
      </trkpt>
      <trkpt lat="45.66439" lon="5.99878">
        <ele>1374.5</ele>
        <time>2011-06-07T09:58:41Z</time>
      </trkpt>
      <trkpt lat="45.66438" lon="5.99897">
        <ele>1373.8</ele>
        <time>2011-06-07T09:58:46Z</time>
      </trkpt>
      <trkpt lat="45.66437" lon="5.999">
        <ele>1373.7</ele>
        <time>2011-06-07T09:58:47Z</time>
      </trkpt>
      <trkpt lat="45.66434" lon="5.99924">
        <ele>1373.4</ele>
        <time>2011-06-07T09:58:54Z</time>
      </trkpt>
      <trkpt lat="45.66438" lon="5.99943">
        <ele>1373.2</ele>
        <time>2011-06-07T09:59:00Z</time>
      </trkpt>
      <trkpt lat="45.66435" lon="5.99955">
        <ele>1373.1</ele>
        <time>2011-06-07T09:59:04Z</time>
      </trkpt>
      <trkpt lat="45.66438" lon="5.99975">
        <ele>1372.3</ele>
        <time>2011-06-07T09:59:09Z</time>
      </trkpt>
      <trkpt lat="45.66443" lon="5.99991">
        <ele>1370.8</ele>
        <time>2011-06-07T09:59:14Z</time>
      </trkpt>
      <trkpt lat="45.66437" lon="6.00012">
        <ele>1371.5</ele>
        <time>2011-06-07T09:59:21Z</time>
      </trkpt>
      <trkpt lat="45.66433" lon="6.00024">
        <ele>1372</ele>
        <time>2011-06-07T09:59:24Z</time>
      </trkpt>
      <trkpt lat="45.66428" lon="6.0004">
        <ele>1371.4</ele>
        <time>2011-06-07T09:59:29Z</time>
      </trkpt>
      <trkpt lat="45.66418" lon="6.00041">
        <ele>1371.5</ele>
        <time>2011-06-07T09:59:33Z</time>
      </trkpt>
      <trkpt lat="45.66402" lon="6.00061">
        <ele>1372.2</ele>
        <time>2011-06-07T09:59:42Z</time>
      </trkpt>
      <trkpt lat="45.66401" lon="6.00064">
        <ele>1372.3</ele>
        <time>2011-06-07T09:59:43Z</time>
      </trkpt>
      <trkpt lat="45.66395" lon="6.00082">
        <ele>1372.8</ele>
        <time>2011-06-07T09:59:48Z</time>
      </trkpt>
      <trkpt lat="45.66389" lon="6.00103">
        <ele>1374.4</ele>
        <time>2011-06-07T09:59:55Z</time>
      </trkpt>
      <trkpt lat="45.66384" lon="6.00118">
        <ele>1375.9</ele>
        <time>2011-06-07T09:59:59Z</time>
      </trkpt>
      <trkpt lat="45.66379" lon="6.00133">
        <ele>1376.8</ele>
        <time>2011-06-07T10:00:04Z</time>
      </trkpt>
      <trkpt lat="45.66375" lon="6.00149">
        <ele>1377.5</ele>
        <time>2011-06-07T10:00:08Z</time>
      </trkpt>
      <trkpt lat="45.6638" lon="6.00146">
        <ele>1377.3</ele>
        <time>2011-06-07T10:00:11Z</time>
      </trkpt>
      <trkpt lat="45.66379" lon="6.00149">
        <ele>1377.4</ele>
        <time>2011-06-07T10:00:12Z</time>
      </trkpt>
      <trkpt lat="45.66379" lon="6.00182">
        <ele>1377.7</ele>
        <time>2011-06-07T10:00:21Z</time>
      </trkpt>
      <trkpt lat="45.66378" lon="6.00201">
        <ele>1376.6</ele>
        <time>2011-06-07T10:00:26Z</time>
      </trkpt>
      <trkpt lat="45.66369" lon="6.00215">
        <ele>1375.8</ele>
        <time>2011-06-07T10:00:32Z</time>
      </trkpt>
      <trkpt lat="45.6636" lon="6.00234">
        <ele>1376.4</ele>
        <time>2011-06-07T10:00:38Z</time>
      </trkpt>
      <trkpt lat="45.66352" lon="6.00252">
        <ele>1375.8</ele>
        <time>2011-06-07T10:00:44Z</time>
      </trkpt>
      <trkpt lat="45.66343" lon="6.00259">
        <ele>1374.4</ele>
        <time>2011-06-07T10:00:48Z</time>
      </trkpt>
      <trkpt lat="45.66332" lon="6.00271">
        <ele>1372.5</ele>
        <time>2011-06-07T10:00:54Z</time>
      </trkpt>
      <trkpt lat="45.66328" lon="6.00282">
        <ele>1372</ele>
        <time>2011-06-07T10:00:57Z</time>
      </trkpt>
      <trkpt lat="45.66325" lon="6.00299">
        <ele>1372.2</ele>
        <time>2011-06-07T10:01:02Z</time>
      </trkpt>
      <trkpt lat="45.66322" lon="6.0032">
        <ele>1373.2</ele>
        <time>2011-06-07T10:01:08Z</time>
      </trkpt>
      <trkpt lat="45.66327" lon="6.00359">
        <ele>1373.5</ele>
        <time>2011-06-07T10:01:19Z</time>
      </trkpt>
      <trkpt lat="45.66329" lon="6.00381">
        <ele>1374.7</ele>
        <time>2011-06-07T10:01:25Z</time>
      </trkpt>
      <trkpt lat="45.66316" lon="6.00408">
        <ele>1374.7</ele>
        <time>2011-06-07T10:01:34Z</time>
      </trkpt>
      <trkpt lat="45.66312" lon="6.00415">
        <ele>1374.6</ele>
        <time>2011-06-07T10:01:37Z</time>
      </trkpt>
      <trkpt lat="45.66303" lon="6.00431">
        <ele>1373.4</ele>
        <time>2011-06-07T10:01:43Z</time>
      </trkpt>
      <trkpt lat="45.66294" lon="6.00446">
        <ele>1371.9</ele>
        <time>2011-06-07T10:01:48Z</time>
      </trkpt>
      <trkpt lat="45.66289" lon="6.00455">
        <ele>1370.8</ele>
        <time>2011-06-07T10:01:51Z</time>
      </trkpt>
      <trkpt lat="45.66283" lon="6.00464">
        <ele>1369.4</ele>
        <time>2011-06-07T10:01:55Z</time>
      </trkpt>
      <trkpt lat="45.66279" lon="6.00471">
        <ele>1368.2</ele>
        <time>2011-06-07T10:01:57Z</time>
      </trkpt>
      <trkpt lat="45.66269" lon="6.00488">
        <ele>1368.5</ele>
        <time>2011-06-07T10:02:03Z</time>
      </trkpt>
      <trkpt lat="45.66255" lon="6.00494">
        <ele>1370</ele>
        <time>2011-06-07T10:02:10Z</time>
      </trkpt>
      <trkpt lat="45.6623" lon="6.00464">
        <ele>1370.2</ele>
        <time>2011-06-07T10:02:23Z</time>
      </trkpt>
      <trkpt lat="45.66221" lon="6.00445">
        <ele>1368.1</ele>
        <time>2011-06-07T10:02:29Z</time>
      </trkpt>
      <trkpt lat="45.6621" lon="6.00428">
        <ele>1366.8</ele>
        <time>2011-06-07T10:02:35Z</time>
      </trkpt>
      <trkpt lat="45.66195" lon="6.00411">
        <ele>1366.7</ele>
        <time>2011-06-07T10:02:43Z</time>
      </trkpt>
      <trkpt lat="45.66183" lon="6.00396">
        <ele>1365.3</ele>
        <time>2011-06-07T10:02:49Z</time>
      </trkpt>
      <trkpt lat="45.66175" lon="6.00381">
        <ele>1364.1</ele>
        <time>2011-06-07T10:02:55Z</time>
      </trkpt>
      <trkpt lat="45.66159" lon="6.00362">
        <ele>1363.1</ele>
        <time>2011-06-07T10:03:03Z</time>
      </trkpt>
      <trkpt lat="45.66142" lon="6.00337">
        <ele>1359.6</ele>
        <time>2011-06-07T10:03:13Z</time>
      </trkpt>
      <trkpt lat="45.66138" lon="6.00324">
        <ele>1361</ele>
        <time>2011-06-07T10:03:17Z</time>
      </trkpt>
      <trkpt lat="45.66129" lon="6.00301">
        <ele>1363.1</ele>
        <time>2011-06-07T10:03:24Z</time>
      </trkpt>
      <trkpt lat="45.66105" lon="6.00273">
        <ele>1361.7</ele>
        <time>2011-06-07T10:03:36Z</time>
      </trkpt>
      <trkpt lat="45.66095" lon="6.0026">
        <ele>1363.2</ele>
        <time>2011-06-07T10:03:42Z</time>
      </trkpt>
      <trkpt lat="45.66065" lon="6.00229">
        <ele>1365.1</ele>
        <time>2011-06-07T10:03:57Z</time>
      </trkpt>
      <trkpt lat="45.66068" lon="6.00219">
        <ele>1366.1</ele>
        <time>2011-06-07T10:04:00Z</time>
      </trkpt>
      <trkpt lat="45.66067" lon="6.00215">
        <ele>1366.6</ele>
        <time>2011-06-07T10:04:01Z</time>
      </trkpt>
      <trkpt lat="45.66067" lon="6.00205">
        <ele>1368.5</ele>
        <time>2011-06-07T10:04:03Z</time>
      </trkpt>
      <trkpt lat="45.66068" lon="6.00191">
        <ele>1370.4</ele>
        <time>2011-06-07T10:04:07Z</time>
      </trkpt>
      <trkpt lat="45.66065" lon="6.00176">
        <ele>1370.1</ele>
        <time>2011-06-07T10:04:12Z</time>
      </trkpt>
      <trkpt lat="45.66063" lon="6.00167">
        <ele>1369.8</ele>
        <time>2011-06-07T10:04:15Z</time>
      </trkpt>
      <trkpt lat="45.66055" lon="6.0016">
        <ele>1368.7</ele>
        <time>2011-06-07T10:04:18Z</time>
      </trkpt>
      <trkpt lat="45.66052" lon="6.00157">
        <ele>1368.6</ele>
        <time>2011-06-07T10:04:20Z</time>
      </trkpt>
      <trkpt lat="45.66044" lon="6.0015">
        <ele>1367.9</ele>
        <time>2011-06-07T10:04:23Z</time>
      </trkpt>
      <trkpt lat="45.66029" lon="6.00145">
        <ele>1366.7</ele>
        <time>2011-06-07T10:04:29Z</time>
      </trkpt>
      <trkpt lat="45.6602" lon="6.00142">
        <ele>1366</ele>
        <time>2011-06-07T10:04:33Z</time>
      </trkpt>
      <trkpt lat="45.66009" lon="6.00139">
        <ele>1365.3</ele>
        <time>2011-06-07T10:04:38Z</time>
      </trkpt>
      <trkpt lat="45.66002" lon="6.00133">
        <ele>1365.3</ele>
        <time>2011-06-07T10:04:41Z</time>
      </trkpt>
      <trkpt lat="45.65996" lon="6.00132">
        <ele>1365.1</ele>
        <time>2011-06-07T10:04:43Z</time>
      </trkpt>
      <trkpt lat="45.65989" lon="6.00129">
        <ele>1364.9</ele>
        <time>2011-06-07T10:04:46Z</time>
      </trkpt>
      <trkpt lat="45.65979" lon="6.00124">
        <ele>1364.3</ele>
        <time>2011-06-07T10:04:51Z</time>
      </trkpt>
      <trkpt lat="45.65971" lon="6.0012">
        <ele>1363.5</ele>
        <time>2011-06-07T10:04:54Z</time>
      </trkpt>
      <trkpt lat="45.65966" lon="6.00119">
        <ele>1363</ele>
        <time>2011-06-07T10:04:56Z</time>
      </trkpt>
      <trkpt lat="45.65956" lon="6.00118">
        <ele>1362.1</ele>
        <time>2011-06-07T10:05:00Z</time>
      </trkpt>
      <trkpt lat="45.65951" lon="6.00118">
        <ele>1361.6</ele>
        <time>2011-06-07T10:05:02Z</time>
      </trkpt>
      <trkpt lat="45.65946" lon="6.00123">
        <ele>1361.1</ele>
        <time>2011-06-07T10:05:05Z</time>
      </trkpt>
      <trkpt lat="45.65938" lon="6.00123">
        <ele>1360.9</ele>
        <time>2011-06-07T10:05:08Z</time>
      </trkpt>
      <trkpt lat="45.6593" lon="6.0012">
        <ele>1360.8</ele>
        <time>2011-06-07T10:05:11Z</time>
      </trkpt>
      <trkpt lat="45.65923" lon="6.00114">
        <ele>1360.9</ele>
        <time>2011-06-07T10:05:14Z</time>
      </trkpt>
      <trkpt lat="45.65917" lon="6.00109">
        <ele>1360.9</ele>
        <time>2011-06-07T10:05:17Z</time>
      </trkpt>
      <trkpt lat="45.65905" lon="6.00097">
        <ele>1359.5</ele>
        <time>2011-06-07T10:05:23Z</time>
      </trkpt>
      <trkpt lat="45.65899" lon="6.00091">
        <ele>1358.8</ele>
        <time>2011-06-07T10:05:26Z</time>
      </trkpt>
      <trkpt lat="45.65891" lon="6.00084">
        <ele>1358.1</ele>
        <time>2011-06-07T10:05:30Z</time>
      </trkpt>
      <trkpt lat="45.65887" lon="6.0008">
        <ele>1357.9</ele>
        <time>2011-06-07T10:05:32Z</time>
      </trkpt>
      <trkpt lat="45.65876" lon="6.00072">
        <ele>1357.7</ele>
        <time>2011-06-07T10:05:37Z</time>
      </trkpt>
      <trkpt lat="45.65873" lon="6.00074">
        <ele>1357.6</ele>
        <time>2011-06-07T10:05:38Z</time>
      </trkpt>
      <trkpt lat="45.65865" lon="6.00074">
        <ele>1357.4</ele>
        <time>2011-06-07T10:05:41Z</time>
      </trkpt>
      <trkpt lat="45.65855" lon="6.00082">
        <ele>1357</ele>
        <time>2011-06-07T10:05:46Z</time>
      </trkpt>
      <trkpt lat="45.65842" lon="6.00099">
        <ele>1356</ele>
        <time>2011-06-07T10:05:53Z</time>
      </trkpt>
      <trkpt lat="45.65832" lon="6.0011">
        <ele>1355</ele>
        <time>2011-06-07T10:05:58Z</time>
      </trkpt>
      <trkpt lat="45.65829" lon="6.00111">
        <ele>1354.7</ele>
        <time>2011-06-07T10:05:59Z</time>
      </trkpt>
      <trkpt lat="45.65818" lon="6.00107">
        <ele>1354.2</ele>
        <time>2011-06-07T10:06:04Z</time>
      </trkpt>
      <trkpt lat="45.65806" lon="6.00095">
        <ele>1354.2</ele>
        <time>2011-06-07T10:06:10Z</time>
      </trkpt>
      <trkpt lat="45.65799" lon="6.00088">
        <ele>1354.2</ele>
        <time>2011-06-07T10:06:13Z</time>
      </trkpt>
      <trkpt lat="45.65792" lon="6.00081">
        <ele>1353.5</ele>
        <time>2011-06-07T10:06:16Z</time>
      </trkpt>
      <trkpt lat="45.65786" lon="6.00075">
        <ele>1352.9</ele>
        <time>2011-06-07T10:06:19Z</time>
      </trkpt>
      <trkpt lat="45.6578" lon="6.00069">
        <ele>1352.3</ele>
        <time>2011-06-07T10:06:22Z</time>
      </trkpt>
      <trkpt lat="45.65773" lon="6.00063">
        <ele>1352</ele>
        <time>2011-06-07T10:06:26Z</time>
      </trkpt>
      <trkpt lat="45.65763" lon="6.00053">
        <ele>1351.5</ele>
        <time>2011-06-07T10:06:30Z</time>
      </trkpt>
      <trkpt lat="45.65758" lon="6.00048">
        <ele>1351.3</ele>
        <time>2011-06-07T10:06:33Z</time>
      </trkpt>
      <trkpt lat="45.65748" lon="6.00039">
        <ele>1350.5</ele>
        <time>2011-06-07T10:06:37Z</time>
      </trkpt>
      <trkpt lat="45.65739" lon="6.00029">
        <ele>1350.9</ele>
        <time>2011-06-07T10:06:42Z</time>
      </trkpt>
      <trkpt lat="45.65733" lon="6.00024">
        <ele>1351.2</ele>
        <time>2011-06-07T10:06:45Z</time>
      </trkpt>
      <trkpt lat="45.65728" lon="6.00017">
        <ele>1351.4</ele>
        <time>2011-06-07T10:06:47Z</time>
      </trkpt>
      <trkpt lat="45.65726" lon="6.00012">
        <ele>1351.4</ele>
        <time>2011-06-07T10:06:49Z</time>
      </trkpt>
      <trkpt lat="45.65718" lon="6.00002">
        <ele>1351.4</ele>
        <time>2011-06-07T10:06:53Z</time>
      </trkpt>
      <trkpt lat="45.65714" lon="5.99998">
        <ele>1351.7</ele>
        <time>2011-06-07T10:06:55Z</time>
      </trkpt>
      <trkpt lat="45.65705" lon="5.99989">
        <ele>1352.3</ele>
        <time>2011-06-07T10:07:00Z</time>
      </trkpt>
      <trkpt lat="45.65701" lon="5.99984">
        <ele>1352.4</ele>
        <time>2011-06-07T10:07:02Z</time>
      </trkpt>
      <trkpt lat="45.65699" lon="5.99982">
        <ele>1352.3</ele>
        <time>2011-06-07T10:07:03Z</time>
      </trkpt>
      <trkpt lat="45.65693" lon="5.99972">
        <ele>1352.2</ele>
        <time>2011-06-07T10:07:07Z</time>
      </trkpt>
      <trkpt lat="45.65691" lon="5.99967">
        <ele>1352.5</ele>
        <time>2011-06-07T10:07:08Z</time>
      </trkpt>
      <trkpt lat="45.65644" lon="5.99895">
        <ele>1353.2</ele>
        <time>2011-06-07T10:07:36Z</time>
      </trkpt>
      <trkpt lat="45.65629" lon="5.99871">
        <ele>1354.2</ele>
        <time>2011-06-07T10:07:45Z</time>
      </trkpt>
      <trkpt lat="45.65626" lon="5.9986">
        <ele>1354.3</ele>
        <time>2011-06-07T10:07:48Z</time>
      </trkpt>
      <trkpt lat="45.65626" lon="5.99843">
        <ele>1354.1</ele>
        <time>2011-06-07T10:07:53Z</time>
      </trkpt>
      <trkpt lat="45.65612" lon="5.99826">
        <ele>1353</ele>
        <time>2011-06-07T10:08:00Z</time>
      </trkpt>
      <trkpt lat="45.65603" lon="5.99815">
        <ele>1351.7</ele>
        <time>2011-06-07T10:08:05Z</time>
      </trkpt>
      <trkpt lat="45.65592" lon="5.99802">
        <ele>1350.6</ele>
        <time>2011-06-07T10:08:11Z</time>
      </trkpt>
      <trkpt lat="45.65578" lon="5.99785">
        <ele>1351</ele>
        <time>2011-06-07T10:08:18Z</time>
      </trkpt>
      <trkpt lat="45.65558" lon="5.99761">
        <ele>1351.6</ele>
        <time>2011-06-07T10:08:28Z</time>
      </trkpt>
      <trkpt lat="45.65553" lon="5.99751">
        <ele>1351.8</ele>
        <time>2011-06-07T10:08:32Z</time>
      </trkpt>
      <trkpt lat="45.65538" lon="5.99728">
        <ele>1354.2</ele>
        <time>2011-06-07T10:08:40Z</time>
      </trkpt>
      <trkpt lat="45.65528" lon="5.99703">
        <ele>1353.6</ele>
        <time>2011-06-07T10:08:48Z</time>
      </trkpt>
      <trkpt lat="45.6552" lon="5.99688">
        <ele>1354.6</ele>
        <time>2011-06-07T10:08:54Z</time>
      </trkpt>
      <trkpt lat="45.65513" lon="5.9967">
        <ele>1353.9</ele>
        <time>2011-06-07T10:09:00Z</time>
      </trkpt>
      <trkpt lat="45.65509" lon="5.99663">
        <ele>1353.6</ele>
        <time>2011-06-07T10:09:02Z</time>
      </trkpt>
      <trkpt lat="45.65499" lon="5.99642">
        <ele>1353.3</ele>
        <time>2011-06-07T10:09:09Z</time>
      </trkpt>
      <trkpt lat="45.65488" lon="5.99626">
        <ele>1353.8</ele>
        <time>2011-06-07T10:09:15Z</time>
      </trkpt>
      <trkpt lat="45.6548" lon="5.99605">
        <ele>1351.9</ele>
        <time>2011-06-07T10:09:22Z</time>
      </trkpt>
      <trkpt lat="45.65478" lon="5.9959">
        <ele>1351.2</ele>
        <time>2011-06-07T10:09:26Z</time>
      </trkpt>
      <trkpt lat="45.6547" lon="5.99567">
        <ele>1351.2</ele>
        <time>2011-06-07T10:09:34Z</time>
      </trkpt>
      <trkpt lat="45.6547" lon="5.99554">
        <ele>1351.2</ele>
        <time>2011-06-07T10:09:37Z</time>
      </trkpt>
      <trkpt lat="45.65461" lon="5.99527">
        <ele>1350.6</ele>
        <time>2011-06-07T10:09:45Z</time>
      </trkpt>
      <trkpt lat="45.65457" lon="5.9951">
        <ele>1351.1</ele>
        <time>2011-06-07T10:09:50Z</time>
      </trkpt>
      <trkpt lat="45.65456" lon="5.99506">
        <ele>1351.2</ele>
        <time>2011-06-07T10:09:52Z</time>
      </trkpt>
      <trkpt lat="45.65435" lon="5.99465">
        <ele>1354.6</ele>
        <time>2011-06-07T10:10:06Z</time>
      </trkpt>
      <trkpt lat="45.6543" lon="5.99457">
        <ele>1354.7</ele>
        <time>2011-06-07T10:10:09Z</time>
      </trkpt>
      <trkpt lat="45.65413" lon="5.99432">
        <ele>1353.1</ele>
        <time>2011-06-07T10:10:19Z</time>
      </trkpt>
      <trkpt lat="45.6541" lon="5.99422">
        <ele>1353.1</ele>
        <time>2011-06-07T10:10:22Z</time>
      </trkpt>
      <trkpt lat="45.65406" lon="5.99402">
        <ele>1352</ele>
        <time>2011-06-07T10:10:28Z</time>
      </trkpt>
      <trkpt lat="45.65403" lon="5.99388">
        <ele>1350.9</ele>
        <time>2011-06-07T10:10:32Z</time>
      </trkpt>
      <trkpt lat="45.65398" lon="5.99374">
        <ele>1349.9</ele>
        <time>2011-06-07T10:10:36Z</time>
      </trkpt>
      <trkpt lat="45.65383" lon="5.99355">
        <ele>1349</ele>
        <time>2011-06-07T10:10:44Z</time>
      </trkpt>
      <trkpt lat="45.65374" lon="5.99341">
        <ele>1350.3</ele>
        <time>2011-06-07T10:10:49Z</time>
      </trkpt>
      <trkpt lat="45.65372" lon="5.99331">
        <ele>1350.2</ele>
        <time>2011-06-07T10:10:52Z</time>
      </trkpt>
      <trkpt lat="45.6537" lon="5.99314">
        <ele>1349.1</ele>
        <time>2011-06-07T10:10:57Z</time>
      </trkpt>
      <trkpt lat="45.65368" lon="5.99298">
        <ele>1348.1</ele>
        <time>2011-06-07T10:11:02Z</time>
      </trkpt>
      <trkpt lat="45.65371" lon="5.99284">
        <ele>1347.1</ele>
        <time>2011-06-07T10:11:06Z</time>
      </trkpt>
      <trkpt lat="45.6537" lon="5.99272">
        <ele>1346.2</ele>
        <time>2011-06-07T10:11:09Z</time>
      </trkpt>
      <trkpt lat="45.6537" lon="5.99251">
        <ele>1344.2</ele>
        <time>2011-06-07T10:11:15Z</time>
      </trkpt>
      <trkpt lat="45.6537" lon="5.99242">
        <ele>1343.3</ele>
        <time>2011-06-07T10:11:17Z</time>
      </trkpt>
      <trkpt lat="45.65367" lon="5.99228">
        <ele>1342.2</ele>
        <time>2011-06-07T10:11:22Z</time>
      </trkpt>
      <trkpt lat="45.65367" lon="5.99219">
        <ele>1341.5</ele>
        <time>2011-06-07T10:11:24Z</time>
      </trkpt>
      <trkpt lat="45.65358" lon="5.99189">
        <ele>1342.1</ele>
        <time>2011-06-07T10:11:33Z</time>
      </trkpt>
      <trkpt lat="45.65349" lon="5.99173">
        <ele>1341.6</ele>
        <time>2011-06-07T10:11:39Z</time>
      </trkpt>
      <trkpt lat="45.65348" lon="5.99161">
        <ele>1340.5</ele>
        <time>2011-06-07T10:11:42Z</time>
      </trkpt>
      <trkpt lat="45.65345" lon="5.99153">
        <ele>1339.7</ele>
        <time>2011-06-07T10:11:45Z</time>
      </trkpt>
      <trkpt lat="45.65347" lon="5.9914">
        <ele>1338.6</ele>
        <time>2011-06-07T10:11:49Z</time>
      </trkpt>
      <trkpt lat="45.65343" lon="5.99126">
        <ele>1337.9</ele>
        <time>2011-06-07T10:11:53Z</time>
      </trkpt>
      <trkpt lat="45.65338" lon="5.99114">
        <ele>1336.8</ele>
        <time>2011-06-07T10:11:57Z</time>
      </trkpt>
      <trkpt lat="45.6533" lon="5.99105">
        <ele>1335.7</ele>
        <time>2011-06-07T10:12:01Z</time>
      </trkpt>
      <trkpt lat="45.65316" lon="5.99095">
        <ele>1334.4</ele>
        <time>2011-06-07T10:12:07Z</time>
      </trkpt>
      <trkpt lat="45.65302" lon="5.99079">
        <ele>1332.1</ele>
        <time>2011-06-07T10:12:14Z</time>
      </trkpt>
      <trkpt lat="45.65294" lon="5.99069">
        <ele>1331.9</ele>
        <time>2011-06-07T10:12:19Z</time>
      </trkpt>
      <trkpt lat="45.65289" lon="5.99062">
        <ele>1331.8</ele>
        <time>2011-06-07T10:12:22Z</time>
      </trkpt>
      <trkpt lat="45.65279" lon="5.99041">
        <ele>1331.4</ele>
        <time>2011-06-07T10:12:29Z</time>
      </trkpt>
      <trkpt lat="45.65277" lon="5.99031">
        <ele>1331.4</ele>
        <time>2011-06-07T10:12:32Z</time>
      </trkpt>
      <trkpt lat="45.65273" lon="5.99007">
        <ele>1331.1</ele>
        <time>2011-06-07T10:12:38Z</time>
      </trkpt>
      <trkpt lat="45.65273" lon="5.98999">
        <ele>1331.1</ele>
        <time>2011-06-07T10:12:41Z</time>
      </trkpt>
      <trkpt lat="45.65267" lon="5.98973">
        <ele>1334.3</ele>
        <time>2011-06-07T10:12:48Z</time>
      </trkpt>
      <trkpt lat="45.65264" lon="5.98966">
        <ele>1334.7</ele>
        <time>2011-06-07T10:12:51Z</time>
      </trkpt>
      <trkpt lat="45.65255" lon="5.98952">
        <ele>1334.6</ele>
        <time>2011-06-07T10:12:56Z</time>
      </trkpt>
      <trkpt lat="45.65245" lon="5.98945">
        <ele>1333.7</ele>
        <time>2011-06-07T10:13:00Z</time>
      </trkpt>
      <trkpt lat="45.65229" lon="5.98935">
        <ele>1332.7</ele>
        <time>2011-06-07T10:13:07Z</time>
      </trkpt>
      <trkpt lat="45.6521" lon="5.98922">
        <ele>1332.7</ele>
        <time>2011-06-07T10:13:16Z</time>
      </trkpt>
      <trkpt lat="45.65206" lon="5.98919">
        <ele>1332.7</ele>
        <time>2011-06-07T10:13:18Z</time>
      </trkpt>
      <trkpt lat="45.65191" lon="5.98907">
        <ele>1332.5</ele>
        <time>2011-06-07T10:13:25Z</time>
      </trkpt>
      <trkpt lat="45.65184" lon="5.98902">
        <ele>1332.5</ele>
        <time>2011-06-07T10:13:28Z</time>
      </trkpt>
      <trkpt lat="45.65179" lon="5.98898">
        <ele>1332.4</ele>
        <time>2011-06-07T10:13:30Z</time>
      </trkpt>
      <trkpt lat="45.65171" lon="5.98893">
        <ele>1332.3</ele>
        <time>2011-06-07T10:13:33Z</time>
      </trkpt>
      <trkpt lat="45.65159" lon="5.98885">
        <ele>1331.8</ele>
        <time>2011-06-07T10:13:39Z</time>
      </trkpt>
      <trkpt lat="45.65144" lon="5.98873">
        <ele>1332.2</ele>
        <time>2011-06-07T10:13:46Z</time>
      </trkpt>
      <trkpt lat="45.65136" lon="5.98867">
        <ele>1332.5</ele>
        <time>2011-06-07T10:13:49Z</time>
      </trkpt>
      <trkpt lat="45.65127" lon="5.98861">
        <ele>1332.2</ele>
        <time>2011-06-07T10:13:53Z</time>
      </trkpt>
      <trkpt lat="45.65123" lon="5.98861">
        <ele>1331.9</ele>
        <time>2011-06-07T10:13:55Z</time>
      </trkpt>
      <trkpt lat="45.65116" lon="5.98856">
        <ele>1331.9</ele>
        <time>2011-06-07T10:13:58Z</time>
      </trkpt>
      <trkpt lat="45.65109" lon="5.98851">
        <ele>1332.4</ele>
        <time>2011-06-07T10:14:01Z</time>
      </trkpt>
      <trkpt lat="45.6509" lon="5.98851">
        <ele>1332.1</ele>
        <time>2011-06-07T10:14:09Z</time>
      </trkpt>
      <trkpt lat="45.65077" lon="5.98854">
        <ele>1330.8</ele>
        <time>2011-06-07T10:14:14Z</time>
      </trkpt>
      <trkpt lat="45.65067" lon="5.98853">
        <ele>1329.4</ele>
        <time>2011-06-07T10:14:18Z</time>
      </trkpt>
      <trkpt lat="45.6506" lon="5.98848">
        <ele>1328.3</ele>
        <time>2011-06-07T10:14:21Z</time>
      </trkpt>
      <trkpt lat="45.65053" lon="5.98843">
        <ele>1327.2</ele>
        <time>2011-06-07T10:14:24Z</time>
      </trkpt>
      <trkpt lat="45.65036" lon="5.98832">
        <ele>1325</ele>
        <time>2011-06-07T10:14:31Z</time>
      </trkpt>
      <trkpt lat="45.65032" lon="5.98827">
        <ele>1324.8</ele>
        <time>2011-06-07T10:14:34Z</time>
      </trkpt>
      <trkpt lat="45.65021" lon="5.98819">
        <ele>1324.1</ele>
        <time>2011-06-07T10:14:39Z</time>
      </trkpt>
      <trkpt lat="45.65016" lon="5.98811">
        <ele>1323.8</ele>
        <time>2011-06-07T10:14:42Z</time>
      </trkpt>
      <trkpt lat="45.65009" lon="5.98806">
        <ele>1323</ele>
        <time>2011-06-07T10:14:45Z</time>
      </trkpt>
      <trkpt lat="45.65005" lon="5.98803">
        <ele>1322.5</ele>
        <time>2011-06-07T10:14:47Z</time>
      </trkpt>
      <trkpt lat="45.64998" lon="5.98799">
        <ele>1322.1</ele>
        <time>2011-06-07T10:14:50Z</time>
      </trkpt>
      <trkpt lat="45.6499" lon="5.98794">
        <ele>1321.9</ele>
        <time>2011-06-07T10:14:53Z</time>
      </trkpt>
      <trkpt lat="45.64979" lon="5.98786">
        <ele>1321.7</ele>
        <time>2011-06-07T10:14:58Z</time>
      </trkpt>
      <trkpt lat="45.6497" lon="5.9878">
        <ele>1321.8</ele>
        <time>2011-06-07T10:15:02Z</time>
      </trkpt>
      <trkpt lat="45.64965" lon="5.98779">
        <ele>1321.9</ele>
        <time>2011-06-07T10:15:04Z</time>
      </trkpt>
      <trkpt lat="45.64952" lon="5.98777">
        <ele>1322</ele>
        <time>2011-06-07T10:15:09Z</time>
      </trkpt>
      <trkpt lat="45.64945" lon="5.98777">
        <ele>1322</ele>
        <time>2011-06-07T10:15:12Z</time>
      </trkpt>
      <trkpt lat="45.64936" lon="5.98777">
        <ele>1322</ele>
        <time>2011-06-07T10:15:16Z</time>
      </trkpt>
      <trkpt lat="45.64929" lon="5.98777">
        <ele>1322</ele>
        <time>2011-06-07T10:15:19Z</time>
      </trkpt>
      <trkpt lat="45.64921" lon="5.98777">
        <ele>1321.9</ele>
        <time>2011-06-07T10:15:22Z</time>
      </trkpt>
      <trkpt lat="45.64914" lon="5.98778">
        <ele>1321.9</ele>
        <time>2011-06-07T10:15:25Z</time>
      </trkpt>
      <trkpt lat="45.64908" lon="5.98779">
        <ele>1321.6</ele>
        <time>2011-06-07T10:15:27Z</time>
      </trkpt>
      <trkpt lat="45.64902" lon="5.98775">
        <ele>1321.4</ele>
        <time>2011-06-07T10:15:30Z</time>
      </trkpt>
      <trkpt lat="45.64893" lon="5.98775">
        <ele>1321.1</ele>
        <time>2011-06-07T10:15:33Z</time>
      </trkpt>
      <trkpt lat="45.64884" lon="5.98776">
        <ele>1320.8</ele>
        <time>2011-06-07T10:15:37Z</time>
      </trkpt>
      <trkpt lat="45.64867" lon="5.98773">
        <ele>1320.2</ele>
        <time>2011-06-07T10:15:44Z</time>
      </trkpt>
      <trkpt lat="45.64854" lon="5.98775">
        <ele>1320</ele>
        <time>2011-06-07T10:15:49Z</time>
      </trkpt>
      <trkpt lat="45.64848" lon="5.98775">
        <ele>1319.9</ele>
        <time>2011-06-07T10:15:51Z</time>
      </trkpt>
      <trkpt lat="45.64842" lon="5.98775">
        <ele>1319.9</ele>
        <time>2011-06-07T10:15:54Z</time>
      </trkpt>
      <trkpt lat="45.64835" lon="5.98777">
        <ele>1320</ele>
        <time>2011-06-07T10:15:57Z</time>
      </trkpt>
      <trkpt lat="45.64831" lon="5.98778">
        <ele>1319.9</ele>
        <time>2011-06-07T10:15:58Z</time>
      </trkpt>
      <trkpt lat="45.64822" lon="5.98779">
        <ele>1319.6</ele>
        <time>2011-06-07T10:16:02Z</time>
      </trkpt>
      <trkpt lat="45.64817" lon="5.98779">
        <ele>1319.4</ele>
        <time>2011-06-07T10:16:04Z</time>
      </trkpt>
      <trkpt lat="45.64811" lon="5.98777">
        <ele>1319.2</ele>
        <time>2011-06-07T10:16:06Z</time>
      </trkpt>
      <trkpt lat="45.648" lon="5.98771">
        <ele>1318.7</ele>
        <time>2011-06-07T10:16:11Z</time>
      </trkpt>
      <trkpt lat="45.64789" lon="5.98767">
        <ele>1318.6</ele>
        <time>2011-06-07T10:16:15Z</time>
      </trkpt>
      <trkpt lat="45.64779" lon="5.98769">
        <ele>1318.7</ele>
        <time>2011-06-07T10:16:20Z</time>
      </trkpt>
      <trkpt lat="45.64774" lon="5.98769">
        <ele>1318.5</ele>
        <time>2011-06-07T10:16:22Z</time>
      </trkpt>
      <trkpt lat="45.64768" lon="5.98773">
        <ele>1318.2</ele>
        <time>2011-06-07T10:16:24Z</time>
      </trkpt>
      <trkpt lat="45.64759" lon="5.98784">
        <ele>1316.9</ele>
        <time>2011-06-07T10:16:29Z</time>
      </trkpt>
      <trkpt lat="45.64755" lon="5.9879">
        <ele>1316</ele>
        <time>2011-06-07T10:16:31Z</time>
      </trkpt>
      <trkpt lat="45.64752" lon="5.98796">
        <ele>1315.1</ele>
        <time>2011-06-07T10:16:33Z</time>
      </trkpt>
      <trkpt lat="45.6475" lon="5.98799">
        <ele>1314.7</ele>
        <time>2011-06-07T10:16:34Z</time>
      </trkpt>
      <trkpt lat="45.64745" lon="5.98806">
        <ele>1314.3</ele>
        <time>2011-06-07T10:16:37Z</time>
      </trkpt>
      <trkpt lat="45.64737" lon="5.98818">
        <ele>1313.8</ele>
        <time>2011-06-07T10:16:42Z</time>
      </trkpt>
      <trkpt lat="45.64735" lon="5.98824">
        <ele>1313.3</ele>
        <time>2011-06-07T10:16:44Z</time>
      </trkpt>
      <trkpt lat="45.64731" lon="5.98835">
        <ele>1312.6</ele>
        <time>2011-06-07T10:16:47Z</time>
      </trkpt>
      <trkpt lat="45.6473" lon="5.9884">
        <ele>1312.4</ele>
        <time>2011-06-07T10:16:49Z</time>
      </trkpt>
      <trkpt lat="45.64725" lon="5.98852">
        <ele>1311.7</ele>
        <time>2011-06-07T10:16:52Z</time>
      </trkpt>
      <trkpt lat="45.64722" lon="5.9886">
        <ele>1311.1</ele>
        <time>2011-06-07T10:16:55Z</time>
      </trkpt>
      <trkpt lat="45.6472" lon="5.98867">
        <ele>1311.7</ele>
        <time>2011-06-07T10:16:57Z</time>
      </trkpt>
      <trkpt lat="45.64715" lon="5.98883">
        <ele>1313.3</ele>
        <time>2011-06-07T10:17:02Z</time>
      </trkpt>
      <trkpt lat="45.64713" lon="5.98886">
        <ele>1313.6</ele>
        <time>2011-06-07T10:17:03Z</time>
      </trkpt>
      <trkpt lat="45.64712" lon="5.989">
        <ele>1314.7</ele>
        <time>2011-06-07T10:17:07Z</time>
      </trkpt>
      <trkpt lat="45.64713" lon="5.98915">
        <ele>1315.2</ele>
        <time>2011-06-07T10:17:11Z</time>
      </trkpt>
      <trkpt lat="45.64715" lon="5.98923">
        <ele>1315.5</ele>
        <time>2011-06-07T10:17:14Z</time>
      </trkpt>
      <trkpt lat="45.64715" lon="5.98931">
        <ele>1315.8</ele>
        <time>2011-06-07T10:17:16Z</time>
      </trkpt>
      <trkpt lat="45.64714" lon="5.98945">
        <ele>1316.9</ele>
        <time>2011-06-07T10:17:20Z</time>
      </trkpt>
      <trkpt lat="45.64709" lon="5.98957">
        <ele>1316.9</ele>
        <time>2011-06-07T10:17:24Z</time>
      </trkpt>
      <trkpt lat="45.64703" lon="5.98974">
        <ele>1317.1</ele>
        <time>2011-06-07T10:17:29Z</time>
      </trkpt>
      <trkpt lat="45.64702" lon="5.98979">
        <ele>1317.4</ele>
        <time>2011-06-07T10:17:31Z</time>
      </trkpt>
      <trkpt lat="45.64697" lon="5.98992">
        <ele>1318.2</ele>
        <time>2011-06-07T10:17:35Z</time>
      </trkpt>
      <trkpt lat="45.64692" lon="5.99007">
        <ele>1318.8</ele>
        <time>2011-06-07T10:17:39Z</time>
      </trkpt>
      <trkpt lat="45.64691" lon="5.99009">
        <ele>1318.7</ele>
        <time>2011-06-07T10:17:40Z</time>
      </trkpt>
      <trkpt lat="45.64678" lon="5.99015">
        <ele>1318.4</ele>
        <time>2011-06-07T10:17:46Z</time>
      </trkpt>
      <trkpt lat="45.64672" lon="5.99018">
        <ele>1318.1</ele>
        <time>2011-06-07T10:17:48Z</time>
      </trkpt>
      <trkpt lat="45.64665" lon="5.99023">
        <ele>1317.5</ele>
        <time>2011-06-07T10:17:51Z</time>
      </trkpt>
      <trkpt lat="45.64658" lon="5.99032">
        <ele>1316.9</ele>
        <time>2011-06-07T10:17:55Z</time>
      </trkpt>
      <trkpt lat="45.64656" lon="5.99033">
        <ele>1316.9</ele>
        <time>2011-06-07T10:17:56Z</time>
      </trkpt>
      <trkpt lat="45.64652" lon="5.99038">
        <ele>1316.6</ele>
        <time>2011-06-07T10:17:58Z</time>
      </trkpt>
      <trkpt lat="45.64647" lon="5.9904">
        <ele>1316.4</ele>
        <time>2011-06-07T10:18:00Z</time>
      </trkpt>
      <trkpt lat="45.64639" lon="5.99046">
        <ele>1315.7</ele>
        <time>2011-06-07T10:18:04Z</time>
      </trkpt>
      <trkpt lat="45.64633" lon="5.99044">
        <ele>1315.6</ele>
        <time>2011-06-07T10:18:06Z</time>
      </trkpt>
      <trkpt lat="45.64596" lon="5.99034">
        <ele>1315.2</ele>
        <time>2011-06-07T10:18:21Z</time>
      </trkpt>
      <trkpt lat="45.6459" lon="5.99035">
        <ele>1314.4</ele>
        <time>2011-06-07T10:18:24Z</time>
      </trkpt>
      <trkpt lat="45.64584" lon="5.99034">
        <ele>1313.9</ele>
        <time>2011-06-07T10:18:26Z</time>
      </trkpt>
      <trkpt lat="45.64568" lon="5.99036">
        <ele>1313.1</ele>
        <time>2011-06-07T10:18:33Z</time>
      </trkpt>
      <trkpt lat="45.64563" lon="5.99041">
        <ele>1312.8</ele>
        <time>2011-06-07T10:18:35Z</time>
      </trkpt>
      <trkpt lat="45.64555" lon="5.99046">
        <ele>1312.3</ele>
        <time>2011-06-07T10:18:38Z</time>
      </trkpt>
      <trkpt lat="45.64548" lon="5.99044">
        <ele>1311.9</ele>
        <time>2011-06-07T10:18:41Z</time>
      </trkpt>
      <trkpt lat="45.64536" lon="5.99044">
        <ele>1311</ele>
        <time>2011-06-07T10:18:46Z</time>
      </trkpt>
      <trkpt lat="45.6452" lon="5.99046">
        <ele>1309.9</ele>
        <time>2011-06-07T10:18:52Z</time>
      </trkpt>
      <trkpt lat="45.64517" lon="5.99049">
        <ele>1309.6</ele>
        <time>2011-06-07T10:18:54Z</time>
      </trkpt>
      <trkpt lat="45.64505" lon="5.99056">
        <ele>1308.3</ele>
        <time>2011-06-07T10:18:59Z</time>
      </trkpt>
      <trkpt lat="45.64501" lon="5.99058">
        <ele>1307.8</ele>
        <time>2011-06-07T10:19:01Z</time>
      </trkpt>
      <trkpt lat="45.64489" lon="5.99063">
        <ele>1307.3</ele>
        <time>2011-06-07T10:19:06Z</time>
      </trkpt>
      <trkpt lat="45.64481" lon="5.99063">
        <ele>1307.3</ele>
        <time>2011-06-07T10:19:09Z</time>
      </trkpt>
      <trkpt lat="45.64479" lon="5.99064">
        <ele>1307.2</ele>
        <time>2011-06-07T10:19:10Z</time>
      </trkpt>
      <trkpt lat="45.64467" lon="5.99071">
        <ele>1306.1</ele>
        <time>2011-06-07T10:19:15Z</time>
      </trkpt>
      <trkpt lat="45.64461" lon="5.99072">
        <ele>1305.7</ele>
        <time>2011-06-07T10:19:18Z</time>
      </trkpt>
      <trkpt lat="45.6445" lon="5.99079">
        <ele>1304.5</ele>
        <time>2011-06-07T10:19:22Z</time>
      </trkpt>
      <trkpt lat="45.64445" lon="5.99083">
        <ele>1304</ele>
        <time>2011-06-07T10:19:25Z</time>
      </trkpt>
      <trkpt lat="45.64437" lon="5.9909">
        <ele>1303.1</ele>
        <time>2011-06-07T10:19:28Z</time>
      </trkpt>
      <trkpt lat="45.6443" lon="5.99095">
        <ele>1302.3</ele>
        <time>2011-06-07T10:19:31Z</time>
      </trkpt>
      <trkpt lat="45.64424" lon="5.99098">
        <ele>1301.8</ele>
        <time>2011-06-07T10:19:34Z</time>
      </trkpt>
      <trkpt lat="45.64418" lon="5.99104">
        <ele>1301.3</ele>
        <time>2011-06-07T10:19:37Z</time>
      </trkpt>
      <trkpt lat="45.64411" lon="5.99106">
        <ele>1300.9</ele>
        <time>2011-06-07T10:19:40Z</time>
      </trkpt>
      <trkpt lat="45.64406" lon="5.99112">
        <ele>1300.5</ele>
        <time>2011-06-07T10:19:43Z</time>
      </trkpt>
      <trkpt lat="45.64399" lon="5.99117">
        <ele>1299.8</ele>
        <time>2011-06-07T10:19:46Z</time>
      </trkpt>
      <trkpt lat="45.64393" lon="5.99125">
        <ele>1298.7</ele>
        <time>2011-06-07T10:19:49Z</time>
      </trkpt>
      <trkpt lat="45.64387" lon="5.99126">
        <ele>1298.3</ele>
        <time>2011-06-07T10:19:51Z</time>
      </trkpt>
      <trkpt lat="45.64378" lon="5.99122">
        <ele>1298.3</ele>
        <time>2011-06-07T10:19:55Z</time>
      </trkpt>
      <trkpt lat="45.6437" lon="5.99116">
        <ele>1298.6</ele>
        <time>2011-06-07T10:19:58Z</time>
      </trkpt>
      <trkpt lat="45.64366" lon="5.99111">
        <ele>1299.2</ele>
        <time>2011-06-07T10:20:01Z</time>
      </trkpt>
      <trkpt lat="45.64357" lon="5.99098">
        <ele>1298.9</ele>
        <time>2011-06-07T10:20:06Z</time>
      </trkpt>
      <trkpt lat="45.64354" lon="5.99088">
        <ele>1299</ele>
        <time>2011-06-07T10:20:09Z</time>
      </trkpt>
      <trkpt lat="45.64349" lon="5.9908">
        <ele>1298.8</ele>
        <time>2011-06-07T10:20:12Z</time>
      </trkpt>
      <trkpt lat="45.64348" lon="5.99074">
        <ele>1298.7</ele>
        <time>2011-06-07T10:20:14Z</time>
      </trkpt>
      <trkpt lat="45.6435" lon="5.99061">
        <ele>1299.1</ele>
        <time>2011-06-07T10:20:17Z</time>
      </trkpt>
      <trkpt lat="45.64352" lon="5.99054">
        <ele>1299.3</ele>
        <time>2011-06-07T10:20:20Z</time>
      </trkpt>
      <trkpt lat="45.64352" lon="5.99052">
        <ele>1299.4</ele>
        <time>2011-06-07T10:20:20Z</time>
      </trkpt>
      <trkpt lat="45.64354" lon="5.99034">
        <ele>1299.5</ele>
        <time>2011-06-07T10:20:25Z</time>
      </trkpt>
      <trkpt lat="45.64352" lon="5.99016">
        <ele>1299.7</ele>
        <time>2011-06-07T10:20:30Z</time>
      </trkpt>
      <trkpt lat="45.64339" lon="5.99006">
        <ele>1299.2</ele>
        <time>2011-06-07T10:20:36Z</time>
      </trkpt>
      <trkpt lat="45.6433" lon="5.99">
        <ele>1298.8</ele>
        <time>2011-06-07T10:20:40Z</time>
      </trkpt>
      <trkpt lat="45.64324" lon="5.98996">
        <ele>1298.6</ele>
        <time>2011-06-07T10:20:43Z</time>
      </trkpt>
      <trkpt lat="45.6432" lon="5.99">
        <ele>1298</ele>
        <time>2011-06-07T10:20:45Z</time>
      </trkpt>
      <trkpt lat="45.64315" lon="5.98999">
        <ele>1297.7</ele>
        <time>2011-06-07T10:20:47Z</time>
      </trkpt>
      <trkpt lat="45.64306" lon="5.98993">
        <ele>1297.3</ele>
        <time>2011-06-07T10:20:50Z</time>
      </trkpt>
      <trkpt lat="45.64297" lon="5.98984">
        <ele>1296.8</ele>
        <time>2011-06-07T10:20:55Z</time>
      </trkpt>
      <trkpt lat="45.64292" lon="5.98979">
        <ele>1296.7</ele>
        <time>2011-06-07T10:20:57Z</time>
      </trkpt>
      <trkpt lat="45.64287" lon="5.9898">
        <ele>1296.2</ele>
        <time>2011-06-07T10:20:59Z</time>
      </trkpt>
      <trkpt lat="45.64281" lon="5.98976">
        <ele>1296</ele>
        <time>2011-06-07T10:21:02Z</time>
      </trkpt>
      <trkpt lat="45.64275" lon="5.9897">
        <ele>1296</ele>
        <time>2011-06-07T10:21:05Z</time>
      </trkpt>
      <trkpt lat="45.64272" lon="5.98965">
        <ele>1295.9</ele>
        <time>2011-06-07T10:21:07Z</time>
      </trkpt>
      <trkpt lat="45.64266" lon="5.98959">
        <ele>1295.5</ele>
        <time>2011-06-07T10:21:10Z</time>
      </trkpt>
      <trkpt lat="45.64262" lon="5.98956">
        <ele>1295</ele>
        <time>2011-06-07T10:21:12Z</time>
      </trkpt>
      <trkpt lat="45.64257" lon="5.98962">
        <ele>1294</ele>
        <time>2011-06-07T10:21:14Z</time>
      </trkpt>
      <trkpt lat="45.64256" lon="5.9897">
        <ele>1293.7</ele>
        <time>2011-06-07T10:21:16Z</time>
      </trkpt>
      <trkpt lat="45.64254" lon="5.98978">
        <ele>1293</ele>
        <time>2011-06-07T10:21:19Z</time>
      </trkpt>
      <trkpt lat="45.64249" lon="5.98983">
        <ele>1291.9</ele>
        <time>2011-06-07T10:21:21Z</time>
      </trkpt>
      <trkpt lat="45.64246" lon="5.98988">
        <ele>1290.7</ele>
        <time>2011-06-07T10:21:23Z</time>
      </trkpt>
      <trkpt lat="45.64243" lon="5.98999">
        <ele>1289.1</ele>
        <time>2011-06-07T10:21:26Z</time>
      </trkpt>
      <trkpt lat="45.6424" lon="5.99008">
        <ele>1287.8</ele>
        <time>2011-06-07T10:21:29Z</time>
      </trkpt>
      <trkpt lat="45.64239" lon="5.99012">
        <ele>1287.2</ele>
        <time>2011-06-07T10:21:30Z</time>
      </trkpt>
      <trkpt lat="45.64244" lon="5.9907">
        <ele>1284.5</ele>
        <time>2011-06-07T10:21:47Z</time>
      </trkpt>
      <trkpt lat="45.64245" lon="5.99078">
        <ele>1283.7</ele>
        <time>2011-06-07T10:21:49Z</time>
      </trkpt>
      <trkpt lat="45.64246" lon="5.99092">
        <ele>1282.8</ele>
        <time>2011-06-07T10:21:53Z</time>
      </trkpt>
      <trkpt lat="45.64251" lon="5.99114">
        <ele>1282</ele>
        <time>2011-06-07T10:21:59Z</time>
      </trkpt>
      <trkpt lat="45.64254" lon="5.99127">
        <ele>1281.8</ele>
        <time>2011-06-07T10:22:03Z</time>
      </trkpt>
      <trkpt lat="45.64254" lon="5.99135">
        <ele>1281.5</ele>
        <time>2011-06-07T10:22:05Z</time>
      </trkpt>
      <trkpt lat="45.64254" lon="5.99149">
        <ele>1280.9</ele>
        <time>2011-06-07T10:22:09Z</time>
      </trkpt>
      <trkpt lat="45.64257" lon="5.99156">
        <ele>1280.9</ele>
        <time>2011-06-07T10:22:12Z</time>
      </trkpt>
      <trkpt lat="45.64254" lon="5.99171">
        <ele>1280.1</ele>
        <time>2011-06-07T10:22:16Z</time>
      </trkpt>
      <trkpt lat="45.64252" lon="5.99178">
        <ele>1279.8</ele>
        <time>2011-06-07T10:22:18Z</time>
      </trkpt>
      <trkpt lat="45.64247" lon="5.99198">
        <ele>1278.8</ele>
        <time>2011-06-07T10:22:24Z</time>
      </trkpt>
      <trkpt lat="45.6424" lon="5.99222">
        <ele>1277.7</ele>
        <time>2011-06-07T10:22:31Z</time>
      </trkpt>
      <trkpt lat="45.64237" lon="5.99235">
        <ele>1277.3</ele>
        <time>2011-06-07T10:22:35Z</time>
      </trkpt>
      <trkpt lat="45.64233" lon="5.99249">
        <ele>1276.8</ele>
        <time>2011-06-07T10:22:39Z</time>
      </trkpt>
      <trkpt lat="45.6423" lon="5.99262">
        <ele>1276.1</ele>
        <time>2011-06-07T10:22:43Z</time>
      </trkpt>
      <trkpt lat="45.64225" lon="5.99281">
        <ele>1275.1</ele>
        <time>2011-06-07T10:22:49Z</time>
      </trkpt>
      <trkpt lat="45.64222" lon="5.99294">
        <ele>1274.4</ele>
        <time>2011-06-07T10:22:53Z</time>
      </trkpt>
      <trkpt lat="45.6422" lon="5.99301">
        <ele>1274.2</ele>
        <time>2011-06-07T10:22:55Z</time>
      </trkpt>
      <trkpt lat="45.64217" lon="5.99311">
        <ele>1274</ele>
        <time>2011-06-07T10:22:58Z</time>
      </trkpt>
      <trkpt lat="45.64216" lon="5.99334">
        <ele>1273.2</ele>
        <time>2011-06-07T10:23:04Z</time>
      </trkpt>
      <trkpt lat="45.64215" lon="5.99345">
        <ele>1272.8</ele>
        <time>2011-06-07T10:23:07Z</time>
      </trkpt>
      <trkpt lat="45.64214" lon="5.99359">
        <ele>1272.4</ele>
        <time>2011-06-07T10:23:11Z</time>
      </trkpt>
      <trkpt lat="45.64218" lon="5.99374">
        <ele>1271.7</ele>
        <time>2011-06-07T10:23:16Z</time>
      </trkpt>
      <trkpt lat="45.6422" lon="5.99387">
        <ele>1271.2</ele>
        <time>2011-06-07T10:23:19Z</time>
      </trkpt>
      <trkpt lat="45.64216" lon="5.99399">
        <ele>1270.8</ele>
        <time>2011-06-07T10:23:23Z</time>
      </trkpt>
      <trkpt lat="45.64222" lon="5.99409">
        <ele>1270.3</ele>
        <time>2011-06-07T10:23:27Z</time>
      </trkpt>
      <trkpt lat="45.64225" lon="5.99426">
        <ele>1269.4</ele>
        <time>2011-06-07T10:23:32Z</time>
      </trkpt>
      <trkpt lat="45.64239" lon="5.99441">
        <ele>1268.3</ele>
        <time>2011-06-07T10:23:39Z</time>
      </trkpt>
      <trkpt lat="45.64245" lon="5.99449">
        <ele>1267.6</ele>
        <time>2011-06-07T10:23:42Z</time>
      </trkpt>
      <trkpt lat="45.64269" lon="5.99474">
        <ele>1265.2</ele>
        <time>2011-06-07T10:23:54Z</time>
      </trkpt>
      <trkpt lat="45.6429" lon="5.99498">
        <ele>1263.2</ele>
        <time>2011-06-07T10:24:04Z</time>
      </trkpt>
      <trkpt lat="45.6431" lon="5.99522">
        <ele>1261.5</ele>
        <time>2011-06-07T10:24:15Z</time>
      </trkpt>
      <trkpt lat="45.64323" lon="5.99537">
        <ele>1259.8</ele>
        <time>2011-06-07T10:24:22Z</time>
      </trkpt>
      <trkpt lat="45.64336" lon="5.99553">
        <ele>1257.6</ele>
        <time>2011-06-07T10:24:29Z</time>
      </trkpt>
      <trkpt lat="45.64339" lon="5.99558">
        <ele>1257.3</ele>
        <time>2011-06-07T10:24:30Z</time>
      </trkpt>
      <trkpt lat="45.64369" lon="5.99592">
        <ele>1256.9</ele>
        <time>2011-06-07T10:24:46Z</time>
      </trkpt>
      <trkpt lat="45.64379" lon="5.99606">
        <ele>1256.1</ele>
        <time>2011-06-07T10:24:51Z</time>
      </trkpt>
      <trkpt lat="45.64391" lon="5.99617">
        <ele>1255.9</ele>
        <time>2011-06-07T10:24:57Z</time>
      </trkpt>
      <trkpt lat="45.64402" lon="5.99629">
        <ele>1256</ele>
        <time>2011-06-07T10:25:03Z</time>
      </trkpt>
      <trkpt lat="45.64413" lon="5.99643">
        <ele>1255.6</ele>
        <time>2011-06-07T10:25:08Z</time>
      </trkpt>
      <trkpt lat="45.64419" lon="5.99655">
        <ele>1255.2</ele>
        <time>2011-06-07T10:25:13Z</time>
      </trkpt>
      <trkpt lat="45.64435" lon="5.99679">
        <ele>1255.6</ele>
        <time>2011-06-07T10:25:22Z</time>
      </trkpt>
      <trkpt lat="45.64442" lon="5.99705">
        <ele>1254.1</ele>
        <time>2011-06-07T10:25:30Z</time>
      </trkpt>
      <trkpt lat="45.64451" lon="5.99722">
        <ele>1252.8</ele>
        <time>2011-06-07T10:25:36Z</time>
      </trkpt>
      <trkpt lat="45.64455" lon="5.99735">
        <ele>1252.3</ele>
        <time>2011-06-07T10:25:40Z</time>
      </trkpt>
      <trkpt lat="45.64466" lon="5.99757">
        <ele>1251.9</ele>
        <time>2011-06-07T10:25:47Z</time>
      </trkpt>
      <trkpt lat="45.64469" lon="5.99774">
        <ele>1251.9</ele>
        <time>2011-06-07T10:25:52Z</time>
      </trkpt>
      <trkpt lat="45.64474" lon="5.99799">
        <ele>1251.2</ele>
        <time>2011-06-07T10:25:59Z</time>
      </trkpt>
      <trkpt lat="45.64483" lon="5.99823">
        <ele>1250.6</ele>
        <time>2011-06-07T10:26:07Z</time>
      </trkpt>
      <trkpt lat="45.6449" lon="5.99843">
        <ele>1250.3</ele>
        <time>2011-06-07T10:26:13Z</time>
      </trkpt>
      <trkpt lat="45.64493" lon="5.99863">
        <ele>1249.7</ele>
        <time>2011-06-07T10:26:19Z</time>
      </trkpt>
      <trkpt lat="45.64499" lon="5.99889">
        <ele>1248.9</ele>
        <time>2011-06-07T10:26:27Z</time>
      </trkpt>
      <trkpt lat="45.64502" lon="5.9991">
        <ele>1248.4</ele>
        <time>2011-06-07T10:26:32Z</time>
      </trkpt>
      <trkpt lat="45.64501" lon="5.99913">
        <ele>1248.2</ele>
        <time>2011-06-07T10:26:33Z</time>
      </trkpt>
      <trkpt lat="45.64506" lon="5.99943">
        <ele>1245.6</ele>
        <time>2011-06-07T10:26:42Z</time>
      </trkpt>
      <trkpt lat="45.64509" lon="5.99964">
        <ele>1244.7</ele>
        <time>2011-06-07T10:26:48Z</time>
      </trkpt>
      <trkpt lat="45.64513" lon="5.99982">
        <ele>1244.7</ele>
        <time>2011-06-07T10:26:53Z</time>
      </trkpt>
      <trkpt lat="45.6452" lon="6">
        <ele>1245.2</ele>
        <time>2011-06-07T10:26:59Z</time>
      </trkpt>
      <trkpt lat="45.64519" lon="6.00006">
        <ele>1244.9</ele>
        <time>2011-06-07T10:27:01Z</time>
      </trkpt>
      <trkpt lat="45.64525" lon="6.00034">
        <ele>1244.3</ele>
        <time>2011-06-07T10:27:09Z</time>
      </trkpt>
      <trkpt lat="45.64539" lon="6.00076">
        <ele>1244</ele>
        <time>2011-06-07T10:27:22Z</time>
      </trkpt>
      <trkpt lat="45.64537" lon="6.00086">
        <ele>1243.6</ele>
        <time>2011-06-07T10:27:25Z</time>
      </trkpt>
      <trkpt lat="45.64531" lon="6.00112">
        <ele>1242.2</ele>
        <time>2011-06-07T10:27:33Z</time>
      </trkpt>
      <trkpt lat="45.64533" lon="6.00148">
        <ele>1240.8</ele>
        <time>2011-06-07T10:27:43Z</time>
      </trkpt>
      <trkpt lat="45.64541" lon="6.00171">
        <ele>1240.1</ele>
        <time>2011-06-07T10:27:50Z</time>
      </trkpt>
      <trkpt lat="45.64552" lon="6.00213">
        <ele>1238</ele>
        <time>2011-06-07T10:28:02Z</time>
      </trkpt>
      <trkpt lat="45.64561" lon="6.00229">
        <ele>1237.9</ele>
        <time>2011-06-07T10:28:08Z</time>
      </trkpt>
      <trkpt lat="45.64573" lon="6.00252">
        <ele>1237.9</ele>
        <time>2011-06-07T10:28:16Z</time>
      </trkpt>
      <trkpt lat="45.64579" lon="6.00262">
        <ele>1237</ele>
        <time>2011-06-07T10:28:20Z</time>
      </trkpt>
      <trkpt lat="45.646" lon="6.003">
        <ele>1235.8</ele>
        <time>2011-06-07T10:28:33Z</time>
      </trkpt>
      <trkpt lat="45.64611" lon="6.00327">
        <ele>1234.3</ele>
        <time>2011-06-07T10:28:42Z</time>
      </trkpt>
      <trkpt lat="45.64617" lon="6.00358">
        <ele>1233.5</ele>
        <time>2011-06-07T10:28:51Z</time>
      </trkpt>
      <trkpt lat="45.64618" lon="6.00393">
        <ele>1233.2</ele>
        <time>2011-06-07T10:29:01Z</time>
      </trkpt>
      <trkpt lat="45.64619" lon="6.0041">
        <ele>1233.1</ele>
        <time>2011-06-07T10:29:06Z</time>
      </trkpt>
      <trkpt lat="45.64618" lon="6.00431">
        <ele>1233</ele>
        <time>2011-06-07T10:29:11Z</time>
      </trkpt>
      <trkpt lat="45.64616" lon="6.00454">
        <ele>1233</ele>
        <time>2011-06-07T10:29:18Z</time>
      </trkpt>
      <trkpt lat="45.64621" lon="6.00471">
        <ele>1233</ele>
        <time>2011-06-07T10:29:23Z</time>
      </trkpt>
      <trkpt lat="45.64636" lon="6.0052">
        <ele>1233</ele>
        <time>2011-06-07T10:29:38Z</time>
      </trkpt>
      <trkpt lat="45.64648" lon="6.00546">
        <ele>1232.7</ele>
        <time>2011-06-07T10:29:47Z</time>
      </trkpt>
      <trkpt lat="45.64654" lon="6.0056">
        <ele>1232.5</ele>
        <time>2011-06-07T10:29:52Z</time>
      </trkpt>
      <trkpt lat="45.64659" lon="6.00578">
        <ele>1232.3</ele>
        <time>2011-06-07T10:29:57Z</time>
      </trkpt>
      <trkpt lat="45.64665" lon="6.00628">
        <ele>1231</ele>
        <time>2011-06-07T10:30:11Z</time>
      </trkpt>
      <trkpt lat="45.64674" lon="6.00669">
        <ele>1230.7</ele>
        <time>2011-06-07T10:30:23Z</time>
      </trkpt>
      <trkpt lat="45.64669" lon="6.00686">
        <ele>1230.3</ele>
        <time>2011-06-07T10:30:28Z</time>
      </trkpt>
      <trkpt lat="45.64673" lon="6.00708">
        <ele>1230</ele>
        <time>2011-06-07T10:30:35Z</time>
      </trkpt>
      <trkpt lat="45.64677" lon="6.0073">
        <ele>1230</ele>
        <time>2011-06-07T10:30:41Z</time>
      </trkpt>
      <trkpt lat="45.64687" lon="6.00768">
        <ele>1230</ele>
        <time>2011-06-07T10:30:52Z</time>
      </trkpt>
      <trkpt lat="45.6469" lon="6.00776">
        <ele>1230</ele>
        <time>2011-06-07T10:30:55Z</time>
      </trkpt>
      <trkpt lat="45.64694" lon="6.00799">
        <ele>1230</ele>
        <time>2011-06-07T10:31:02Z</time>
      </trkpt>
      <trkpt lat="45.64697" lon="6.00839">
        <ele>1230</ele>
        <time>2011-06-07T10:31:13Z</time>
      </trkpt>
      <trkpt lat="45.64694" lon="6.00863">
        <ele>1230.2</ele>
        <time>2011-06-07T10:31:20Z</time>
      </trkpt>
      <trkpt lat="45.64693" lon="6.00886">
        <ele>1231</ele>
        <time>2011-06-07T10:31:26Z</time>
      </trkpt>
      <trkpt lat="45.64668" lon="6.00948">
        <ele>1232.9</ele>
        <time>2011-06-07T10:31:46Z</time>
      </trkpt>
      <trkpt lat="45.64664" lon="6.00952">
        <ele>1232.1</ele>
        <time>2011-06-07T10:31:48Z</time>
      </trkpt>
      <trkpt lat="45.64654" lon="6.00958">
        <ele>1230.2</ele>
        <time>2011-06-07T10:31:52Z</time>
      </trkpt>
      <trkpt lat="45.64644" lon="6.00964">
        <ele>1228.3</ele>
        <time>2011-06-07T10:31:57Z</time>
      </trkpt>
      <trkpt lat="45.6464" lon="6.00984">
        <ele>1225.8</ele>
        <time>2011-06-07T10:32:03Z</time>
      </trkpt>
      <trkpt lat="45.64652" lon="6.01003">
        <ele>1225.5</ele>
        <time>2011-06-07T10:32:10Z</time>
      </trkpt>
      <trkpt lat="45.64664" lon="6.0103">
        <ele>1225.2</ele>
        <time>2011-06-07T10:32:19Z</time>
      </trkpt>
      <trkpt lat="45.64668" lon="6.01036">
        <ele>1224.9</ele>
        <time>2011-06-07T10:32:21Z</time>
      </trkpt>
      <trkpt lat="45.64679" lon="6.01052">
        <ele>1224.2</ele>
        <time>2011-06-07T10:32:27Z</time>
      </trkpt>
      <trkpt lat="45.64688" lon="6.01073">
        <ele>1223.3</ele>
        <time>2011-06-07T10:32:34Z</time>
      </trkpt>
      <trkpt lat="45.64691" lon="6.01089">
        <ele>1222.2</ele>
        <time>2011-06-07T10:32:39Z</time>
      </trkpt>
      <trkpt lat="45.6469" lon="6.01092">
        <ele>1221.8</ele>
        <time>2011-06-07T10:32:40Z</time>
      </trkpt>
      <trkpt lat="45.64683" lon="6.01115">
        <ele>1219.1</ele>
        <time>2011-06-07T10:32:47Z</time>
      </trkpt>
      <trkpt lat="45.64683" lon="6.01125">
        <ele>1218.3</ele>
        <time>2011-06-07T10:32:50Z</time>
      </trkpt>
      <trkpt lat="45.64692" lon="6.01158">
        <ele>1216.7</ele>
        <time>2011-06-07T10:33:00Z</time>
      </trkpt>
      <trkpt lat="45.64699" lon="6.01174">
        <ele>1215.8</ele>
        <time>2011-06-07T10:33:05Z</time>
      </trkpt>
      <trkpt lat="45.64703" lon="6.01188">
        <ele>1214.7</ele>
        <time>2011-06-07T10:33:09Z</time>
      </trkpt>
      <trkpt lat="45.6471" lon="6.01205">
        <ele>1213.4</ele>
        <time>2011-06-07T10:33:15Z</time>
      </trkpt>
      <trkpt lat="45.64713" lon="6.01211">
        <ele>1213</ele>
        <time>2011-06-07T10:33:17Z</time>
      </trkpt>
      <trkpt lat="45.64723" lon="6.01238">
        <ele>1211.4</ele>
        <time>2011-06-07T10:33:25Z</time>
      </trkpt>
      <trkpt lat="45.64739" lon="6.0127">
        <ele>1210.1</ele>
        <time>2011-06-07T10:33:36Z</time>
      </trkpt>
      <trkpt lat="45.64747" lon="6.01284">
        <ele>1210.1</ele>
        <time>2011-06-07T10:33:41Z</time>
      </trkpt>
      <trkpt lat="45.64755" lon="6.01302">
        <ele>1210</ele>
        <time>2011-06-07T10:33:48Z</time>
      </trkpt>
      <trkpt lat="45.6476" lon="6.01329">
        <ele>1208.7</ele>
        <time>2011-06-07T10:33:55Z</time>
      </trkpt>
      <trkpt lat="45.64762" lon="6.01361">
        <ele>1205.3</ele>
        <time>2011-06-07T10:34:04Z</time>
      </trkpt>
      <trkpt lat="45.64769" lon="6.01378">
        <ele>1203.6</ele>
        <time>2011-06-07T10:34:10Z</time>
      </trkpt>
      <trkpt lat="45.64774" lon="6.0139">
        <ele>1202.6</ele>
        <time>2011-06-07T10:34:14Z</time>
      </trkpt>
      <trkpt lat="45.64778" lon="6.01405">
        <ele>1202.4</ele>
        <time>2011-06-07T10:34:18Z</time>
      </trkpt>
      <trkpt lat="45.64788" lon="6.01421">
        <ele>1202.5</ele>
        <time>2011-06-07T10:34:24Z</time>
      </trkpt>
      <trkpt lat="45.64791" lon="6.01439">
        <ele>1201.7</ele>
        <time>2011-06-07T10:34:29Z</time>
      </trkpt>
      <trkpt lat="45.64792" lon="6.01456">
        <ele>1201.1</ele>
        <time>2011-06-07T10:34:34Z</time>
      </trkpt>
      <trkpt lat="45.64797" lon="6.01472">
        <ele>1200.7</ele>
        <time>2011-06-07T10:34:39Z</time>
      </trkpt>
      <trkpt lat="45.648" lon="6.01491">
        <ele>1200.2</ele>
        <time>2011-06-07T10:34:44Z</time>
      </trkpt>
      <trkpt lat="45.64805" lon="6.01507">
        <ele>1199.7</ele>
        <time>2011-06-07T10:34:49Z</time>
      </trkpt>
      <trkpt lat="45.64812" lon="6.01525">
        <ele>1199.3</ele>
        <time>2011-06-07T10:34:55Z</time>
      </trkpt>
      <trkpt lat="45.64811" lon="6.01544">
        <ele>1199.2</ele>
        <time>2011-06-07T10:35:00Z</time>
      </trkpt>
      <trkpt lat="45.64802" lon="6.01556">
        <ele>1198.9</ele>
        <time>2011-06-07T10:35:05Z</time>
      </trkpt>
      <trkpt lat="45.64796" lon="6.01555">
        <ele>1198.7</ele>
        <time>2011-06-07T10:35:07Z</time>
      </trkpt>
      <trkpt lat="45.64782" lon="6.01554">
        <ele>1198.1</ele>
        <time>2011-06-07T10:35:13Z</time>
      </trkpt>
      <trkpt lat="45.64768" lon="6.01553">
        <ele>1197.2</ele>
        <time>2011-06-07T10:35:19Z</time>
      </trkpt>
      <trkpt lat="45.64753" lon="6.01556">
        <ele>1196.2</ele>
        <time>2011-06-07T10:35:25Z</time>
      </trkpt>
      <trkpt lat="45.64745" lon="6.01556">
        <ele>1194.8</ele>
        <time>2011-06-07T10:35:28Z</time>
      </trkpt>
      <trkpt lat="45.6474" lon="6.01552">
        <ele>1193.7</ele>
        <time>2011-06-07T10:35:30Z</time>
      </trkpt>
      <trkpt lat="45.64722" lon="6.01555">
        <ele>1190</ele>
        <time>2011-06-07T10:35:37Z</time>
      </trkpt>
      <trkpt lat="45.64713" lon="6.01547">
        <ele>1188.6</ele>
        <time>2011-06-07T10:35:42Z</time>
      </trkpt>
      <trkpt lat="45.6471" lon="6.01548">
        <ele>1188.1</ele>
        <time>2011-06-07T10:35:43Z</time>
      </trkpt>
      <trkpt lat="45.64685" lon="6.0154">
        <ele>1185.1</ele>
        <time>2011-06-07T10:35:53Z</time>
      </trkpt>
      <trkpt lat="45.64676" lon="6.01531">
        <ele>1185.2</ele>
        <time>2011-06-07T10:35:58Z</time>
      </trkpt>
      <trkpt lat="45.64669" lon="6.01525">
        <ele>1185.4</ele>
        <time>2011-06-07T10:36:01Z</time>
      </trkpt>
      <trkpt lat="45.64658" lon="6.01515">
        <ele>1184.8</ele>
        <time>2011-06-07T10:36:06Z</time>
      </trkpt>
      <trkpt lat="45.64639" lon="6.01497">
        <ele>1184.1</ele>
        <time>2011-06-07T10:36:15Z</time>
      </trkpt>
      <trkpt lat="45.64628" lon="6.01487">
        <ele>1182.9</ele>
        <time>2011-06-07T10:36:20Z</time>
      </trkpt>
      <trkpt lat="45.64617" lon="6.01469">
        <ele>1181.7</ele>
        <time>2011-06-07T10:36:27Z</time>
      </trkpt>
      <trkpt lat="45.64614" lon="6.01458">
        <ele>1180.9</ele>
        <time>2011-06-07T10:36:30Z</time>
      </trkpt>
      <trkpt lat="45.6461" lon="6.01424">
        <ele>1183.5</ele>
        <time>2011-06-07T10:36:40Z</time>
      </trkpt>
      <trkpt lat="45.64605" lon="6.01415">
        <ele>1183.8</ele>
        <time>2011-06-07T10:36:43Z</time>
      </trkpt>
      <trkpt lat="45.64586" lon="6.01397">
        <ele>1182.9</ele>
        <time>2011-06-07T10:36:52Z</time>
      </trkpt>
      <trkpt lat="45.64573" lon="6.01416">
        <ele>1178.4</ele>
        <time>2011-06-07T10:37:00Z</time>
      </trkpt>
      <trkpt lat="45.64564" lon="6.01419">
        <ele>1177.5</ele>
        <time>2011-06-07T10:37:03Z</time>
      </trkpt>
      <trkpt lat="45.64558" lon="6.01421">
        <ele>1177</ele>
        <time>2011-06-07T10:37:06Z</time>
      </trkpt>
      <trkpt lat="45.64544" lon="6.01434">
        <ele>1176.3</ele>
        <time>2011-06-07T10:37:12Z</time>
      </trkpt>
      <trkpt lat="45.64533" lon="6.01446">
        <ele>1175</ele>
        <time>2011-06-07T10:37:18Z</time>
      </trkpt>
      <trkpt lat="45.64528" lon="6.01456">
        <ele>1173.7</ele>
        <time>2011-06-07T10:37:22Z</time>
      </trkpt>
      <trkpt lat="45.64526" lon="6.01462">
        <ele>1173.1</ele>
        <time>2011-06-07T10:37:23Z</time>
      </trkpt>
      <trkpt lat="45.64519" lon="6.0147">
        <ele>1172.5</ele>
        <time>2011-06-07T10:37:27Z</time>
      </trkpt>
      <trkpt lat="45.64504" lon="6.01487">
        <ele>1171.6</ele>
        <time>2011-06-07T10:37:35Z</time>
      </trkpt>
      <trkpt lat="45.64503" lon="6.0149">
        <ele>1171.3</ele>
        <time>2011-06-07T10:37:35Z</time>
      </trkpt>
      <trkpt lat="45.64495" lon="6.01493">
        <ele>1170.5</ele>
        <time>2011-06-07T10:37:39Z</time>
      </trkpt>
      <trkpt lat="45.64486" lon="6.01507">
        <ele>1169.2</ele>
        <time>2011-06-07T10:37:44Z</time>
      </trkpt>
      <trkpt lat="45.64475" lon="6.01511">
        <ele>1168.3</ele>
        <time>2011-06-07T10:37:49Z</time>
      </trkpt>
      <trkpt lat="45.6447" lon="6.0153">
        <ele>1167.9</ele>
        <time>2011-06-07T10:37:54Z</time>
      </trkpt>
      <trkpt lat="45.64474" lon="6.01545">
        <ele>1168.1</ele>
        <time>2011-06-07T10:37:59Z</time>
      </trkpt>
      <trkpt lat="45.64483" lon="6.01555">
        <ele>1168.8</ele>
        <time>2011-06-07T10:38:04Z</time>
      </trkpt>
      <trkpt lat="45.64495" lon="6.01567">
        <ele>1169.3</ele>
        <time>2011-06-07T10:38:10Z</time>
      </trkpt>
      <trkpt lat="45.64509" lon="6.01581">
        <ele>1169.8</ele>
        <time>2011-06-07T10:38:16Z</time>
      </trkpt>
      <trkpt lat="45.6452" lon="6.01592">
        <ele>1170.1</ele>
        <time>2011-06-07T10:38:22Z</time>
      </trkpt>
      <trkpt lat="45.64531" lon="6.01599">
        <ele>1170.7</ele>
        <time>2011-06-07T10:38:26Z</time>
      </trkpt>
      <trkpt lat="45.64544" lon="6.01609">
        <ele>1171.3</ele>
        <time>2011-06-07T10:38:32Z</time>
      </trkpt>
      <trkpt lat="45.64551" lon="6.01612">
        <ele>1171.7</ele>
        <time>2011-06-07T10:38:35Z</time>
      </trkpt>
      <trkpt lat="45.64562" lon="6.01623">
        <ele>1171.9</ele>
        <time>2011-06-07T10:38:41Z</time>
      </trkpt>
      <trkpt lat="45.64573" lon="6.01634">
        <ele>1171.9</ele>
        <time>2011-06-07T10:38:46Z</time>
      </trkpt>
      <trkpt lat="45.64584" lon="6.01642">
        <ele>1171.9</ele>
        <time>2011-06-07T10:38:51Z</time>
      </trkpt>
      <trkpt lat="45.64594" lon="6.01624">
        <ele>1172.5</ele>
        <time>2011-06-07T10:38:57Z</time>
      </trkpt>
      <trkpt lat="45.64607" lon="6.01692">
        <ele>1170.9</ele>
        <time>2011-06-07T10:39:17Z</time>
      </trkpt>
      <trkpt lat="45.64613" lon="6.01703">
        <ele>1170.7</ele>
        <time>2011-06-07T10:39:21Z</time>
      </trkpt>
      <trkpt lat="45.64629" lon="6.01721">
        <ele>1170</ele>
        <time>2011-06-07T10:39:29Z</time>
      </trkpt>
      <trkpt lat="45.64638" lon="6.0173">
        <ele>1170</ele>
        <time>2011-06-07T10:39:34Z</time>
      </trkpt>
      <trkpt lat="45.64646" lon="6.01743">
        <ele>1169.9</ele>
        <time>2011-06-07T10:39:38Z</time>
      </trkpt>
      <trkpt lat="45.64661" lon="6.01768">
        <ele>1169.9</ele>
        <time>2011-06-07T10:39:48Z</time>
      </trkpt>
      <trkpt lat="45.64669" lon="6.01783">
        <ele>1170</ele>
        <time>2011-06-07T10:39:53Z</time>
      </trkpt>
      <trkpt lat="45.64677" lon="6.01796">
        <ele>1170.1</ele>
        <time>2011-06-07T10:39:58Z</time>
      </trkpt>
      <trkpt lat="45.64687" lon="6.01811">
        <ele>1170.8</ele>
        <time>2011-06-07T10:40:04Z</time>
      </trkpt>
      <trkpt lat="45.64698" lon="6.01833">
        <ele>1171.1</ele>
        <time>2011-06-07T10:40:11Z</time>
      </trkpt>
      <trkpt lat="45.64706" lon="6.01846">
        <ele>1171.4</ele>
        <time>2011-06-07T10:40:16Z</time>
      </trkpt>
      <trkpt lat="45.64715" lon="6.01863">
        <ele>1171.8</ele>
        <time>2011-06-07T10:40:22Z</time>
      </trkpt>
      <trkpt lat="45.64717" lon="6.01868">
        <ele>1171.8</ele>
        <time>2011-06-07T10:40:24Z</time>
      </trkpt>
      <trkpt lat="45.64728" lon="6.01894">
        <ele>1172</ele>
        <time>2011-06-07T10:40:32Z</time>
      </trkpt>
      <trkpt lat="45.64733" lon="6.01909">
        <ele>1172</ele>
        <time>2011-06-07T10:40:37Z</time>
      </trkpt>
      <trkpt lat="45.64735" lon="6.01914">
        <ele>1172</ele>
        <time>2011-06-07T10:40:38Z</time>
      </trkpt>
      <trkpt lat="45.64751" lon="6.01933">
        <ele>1171.4</ele>
        <time>2011-06-07T10:40:47Z</time>
      </trkpt>
      <trkpt lat="45.64759" lon="6.01947">
        <ele>1171.3</ele>
        <time>2011-06-07T10:40:52Z</time>
      </trkpt>
      <trkpt lat="45.64768" lon="6.01961">
        <ele>1171.7</ele>
        <time>2011-06-07T10:40:57Z</time>
      </trkpt>
      <trkpt lat="45.64771" lon="6.01963">
        <ele>1171.8</ele>
        <time>2011-06-07T10:40:59Z</time>
      </trkpt>
      <trkpt lat="45.64783" lon="6.01987">
        <ele>1171.7</ele>
        <time>2011-06-07T10:41:07Z</time>
      </trkpt>
      <trkpt lat="45.64796" lon="6.02">
        <ele>1171.6</ele>
        <time>2011-06-07T10:41:13Z</time>
      </trkpt>
      <trkpt lat="45.64804" lon="6.02018">
        <ele>1171.3</ele>
        <time>2011-06-07T10:41:19Z</time>
      </trkpt>
      <trkpt lat="45.64812" lon="6.02036">
        <ele>1171</ele>
        <time>2011-06-07T10:41:25Z</time>
      </trkpt>
      <trkpt lat="45.64817" lon="6.02055">
        <ele>1170.9</ele>
        <time>2011-06-07T10:41:31Z</time>
      </trkpt>
      <trkpt lat="45.64826" lon="6.02074">
        <ele>1170.4</ele>
        <time>2011-06-07T10:41:37Z</time>
      </trkpt>
      <trkpt lat="45.64835" lon="6.02092">
        <ele>1169.9</ele>
        <time>2011-06-07T10:41:43Z</time>
      </trkpt>
      <trkpt lat="45.64843" lon="6.02102">
        <ele>1170.1</ele>
        <time>2011-06-07T10:41:48Z</time>
      </trkpt>
      <trkpt lat="45.64871" lon="6.02139">
        <ele>1170.4</ele>
        <time>2011-06-07T10:42:03Z</time>
      </trkpt>
      <trkpt lat="45.64882" lon="6.02148">
        <ele>1171</ele>
        <time>2011-06-07T10:42:08Z</time>
      </trkpt>
      <trkpt lat="45.64901" lon="6.0217">
        <ele>1170.9</ele>
        <time>2011-06-07T10:42:18Z</time>
      </trkpt>
      <trkpt lat="45.64913" lon="6.02179">
        <ele>1171.7</ele>
        <time>2011-06-07T10:42:23Z</time>
      </trkpt>
      <trkpt lat="45.64923" lon="6.02195">
        <ele>1171.6</ele>
        <time>2011-06-07T10:42:29Z</time>
      </trkpt>
      <trkpt lat="45.64934" lon="6.02211">
        <ele>1172</ele>
        <time>2011-06-07T10:42:35Z</time>
      </trkpt>
      <trkpt lat="45.64947" lon="6.02233">
        <ele>1170.1</ele>
        <time>2011-06-07T10:42:43Z</time>
      </trkpt>
      <trkpt lat="45.64956" lon="6.02254">
        <ele>1167.1</ele>
        <time>2011-06-07T10:42:50Z</time>
      </trkpt>
      <trkpt lat="45.64983" lon="6.02278">
        <ele>1166.4</ele>
        <time>2011-06-07T10:43:03Z</time>
      </trkpt>
      <trkpt lat="45.65004" lon="6.02312">
        <ele>1164.9</ele>
        <time>2011-06-07T10:43:16Z</time>
      </trkpt>
      <trkpt lat="45.65013" lon="6.02336">
        <ele>1162.9</ele>
        <time>2011-06-07T10:43:23Z</time>
      </trkpt>
      <trkpt lat="45.65019" lon="6.02345">
        <ele>1162.5</ele>
        <time>2011-06-07T10:43:27Z</time>
      </trkpt>
      <trkpt lat="45.65031" lon="6.02385">
        <ele>1160.3</ele>
        <time>2011-06-07T10:43:39Z</time>
      </trkpt>
      <trkpt lat="45.65034" lon="6.02392">
        <ele>1159.6</ele>
        <time>2011-06-07T10:43:41Z</time>
      </trkpt>
      <trkpt lat="45.65045" lon="6.02419">
        <ele>1157</ele>
        <time>2011-06-07T10:43:50Z</time>
      </trkpt>
      <trkpt lat="45.65059" lon="6.02453">
        <ele>1154.3</ele>
        <time>2011-06-07T10:44:01Z</time>
      </trkpt>
      <trkpt lat="45.65074" lon="6.02479">
        <ele>1152.7</ele>
        <time>2011-06-07T10:44:11Z</time>
      </trkpt>
      <trkpt lat="45.65091" lon="6.02497">
        <ele>1151.3</ele>
        <time>2011-06-07T10:44:19Z</time>
      </trkpt>
      <trkpt lat="45.65102" lon="6.02505">
        <ele>1150.2</ele>
        <time>2011-06-07T10:44:24Z</time>
      </trkpt>
      <trkpt lat="45.65141" lon="6.02537">
        <ele>1146.4</ele>
        <time>2011-06-07T10:44:42Z</time>
      </trkpt>
      <trkpt lat="45.65162" lon="6.02555">
        <ele>1145.1</ele>
        <time>2011-06-07T10:44:52Z</time>
      </trkpt>
      <trkpt lat="45.65195" lon="6.02596">
        <ele>1142.5</ele>
        <time>2011-06-07T10:45:09Z</time>
      </trkpt>
      <trkpt lat="45.65212" lon="6.0262">
        <ele>1139.9</ele>
        <time>2011-06-07T10:45:19Z</time>
      </trkpt>
      <trkpt lat="45.65216" lon="6.02627">
        <ele>1139</ele>
        <time>2011-06-07T10:45:21Z</time>
      </trkpt>
      <trkpt lat="45.65241" lon="6.02653">
        <ele>1136</ele>
        <time>2011-06-07T10:45:34Z</time>
      </trkpt>
      <trkpt lat="45.65259" lon="6.02672">
        <ele>1133.3</ele>
        <time>2011-06-07T10:45:43Z</time>
      </trkpt>
      <trkpt lat="45.65277" lon="6.02692">
        <ele>1131.3</ele>
        <time>2011-06-07T10:45:52Z</time>
      </trkpt>
      <trkpt lat="45.65296" lon="6.02708">
        <ele>1129.7</ele>
        <time>2011-06-07T10:46:01Z</time>
      </trkpt>
      <trkpt lat="45.65308" lon="6.02717">
        <ele>1128.5</ele>
        <time>2011-06-07T10:46:06Z</time>
      </trkpt>
      <trkpt lat="45.65339" lon="6.02754">
        <ele>1127.1</ele>
        <time>2011-06-07T10:46:22Z</time>
      </trkpt>
      <trkpt lat="45.6536" lon="6.02776">
        <ele>1124.2</ele>
        <time>2011-06-07T10:46:32Z</time>
      </trkpt>
      <trkpt lat="45.65378" lon="6.02797">
        <ele>1122.7</ele>
        <time>2011-06-07T10:46:42Z</time>
      </trkpt>
      <trkpt lat="45.65402" lon="6.02817">
        <ele>1121</ele>
        <time>2011-06-07T10:46:53Z</time>
      </trkpt>
      <trkpt lat="45.65411" lon="6.02825">
        <ele>1120.4</ele>
        <time>2011-06-07T10:46:57Z</time>
      </trkpt>
      <trkpt lat="45.6545" lon="6.02864">
        <ele>1116</ele>
        <time>2011-06-07T10:47:16Z</time>
      </trkpt>
      <trkpt lat="45.65473" lon="6.02884">
        <ele>1112.5</ele>
        <time>2011-06-07T10:47:27Z</time>
      </trkpt>
      <trkpt lat="45.65509" lon="6.02916">
        <ele>1110.8</ele>
        <time>2011-06-07T10:47:44Z</time>
      </trkpt>
      <trkpt lat="45.65538" lon="6.02942">
        <ele>1107.3</ele>
        <time>2011-06-07T10:47:58Z</time>
      </trkpt>
      <trkpt lat="45.65568" lon="6.02968">
        <ele>1104.6</ele>
        <time>2011-06-07T10:48:12Z</time>
      </trkpt>
      <trkpt lat="45.65581" lon="6.02985">
        <ele>1102.5</ele>
        <time>2011-06-07T10:48:19Z</time>
      </trkpt>
      <trkpt lat="45.65611" lon="6.03027">
        <ele>1097.1</ele>
        <time>2011-06-07T10:48:36Z</time>
      </trkpt>
      <trkpt lat="45.65631" lon="6.03056">
        <ele>1092.2</ele>
        <time>2011-06-07T10:48:47Z</time>
      </trkpt>
      <trkpt lat="45.65657" lon="6.03088">
        <ele>1088.7</ele>
        <time>2011-06-07T10:49:01Z</time>
      </trkpt>
      <trkpt lat="45.65677" lon="6.03111">
        <ele>1085.4</ele>
        <time>2011-06-07T10:49:11Z</time>
      </trkpt>
      <trkpt lat="45.65687" lon="6.0312">
        <ele>1084.6</ele>
        <time>2011-06-07T10:49:16Z</time>
      </trkpt>
      <trkpt lat="45.65729" lon="6.03156">
        <ele>1079.6</ele>
        <time>2011-06-07T10:49:35Z</time>
      </trkpt>
      <trkpt lat="45.6574" lon="6.03166">
        <ele>1078.5</ele>
        <time>2011-06-07T10:49:41Z</time>
      </trkpt>
      <trkpt lat="45.65773" lon="6.03183">
        <ele>1077.8</ele>
        <time>2011-06-07T10:49:55Z</time>
      </trkpt>
      <trkpt lat="45.65807" lon="6.032">
        <ele>1076.1</ele>
        <time>2011-06-07T10:50:09Z</time>
      </trkpt>
      <trkpt lat="45.65844" lon="6.03207">
        <ele>1079.2</ele>
        <time>2011-06-07T10:50:24Z</time>
      </trkpt>
      <trkpt lat="45.6586" lon="6.03202">
        <ele>1082.2</ele>
        <time>2011-06-07T10:50:30Z</time>
      </trkpt>
      <trkpt lat="45.65889" lon="6.03209">
        <ele>1084.3</ele>
        <time>2011-06-07T10:50:42Z</time>
      </trkpt>
      <trkpt lat="45.6591" lon="6.03227">
        <ele>1082.1</ele>
        <time>2011-06-07T10:50:52Z</time>
      </trkpt>
      <trkpt lat="45.65964" lon="6.03263">
        <ele>1077.9</ele>
        <time>2011-06-07T10:51:16Z</time>
      </trkpt>
      <trkpt lat="45.66001" lon="6.03281">
        <ele>1076.2</ele>
        <time>2011-06-07T10:51:31Z</time>
      </trkpt>
      <trkpt lat="45.66046" lon="6.03293">
        <ele>1072.5</ele>
        <time>2011-06-07T10:51:50Z</time>
      </trkpt>
      <trkpt lat="45.66063" lon="6.03302">
        <ele>1070.1</ele>
        <time>2011-06-07T10:51:57Z</time>
      </trkpt>
      <trkpt lat="45.66088" lon="6.03312">
        <ele>1066</ele>
        <time>2011-06-07T10:52:08Z</time>
      </trkpt>
      <trkpt lat="45.66106" lon="6.03323">
        <ele>1063.8</ele>
        <time>2011-06-07T10:52:15Z</time>
      </trkpt>
      <trkpt lat="45.6612" lon="6.03335">
        <ele>1062.4</ele>
        <time>2011-06-07T10:52:22Z</time>
      </trkpt>
      <trkpt lat="45.66128" lon="6.03344">
        <ele>1060.9</ele>
        <time>2011-06-07T10:52:26Z</time>
      </trkpt>
      <trkpt lat="45.66138" lon="6.03358">
        <ele>1060</ele>
        <time>2011-06-07T10:52:32Z</time>
      </trkpt>
      <trkpt lat="45.66153" lon="6.03383">
        <ele>1057.8</ele>
        <time>2011-06-07T10:52:41Z</time>
      </trkpt>
      <trkpt lat="45.66146" lon="6.03398">
        <ele>1055.7</ele>
        <time>2011-06-07T10:52:46Z</time>
      </trkpt>
      <trkpt lat="45.6613" lon="6.03391">
        <ele>1055.6</ele>
        <time>2011-06-07T10:52:52Z</time>
      </trkpt>
      <trkpt lat="45.66107" lon="6.03385">
        <ele>1055</ele>
        <time>2011-06-07T10:53:02Z</time>
      </trkpt>
      <trkpt lat="45.66098" lon="6.03379">
        <ele>1056</ele>
        <time>2011-06-07T10:53:06Z</time>
      </trkpt>
      <trkpt lat="45.66073" lon="6.03374">
        <ele>1055</ele>
        <time>2011-06-07T10:53:16Z</time>
      </trkpt>
      <trkpt lat="45.66064" lon="6.03368">
        <ele>1055.1</ele>
        <time>2011-06-07T10:53:20Z</time>
      </trkpt>
      <trkpt lat="45.66041" lon="6.03368">
        <ele>1055.2</ele>
        <time>2011-06-07T10:53:29Z</time>
      </trkpt>
      <trkpt lat="45.66035" lon="6.03379">
        <ele>1053.5</ele>
        <time>2011-06-07T10:53:33Z</time>
      </trkpt>
      <trkpt lat="45.66043" lon="6.03388">
        <ele>1051.2</ele>
        <time>2011-06-07T10:53:37Z</time>
      </trkpt>
      <trkpt lat="45.66051" lon="6.03408">
        <ele>1048.7</ele>
        <time>2011-06-07T10:53:43Z</time>
      </trkpt>
      <trkpt lat="45.66055" lon="6.03415">
        <ele>1048.1</ele>
        <time>2011-06-07T10:53:46Z</time>
      </trkpt>
      <trkpt lat="45.66065" lon="6.03418">
        <ele>1048.5</ele>
        <time>2011-06-07T10:53:50Z</time>
      </trkpt>
      <trkpt lat="45.66082" lon="6.03418">
        <ele>1049.6</ele>
        <time>2011-06-07T10:53:57Z</time>
      </trkpt>
      <trkpt lat="45.66093" lon="6.03426">
        <ele>1047.9</ele>
        <time>2011-06-07T10:54:02Z</time>
      </trkpt>
      <trkpt lat="45.66105" lon="6.03434">
        <ele>1045.9</ele>
        <time>2011-06-07T10:54:07Z</time>
      </trkpt>
      <trkpt lat="45.66114" lon="6.0344">
        <ele>1044.3</ele>
        <time>2011-06-07T10:54:11Z</time>
      </trkpt>
      <trkpt lat="45.66126" lon="6.03448">
        <ele>1042.8</ele>
        <time>2011-06-07T10:54:16Z</time>
      </trkpt>
      <trkpt lat="45.66153" lon="6.03454">
        <ele>1043.4</ele>
        <time>2011-06-07T10:54:27Z</time>
      </trkpt>
      <trkpt lat="45.66171" lon="6.03454">
        <ele>1044.9</ele>
        <time>2011-06-07T10:54:34Z</time>
      </trkpt>
      <trkpt lat="45.66191" lon="6.03447">
        <ele>1047.1</ele>
        <time>2011-06-07T10:54:43Z</time>
      </trkpt>
      <trkpt lat="45.66206" lon="6.03445">
        <ele>1046.9</ele>
        <time>2011-06-07T10:54:49Z</time>
      </trkpt>
      <trkpt lat="45.6621" lon="6.03431">
        <ele>1047.5</ele>
        <time>2011-06-07T10:54:53Z</time>
      </trkpt>
      <trkpt lat="45.6621" lon="6.03416">
        <ele>1048</ele>
        <time>2011-06-07T10:54:57Z</time>
      </trkpt>
      <trkpt lat="45.66213" lon="6.03405">
        <ele>1046.1</ele>
        <time>2011-06-07T10:55:00Z</time>
      </trkpt>
      <trkpt lat="45.66214" lon="6.0337">
        <ele>1041.4</ele>
        <time>2011-06-07T10:55:10Z</time>
      </trkpt>
      <trkpt lat="45.66208" lon="6.03351">
        <ele>1042.4</ele>
        <time>2011-06-07T10:55:16Z</time>
      </trkpt>
      <trkpt lat="45.66203" lon="6.03332">
        <ele>1043.1</ele>
        <time>2011-06-07T10:55:22Z</time>
      </trkpt>
      <trkpt lat="45.66203" lon="6.03313">
        <ele>1043.5</ele>
        <time>2011-06-07T10:55:27Z</time>
      </trkpt>
      <trkpt lat="45.66204" lon="6.03298">
        <ele>1043.8</ele>
        <time>2011-06-07T10:55:31Z</time>
      </trkpt>
      <trkpt lat="45.66215" lon="6.03292">
        <ele>1043.4</ele>
        <time>2011-06-07T10:55:36Z</time>
      </trkpt>
      <trkpt lat="45.6622" lon="6.03292">
        <ele>1043.1</ele>
        <time>2011-06-07T10:55:38Z</time>
      </trkpt>
      <trkpt lat="45.66241" lon="6.03296">
        <ele>1045.3</ele>
        <time>2011-06-07T10:55:46Z</time>
      </trkpt>
      <trkpt lat="45.66258" lon="6.03306">
        <ele>1046.3</ele>
        <time>2011-06-07T10:55:53Z</time>
      </trkpt>
      <trkpt lat="45.66278" lon="6.03318">
        <ele>1047</ele>
        <time>2011-06-07T10:56:02Z</time>
      </trkpt>
      <trkpt lat="45.66296" lon="6.03328">
        <ele>1049.5</ele>
        <time>2011-06-07T10:56:10Z</time>
      </trkpt>
      <trkpt lat="45.66317" lon="6.0334">
        <ele>1051.3</ele>
        <time>2011-06-07T10:56:19Z</time>
      </trkpt>
      <trkpt lat="45.66332" lon="6.03349">
        <ele>1052.6</ele>
        <time>2011-06-07T10:56:25Z</time>
      </trkpt>
      <trkpt lat="45.6635" lon="6.03364">
        <ele>1053.5</ele>
        <time>2011-06-07T10:56:34Z</time>
      </trkpt>
      <trkpt lat="45.66365" lon="6.03372">
        <ele>1055.3</ele>
        <time>2011-06-07T10:56:40Z</time>
      </trkpt>
      <trkpt lat="45.66374" lon="6.03378">
        <ele>1056.1</ele>
        <time>2011-06-07T10:56:44Z</time>
      </trkpt>
      <trkpt lat="45.66392" lon="6.03397">
        <ele>1055.4</ele>
        <time>2011-06-07T10:56:53Z</time>
      </trkpt>
      <trkpt lat="45.66421" lon="6.03422">
        <ele>1055.9</ele>
        <time>2011-06-07T10:57:07Z</time>
      </trkpt>
      <trkpt lat="45.66434" lon="6.0343">
        <ele>1056.3</ele>
        <time>2011-06-07T10:57:12Z</time>
      </trkpt>
      <trkpt lat="45.66457" lon="6.03443">
        <ele>1058</ele>
        <time>2011-06-07T10:57:22Z</time>
      </trkpt>
      <trkpt lat="45.66471" lon="6.03451">
        <ele>1058</ele>
        <time>2011-06-07T10:57:28Z</time>
      </trkpt>
      <trkpt lat="45.66493" lon="6.03465">
        <ele>1056.8</ele>
        <time>2011-06-07T10:57:38Z</time>
      </trkpt>
      <trkpt lat="45.66513" lon="6.03476">
        <ele>1055.9</ele>
        <time>2011-06-07T10:57:46Z</time>
      </trkpt>
      <trkpt lat="45.6654" lon="6.03487">
        <ele>1055.1</ele>
        <time>2011-06-07T10:57:58Z</time>
      </trkpt>
      <trkpt lat="45.66559" lon="6.03494">
        <ele>1055.2</ele>
        <time>2011-06-07T10:58:06Z</time>
      </trkpt>
      <trkpt lat="45.66571" lon="6.03493">
        <ele>1056.3</ele>
        <time>2011-06-07T10:58:11Z</time>
      </trkpt>
      <trkpt lat="45.66591" lon="6.03495">
        <ele>1056.9</ele>
        <time>2011-06-07T10:58:19Z</time>
      </trkpt>
      <trkpt lat="45.6662" lon="6.03499">
        <ele>1057.1</ele>
        <time>2011-06-07T10:58:30Z</time>
      </trkpt>
      <trkpt lat="45.66638" lon="6.03509">
        <ele>1055.3</ele>
        <time>2011-06-07T10:58:38Z</time>
      </trkpt>
      <trkpt lat="45.66645" lon="6.03514">
        <ele>1055.4</ele>
        <time>2011-06-07T10:58:41Z</time>
      </trkpt>
      <trkpt lat="45.66671" lon="6.03528">
        <ele>1055.1</ele>
        <time>2011-06-07T10:58:52Z</time>
      </trkpt>
      <trkpt lat="45.66686" lon="6.03537">
        <ele>1054.5</ele>
        <time>2011-06-07T10:58:59Z</time>
      </trkpt>
      <trkpt lat="45.66701" lon="6.0355">
        <ele>1053.5</ele>
        <time>2011-06-07T10:59:06Z</time>
      </trkpt>
      <trkpt lat="45.66712" lon="6.03557">
        <ele>1053.1</ele>
        <time>2011-06-07T10:59:11Z</time>
      </trkpt>
      <trkpt lat="45.66735" lon="6.0357">
        <ele>1053.8</ele>
        <time>2011-06-07T10:59:21Z</time>
      </trkpt>
      <trkpt lat="45.66754" lon="6.03595">
        <ele>1052.4</ele>
        <time>2011-06-07T10:59:31Z</time>
      </trkpt>
      <trkpt lat="45.6677" lon="6.03618">
        <ele>1051.1</ele>
        <time>2011-06-07T10:59:40Z</time>
      </trkpt>
      <trkpt lat="45.66782" lon="6.0363">
        <ele>1050.8</ele>
        <time>2011-06-07T10:59:46Z</time>
      </trkpt>
      <trkpt lat="45.66798" lon="6.03653">
        <ele>1049.6</ele>
        <time>2011-06-07T10:59:55Z</time>
      </trkpt>
      <trkpt lat="45.66818" lon="6.03675">
        <ele>1048.7</ele>
        <time>2011-06-07T11:00:05Z</time>
      </trkpt>
      <trkpt lat="45.6683" lon="6.03692">
        <ele>1046.4</ele>
        <time>2011-06-07T11:00:12Z</time>
      </trkpt>
      <trkpt lat="45.66847" lon="6.03716">
        <ele>1044.8</ele>
        <time>2011-06-07T11:00:21Z</time>
      </trkpt>
      <trkpt lat="45.66876" lon="6.03753">
        <ele>1042.7</ele>
        <time>2011-06-07T11:00:37Z</time>
      </trkpt>
      <trkpt lat="45.66889" lon="6.03771">
        <ele>1040.5</ele>
        <time>2011-06-07T11:00:44Z</time>
      </trkpt>
      <trkpt lat="45.66919" lon="6.0382">
        <ele>1036.9</ele>
        <time>2011-06-07T11:01:02Z</time>
      </trkpt>
      <trkpt lat="45.66951" lon="6.03875">
        <ele>1030.2</ele>
        <time>2011-06-07T11:01:22Z</time>
      </trkpt>
      <trkpt lat="45.66974" lon="6.039">
        <ele>1028.7</ele>
        <time>2011-06-07T11:01:34Z</time>
      </trkpt>
      <trkpt lat="45.66998" lon="6.03926">
        <ele>1027.2</ele>
        <time>2011-06-07T11:01:46Z</time>
      </trkpt>
      <trkpt lat="45.67023" lon="6.03957">
        <ele>1023.8</ele>
        <time>2011-06-07T11:01:59Z</time>
      </trkpt>
      <trkpt lat="45.67043" lon="6.03981">
        <ele>1021.7</ele>
        <time>2011-06-07T11:02:10Z</time>
      </trkpt>
      <trkpt lat="45.67063" lon="6.03999">
        <ele>1020.4</ele>
        <time>2011-06-07T11:02:19Z</time>
      </trkpt>
      <trkpt lat="45.67078" lon="6.04009">
        <ele>1019.2</ele>
        <time>2011-06-07T11:02:26Z</time>
      </trkpt>
      <trkpt lat="45.67094" lon="6.0403">
        <ele>1014.6</ele>
        <time>2011-06-07T11:02:35Z</time>
      </trkpt>
      <trkpt lat="45.67092" lon="6.04051">
        <ele>1009</ele>
        <time>2011-06-07T11:02:40Z</time>
      </trkpt>
      <trkpt lat="45.67085" lon="6.04068">
        <ele>1004.4</ele>
        <time>2011-06-07T11:02:46Z</time>
      </trkpt>
      <trkpt lat="45.67076" lon="6.04073">
        <ele>1003.3</ele>
        <time>2011-06-07T11:02:50Z</time>
      </trkpt>
      <trkpt lat="45.67052" lon="6.04074">
        <ele>1003.1</ele>
        <time>2011-06-07T11:02:59Z</time>
      </trkpt>
      <trkpt lat="45.67034" lon="6.04078">
        <ele>1002.1</ele>
        <time>2011-06-07T11:03:07Z</time>
      </trkpt>
      <trkpt lat="45.67041" lon="6.04099">
        <ele>998.7</ele>
        <time>2011-06-07T11:03:13Z</time>
      </trkpt>
      <trkpt lat="45.6707" lon="6.04102">
        <ele>996.9</ele>
        <time>2011-06-07T11:03:25Z</time>
      </trkpt>
      <trkpt lat="45.67097" lon="6.04087">
        <ele>1000</ele>
        <time>2011-06-07T11:03:37Z</time>
      </trkpt>
      <trkpt lat="45.6711" lon="6.04079">
        <ele>1002.2</ele>
        <time>2011-06-07T11:03:42Z</time>
      </trkpt>
      <trkpt lat="45.6714" lon="6.04082">
        <ele>1000.3</ele>
        <time>2011-06-07T11:03:54Z</time>
      </trkpt>
      <trkpt lat="45.6716" lon="6.0409">
        <ele>995</ele>
        <time>2011-06-07T11:04:03Z</time>
      </trkpt>
      <trkpt lat="45.67187" lon="6.04107">
        <ele>986.7</ele>
        <time>2011-06-07T11:04:15Z</time>
      </trkpt>
      <trkpt lat="45.67186" lon="6.04135">
        <ele>980</ele>
        <time>2011-06-07T11:04:22Z</time>
      </trkpt>
      <trkpt lat="45.67183" lon="6.0415">
        <ele>976.6</ele>
        <time>2011-06-07T11:04:27Z</time>
      </trkpt>
      <trkpt lat="45.67163" lon="6.04148">
        <ele>977.4</ele>
        <time>2011-06-07T11:04:35Z</time>
      </trkpt>
      <trkpt lat="45.67145" lon="6.04164">
        <ele>974.4</ele>
        <time>2011-06-07T11:04:43Z</time>
      </trkpt>
      <trkpt lat="45.67141" lon="6.04173">
        <ele>973.2</ele>
        <time>2011-06-07T11:04:46Z</time>
      </trkpt>
      <trkpt lat="45.67142" lon="6.04213">
        <ele>967.4</ele>
        <time>2011-06-07T11:04:58Z</time>
      </trkpt>
      <trkpt lat="45.67157" lon="6.04247">
        <ele>960</ele>
        <time>2011-06-07T11:05:09Z</time>
      </trkpt>
      <trkpt lat="45.67178" lon="6.04262">
        <ele>956.9</ele>
        <time>2011-06-07T11:05:18Z</time>
      </trkpt>
      <trkpt lat="45.67199" lon="6.04265">
        <ele>956.1</ele>
        <time>2011-06-07T11:05:27Z</time>
      </trkpt>
      <trkpt lat="45.67226" lon="6.04277">
        <ele>956.3</ele>
        <time>2011-06-07T11:05:38Z</time>
      </trkpt>
      <trkpt lat="45.67251" lon="6.04307">
        <ele>953.9</ele>
        <time>2011-06-07T11:05:51Z</time>
      </trkpt>
      <trkpt lat="45.67272" lon="6.04333">
        <ele>951.1</ele>
        <time>2011-06-07T11:06:02Z</time>
      </trkpt>
      <trkpt lat="45.67302" lon="6.04372">
        <ele>946.6</ele>
        <time>2011-06-07T11:06:18Z</time>
      </trkpt>
      <trkpt lat="45.67331" lon="6.04398">
        <ele>945.5</ele>
        <time>2011-06-07T11:06:32Z</time>
      </trkpt>
      <trkpt lat="45.67365" lon="6.04421">
        <ele>946</ele>
        <time>2011-06-07T11:06:47Z</time>
      </trkpt>
      <trkpt lat="45.67386" lon="6.04442">
        <ele>946</ele>
        <time>2011-06-07T11:06:57Z</time>
      </trkpt>
      <trkpt lat="45.6741" lon="6.04471">
        <ele>941.6</ele>
        <time>2011-06-07T11:07:10Z</time>
      </trkpt>
      <trkpt lat="45.67434" lon="6.04494">
        <ele>940.5</ele>
        <time>2011-06-07T11:07:21Z</time>
      </trkpt>
      <trkpt lat="45.67473" lon="6.04554">
        <ele>934.5</ele>
        <time>2011-06-07T11:07:44Z</time>
      </trkpt>
      <trkpt lat="45.675" lon="6.04592">
        <ele>931</ele>
        <time>2011-06-07T11:07:59Z</time>
      </trkpt>
      <trkpt lat="45.67525" lon="6.04624">
        <ele>927.4</ele>
        <time>2011-06-07T11:08:13Z</time>
      </trkpt>
      <trkpt lat="45.67565" lon="6.04679">
        <ele>920.5</ele>
        <time>2011-06-07T11:08:35Z</time>
      </trkpt>
      <trkpt lat="45.67592" lon="6.04718">
        <ele>916.8</ele>
        <time>2011-06-07T11:08:51Z</time>
      </trkpt>
      <trkpt lat="45.67623" lon="6.04748">
        <ele>915</ele>
        <time>2011-06-07T11:09:05Z</time>
      </trkpt>
      <trkpt lat="45.67653" lon="6.04769">
        <ele>916</ele>
        <time>2011-06-07T11:09:19Z</time>
      </trkpt>
      <trkpt lat="45.67672" lon="6.0479">
        <ele>914.1</ele>
        <time>2011-06-07T11:09:28Z</time>
      </trkpt>
      <trkpt lat="45.67705" lon="6.04828">
        <ele>909.3</ele>
        <time>2011-06-07T11:09:46Z</time>
      </trkpt>
      <trkpt lat="45.67723" lon="6.04845">
        <ele>908</ele>
        <time>2011-06-07T11:09:54Z</time>
      </trkpt>
      <trkpt lat="45.6773" lon="6.04862">
        <ele>906.3</ele>
        <time>2011-06-07T11:10:00Z</time>
      </trkpt>
      <trkpt lat="45.67734" lon="6.04873">
        <ele>905.5</ele>
        <time>2011-06-07T11:10:03Z</time>
      </trkpt>
      <trkpt lat="45.67738" lon="6.04882">
        <ele>904.7</ele>
        <time>2011-06-07T11:10:06Z</time>
      </trkpt>
      <trkpt lat="45.67741" lon="6.0489">
        <ele>903.9</ele>
        <time>2011-06-07T11:10:09Z</time>
      </trkpt>
      <trkpt lat="45.67748" lon="6.04907">
        <ele>902.2</ele>
        <time>2011-06-07T11:10:14Z</time>
      </trkpt>
      <trkpt lat="45.6775" lon="6.04915">
        <ele>901.2</ele>
        <time>2011-06-07T11:10:16Z</time>
      </trkpt>
      <trkpt lat="45.67754" lon="6.04926">
        <ele>900.2</ele>
        <time>2011-06-07T11:10:20Z</time>
      </trkpt>
      <trkpt lat="45.67756" lon="6.04934">
        <ele>899.5</ele>
        <time>2011-06-07T11:10:22Z</time>
      </trkpt>
      <trkpt lat="45.67762" lon="6.0494">
        <ele>899.4</ele>
        <time>2011-06-07T11:10:25Z</time>
      </trkpt>
      <trkpt lat="45.67765" lon="6.04951">
        <ele>898.5</ele>
        <time>2011-06-07T11:10:28Z</time>
      </trkpt>
      <trkpt lat="45.67766" lon="6.04954">
        <ele>898.3</ele>
        <time>2011-06-07T11:10:29Z</time>
      </trkpt>
      <trkpt lat="45.67769" lon="6.04972">
        <ele>896.8</ele>
        <time>2011-06-07T11:10:35Z</time>
      </trkpt>
      <trkpt lat="45.67773" lon="6.04981">
        <ele>895.9</ele>
        <time>2011-06-07T11:10:38Z</time>
      </trkpt>
      <trkpt lat="45.67777" lon="6.04995">
        <ele>894.5</ele>
        <time>2011-06-07T11:10:42Z</time>
      </trkpt>
      <trkpt lat="45.6778" lon="6.05006">
        <ele>893.3</ele>
        <time>2011-06-07T11:10:45Z</time>
      </trkpt>
      <trkpt lat="45.67783" lon="6.05017">
        <ele>891.8</ele>
        <time>2011-06-07T11:10:49Z</time>
      </trkpt>
      <trkpt lat="45.67787" lon="6.05026">
        <ele>890.8</ele>
        <time>2011-06-07T11:10:52Z</time>
      </trkpt>
      <trkpt lat="45.67792" lon="6.05031">
        <ele>890.7</ele>
        <time>2011-06-07T11:10:54Z</time>
      </trkpt>
      <trkpt lat="45.67802" lon="6.05046">
        <ele>889.8</ele>
        <time>2011-06-07T11:11:00Z</time>
      </trkpt>
      <trkpt lat="45.67813" lon="6.05067">
        <ele>887.9</ele>
        <time>2011-06-07T11:11:07Z</time>
      </trkpt>
      <trkpt lat="45.67817" lon="6.05074">
        <ele>887.3</ele>
        <time>2011-06-07T11:11:10Z</time>
      </trkpt>
      <trkpt lat="45.67818" lon="6.05077">
        <ele>887</ele>
        <time>2011-06-07T11:11:11Z</time>
      </trkpt>
      <trkpt lat="45.67824" lon="6.05088">
        <ele>886.3</ele>
        <time>2011-06-07T11:11:14Z</time>
      </trkpt>
      <trkpt lat="45.67828" lon="6.05097">
        <ele>885.7</ele>
        <time>2011-06-07T11:11:17Z</time>
      </trkpt>
      <trkpt lat="45.67831" lon="6.05109">
        <ele>885</ele>
        <time>2011-06-07T11:11:21Z</time>
      </trkpt>
      <trkpt lat="45.67838" lon="6.05127">
        <ele>883</ele>
        <time>2011-06-07T11:11:27Z</time>
      </trkpt>
      <trkpt lat="45.67845" lon="6.05141">
        <ele>881.9</ele>
        <time>2011-06-07T11:11:32Z</time>
      </trkpt>
      <trkpt lat="45.67849" lon="6.05151">
        <ele>881.2</ele>
        <time>2011-06-07T11:11:35Z</time>
      </trkpt>
      <trkpt lat="45.67853" lon="6.05161">
        <ele>880.5</ele>
        <time>2011-06-07T11:11:38Z</time>
      </trkpt>
      <trkpt lat="45.67861" lon="6.05175">
        <ele>879.7</ele>
        <time>2011-06-07T11:11:43Z</time>
      </trkpt>
      <trkpt lat="45.6786" lon="6.05178">
        <ele>879.3</ele>
        <time>2011-06-07T11:11:44Z</time>
      </trkpt>
      <trkpt lat="45.67869" lon="6.05195">
        <ele>877.2</ele>
        <time>2011-06-07T11:11:50Z</time>
      </trkpt>
      <trkpt lat="45.67874" lon="6.05203">
        <ele>876.4</ele>
        <time>2011-06-07T11:11:53Z</time>
      </trkpt>
      <trkpt lat="45.67881" lon="6.05212">
        <ele>875.6</ele>
        <time>2011-06-07T11:11:56Z</time>
      </trkpt>
      <trkpt lat="45.67882" lon="6.05213">
        <ele>875.6</ele>
        <time>2011-06-07T11:11:57Z</time>
      </trkpt>
      <trkpt lat="45.67895" lon="6.05225">
        <ele>875</ele>
        <time>2011-06-07T11:12:03Z</time>
      </trkpt>
      <trkpt lat="45.679" lon="6.05231">
        <ele>874.7</ele>
        <time>2011-06-07T11:12:06Z</time>
      </trkpt>
      <trkpt lat="45.67914" lon="6.05246">
        <ele>874.1</ele>
        <time>2011-06-07T11:12:13Z</time>
      </trkpt>
      <trkpt lat="45.67929" lon="6.05265">
        <ele>872.9</ele>
        <time>2011-06-07T11:12:21Z</time>
      </trkpt>
      <trkpt lat="45.67934" lon="6.05271">
        <ele>872.7</ele>
        <time>2011-06-07T11:12:23Z</time>
      </trkpt>
      <trkpt lat="45.67941" lon="6.05283">
        <ele>871.8</ele>
        <time>2011-06-07T11:12:28Z</time>
      </trkpt>
      <trkpt lat="45.67947" lon="6.05295">
        <ele>870.8</ele>
        <time>2011-06-07T11:12:32Z</time>
      </trkpt>
      <trkpt lat="45.67962" lon="6.05308">
        <ele>869.7</ele>
        <time>2011-06-07T11:12:39Z</time>
      </trkpt>
      <trkpt lat="45.67967" lon="6.05319">
        <ele>868</ele>
        <time>2011-06-07T11:12:42Z</time>
      </trkpt>
      <trkpt lat="45.67974" lon="6.05329">
        <ele>866.9</ele>
        <time>2011-06-07T11:12:46Z</time>
      </trkpt>
      <trkpt lat="45.67989" lon="6.05352">
        <ele>863.7</ele>
        <time>2011-06-07T11:12:55Z</time>
      </trkpt>
      <trkpt lat="45.67994" lon="6.0536">
        <ele>862.5</ele>
        <time>2011-06-07T11:12:59Z</time>
      </trkpt>
      <trkpt lat="45.68003" lon="6.05374">
        <ele>861</ele>
        <time>2011-06-07T11:13:04Z</time>
      </trkpt>
      <trkpt lat="45.68015" lon="6.05393">
        <ele>858.5</ele>
        <time>2011-06-07T11:13:11Z</time>
      </trkpt>
      <trkpt lat="45.6803" lon="6.05413">
        <ele>856.7</ele>
        <time>2011-06-07T11:13:19Z</time>
      </trkpt>
      <trkpt lat="45.68052" lon="6.05435">
        <ele>854.2</ele>
        <time>2011-06-07T11:13:30Z</time>
      </trkpt>
      <trkpt lat="45.68062" lon="6.05446">
        <ele>853.1</ele>
        <time>2011-06-07T11:13:35Z</time>
      </trkpt>
      <trkpt lat="45.6807" lon="6.05451">
        <ele>852.9</ele>
        <time>2011-06-07T11:13:38Z</time>
      </trkpt>
      <trkpt lat="45.68082" lon="6.05458">
        <ele>852.9</ele>
        <time>2011-06-07T11:13:43Z</time>
      </trkpt>
      <trkpt lat="45.68088" lon="6.05461">
        <ele>853</ele>
        <time>2011-06-07T11:13:46Z</time>
      </trkpt>
      <trkpt lat="45.68097" lon="6.05476">
        <ele>851.4</ele>
        <time>2011-06-07T11:13:52Z</time>
      </trkpt>
      <trkpt lat="45.68103" lon="6.05485">
        <ele>850.3</ele>
        <time>2011-06-07T11:13:55Z</time>
      </trkpt>
      <trkpt lat="45.68113" lon="6.05497">
        <ele>849.7</ele>
        <time>2011-06-07T11:14:00Z</time>
      </trkpt>
      <trkpt lat="45.68116" lon="6.05502">
        <ele>849.2</ele>
        <time>2011-06-07T11:14:02Z</time>
      </trkpt>
      <trkpt lat="45.68125" lon="6.05522">
        <ele>846.1</ele>
        <time>2011-06-07T11:14:09Z</time>
      </trkpt>
      <trkpt lat="45.68135" lon="6.05537">
        <ele>844.7</ele>
        <time>2011-06-07T11:14:14Z</time>
      </trkpt>
      <trkpt lat="45.68142" lon="6.05548">
        <ele>844.6</ele>
        <time>2011-06-07T11:14:19Z</time>
      </trkpt>
      <trkpt lat="45.68171" lon="6.0559">
        <ele>839.5</ele>
        <time>2011-06-07T11:14:35Z</time>
      </trkpt>
      <trkpt lat="45.68179" lon="6.05598">
        <ele>838.1</ele>
        <time>2011-06-07T11:14:39Z</time>
      </trkpt>
      <trkpt lat="45.68188" lon="6.05603">
        <ele>837.6</ele>
        <time>2011-06-07T11:14:43Z</time>
      </trkpt>
      <trkpt lat="45.68204" lon="6.05616">
        <ele>837.5</ele>
        <time>2011-06-07T11:14:51Z</time>
      </trkpt>
      <trkpt lat="45.68219" lon="6.05632">
        <ele>836.9</ele>
        <time>2011-06-07T11:14:58Z</time>
      </trkpt>
      <trkpt lat="45.68229" lon="6.05647">
        <ele>836</ele>
        <time>2011-06-07T11:15:04Z</time>
      </trkpt>
      <trkpt lat="45.68238" lon="6.05655">
        <ele>835.9</ele>
        <time>2011-06-07T11:15:08Z</time>
      </trkpt>
      <trkpt lat="45.68254" lon="6.05678">
        <ele>832.8</ele>
        <time>2011-06-07T11:15:17Z</time>
      </trkpt>
      <trkpt lat="45.68263" lon="6.0569">
        <ele>831.4</ele>
        <time>2011-06-07T11:15:22Z</time>
      </trkpt>
      <trkpt lat="45.68269" lon="6.05694">
        <ele>831.6</ele>
        <time>2011-06-07T11:15:25Z</time>
      </trkpt>
      <trkpt lat="45.68282" lon="6.05708">
        <ele>830.1</ele>
        <time>2011-06-07T11:15:31Z</time>
      </trkpt>
      <trkpt lat="45.68293" lon="6.05721">
        <ele>828.4</ele>
        <time>2011-06-07T11:15:37Z</time>
      </trkpt>
      <trkpt lat="45.68302" lon="6.0573">
        <ele>828.3</ele>
        <time>2011-06-07T11:15:41Z</time>
      </trkpt>
      <trkpt lat="45.68311" lon="6.05739">
        <ele>828.2</ele>
        <time>2011-06-07T11:15:45Z</time>
      </trkpt>
      <trkpt lat="45.68315" lon="6.05741">
        <ele>828.4</ele>
        <time>2011-06-07T11:15:47Z</time>
      </trkpt>
      <trkpt lat="45.68328" lon="6.05756">
        <ele>827.9</ele>
        <time>2011-06-07T11:15:54Z</time>
      </trkpt>
      <trkpt lat="45.68337" lon="6.05768">
        <ele>826.2</ele>
        <time>2011-06-07T11:15:59Z</time>
      </trkpt>
      <trkpt lat="45.68348" lon="6.05788">
        <ele>822.4</ele>
        <time>2011-06-07T11:16:06Z</time>
      </trkpt>
      <trkpt lat="45.68354" lon="6.05799">
        <ele>820.2</ele>
        <time>2011-06-07T11:16:10Z</time>
      </trkpt>
      <trkpt lat="45.6838" lon="6.05811">
        <ele>817.9</ele>
        <time>2011-06-07T11:16:21Z</time>
      </trkpt>
      <trkpt lat="45.68389" lon="6.05817">
        <ele>817</ele>
        <time>2011-06-07T11:16:25Z</time>
      </trkpt>
      <trkpt lat="45.68408" lon="6.05829">
        <ele>816.3</ele>
        <time>2011-06-07T11:16:33Z</time>
      </trkpt>
      <trkpt lat="45.68425" lon="6.05842">
        <ele>815</ele>
        <time>2011-06-07T11:16:41Z</time>
      </trkpt>
      <trkpt lat="45.68432" lon="6.05846">
        <ele>814.8</ele>
        <time>2011-06-07T11:16:44Z</time>
      </trkpt>
      <trkpt lat="45.68455" lon="6.05871">
        <ele>813.4</ele>
        <time>2011-06-07T11:16:55Z</time>
      </trkpt>
      <trkpt lat="45.68465" lon="6.05884">
        <ele>812.6</ele>
        <time>2011-06-07T11:17:01Z</time>
      </trkpt>
      <trkpt lat="45.68467" lon="6.05889">
        <ele>811.9</ele>
        <time>2011-06-07T11:17:02Z</time>
      </trkpt>
      <trkpt lat="45.68482" lon="6.05905">
        <ele>810.3</ele>
        <time>2011-06-07T11:17:10Z</time>
      </trkpt>
      <trkpt lat="45.68484" lon="6.05924">
        <ele>804.3</ele>
        <time>2011-06-07T11:17:15Z</time>
      </trkpt>
      <trkpt lat="45.68464" lon="6.05911">
        <ele>805.7</ele>
        <time>2011-06-07T11:17:24Z</time>
      </trkpt>
      <trkpt lat="45.68445" lon="6.05896">
        <ele>805.5</ele>
        <time>2011-06-07T11:17:32Z</time>
      </trkpt>
      <trkpt lat="45.68435" lon="6.0589">
        <ele>805.1</ele>
        <time>2011-06-07T11:17:37Z</time>
      </trkpt>
      <trkpt lat="45.68428" lon="6.05886">
        <ele>804.9</ele>
        <time>2011-06-07T11:17:40Z</time>
      </trkpt>
      <trkpt lat="45.68409" lon="6.05877">
        <ele>804.5</ele>
        <time>2011-06-07T11:17:48Z</time>
      </trkpt>
      <trkpt lat="45.68387" lon="6.05878">
        <ele>802.1</ele>
        <time>2011-06-07T11:17:57Z</time>
      </trkpt>
      <trkpt lat="45.68384" lon="6.05883">
        <ele>800.3</ele>
        <time>2011-06-07T11:17:58Z</time>
      </trkpt>
      <trkpt lat="45.68365" lon="6.05903">
        <ele>796.6</ele>
        <time>2011-06-07T11:18:08Z</time>
      </trkpt>
      <trkpt lat="45.68354" lon="6.05911">
        <ele>795.7</ele>
        <time>2011-06-07T11:18:13Z</time>
      </trkpt>
      <trkpt lat="45.68346" lon="6.05916">
        <ele>794.9</ele>
        <time>2011-06-07T11:18:17Z</time>
      </trkpt>
      <trkpt lat="45.6834" lon="6.05923">
        <ele>793.9</ele>
        <time>2011-06-07T11:18:20Z</time>
      </trkpt>
      <trkpt lat="45.68326" lon="6.05929">
        <ele>791.8</ele>
        <time>2011-06-07T11:18:26Z</time>
      </trkpt>
      <trkpt lat="45.68315" lon="6.05929">
        <ele>789.8</ele>
        <time>2011-06-07T11:18:30Z</time>
      </trkpt>
      <trkpt lat="45.68305" lon="6.05923">
        <ele>789.4</ele>
        <time>2011-06-07T11:18:34Z</time>
      </trkpt>
      <trkpt lat="45.68285" lon="6.05911">
        <ele>788.4</ele>
        <time>2011-06-07T11:18:43Z</time>
      </trkpt>
      <trkpt lat="45.68272" lon="6.05906">
        <ele>787.5</ele>
        <time>2011-06-07T11:18:48Z</time>
      </trkpt>
      <trkpt lat="45.68264" lon="6.05905">
        <ele>786.8</ele>
        <time>2011-06-07T11:18:51Z</time>
      </trkpt>
      <trkpt lat="45.68259" lon="6.05902">
        <ele>786.9</ele>
        <time>2011-06-07T11:18:53Z</time>
      </trkpt>
      <trkpt lat="45.6824" lon="6.0589">
        <ele>786.3</ele>
        <time>2011-06-07T11:19:02Z</time>
      </trkpt>
      <trkpt lat="45.68225" lon="6.0588">
        <ele>784.6</ele>
        <time>2011-06-07T11:19:09Z</time>
      </trkpt>
      <trkpt lat="45.68215" lon="6.05874">
        <ele>783.7</ele>
        <time>2011-06-07T11:19:13Z</time>
      </trkpt>
      <trkpt lat="45.68205" lon="6.05868">
        <ele>782.7</ele>
        <time>2011-06-07T11:19:17Z</time>
      </trkpt>
      <trkpt lat="45.68193" lon="6.0586">
        <ele>781.1</ele>
        <time>2011-06-07T11:19:22Z</time>
      </trkpt>
      <trkpt lat="45.68181" lon="6.05853">
        <ele>781.4</ele>
        <time>2011-06-07T11:19:28Z</time>
      </trkpt>
      <trkpt lat="45.68171" lon="6.05847">
        <ele>781.1</ele>
        <time>2011-06-07T11:19:32Z</time>
      </trkpt>
      <trkpt lat="45.68162" lon="6.05838">
        <ele>781</ele>
        <time>2011-06-07T11:19:36Z</time>
      </trkpt>
      <trkpt lat="45.68158" lon="6.05835">
        <ele>780.6</ele>
        <time>2011-06-07T11:19:38Z</time>
      </trkpt>
      <trkpt lat="45.68141" lon="6.05813">
        <ele>779.9</ele>
        <time>2011-06-07T11:19:47Z</time>
      </trkpt>
      <trkpt lat="45.68128" lon="6.05806">
        <ele>780.4</ele>
        <time>2011-06-07T11:19:53Z</time>
      </trkpt>
      <trkpt lat="45.6812" lon="6.05794">
        <ele>779.8</ele>
        <time>2011-06-07T11:19:57Z</time>
      </trkpt>
      <trkpt lat="45.68111" lon="6.05785">
        <ele>778.8</ele>
        <time>2011-06-07T11:20:02Z</time>
      </trkpt>
      <trkpt lat="45.68101" lon="6.05779">
        <ele>779.2</ele>
        <time>2011-06-07T11:20:06Z</time>
      </trkpt>
      <trkpt lat="45.6809" lon="6.05772">
        <ele>780.5</ele>
        <time>2011-06-07T11:20:11Z</time>
      </trkpt>
      <trkpt lat="45.68068" lon="6.05772">
        <ele>783.7</ele>
        <time>2011-06-07T11:20:20Z</time>
      </trkpt>
      <trkpt lat="45.68056" lon="6.05765">
        <ele>784.1</ele>
        <time>2011-06-07T11:20:25Z</time>
      </trkpt>
      <trkpt lat="45.68045" lon="6.05758">
        <ele>785.5</ele>
        <time>2011-06-07T11:20:30Z</time>
      </trkpt>
      <trkpt lat="45.68037" lon="6.05756">
        <ele>787.3</ele>
        <time>2011-06-07T11:20:33Z</time>
      </trkpt>
      <trkpt lat="45.68025" lon="6.05752">
        <ele>789.9</ele>
        <time>2011-06-07T11:20:38Z</time>
      </trkpt>
      <trkpt lat="45.68015" lon="6.05749">
        <ele>791.6</ele>
        <time>2011-06-07T11:20:42Z</time>
      </trkpt>
      <trkpt lat="45.68005" lon="6.0575">
        <ele>794</ele>
        <time>2011-06-07T11:20:46Z</time>
      </trkpt>
      <trkpt lat="45.67991" lon="6.05741">
        <ele>795.3</ele>
        <time>2011-06-07T11:20:52Z</time>
      </trkpt>
      <trkpt lat="45.67978" lon="6.05733">
        <ele>796.7</ele>
        <time>2011-06-07T11:20:58Z</time>
      </trkpt>
      <trkpt lat="45.67967" lon="6.05726">
        <ele>797.9</ele>
        <time>2011-06-07T11:21:03Z</time>
      </trkpt>
      <trkpt lat="45.67954" lon="6.05718">
        <ele>800.1</ele>
        <time>2011-06-07T11:21:08Z</time>
      </trkpt>
      <trkpt lat="45.67948" lon="6.05714">
        <ele>801.5</ele>
        <time>2011-06-07T11:21:11Z</time>
      </trkpt>
      <trkpt lat="45.67935" lon="6.05706">
        <ele>803.6</ele>
        <time>2011-06-07T11:21:17Z</time>
      </trkpt>
      <trkpt lat="45.67929" lon="6.05692">
        <ele>803.2</ele>
        <time>2011-06-07T11:21:21Z</time>
      </trkpt>
      <trkpt lat="45.67925" lon="6.05679">
        <ele>801.1</ele>
        <time>2011-06-07T11:21:25Z</time>
      </trkpt>
      <trkpt lat="45.67922" lon="6.05674">
        <ele>800.9</ele>
        <time>2011-06-07T11:21:27Z</time>
      </trkpt>
      <trkpt lat="45.67905" lon="6.05663">
        <ele>802.3</ele>
        <time>2011-06-07T11:21:35Z</time>
      </trkpt>
      <trkpt lat="45.67896" lon="6.05658">
        <ele>802.7</ele>
        <time>2011-06-07T11:21:38Z</time>
      </trkpt>
      <trkpt lat="45.67886" lon="6.05652">
        <ele>803.4</ele>
        <time>2011-06-07T11:21:43Z</time>
      </trkpt>
      <trkpt lat="45.67875" lon="6.05645">
        <ele>804.4</ele>
        <time>2011-06-07T11:21:47Z</time>
      </trkpt>
      <trkpt lat="45.67863" lon="6.05638">
        <ele>806.4</ele>
        <time>2011-06-07T11:21:53Z</time>
      </trkpt>
      <trkpt lat="45.67855" lon="6.05632">
        <ele>807.3</ele>
        <time>2011-06-07T11:21:56Z</time>
      </trkpt>
      <trkpt lat="45.67847" lon="6.05627">
        <ele>807.9</ele>
        <time>2011-06-07T11:22:00Z</time>
      </trkpt>
      <trkpt lat="45.67831" lon="6.05608">
        <ele>809.1</ele>
        <time>2011-06-07T11:22:08Z</time>
      </trkpt>
      <trkpt lat="45.67823" lon="6.056">
        <ele>809.5</ele>
        <time>2011-06-07T11:22:12Z</time>
      </trkpt>
      <trkpt lat="45.67817" lon="6.05596">
        <ele>810</ele>
        <time>2011-06-07T11:22:15Z</time>
      </trkpt>
      <trkpt lat="45.67803" lon="6.05584">
        <ele>811.3</ele>
        <time>2011-06-07T11:22:21Z</time>
      </trkpt>
      <trkpt lat="45.67791" lon="6.05577">
        <ele>813</ele>
        <time>2011-06-07T11:22:27Z</time>
      </trkpt>
      <trkpt lat="45.67781" lon="6.05571">
        <ele>814.2</ele>
        <time>2011-06-07T11:22:31Z</time>
      </trkpt>
      <trkpt lat="45.67771" lon="6.05565">
        <ele>815.1</ele>
        <time>2011-06-07T11:22:35Z</time>
      </trkpt>
      <trkpt lat="45.67755" lon="6.05565">
        <ele>816.8</ele>
        <time>2011-06-07T11:22:42Z</time>
      </trkpt>
      <trkpt lat="45.67751" lon="6.05576">
        <ele>817.6</ele>
        <time>2011-06-07T11:22:45Z</time>
      </trkpt>
      <trkpt lat="45.67747" lon="6.05586">
        <ele>818.4</ele>
        <time>2011-06-07T11:22:48Z</time>
      </trkpt>
      <trkpt lat="45.67743" lon="6.05596">
        <ele>819.3</ele>
        <time>2011-06-07T11:22:52Z</time>
      </trkpt>
      <trkpt lat="45.67735" lon="6.05617">
        <ele>821.3</ele>
        <time>2011-06-07T11:22:58Z</time>
      </trkpt>
      <trkpt lat="45.67731" lon="6.05627">
        <ele>822.3</ele>
        <time>2011-06-07T11:23:01Z</time>
      </trkpt>
      <trkpt lat="45.6773" lon="6.05636">
        <ele>822.7</ele>
        <time>2011-06-07T11:23:04Z</time>
      </trkpt>
      <trkpt lat="45.6773" lon="6.05662">
        <ele>825.1</ele>
        <time>2011-06-07T11:23:11Z</time>
      </trkpt>
      <trkpt lat="45.67731" lon="6.05672">
        <ele>826.2</ele>
        <time>2011-06-07T11:23:14Z</time>
      </trkpt>
      <trkpt lat="45.67737" lon="6.05689">
        <ele>827.1</ele>
        <time>2011-06-07T11:23:19Z</time>
      </trkpt>
      <trkpt lat="45.67742" lon="6.05702">
        <ele>828.1</ele>
        <time>2011-06-07T11:23:23Z</time>
      </trkpt>
      <trkpt lat="45.67747" lon="6.05715">
        <ele>829.4</ele>
        <time>2011-06-07T11:23:28Z</time>
      </trkpt>
      <trkpt lat="45.67754" lon="6.05723">
        <ele>829.4</ele>
        <time>2011-06-07T11:23:31Z</time>
      </trkpt>
      <trkpt lat="45.67761" lon="6.05731">
        <ele>829.7</ele>
        <time>2011-06-07T11:23:35Z</time>
      </trkpt>
      <trkpt lat="45.67777" lon="6.05751">
        <ele>830.4</ele>
        <time>2011-06-07T11:23:43Z</time>
      </trkpt>
      <trkpt lat="45.67782" lon="6.05764">
        <ele>831.6</ele>
        <time>2011-06-07T11:23:48Z</time>
      </trkpt>
      <trkpt lat="45.67795" lon="6.05779">
        <ele>831</ele>
        <time>2011-06-07T11:23:54Z</time>
      </trkpt>
      <trkpt lat="45.678" lon="6.05786">
        <ele>830.7</ele>
        <time>2011-06-07T11:23:57Z</time>
      </trkpt>
      <trkpt lat="45.67808" lon="6.05798">
        <ele>830.5</ele>
        <time>2011-06-07T11:24:02Z</time>
      </trkpt>
      <trkpt lat="45.67821" lon="6.05813">
        <ele>829.8</ele>
        <time>2011-06-07T11:24:08Z</time>
      </trkpt>
      <trkpt lat="45.67841" lon="6.05837">
        <ele>830.4</ele>
        <time>2011-06-07T11:24:19Z</time>
      </trkpt>
      <trkpt lat="45.67851" lon="6.05847">
        <ele>831.8</ele>
        <time>2011-06-07T11:24:23Z</time>
      </trkpt>
      <trkpt lat="45.67856" lon="6.05854">
        <ele>832.9</ele>
        <time>2011-06-07T11:24:26Z</time>
      </trkpt>
      <trkpt lat="45.67867" lon="6.05861">
        <ele>833.4</ele>
        <time>2011-06-07T11:24:31Z</time>
      </trkpt>
      <trkpt lat="45.67884" lon="6.0588">
        <ele>832.8</ele>
        <time>2011-06-07T11:24:40Z</time>
      </trkpt>
      <trkpt lat="45.67892" lon="6.05902">
        <ele>831.8</ele>
        <time>2011-06-07T11:24:47Z</time>
      </trkpt>
      <trkpt lat="45.67881" lon="6.05929">
        <ele>836.6</ele>
        <time>2011-06-07T11:24:55Z</time>
      </trkpt>
      <trkpt lat="45.67888" lon="6.05961">
        <ele>836.4</ele>
        <time>2011-06-07T11:25:05Z</time>
      </trkpt>
      <trkpt lat="45.6789" lon="6.05976">
        <ele>837</ele>
        <time>2011-06-07T11:25:09Z</time>
      </trkpt>
      <trkpt lat="45.67888" lon="6.05995">
        <ele>838.8</ele>
        <time>2011-06-07T11:25:14Z</time>
      </trkpt>
      <trkpt lat="45.67884" lon="6.06012">
        <ele>840.6</ele>
        <time>2011-06-07T11:25:19Z</time>
      </trkpt>
      <trkpt lat="45.67883" lon="6.06028">
        <ele>841.7</ele>
        <time>2011-06-07T11:25:24Z</time>
      </trkpt>
      <trkpt lat="45.67891" lon="6.06037">
        <ele>840.8</ele>
        <time>2011-06-07T11:25:28Z</time>
      </trkpt>
      <trkpt lat="45.679" lon="6.06044">
        <ele>839.6</ele>
        <time>2011-06-07T11:25:32Z</time>
      </trkpt>
      <trkpt lat="45.6791" lon="6.06055">
        <ele>838</ele>
        <time>2011-06-07T11:25:37Z</time>
      </trkpt>
      <trkpt lat="45.67917" lon="6.0606">
        <ele>837</ele>
        <time>2011-06-07T11:25:40Z</time>
      </trkpt>
      <trkpt lat="45.67938" lon="6.06066">
        <ele>835.2</ele>
        <time>2011-06-07T11:25:49Z</time>
      </trkpt>
      <trkpt lat="45.67945" lon="6.06071">
        <ele>834.4</ele>
        <time>2011-06-07T11:25:52Z</time>
      </trkpt>
      <trkpt lat="45.67951" lon="6.06086">
        <ele>833.4</ele>
        <time>2011-06-07T11:25:57Z</time>
      </trkpt>
      <trkpt lat="45.67955" lon="6.06099">
        <ele>832.3</ele>
        <time>2011-06-07T11:26:01Z</time>
      </trkpt>
      <trkpt lat="45.67957" lon="6.06115">
        <ele>831</ele>
        <time>2011-06-07T11:26:06Z</time>
      </trkpt>
      <trkpt lat="45.67962" lon="6.06125">
        <ele>830</ele>
        <time>2011-06-07T11:26:09Z</time>
      </trkpt>
      <trkpt lat="45.67961" lon="6.06142">
        <ele>829.6</ele>
        <time>2011-06-07T11:26:14Z</time>
      </trkpt>
      <trkpt lat="45.67961" lon="6.06156">
        <ele>829.3</ele>
        <time>2011-06-07T11:26:18Z</time>
      </trkpt>
      <trkpt lat="45.6797" lon="6.06173">
        <ele>827.7</ele>
        <time>2011-06-07T11:26:24Z</time>
      </trkpt>
      <trkpt lat="45.67974" lon="6.06183">
        <ele>826</ele>
        <time>2011-06-07T11:26:27Z</time>
      </trkpt>
      <trkpt lat="45.67977" lon="6.06196">
        <ele>824.7</ele>
        <time>2011-06-07T11:26:31Z</time>
      </trkpt>
      <trkpt lat="45.67972" lon="6.06206">
        <ele>825.8</ele>
        <time>2011-06-07T11:26:34Z</time>
      </trkpt>
      <trkpt lat="45.67972" lon="6.0622">
        <ele>826.8</ele>
        <time>2011-06-07T11:26:38Z</time>
      </trkpt>
      <trkpt lat="45.67978" lon="6.06242">
        <ele>827.7</ele>
        <time>2011-06-07T11:26:45Z</time>
      </trkpt>
      <trkpt lat="45.67989" lon="6.06254">
        <ele>826.8</ele>
        <time>2011-06-07T11:26:50Z</time>
      </trkpt>
      <trkpt lat="45.67997" lon="6.06264">
        <ele>825.9</ele>
        <time>2011-06-07T11:26:54Z</time>
      </trkpt>
      <trkpt lat="45.68004" lon="6.06277">
        <ele>825.4</ele>
        <time>2011-06-07T11:26:59Z</time>
      </trkpt>
      <trkpt lat="45.68012" lon="6.06287">
        <ele>824.7</ele>
        <time>2011-06-07T11:27:03Z</time>
      </trkpt>
      <trkpt lat="45.68021" lon="6.06297">
        <ele>824.2</ele>
        <time>2011-06-07T11:27:08Z</time>
      </trkpt>
      <trkpt lat="45.6803" lon="6.06304">
        <ele>823.8</ele>
        <time>2011-06-07T11:27:12Z</time>
      </trkpt>
      <trkpt lat="45.68057" lon="6.06325">
        <ele>824.9</ele>
        <time>2011-06-07T11:27:24Z</time>
      </trkpt>
      <trkpt lat="45.68074" lon="6.06338">
        <ele>824.4</ele>
        <time>2011-06-07T11:27:32Z</time>
      </trkpt>
      <trkpt lat="45.68088" lon="6.06349">
        <ele>823.6</ele>
        <time>2011-06-07T11:27:38Z</time>
      </trkpt>
      <trkpt lat="45.681" lon="6.06358">
        <ele>823.5</ele>
        <time>2011-06-07T11:27:44Z</time>
      </trkpt>
      <trkpt lat="45.68114" lon="6.06369">
        <ele>823.1</ele>
        <time>2011-06-07T11:27:50Z</time>
      </trkpt>
      <trkpt lat="45.68124" lon="6.06377">
        <ele>822.5</ele>
        <time>2011-06-07T11:27:55Z</time>
      </trkpt>
      <trkpt lat="45.68133" lon="6.06387">
        <ele>822.5</ele>
        <time>2011-06-07T11:27:59Z</time>
      </trkpt>
      <trkpt lat="45.68148" lon="6.06413">
        <ele>821.8</ele>
        <time>2011-06-07T11:28:09Z</time>
      </trkpt>
      <trkpt lat="45.68155" lon="6.06426">
        <ele>821.6</ele>
        <time>2011-06-07T11:28:13Z</time>
      </trkpt>
      <trkpt lat="45.68163" lon="6.0644">
        <ele>821.3</ele>
        <time>2011-06-07T11:28:18Z</time>
      </trkpt>
      <trkpt lat="45.68178" lon="6.06459">
        <ele>819.4</ele>
        <time>2011-06-07T11:28:26Z</time>
      </trkpt>
      <trkpt lat="45.68186" lon="6.06473">
        <ele>818.2</ele>
        <time>2011-06-07T11:28:31Z</time>
      </trkpt>
      <trkpt lat="45.68193" lon="6.06486">
        <ele>817.1</ele>
        <time>2011-06-07T11:28:36Z</time>
      </trkpt>
      <trkpt lat="45.68206" lon="6.06526">
        <ele>816.1</ele>
        <time>2011-06-07T11:28:48Z</time>
      </trkpt>
      <trkpt lat="45.68209" lon="6.06543">
        <ele>817.1</ele>
        <time>2011-06-07T11:28:53Z</time>
      </trkpt>
      <trkpt lat="45.68214" lon="6.06555">
        <ele>817.5</ele>
        <time>2011-06-07T11:28:57Z</time>
      </trkpt>
      <trkpt lat="45.68233" lon="6.0657">
        <ele>817.1</ele>
        <time>2011-06-07T11:29:06Z</time>
      </trkpt>
      <trkpt lat="45.68238" lon="6.06574">
        <ele>816.8</ele>
        <time>2011-06-07T11:29:08Z</time>
      </trkpt>
      <trkpt lat="45.68253" lon="6.0659">
        <ele>815.9</ele>
        <time>2011-06-07T11:29:16Z</time>
      </trkpt>
      <trkpt lat="45.68261" lon="6.06597">
        <ele>815.3</ele>
        <time>2011-06-07T11:29:19Z</time>
      </trkpt>
      <trkpt lat="45.68286" lon="6.06617">
        <ele>814</ele>
        <time>2011-06-07T11:29:31Z</time>
      </trkpt>
      <trkpt lat="45.68306" lon="6.06633">
        <ele>813</ele>
        <time>2011-06-07T11:29:40Z</time>
      </trkpt>
      <trkpt lat="45.68309" lon="6.06635">
        <ele>812.4</ele>
        <time>2011-06-07T11:29:41Z</time>
      </trkpt>
      <trkpt lat="45.68356" lon="6.06738">
        <ele>811.5</ele>
        <time>2011-06-07T11:30:16Z</time>
      </trkpt>
      <trkpt lat="45.68361" lon="6.06744">
        <ele>811.4</ele>
        <time>2011-06-07T11:30:18Z</time>
      </trkpt>
      <trkpt lat="45.68368" lon="6.06758">
        <ele>811.6</ele>
        <time>2011-06-07T11:30:23Z</time>
      </trkpt>
      <trkpt lat="45.68373" lon="6.06771">
        <ele>811.5</ele>
        <time>2011-06-07T11:30:27Z</time>
      </trkpt>
      <trkpt lat="45.6838" lon="6.0679">
        <ele>811.1</ele>
        <time>2011-06-07T11:30:33Z</time>
      </trkpt>
      <trkpt lat="45.68385" lon="6.06802">
        <ele>810.6</ele>
        <time>2011-06-07T11:30:37Z</time>
      </trkpt>
      <trkpt lat="45.68386" lon="6.06811">
        <ele>810.2</ele>
        <time>2011-06-07T11:30:40Z</time>
      </trkpt>
      <trkpt lat="45.68397" lon="6.06829">
        <ele>808.1</ele>
        <time>2011-06-07T11:30:46Z</time>
      </trkpt>
      <trkpt lat="45.68404" lon="6.06838">
        <ele>806.7</ele>
        <time>2011-06-07T11:30:50Z</time>
      </trkpt>
      <trkpt lat="45.68409" lon="6.0685">
        <ele>805.3</ele>
        <time>2011-06-07T11:30:54Z</time>
      </trkpt>
      <trkpt lat="45.68414" lon="6.06863">
        <ele>803.7</ele>
        <time>2011-06-07T11:30:58Z</time>
      </trkpt>
      <trkpt lat="45.68426" lon="6.06891">
        <ele>803.8</ele>
        <time>2011-06-07T11:31:08Z</time>
      </trkpt>
      <trkpt lat="45.68429" lon="6.06909">
        <ele>805</ele>
        <time>2011-06-07T11:31:13Z</time>
      </trkpt>
      <trkpt lat="45.68439" lon="6.06919">
        <ele>804.9</ele>
        <time>2011-06-07T11:31:18Z</time>
      </trkpt>
      <trkpt lat="45.68445" lon="6.0693">
        <ele>804.9</ele>
        <time>2011-06-07T11:31:22Z</time>
      </trkpt>
      <trkpt lat="45.68452" lon="6.06941">
        <ele>804.5</ele>
        <time>2011-06-07T11:31:26Z</time>
      </trkpt>
      <trkpt lat="45.68461" lon="6.06948">
        <ele>803.1</ele>
        <time>2011-06-07T11:31:30Z</time>
      </trkpt>
      <trkpt lat="45.68472" lon="6.06959">
        <ele>802.1</ele>
        <time>2011-06-07T11:31:35Z</time>
      </trkpt>
      <trkpt lat="45.68484" lon="6.06972">
        <ele>802.2</ele>
        <time>2011-06-07T11:31:41Z</time>
      </trkpt>
      <trkpt lat="45.68495" lon="6.06984">
        <ele>803.4</ele>
        <time>2011-06-07T11:31:47Z</time>
      </trkpt>
      <trkpt lat="45.68499" lon="6.06993">
        <ele>804.7</ele>
        <time>2011-06-07T11:31:50Z</time>
      </trkpt>
      <trkpt lat="45.68506" lon="6.07">
        <ele>805.1</ele>
        <time>2011-06-07T11:31:53Z</time>
      </trkpt>
      <trkpt lat="45.68519" lon="6.07014">
        <ele>804.6</ele>
        <time>2011-06-07T11:31:59Z</time>
      </trkpt>
      <trkpt lat="45.68527" lon="6.07031">
        <ele>805.3</ele>
        <time>2011-06-07T11:32:05Z</time>
      </trkpt>
      <trkpt lat="45.68544" lon="6.0707">
        <ele>803.1</ele>
        <time>2011-06-07T11:32:18Z</time>
      </trkpt>
      <trkpt lat="45.68548" lon="6.07082">
        <ele>802.6</ele>
        <time>2011-06-07T11:32:22Z</time>
      </trkpt>
      <trkpt lat="45.6855" lon="6.07096">
        <ele>803.1</ele>
        <time>2011-06-07T11:32:26Z</time>
      </trkpt>
      <trkpt lat="45.68553" lon="6.07119">
        <ele>804.4</ele>
        <time>2011-06-07T11:32:33Z</time>
      </trkpt>
      <trkpt lat="45.6856" lon="6.07131">
        <ele>804.2</ele>
        <time>2011-06-07T11:32:37Z</time>
      </trkpt>
      <trkpt lat="45.68574" lon="6.07163">
        <ele>804.6</ele>
        <time>2011-06-07T11:32:47Z</time>
      </trkpt>
      <trkpt lat="45.68582" lon="6.0718">
        <ele>804.2</ele>
        <time>2011-06-07T11:32:53Z</time>
      </trkpt>
      <trkpt lat="45.686" lon="6.07208">
        <ele>803.3</ele>
        <time>2011-06-07T11:33:04Z</time>
      </trkpt>
      <trkpt lat="45.68609" lon="6.07218">
        <ele>802.9</ele>
        <time>2011-06-07T11:33:08Z</time>
      </trkpt>
      <trkpt lat="45.68651" lon="6.073">
        <ele>804.4</ele>
        <time>2011-06-07T11:33:37Z</time>
      </trkpt>
      <trkpt lat="45.68658" lon="6.07313">
        <ele>804.4</ele>
        <time>2011-06-07T11:33:41Z</time>
      </trkpt>
      <trkpt lat="45.68666" lon="6.07335">
        <ele>806.2</ele>
        <time>2011-06-07T11:33:48Z</time>
      </trkpt>
      <trkpt lat="45.6867" lon="6.07353">
        <ele>807.7</ele>
        <time>2011-06-07T11:33:54Z</time>
      </trkpt>
      <trkpt lat="45.68675" lon="6.07367">
        <ele>808.1</ele>
        <time>2011-06-07T11:33:58Z</time>
      </trkpt>
      <trkpt lat="45.68681" lon="6.07381">
        <ele>808.4</ele>
        <time>2011-06-07T11:34:03Z</time>
      </trkpt>
      <trkpt lat="45.68684" lon="6.07393">
        <ele>809.1</ele>
        <time>2011-06-07T11:34:06Z</time>
      </trkpt>
      <trkpt lat="45.68689" lon="6.074">
        <ele>809.6</ele>
        <time>2011-06-07T11:34:09Z</time>
      </trkpt>
      <trkpt lat="45.6869" lon="6.07402">
        <ele>809.6</ele>
        <time>2011-06-07T11:34:10Z</time>
      </trkpt>
      <trkpt lat="45.68699" lon="6.07416">
        <ele>810.1</ele>
        <time>2011-06-07T11:34:15Z</time>
      </trkpt>
      <trkpt lat="45.68705" lon="6.07422">
        <ele>809.5</ele>
        <time>2011-06-07T11:34:18Z</time>
      </trkpt>
      <trkpt lat="45.68713" lon="6.07429">
        <ele>808.8</ele>
        <time>2011-06-07T11:34:22Z</time>
      </trkpt>
      <trkpt lat="45.68721" lon="6.07442">
        <ele>809</ele>
        <time>2011-06-07T11:34:26Z</time>
      </trkpt>
      <trkpt lat="45.68725" lon="6.07461">
        <ele>810.3</ele>
        <time>2011-06-07T11:34:32Z</time>
      </trkpt>
      <trkpt lat="45.68725" lon="6.07465">
        <ele>810.6</ele>
        <time>2011-06-07T11:34:33Z</time>
      </trkpt>
      <trkpt lat="45.6873" lon="6.07478">
        <ele>811.2</ele>
        <time>2011-06-07T11:34:37Z</time>
      </trkpt>
      <trkpt lat="45.68734" lon="6.07494">
        <ele>812.3</ele>
        <time>2011-06-07T11:34:42Z</time>
      </trkpt>
      <trkpt lat="45.68738" lon="6.07508">
        <ele>812.9</ele>
        <time>2011-06-07T11:34:46Z</time>
      </trkpt>
      <trkpt lat="45.68743" lon="6.0753">
        <ele>814.6</ele>
        <time>2011-06-07T11:34:53Z</time>
      </trkpt>
      <trkpt lat="45.68745" lon="6.07535">
        <ele>814.8</ele>
        <time>2011-06-07T11:34:54Z</time>
      </trkpt>
      <trkpt lat="45.68751" lon="6.07551">
        <ele>815.4</ele>
        <time>2011-06-07T11:34:59Z</time>
      </trkpt>
      <trkpt lat="45.68759" lon="6.07561">
        <ele>816.1</ele>
        <time>2011-06-07T11:35:03Z</time>
      </trkpt>
      <trkpt lat="45.68762" lon="6.07564">
        <ele>816.4</ele>
        <time>2011-06-07T11:35:05Z</time>
      </trkpt>
      <trkpt lat="45.68771" lon="6.07576">
        <ele>817.4</ele>
        <time>2011-06-07T11:35:10Z</time>
      </trkpt>
      <trkpt lat="45.68779" lon="6.07583">
        <ele>817.9</ele>
        <time>2011-06-07T11:35:14Z</time>
      </trkpt>
      <trkpt lat="45.68785" lon="6.0759">
        <ele>817.9</ele>
        <time>2011-06-07T11:35:17Z</time>
      </trkpt>
      <trkpt lat="45.68795" lon="6.07599">
        <ele>818.2</ele>
        <time>2011-06-07T11:35:22Z</time>
      </trkpt>
      <trkpt lat="45.68805" lon="6.07609">
        <ele>818.7</ele>
        <time>2011-06-07T11:35:27Z</time>
      </trkpt>
      <trkpt lat="45.68814" lon="6.07617">
        <ele>818.6</ele>
        <time>2011-06-07T11:35:31Z</time>
      </trkpt>
      <trkpt lat="45.68825" lon="6.07628">
        <ele>818.5</ele>
        <time>2011-06-07T11:35:36Z</time>
      </trkpt>
      <trkpt lat="45.68829" lon="6.07631">
        <ele>818.5</ele>
        <time>2011-06-07T11:35:38Z</time>
      </trkpt>
      <trkpt lat="45.68841" lon="6.07643">
        <ele>817.2</ele>
        <time>2011-06-07T11:35:44Z</time>
      </trkpt>
      <trkpt lat="45.68844" lon="6.07646">
        <ele>816.6</ele>
        <time>2011-06-07T11:35:45Z</time>
      </trkpt>
      <trkpt lat="45.68855" lon="6.07656">
        <ele>815.1</ele>
        <time>2011-06-07T11:35:50Z</time>
      </trkpt>
      <trkpt lat="45.68861" lon="6.07663">
        <ele>814.4</ele>
        <time>2011-06-07T11:35:54Z</time>
      </trkpt>
      <trkpt lat="45.6887" lon="6.07671">
        <ele>814</ele>
        <time>2011-06-07T11:35:58Z</time>
      </trkpt>
      <trkpt lat="45.68877" lon="6.07678">
        <ele>814</ele>
        <time>2011-06-07T11:36:01Z</time>
      </trkpt>
      <trkpt lat="45.68884" lon="6.07685">
        <ele>814.4</ele>
        <time>2011-06-07T11:36:05Z</time>
      </trkpt>
      <trkpt lat="45.68898" lon="6.07698">
        <ele>815</ele>
        <time>2011-06-07T11:36:11Z</time>
      </trkpt>
      <trkpt lat="45.68909" lon="6.07709">
        <ele>814.2</ele>
        <time>2011-06-07T11:36:17Z</time>
      </trkpt>
      <trkpt lat="45.68918" lon="6.07717">
        <ele>813.4</ele>
        <time>2011-06-07T11:36:21Z</time>
      </trkpt>
      <trkpt lat="45.68926" lon="6.07724">
        <ele>813.1</ele>
        <time>2011-06-07T11:36:25Z</time>
      </trkpt>
      <trkpt lat="45.68933" lon="6.07732">
        <ele>813.3</ele>
        <time>2011-06-07T11:36:28Z</time>
      </trkpt>
      <trkpt lat="45.68942" lon="6.0774">
        <ele>813.6</ele>
        <time>2011-06-07T11:36:33Z</time>
      </trkpt>
      <trkpt lat="45.68952" lon="6.0775">
        <ele>814.4</ele>
        <time>2011-06-07T11:36:37Z</time>
      </trkpt>
      <trkpt lat="45.68961" lon="6.07759">
        <ele>814.6</ele>
        <time>2011-06-07T11:36:42Z</time>
      </trkpt>
      <trkpt lat="45.68967" lon="6.07764">
        <ele>814.8</ele>
        <time>2011-06-07T11:36:44Z</time>
      </trkpt>
      <trkpt lat="45.68972" lon="6.0777">
        <ele>815.1</ele>
        <time>2011-06-07T11:36:47Z</time>
      </trkpt>
      <trkpt lat="45.68988" lon="6.07788">
        <ele>816.8</ele>
        <time>2011-06-07T11:36:55Z</time>
      </trkpt>
      <trkpt lat="45.68992" lon="6.07792">
        <ele>817</ele>
        <time>2011-06-07T11:36:57Z</time>
      </trkpt>
      <trkpt lat="45.69004" lon="6.07807">
        <ele>818.1</ele>
        <time>2011-06-07T11:37:04Z</time>
      </trkpt>
      <trkpt lat="45.69009" lon="6.07815">
        <ele>818.6</ele>
        <time>2011-06-07T11:37:06Z</time>
      </trkpt>
      <trkpt lat="45.69019" lon="6.07824">
        <ele>818.9</ele>
        <time>2011-06-07T11:37:11Z</time>
      </trkpt>
      <trkpt lat="45.69025" lon="6.0783">
        <ele>819</ele>
        <time>2011-06-07T11:37:14Z</time>
      </trkpt>
      <trkpt lat="45.69036" lon="6.07852">
        <ele>817.8</ele>
        <time>2011-06-07T11:37:22Z</time>
      </trkpt>
      <trkpt lat="45.69041" lon="6.07863">
        <ele>817.2</ele>
        <time>2011-06-07T11:37:26Z</time>
      </trkpt>
      <trkpt lat="45.69045" lon="6.07877">
        <ele>817.4</ele>
        <time>2011-06-07T11:37:30Z</time>
      </trkpt>
      <trkpt lat="45.69051" lon="6.07893">
        <ele>817.5</ele>
        <time>2011-06-07T11:37:35Z</time>
      </trkpt>
      <trkpt lat="45.69053" lon="6.07909">
        <ele>817.2</ele>
        <time>2011-06-07T11:37:39Z</time>
      </trkpt>
      <trkpt lat="45.69052" lon="6.07921">
        <ele>817.8</ele>
        <time>2011-06-07T11:37:43Z</time>
      </trkpt>
      <trkpt lat="45.69049" lon="6.07936">
        <ele>819.4</ele>
        <time>2011-06-07T11:37:47Z</time>
      </trkpt>
      <trkpt lat="45.69047" lon="6.07948">
        <ele>820.8</ele>
        <time>2011-06-07T11:37:50Z</time>
      </trkpt>
      <trkpt lat="45.69055" lon="6.07956">
        <ele>819.9</ele>
        <time>2011-06-07T11:37:54Z</time>
      </trkpt>
      <trkpt lat="45.69066" lon="6.07966">
        <ele>819.8</ele>
        <time>2011-06-07T11:37:59Z</time>
      </trkpt>
      <trkpt lat="45.69072" lon="6.07972">
        <ele>819.8</ele>
        <time>2011-06-07T11:38:02Z</time>
      </trkpt>
      <trkpt lat="45.69094" lon="6.07995">
        <ele>821</ele>
        <time>2011-06-07T11:38:13Z</time>
      </trkpt>
      <trkpt lat="45.69105" lon="6.08005">
        <ele>822</ele>
        <time>2011-06-07T11:38:19Z</time>
      </trkpt>
      <trkpt lat="45.69114" lon="6.08022">
        <ele>823.3</ele>
        <time>2011-06-07T11:38:25Z</time>
      </trkpt>
      <trkpt lat="45.69127" lon="6.08035">
        <ele>822.4</ele>
        <time>2011-06-07T11:38:31Z</time>
      </trkpt>
      <trkpt lat="45.69136" lon="6.08043">
        <ele>822.5</ele>
        <time>2011-06-07T11:38:35Z</time>
      </trkpt>
      <trkpt lat="45.69149" lon="6.08056">
        <ele>822</ele>
        <time>2011-06-07T11:38:41Z</time>
      </trkpt>
      <trkpt lat="45.69159" lon="6.08067">
        <ele>820.3</ele>
        <time>2011-06-07T11:38:47Z</time>
      </trkpt>
      <trkpt lat="45.69173" lon="6.0808">
        <ele>818.6</ele>
        <time>2011-06-07T11:38:53Z</time>
      </trkpt>
      <trkpt lat="45.69181" lon="6.08089">
        <ele>817.4</ele>
        <time>2011-06-07T11:38:57Z</time>
      </trkpt>
      <trkpt lat="45.69189" lon="6.08104">
        <ele>818.1</ele>
        <time>2011-06-07T11:39:03Z</time>
      </trkpt>
      <trkpt lat="45.69201" lon="6.08116">
        <ele>817.2</ele>
        <time>2011-06-07T11:39:08Z</time>
      </trkpt>
      <trkpt lat="45.69212" lon="6.08128">
        <ele>815.6</ele>
        <time>2011-06-07T11:39:14Z</time>
      </trkpt>
      <trkpt lat="45.69223" lon="6.08142">
        <ele>814.7</ele>
        <time>2011-06-07T11:39:20Z</time>
      </trkpt>
      <trkpt lat="45.69238" lon="6.08161">
        <ele>814.4</ele>
        <time>2011-06-07T11:39:28Z</time>
      </trkpt>
      <trkpt lat="45.69246" lon="6.08172">
        <ele>813.9</ele>
        <time>2011-06-07T11:39:32Z</time>
      </trkpt>
      <trkpt lat="45.69253" lon="6.0818">
        <ele>812.8</ele>
        <time>2011-06-07T11:39:36Z</time>
      </trkpt>
      <trkpt lat="45.69265" lon="6.08193">
        <ele>811.6</ele>
        <time>2011-06-07T11:39:42Z</time>
      </trkpt>
      <trkpt lat="45.69274" lon="6.08205">
        <ele>811.2</ele>
        <time>2011-06-07T11:39:47Z</time>
      </trkpt>
      <trkpt lat="45.69285" lon="6.0822">
        <ele>810.3</ele>
        <time>2011-06-07T11:39:53Z</time>
      </trkpt>
      <trkpt lat="45.69286" lon="6.08225">
        <ele>810.7</ele>
        <time>2011-06-07T11:39:54Z</time>
      </trkpt>
      <trkpt lat="45.69295" lon="6.08238">
        <ele>809.2</ele>
        <time>2011-06-07T11:39:59Z</time>
      </trkpt>
      <trkpt lat="45.69303" lon="6.08258">
        <ele>809.6</ele>
        <time>2011-06-07T11:40:06Z</time>
      </trkpt>
      <trkpt lat="45.69311" lon="6.08271">
        <ele>809.6</ele>
        <time>2011-06-07T11:40:11Z</time>
      </trkpt>
      <trkpt lat="45.69327" lon="6.08294">
        <ele>808.2</ele>
        <time>2011-06-07T11:40:20Z</time>
      </trkpt>
      <trkpt lat="45.69337" lon="6.08305">
        <ele>806.8</ele>
        <time>2011-06-07T11:40:25Z</time>
      </trkpt>
      <trkpt lat="45.69349" lon="6.08321">
        <ele>805.2</ele>
        <time>2011-06-07T11:40:31Z</time>
      </trkpt>
      <trkpt lat="45.69358" lon="6.08334">
        <ele>804</ele>
        <time>2011-06-07T11:40:36Z</time>
      </trkpt>
      <trkpt lat="45.69365" lon="6.08349">
        <ele>803.6</ele>
        <time>2011-06-07T11:40:42Z</time>
      </trkpt>
      <trkpt lat="45.69374" lon="6.08362">
        <ele>802.4</ele>
        <time>2011-06-07T11:40:47Z</time>
      </trkpt>
      <trkpt lat="45.69384" lon="6.08381">
        <ele>800.8</ele>
        <time>2011-06-07T11:40:53Z</time>
      </trkpt>
      <trkpt lat="45.69392" lon="6.08397">
        <ele>799.3</ele>
        <time>2011-06-07T11:40:59Z</time>
      </trkpt>
      <trkpt lat="45.69394" lon="6.08407">
        <ele>798.8</ele>
        <time>2011-06-07T11:41:02Z</time>
      </trkpt>
      <trkpt lat="45.69409" lon="6.08435">
        <ele>794.8</ele>
        <time>2011-06-07T11:41:12Z</time>
      </trkpt>
      <trkpt lat="45.69415" lon="6.0845">
        <ele>793.5</ele>
        <time>2011-06-07T11:41:16Z</time>
      </trkpt>
      <trkpt lat="45.69424" lon="6.08483">
        <ele>792</ele>
        <time>2011-06-07T11:41:26Z</time>
      </trkpt>
      <trkpt lat="45.69429" lon="6.08513">
        <ele>792.1</ele>
        <time>2011-06-07T11:41:35Z</time>
      </trkpt>
      <trkpt lat="45.69432" lon="6.08537">
        <ele>791.8</ele>
        <time>2011-06-07T11:41:42Z</time>
      </trkpt>
      <trkpt lat="45.69435" lon="6.08556">
        <ele>791.8</ele>
        <time>2011-06-07T11:41:47Z</time>
      </trkpt>
      <trkpt lat="45.69437" lon="6.08575">
        <ele>791.9</ele>
        <time>2011-06-07T11:41:53Z</time>
      </trkpt>
      <trkpt lat="45.69442" lon="6.08589">
        <ele>791.7</ele>
        <time>2011-06-07T11:41:57Z</time>
      </trkpt>
      <trkpt lat="45.69447" lon="6.08611">
        <ele>792.6</ele>
        <time>2011-06-07T11:42:04Z</time>
      </trkpt>
      <trkpt lat="45.69456" lon="6.08629">
        <ele>792.3</ele>
        <time>2011-06-07T11:42:09Z</time>
      </trkpt>
      <trkpt lat="45.69469" lon="6.08647">
        <ele>792</ele>
        <time>2011-06-07T11:42:17Z</time>
      </trkpt>
      <trkpt lat="45.69491" lon="6.0868">
        <ele>791.1</ele>
        <time>2011-06-07T11:42:30Z</time>
      </trkpt>
      <trkpt lat="45.69511" lon="6.08715">
        <ele>791</ele>
        <time>2011-06-07T11:42:42Z</time>
      </trkpt>
      <trkpt lat="45.69564" lon="6.08746">
        <ele>786.1</ele>
        <time>2011-06-07T11:43:05Z</time>
      </trkpt>
      <trkpt lat="45.69582" lon="6.08749">
        <ele>784.2</ele>
        <time>2011-06-07T11:43:12Z</time>
      </trkpt>
      <trkpt lat="45.69592" lon="6.08747">
        <ele>783</ele>
        <time>2011-06-07T11:43:16Z</time>
      </trkpt>
      <trkpt lat="45.69601" lon="6.08744">
        <ele>781.8</ele>
        <time>2011-06-07T11:43:20Z</time>
      </trkpt>
      <trkpt lat="45.69611" lon="6.08748">
        <ele>781</ele>
        <time>2011-06-07T11:43:24Z</time>
      </trkpt>
      <trkpt lat="45.69621" lon="6.08759">
        <ele>780.8</ele>
        <time>2011-06-07T11:43:29Z</time>
      </trkpt>
      <trkpt lat="45.69626" lon="6.08765">
        <ele>780.7</ele>
        <time>2011-06-07T11:43:32Z</time>
      </trkpt>
      <trkpt lat="45.69636" lon="6.08773">
        <ele>780.1</ele>
        <time>2011-06-07T11:43:37Z</time>
      </trkpt>
      <trkpt lat="45.69647" lon="6.08784">
        <ele>779.6</ele>
        <time>2011-06-07T11:43:42Z</time>
      </trkpt>
      <trkpt lat="45.69652" lon="6.0879">
        <ele>779.5</ele>
        <time>2011-06-07T11:43:45Z</time>
      </trkpt>
      <trkpt lat="45.69667" lon="6.08806">
        <ele>779.1</ele>
        <time>2011-06-07T11:43:52Z</time>
      </trkpt>
      <trkpt lat="45.69676" lon="6.08816">
        <ele>778.6</ele>
        <time>2011-06-07T11:43:56Z</time>
      </trkpt>
      <trkpt lat="45.69685" lon="6.08826">
        <ele>778.4</ele>
        <time>2011-06-07T11:44:01Z</time>
      </trkpt>
      <trkpt lat="45.69698" lon="6.08841">
        <ele>778.5</ele>
        <time>2011-06-07T11:44:08Z</time>
      </trkpt>
      <trkpt lat="45.69712" lon="6.08857">
        <ele>778.6</ele>
        <time>2011-06-07T11:44:15Z</time>
      </trkpt>
      <trkpt lat="45.6973" lon="6.0888">
        <ele>778.5</ele>
        <time>2011-06-07T11:44:25Z</time>
      </trkpt>
      <trkpt lat="45.69736" lon="6.08891">
        <ele>778.6</ele>
        <time>2011-06-07T11:44:29Z</time>
      </trkpt>
      <trkpt lat="45.69744" lon="6.08915">
        <ele>779.5</ele>
        <time>2011-06-07T11:44:36Z</time>
      </trkpt>
      <trkpt lat="45.69754" lon="6.08926">
        <ele>778.8</ele>
        <time>2011-06-07T11:44:41Z</time>
      </trkpt>
      <trkpt lat="45.69761" lon="6.08937">
        <ele>778.4</ele>
        <time>2011-06-07T11:44:45Z</time>
      </trkpt>
      <trkpt lat="45.69769" lon="6.08946">
        <ele>777.8</ele>
        <time>2011-06-07T11:44:49Z</time>
      </trkpt>
      <trkpt lat="45.69775" lon="6.08953">
        <ele>777.4</ele>
        <time>2011-06-07T11:44:52Z</time>
      </trkpt>
      <trkpt lat="45.69791" lon="6.08978">
        <ele>777.2</ele>
        <time>2011-06-07T11:45:02Z</time>
      </trkpt>
      <trkpt lat="45.69803" lon="6.08993">
        <ele>776.6</ele>
        <time>2011-06-07T11:45:08Z</time>
      </trkpt>
      <trkpt lat="45.69805" lon="6.08995">
        <ele>776.5</ele>
        <time>2011-06-07T11:45:09Z</time>
      </trkpt>
      <trkpt lat="45.6981" lon="6.09022">
        <ele>777</ele>
        <time>2011-06-07T11:45:17Z</time>
      </trkpt>
      <trkpt lat="45.69812" lon="6.09027">
        <ele>776.8</ele>
        <time>2011-06-07T11:45:19Z</time>
      </trkpt>
      <trkpt lat="45.69816" lon="6.09037">
        <ele>776.4</ele>
        <time>2011-06-07T11:45:22Z</time>
      </trkpt>
      <trkpt lat="45.69821" lon="6.09046">
        <ele>775.8</ele>
        <time>2011-06-07T11:45:25Z</time>
      </trkpt>
      <trkpt lat="45.69828" lon="6.09056">
        <ele>775</ele>
        <time>2011-06-07T11:45:29Z</time>
      </trkpt>
      <trkpt lat="45.69838" lon="6.09071">
        <ele>773.2</ele>
        <time>2011-06-07T11:45:35Z</time>
      </trkpt>
      <trkpt lat="45.69843" lon="6.09085">
        <ele>772.3</ele>
        <time>2011-06-07T11:45:39Z</time>
      </trkpt>
      <trkpt lat="45.69849" lon="6.09098">
        <ele>771.5</ele>
        <time>2011-06-07T11:45:43Z</time>
      </trkpt>
      <trkpt lat="45.69853" lon="6.09108">
        <ele>771.1</ele>
        <time>2011-06-07T11:45:47Z</time>
      </trkpt>
      <trkpt lat="45.69857" lon="6.09125">
        <ele>770.6</ele>
        <time>2011-06-07T11:45:52Z</time>
      </trkpt>
      <trkpt lat="45.69865" lon="6.09148">
        <ele>769.4</ele>
        <time>2011-06-07T11:45:59Z</time>
      </trkpt>
      <trkpt lat="45.69871" lon="6.09167">
        <ele>768.6</ele>
        <time>2011-06-07T11:46:05Z</time>
      </trkpt>
      <trkpt lat="45.69877" lon="6.0918">
        <ele>768.2</ele>
        <time>2011-06-07T11:46:09Z</time>
      </trkpt>
      <trkpt lat="45.69882" lon="6.09191">
        <ele>767.9</ele>
        <time>2011-06-07T11:46:13Z</time>
      </trkpt>
      <trkpt lat="45.69887" lon="6.09201">
        <ele>767.5</ele>
        <time>2011-06-07T11:46:16Z</time>
      </trkpt>
      <trkpt lat="45.69896" lon="6.09212">
        <ele>766.2</ele>
        <time>2011-06-07T11:46:21Z</time>
      </trkpt>
      <trkpt lat="45.69903" lon="6.09221">
        <ele>765.3</ele>
        <time>2011-06-07T11:46:25Z</time>
      </trkpt>
      <trkpt lat="45.6991" lon="6.09229">
        <ele>764.4</ele>
        <time>2011-06-07T11:46:28Z</time>
      </trkpt>
      <trkpt lat="45.69922" lon="6.09246">
        <ele>763.3</ele>
        <time>2011-06-07T11:46:35Z</time>
      </trkpt>
      <trkpt lat="45.69929" lon="6.09255">
        <ele>762.7</ele>
        <time>2011-06-07T11:46:39Z</time>
      </trkpt>
      <trkpt lat="45.69939" lon="6.09271">
        <ele>761.6</ele>
        <time>2011-06-07T11:46:45Z</time>
      </trkpt>
      <trkpt lat="45.69949" lon="6.09286">
        <ele>760.1</ele>
        <time>2011-06-07T11:46:51Z</time>
      </trkpt>
      <trkpt lat="45.6996" lon="6.093">
        <ele>758.4</ele>
        <time>2011-06-07T11:46:57Z</time>
      </trkpt>
      <trkpt lat="45.6997" lon="6.09312">
        <ele>757.3</ele>
        <time>2011-06-07T11:47:02Z</time>
      </trkpt>
      <trkpt lat="45.69979" lon="6.09323">
        <ele>756.2</ele>
        <time>2011-06-07T11:47:07Z</time>
      </trkpt>
      <trkpt lat="45.69985" lon="6.0933">
        <ele>755.6</ele>
        <time>2011-06-07T11:47:10Z</time>
      </trkpt>
      <trkpt lat="45.70005" lon="6.09355">
        <ele>753.6</ele>
        <time>2011-06-07T11:47:20Z</time>
      </trkpt>
      <trkpt lat="45.70019" lon="6.09372">
        <ele>752.9</ele>
        <time>2011-06-07T11:47:27Z</time>
      </trkpt>
      <trkpt lat="45.70029" lon="6.09384">
        <ele>752.8</ele>
        <time>2011-06-07T11:47:33Z</time>
      </trkpt>
      <trkpt lat="45.70035" lon="6.09398">
        <ele>752.6</ele>
        <time>2011-06-07T11:47:37Z</time>
      </trkpt>
      <trkpt lat="45.70041" lon="6.09411">
        <ele>752.5</ele>
        <time>2011-06-07T11:47:42Z</time>
      </trkpt>
      <trkpt lat="45.70049" lon="6.09438">
        <ele>753.2</ele>
        <time>2011-06-07T11:47:50Z</time>
      </trkpt>
      <trkpt lat="45.70052" lon="6.09452">
        <ele>753.5</ele>
        <time>2011-06-07T11:47:54Z</time>
      </trkpt>
      <trkpt lat="45.70052" lon="6.09464">
        <ele>754</ele>
        <time>2011-06-07T11:47:57Z</time>
      </trkpt>
      <trkpt lat="45.70058" lon="6.09479">
        <ele>753.4</ele>
        <time>2011-06-07T11:48:02Z</time>
      </trkpt>
      <trkpt lat="45.70064" lon="6.09494">
        <ele>751.3</ele>
        <time>2011-06-07T11:48:07Z</time>
      </trkpt>
      <trkpt lat="45.70065" lon="6.09499">
        <ele>750.8</ele>
        <time>2011-06-07T11:48:09Z</time>
      </trkpt>
      <trkpt lat="45.7008" lon="6.0952">
        <ele>746.7</ele>
        <time>2011-06-07T11:48:17Z</time>
      </trkpt>
      <trkpt lat="45.70087" lon="6.09534">
        <ele>745.1</ele>
        <time>2011-06-07T11:48:22Z</time>
      </trkpt>
      <trkpt lat="45.70095" lon="6.09554">
        <ele>743.2</ele>
        <time>2011-06-07T11:48:28Z</time>
      </trkpt>
      <trkpt lat="45.70098" lon="6.09571">
        <ele>742.1</ele>
        <time>2011-06-07T11:48:33Z</time>
      </trkpt>
      <trkpt lat="45.70101" lon="6.09579">
        <ele>741.4</ele>
        <time>2011-06-07T11:48:36Z</time>
      </trkpt>
      <trkpt lat="45.70117" lon="6.09607">
        <ele>739.2</ele>
        <time>2011-06-07T11:48:46Z</time>
      </trkpt>
      <trkpt lat="45.70124" lon="6.09616">
        <ele>738.8</ele>
        <time>2011-06-07T11:48:50Z</time>
      </trkpt>
      <trkpt lat="45.70138" lon="6.09634">
        <ele>737.4</ele>
        <time>2011-06-07T11:48:57Z</time>
      </trkpt>
      <trkpt lat="45.70166" lon="6.09641">
        <ele>733</ele>
        <time>2011-06-07T11:49:09Z</time>
      </trkpt>
      <trkpt lat="45.70176" lon="6.09646">
        <ele>731.8</ele>
        <time>2011-06-07T11:49:13Z</time>
      </trkpt>
      <trkpt lat="45.70187" lon="6.09649">
        <ele>730.7</ele>
        <time>2011-06-07T11:49:17Z</time>
      </trkpt>
      <trkpt lat="45.70199" lon="6.0965">
        <ele>729.9</ele>
        <time>2011-06-07T11:49:22Z</time>
      </trkpt>
      <trkpt lat="45.70203" lon="6.09649">
        <ele>729.8</ele>
        <time>2011-06-07T11:49:24Z</time>
      </trkpt>
      <trkpt lat="45.70214" lon="6.09651">
        <ele>729.6</ele>
        <time>2011-06-07T11:49:28Z</time>
      </trkpt>
      <trkpt lat="45.70226" lon="6.09651">
        <ele>729.2</ele>
        <time>2011-06-07T11:49:33Z</time>
      </trkpt>
      <trkpt lat="45.70242" lon="6.09657">
        <ele>728.2</ele>
        <time>2011-06-07T11:49:40Z</time>
      </trkpt>
      <trkpt lat="45.7026" lon="6.0966">
        <ele>726.6</ele>
        <time>2011-06-07T11:49:47Z</time>
      </trkpt>
      <trkpt lat="45.70272" lon="6.0966">
        <ele>725.2</ele>
        <time>2011-06-07T11:49:52Z</time>
      </trkpt>
      <trkpt lat="45.70281" lon="6.09659">
        <ele>724.2</ele>
        <time>2011-06-07T11:49:55Z</time>
      </trkpt>
      <trkpt lat="45.70289" lon="6.09659">
        <ele>723.5</ele>
        <time>2011-06-07T11:49:58Z</time>
      </trkpt>
      <trkpt lat="45.70297" lon="6.09657">
        <ele>722.7</ele>
        <time>2011-06-07T11:50:02Z</time>
      </trkpt>
      <trkpt lat="45.70315" lon="6.09653">
        <ele>721</ele>
        <time>2011-06-07T11:50:09Z</time>
      </trkpt>
      <trkpt lat="45.70332" lon="6.09646">
        <ele>719.6</ele>
        <time>2011-06-07T11:50:16Z</time>
      </trkpt>
      <trkpt lat="45.70352" lon="6.09647">
        <ele>718.3</ele>
        <time>2011-06-07T11:50:24Z</time>
      </trkpt>
      <trkpt lat="45.70363" lon="6.09642">
        <ele>716.9</ele>
        <time>2011-06-07T11:50:29Z</time>
      </trkpt>
      <trkpt lat="45.70374" lon="6.09643">
        <ele>715.1</ele>
        <time>2011-06-07T11:50:33Z</time>
      </trkpt>
      <trkpt lat="45.70384" lon="6.0964">
        <ele>713</ele>
        <time>2011-06-07T11:50:37Z</time>
      </trkpt>
      <trkpt lat="45.70395" lon="6.09642">
        <ele>712</ele>
        <time>2011-06-07T11:50:42Z</time>
      </trkpt>
      <trkpt lat="45.7041" lon="6.09633">
        <ele>710.7</ele>
        <time>2011-06-07T11:50:48Z</time>
      </trkpt>
      <trkpt lat="45.70422" lon="6.09623">
        <ele>708.7</ele>
        <time>2011-06-07T11:50:53Z</time>
      </trkpt>
      <trkpt lat="45.70426" lon="6.09602">
        <ele>707.1</ele>
        <time>2011-06-07T11:51:00Z</time>
      </trkpt>
      <trkpt lat="45.70431" lon="6.09593">
        <ele>706.7</ele>
        <time>2011-06-07T11:51:03Z</time>
      </trkpt>
      <trkpt lat="45.70428" lon="6.09583">
        <ele>706.6</ele>
        <time>2011-06-07T11:51:06Z</time>
      </trkpt>
      <trkpt lat="45.70422" lon="6.09555">
        <ele>706.6</ele>
        <time>2011-06-07T11:51:14Z</time>
      </trkpt>
      <trkpt lat="45.70417" lon="6.09542">
        <ele>706.5</ele>
        <time>2011-06-07T11:51:18Z</time>
      </trkpt>
      <trkpt lat="45.70422" lon="6.09525">
        <ele>705.7</ele>
        <time>2011-06-07T11:51:23Z</time>
      </trkpt>
      <trkpt lat="45.70428" lon="6.09514">
        <ele>705.1</ele>
        <time>2011-06-07T11:51:27Z</time>
      </trkpt>
      <trkpt lat="45.70435" lon="6.09503">
        <ele>704.5</ele>
        <time>2011-06-07T11:51:31Z</time>
      </trkpt>
      <trkpt lat="45.70437" lon="6.09491">
        <ele>704.2</ele>
        <time>2011-06-07T11:51:35Z</time>
      </trkpt>
      <trkpt lat="45.70436" lon="6.09476">
        <ele>704</ele>
        <time>2011-06-07T11:51:39Z</time>
      </trkpt>
      <trkpt lat="45.70439" lon="6.09461">
        <ele>703.6</ele>
        <time>2011-06-07T11:51:43Z</time>
      </trkpt>
      <trkpt lat="45.70437" lon="6.09448">
        <ele>703.1</ele>
        <time>2011-06-07T11:51:47Z</time>
      </trkpt>
      <trkpt lat="45.70434" lon="6.0942">
        <ele>701.6</ele>
        <time>2011-06-07T11:51:55Z</time>
      </trkpt>
      <trkpt lat="45.70437" lon="6.09399">
        <ele>700.8</ele>
        <time>2011-06-07T11:52:01Z</time>
      </trkpt>
      <trkpt lat="45.7044" lon="6.09394">
        <ele>700.5</ele>
        <time>2011-06-07T11:52:03Z</time>
      </trkpt>
      <trkpt lat="45.70444" lon="6.09373">
        <ele>700.1</ele>
        <time>2011-06-07T11:52:09Z</time>
      </trkpt>
      <trkpt lat="45.70456" lon="6.09354">
        <ele>699.1</ele>
        <time>2011-06-07T11:52:16Z</time>
      </trkpt>
      <trkpt lat="45.70469" lon="6.09318">
        <ele>696.9</ele>
        <time>2011-06-07T11:52:27Z</time>
      </trkpt>
      <trkpt lat="45.70471" lon="6.09313">
        <ele>696.4</ele>
        <time>2011-06-07T11:52:29Z</time>
      </trkpt>
      <trkpt lat="45.7047" lon="6.09295">
        <ele>696.3</ele>
        <time>2011-06-07T11:52:34Z</time>
      </trkpt>
      <trkpt lat="45.70475" lon="6.09279">
        <ele>695.8</ele>
        <time>2011-06-07T11:52:39Z</time>
      </trkpt>
      <trkpt lat="45.70483" lon="6.09266">
        <ele>694.8</ele>
        <time>2011-06-07T11:52:44Z</time>
      </trkpt>
      <trkpt lat="45.7049" lon="6.09255">
        <ele>693.9</ele>
        <time>2011-06-07T11:52:48Z</time>
      </trkpt>
      <trkpt lat="45.7049" lon="6.09234">
        <ele>693.7</ele>
        <time>2011-06-07T11:52:54Z</time>
      </trkpt>
      <trkpt lat="45.70488" lon="6.09222">
        <ele>693.8</ele>
        <time>2011-06-07T11:52:57Z</time>
      </trkpt>
      <trkpt lat="45.7049" lon="6.09207">
        <ele>694.3</ele>
        <time>2011-06-07T11:53:02Z</time>
      </trkpt>
      <trkpt lat="45.70495" lon="6.09184">
        <ele>694.4</ele>
        <time>2011-06-07T11:53:08Z</time>
      </trkpt>
      <trkpt lat="45.70491" lon="6.0915">
        <ele>695.2</ele>
        <time>2011-06-07T11:53:18Z</time>
      </trkpt>
      <trkpt lat="45.7049" lon="6.0913">
        <ele>695.9</ele>
        <time>2011-06-07T11:53:24Z</time>
      </trkpt>
      <trkpt lat="45.70482" lon="6.091">
        <ele>698</ele>
        <time>2011-06-07T11:53:33Z</time>
      </trkpt>
      <trkpt lat="45.70471" lon="6.0906">
        <ele>701.9</ele>
        <time>2011-06-07T11:53:45Z</time>
      </trkpt>
      <trkpt lat="45.70464" lon="6.09028">
        <ele>704.8</ele>
        <time>2011-06-07T11:53:54Z</time>
      </trkpt>
      <trkpt lat="45.70462" lon="6.09001">
        <ele>706.2</ele>
        <time>2011-06-07T11:54:02Z</time>
      </trkpt>
      <trkpt lat="45.70451" lon="6.0897">
        <ele>706.5</ele>
        <time>2011-06-07T11:54:11Z</time>
      </trkpt>
      <trkpt lat="45.70446" lon="6.08946">
        <ele>706.8</ele>
        <time>2011-06-07T11:54:18Z</time>
      </trkpt>
      <trkpt lat="45.70443" lon="6.08926">
        <ele>706.4</ele>
        <time>2011-06-07T11:54:24Z</time>
      </trkpt>
      <trkpt lat="45.7044" lon="6.08901">
        <ele>705.4</ele>
        <time>2011-06-07T11:54:31Z</time>
      </trkpt>
      <trkpt lat="45.70437" lon="6.08882">
        <ele>704.8</ele>
        <time>2011-06-07T11:54:37Z</time>
      </trkpt>
      <trkpt lat="45.70437" lon="6.08864">
        <ele>703.9</ele>
        <time>2011-06-07T11:54:42Z</time>
      </trkpt>
      <trkpt lat="45.70437" lon="6.08833">
        <ele>702.5</ele>
        <time>2011-06-07T11:54:50Z</time>
      </trkpt>
      <trkpt lat="45.70438" lon="6.08827">
        <ele>702.3</ele>
        <time>2011-06-07T11:54:52Z</time>
      </trkpt>
      <trkpt lat="45.70443" lon="6.08812">
        <ele>701.4</ele>
        <time>2011-06-07T11:54:57Z</time>
      </trkpt>
      <trkpt lat="45.70444" lon="6.08798">
        <ele>701.3</ele>
        <time>2011-06-07T11:55:01Z</time>
      </trkpt>
      <trkpt lat="45.70448" lon="6.08779">
        <ele>701.9</ele>
        <time>2011-06-07T11:55:06Z</time>
      </trkpt>
      <trkpt lat="45.70449" lon="6.08765">
        <ele>702.5</ele>
        <time>2011-06-07T11:55:10Z</time>
      </trkpt>
      <trkpt lat="45.70447" lon="6.08751">
        <ele>703.1</ele>
        <time>2011-06-07T11:55:14Z</time>
      </trkpt>
      <trkpt lat="45.70446" lon="6.08747">
        <ele>703.3</ele>
        <time>2011-06-07T11:55:15Z</time>
      </trkpt>
      <trkpt lat="45.70444" lon="6.08733">
        <ele>704.2</ele>
        <time>2011-06-07T11:55:19Z</time>
      </trkpt>
      <trkpt lat="45.70437" lon="6.08722">
        <ele>705.3</ele>
        <time>2011-06-07T11:55:24Z</time>
      </trkpt>
      <trkpt lat="45.70435" lon="6.08708">
        <ele>705.7</ele>
        <time>2011-06-07T11:55:27Z</time>
      </trkpt>
      <trkpt lat="45.70431" lon="6.08693">
        <ele>706.1</ele>
        <time>2011-06-07T11:55:32Z</time>
      </trkpt>
      <trkpt lat="45.70421" lon="6.08671">
        <ele>706.8</ele>
        <time>2011-06-07T11:55:39Z</time>
      </trkpt>
      <trkpt lat="45.70416" lon="6.08658">
        <ele>707</ele>
        <time>2011-06-07T11:55:43Z</time>
      </trkpt>
      <trkpt lat="45.70411" lon="6.08645">
        <ele>707</ele>
        <time>2011-06-07T11:55:47Z</time>
      </trkpt>
      <trkpt lat="45.70411" lon="6.08639">
        <ele>707</ele>
        <time>2011-06-07T11:55:49Z</time>
      </trkpt>
      <trkpt lat="45.70405" lon="6.08623">
        <ele>707</ele>
        <time>2011-06-07T11:55:54Z</time>
      </trkpt>
      <trkpt lat="45.70407" lon="6.0861">
        <ele>707</ele>
        <time>2011-06-07T11:55:58Z</time>
      </trkpt>
      <trkpt lat="45.70406" lon="6.08591">
        <ele>707</ele>
        <time>2011-06-07T11:56:03Z</time>
      </trkpt>
      <trkpt lat="45.70404" lon="6.0858">
        <ele>707.1</ele>
        <time>2011-06-07T11:56:07Z</time>
      </trkpt>
      <trkpt lat="45.70395" lon="6.08559">
        <ele>707.2</ele>
        <time>2011-06-07T11:56:13Z</time>
      </trkpt>
      <trkpt lat="45.70393" lon="6.08548">
        <ele>707.3</ele>
        <time>2011-06-07T11:56:16Z</time>
      </trkpt>
      <trkpt lat="45.70389" lon="6.0854">
        <ele>707.6</ele>
        <time>2011-06-07T11:56:19Z</time>
      </trkpt>
      <trkpt lat="45.70381" lon="6.08528">
        <ele>708</ele>
        <time>2011-06-07T11:56:24Z</time>
      </trkpt>
      <trkpt lat="45.70382" lon="6.08523">
        <ele>708</ele>
        <time>2011-06-07T11:56:25Z</time>
      </trkpt>
      <trkpt lat="45.70371" lon="6.08509">
        <ele>708</ele>
        <time>2011-06-07T11:56:31Z</time>
      </trkpt>
      <trkpt lat="45.70362" lon="6.085">
        <ele>708</ele>
        <time>2011-06-07T11:56:36Z</time>
      </trkpt>
      <trkpt lat="45.70352" lon="6.08492">
        <ele>708</ele>
        <time>2011-06-07T11:56:40Z</time>
      </trkpt>
      <trkpt lat="45.70348" lon="6.0849">
        <ele>708</ele>
        <time>2011-06-07T11:56:42Z</time>
      </trkpt>
      <trkpt lat="45.7034" lon="6.08484">
        <ele>708</ele>
        <time>2011-06-07T11:56:45Z</time>
      </trkpt>
      <trkpt lat="45.70332" lon="6.08475">
        <ele>708</ele>
        <time>2011-06-07T11:56:50Z</time>
      </trkpt>
      <trkpt lat="45.7032" lon="6.08467">
        <ele>706.6</ele>
        <time>2011-06-07T11:56:55Z</time>
      </trkpt>
      <trkpt lat="45.7031" lon="6.0846">
        <ele>705.2</ele>
        <time>2011-06-07T11:56:59Z</time>
      </trkpt>
      <trkpt lat="45.70292" lon="6.0845">
        <ele>703.7</ele>
        <time>2011-06-07T11:57:07Z</time>
      </trkpt>
      <trkpt lat="45.70283" lon="6.08443">
        <ele>702.6</ele>
        <time>2011-06-07T11:57:11Z</time>
      </trkpt>
      <trkpt lat="45.70278" lon="6.08439">
        <ele>702.2</ele>
        <time>2011-06-07T11:57:13Z</time>
      </trkpt>
      <trkpt lat="45.70261" lon="6.08436">
        <ele>703.4</ele>
        <time>2011-06-07T11:57:20Z</time>
      </trkpt>
      <trkpt lat="45.70251" lon="6.08434">
        <ele>704.1</ele>
        <time>2011-06-07T11:57:24Z</time>
      </trkpt>
      <trkpt lat="45.70237" lon="6.08436">
        <ele>704.6</ele>
        <time>2011-06-07T11:57:30Z</time>
      </trkpt>
      <trkpt lat="45.70226" lon="6.08436">
        <ele>704.8</ele>
        <time>2011-06-07T11:57:34Z</time>
      </trkpt>
      <trkpt lat="45.70216" lon="6.08435">
        <ele>704.2</ele>
        <time>2011-06-07T11:57:38Z</time>
      </trkpt>
      <trkpt lat="45.7021" lon="6.08433">
        <ele>703.6</ele>
        <time>2011-06-07T11:57:41Z</time>
      </trkpt>
      <trkpt lat="45.70196" lon="6.08423">
        <ele>702.2</ele>
        <time>2011-06-07T11:57:47Z</time>
      </trkpt>
      <trkpt lat="45.70186" lon="6.08418">
        <ele>702.9</ele>
        <time>2011-06-07T11:57:51Z</time>
      </trkpt>
      <trkpt lat="45.70181" lon="6.08409">
        <ele>703</ele>
        <time>2011-06-07T11:57:54Z</time>
      </trkpt>
      <trkpt lat="45.70181" lon="6.08398">
        <ele>702.4</ele>
        <time>2011-06-07T11:57:58Z</time>
      </trkpt>
      <trkpt lat="45.70183" lon="6.08391">
        <ele>701.9</ele>
        <time>2011-06-07T11:58:00Z</time>
      </trkpt>
      <trkpt lat="45.70179" lon="6.08376">
        <ele>700.1</ele>
        <time>2011-06-07T11:58:04Z</time>
      </trkpt>
      <trkpt lat="45.70159" lon="6.08364">
        <ele>697.2</ele>
        <time>2011-06-07T11:58:13Z</time>
      </trkpt>
      <trkpt lat="45.70156" lon="6.08364">
        <ele>696.8</ele>
        <time>2011-06-07T11:58:14Z</time>
      </trkpt>
      <trkpt lat="45.70142" lon="6.08374">
        <ele>696.2</ele>
        <time>2011-06-07T11:58:21Z</time>
      </trkpt>
      <trkpt lat="45.70135" lon="6.08384">
        <ele>697.7</ele>
        <time>2011-06-07T11:58:24Z</time>
      </trkpt>
      <trkpt lat="45.70119" lon="6.08397">
        <ele>699.3</ele>
        <time>2011-06-07T11:58:32Z</time>
      </trkpt>
      <trkpt lat="45.70107" lon="6.08408">
        <ele>700.9</ele>
        <time>2011-06-07T11:58:38Z</time>
      </trkpt>
      <trkpt lat="45.70097" lon="6.08403">
        <ele>700.1</ele>
        <time>2011-06-07T11:58:42Z</time>
      </trkpt>
      <trkpt lat="45.70088" lon="6.08397">
        <ele>699.4</ele>
        <time>2011-06-07T11:58:45Z</time>
      </trkpt>
      <trkpt lat="45.70082" lon="6.08392">
        <ele>699.3</ele>
        <time>2011-06-07T11:58:48Z</time>
      </trkpt>
      <trkpt lat="45.70072" lon="6.08385">
        <ele>699</ele>
        <time>2011-06-07T11:58:53Z</time>
      </trkpt>
      <trkpt lat="45.70068" lon="6.08382">
        <ele>699</ele>
        <time>2011-06-07T11:58:55Z</time>
      </trkpt>
      <trkpt lat="45.70063" lon="6.08376">
        <ele>698.6</ele>
        <time>2011-06-07T11:58:57Z</time>
      </trkpt>
      <trkpt lat="45.70055" lon="6.08365">
        <ele>698.3</ele>
        <time>2011-06-07T11:59:02Z</time>
      </trkpt>
      <trkpt lat="45.70051" lon="6.08356">
        <ele>698.1</ele>
        <time>2011-06-07T11:59:04Z</time>
      </trkpt>
      <trkpt lat="45.70047" lon="6.08348">
        <ele>698</ele>
        <time>2011-06-07T11:59:07Z</time>
      </trkpt>
      <trkpt lat="45.70042" lon="6.08333">
        <ele>697.5</ele>
        <time>2011-06-07T11:59:12Z</time>
      </trkpt>
      <trkpt lat="45.70034" lon="6.08314">
        <ele>697.8</ele>
        <time>2011-06-07T11:59:18Z</time>
      </trkpt>
      <trkpt lat="45.70027" lon="6.08298">
        <ele>697.8</ele>
        <time>2011-06-07T11:59:23Z</time>
      </trkpt>
      <trkpt lat="45.70026" lon="6.08289">
        <ele>697.6</ele>
        <time>2011-06-07T11:59:26Z</time>
      </trkpt>
      <trkpt lat="45.70025" lon="6.0828">
        <ele>697.4</ele>
        <time>2011-06-07T11:59:29Z</time>
      </trkpt>
      <trkpt lat="45.70023" lon="6.08276">
        <ele>697.3</ele>
        <time>2011-06-07T11:59:30Z</time>
      </trkpt>
      <trkpt lat="45.70016" lon="6.08261">
        <ele>696.8</ele>
        <time>2011-06-07T11:59:35Z</time>
      </trkpt>
      <trkpt lat="45.70014" lon="6.08257">
        <ele>696.9</ele>
        <time>2011-06-07T11:59:36Z</time>
      </trkpt>
      <trkpt lat="45.70011" lon="6.08244">
        <ele>696.1</ele>
        <time>2011-06-07T11:59:40Z</time>
      </trkpt>
      <trkpt lat="45.70008" lon="6.08234">
        <ele>694.8</ele>
        <time>2011-06-07T11:59:43Z</time>
      </trkpt>
      <trkpt lat="45.70002" lon="6.08225">
        <ele>694.1</ele>
        <time>2011-06-07T11:59:47Z</time>
      </trkpt>
      <trkpt lat="45.69998" lon="6.08217">
        <ele>693.5</ele>
        <time>2011-06-07T11:59:49Z</time>
      </trkpt>
      <trkpt lat="45.69992" lon="6.08208">
        <ele>693.2</ele>
        <time>2011-06-07T11:59:53Z</time>
      </trkpt>
      <trkpt lat="45.69986" lon="6.08196">
        <ele>692.4</ele>
        <time>2011-06-07T11:59:57Z</time>
      </trkpt>
      <trkpt lat="45.69976" lon="6.0819">
        <ele>693.3</ele>
        <time>2011-06-07T12:00:02Z</time>
      </trkpt>
      <trkpt lat="45.69974" lon="6.08186">
        <ele>692.8</ele>
        <time>2011-06-07T12:00:03Z</time>
      </trkpt>
      <trkpt lat="45.6996" lon="6.08177">
        <ele>693.8</ele>
        <time>2011-06-07T12:00:09Z</time>
      </trkpt>
      <trkpt lat="45.69951" lon="6.08171">
        <ele>694.2</ele>
        <time>2011-06-07T12:00:13Z</time>
      </trkpt>
      <trkpt lat="45.69945" lon="6.08166">
        <ele>693.6</ele>
        <time>2011-06-07T12:00:16Z</time>
      </trkpt>
      <trkpt lat="45.69938" lon="6.08161">
        <ele>694.8</ele>
        <time>2011-06-07T12:00:19Z</time>
      </trkpt>
      <trkpt lat="45.69929" lon="6.08156">
        <ele>695.7</ele>
        <time>2011-06-07T12:00:22Z</time>
      </trkpt>
      <trkpt lat="45.69928" lon="6.08155">
        <ele>695.9</ele>
        <time>2011-06-07T12:00:23Z</time>
      </trkpt>
      <trkpt lat="45.69918" lon="6.08142">
        <ele>694.5</ele>
        <time>2011-06-07T12:00:28Z</time>
      </trkpt>
      <trkpt lat="45.69914" lon="6.08134">
        <ele>694.2</ele>
        <time>2011-06-07T12:00:31Z</time>
      </trkpt>
      <trkpt lat="45.6991" lon="6.08127">
        <ele>694.4</ele>
        <time>2011-06-07T12:00:34Z</time>
      </trkpt>
      <trkpt lat="45.69907" lon="6.0811">
        <ele>692.6</ele>
        <time>2011-06-07T12:00:39Z</time>
      </trkpt>
      <trkpt lat="45.69909" lon="6.08086">
        <ele>690.8</ele>
        <time>2011-06-07T12:00:45Z</time>
      </trkpt>
      <trkpt lat="45.69909" lon="6.08084">
        <ele>690.7</ele>
        <time>2011-06-07T12:00:46Z</time>
      </trkpt>
      <trkpt lat="45.69912" lon="6.08068">
        <ele>689.8</ele>
        <time>2011-06-07T12:00:51Z</time>
      </trkpt>
      <trkpt lat="45.69912" lon="6.08061">
        <ele>689.7</ele>
        <time>2011-06-07T12:00:53Z</time>
      </trkpt>
      <trkpt lat="45.69913" lon="6.08049">
        <ele>689.5</ele>
        <time>2011-06-07T12:00:56Z</time>
      </trkpt>
      <trkpt lat="45.69914" lon="6.0804">
        <ele>689.3</ele>
        <time>2011-06-07T12:00:59Z</time>
      </trkpt>
      <trkpt lat="45.69916" lon="6.08029">
        <ele>689</ele>
        <time>2011-06-07T12:01:02Z</time>
      </trkpt>
      <trkpt lat="45.69922" lon="6.08018">
        <ele>687.7</ele>
        <time>2011-06-07T12:01:06Z</time>
      </trkpt>
      <trkpt lat="45.69925" lon="6.08012">
        <ele>687.1</ele>
        <time>2011-06-07T12:01:08Z</time>
      </trkpt>
      <trkpt lat="45.69926" lon="6.08001">
        <ele>686.4</ele>
        <time>2011-06-07T12:01:11Z</time>
      </trkpt>
      <trkpt lat="45.69924" lon="6.07993">
        <ele>686.3</ele>
        <time>2011-06-07T12:01:13Z</time>
      </trkpt>
      <trkpt lat="45.69925" lon="6.07984">
        <ele>686</ele>
        <time>2011-06-07T12:01:16Z</time>
      </trkpt>
      <trkpt lat="45.69923" lon="6.07976">
        <ele>685.9</ele>
        <time>2011-06-07T12:01:18Z</time>
      </trkpt>
      <trkpt lat="45.69922" lon="6.07966">
        <ele>685.7</ele>
        <time>2011-06-07T12:01:21Z</time>
      </trkpt>
      <trkpt lat="45.69921" lon="6.07955">
        <ele>685.6</ele>
        <time>2011-06-07T12:01:24Z</time>
      </trkpt>
      <trkpt lat="45.69921" lon="6.07948">
        <ele>685.5</ele>
        <time>2011-06-07T12:01:26Z</time>
      </trkpt>
      <trkpt lat="45.69923" lon="6.0794">
        <ele>685.1</ele>
        <time>2011-06-07T12:01:28Z</time>
      </trkpt>
      <trkpt lat="45.69928" lon="6.07931">
        <ele>684.5</ele>
        <time>2011-06-07T12:01:31Z</time>
      </trkpt>
      <trkpt lat="45.6993" lon="6.07928">
        <ele>684.3</ele>
        <time>2011-06-07T12:01:33Z</time>
      </trkpt>
      <trkpt lat="45.69934" lon="6.07919">
        <ele>683.8</ele>
        <time>2011-06-07T12:01:36Z</time>
      </trkpt>
      <trkpt lat="45.69943" lon="6.07904">
        <ele>684.4</ele>
        <time>2011-06-07T12:01:41Z</time>
      </trkpt>
      <trkpt lat="45.69945" lon="6.079">
        <ele>684.8</ele>
        <time>2011-06-07T12:01:42Z</time>
      </trkpt>
      <trkpt lat="45.69948" lon="6.07892">
        <ele>685.5</ele>
        <time>2011-06-07T12:01:45Z</time>
      </trkpt>
      <trkpt lat="45.69958" lon="6.07878">
        <ele>685</ele>
        <time>2011-06-07T12:01:50Z</time>
      </trkpt>
      <trkpt lat="45.69964" lon="6.07863">
        <ele>685.4</ele>
        <time>2011-06-07T12:01:55Z</time>
      </trkpt>
      <trkpt lat="45.69964" lon="6.07854">
        <ele>687</ele>
        <time>2011-06-07T12:01:58Z</time>
      </trkpt>
      <trkpt lat="45.69963" lon="6.07845">
        <ele>688.8</ele>
        <time>2011-06-07T12:02:00Z</time>
      </trkpt>
      <trkpt lat="45.69962" lon="6.0784">
        <ele>689.6</ele>
        <time>2011-06-07T12:02:02Z</time>
      </trkpt>
      <trkpt lat="45.6996" lon="6.07833">
        <ele>690.5</ele>
        <time>2011-06-07T12:02:04Z</time>
      </trkpt>
      <trkpt lat="45.69954" lon="6.07815">
        <ele>691.5</ele>
        <time>2011-06-07T12:02:10Z</time>
      </trkpt>
      <trkpt lat="45.69947" lon="6.07805">
        <ele>690.2</ele>
        <time>2011-06-07T12:02:13Z</time>
      </trkpt>
      <trkpt lat="45.69934" lon="6.07789">
        <ele>691</ele>
        <time>2011-06-07T12:02:21Z</time>
      </trkpt>
      <trkpt lat="45.6993" lon="6.07781">
        <ele>691.8</ele>
        <time>2011-06-07T12:02:23Z</time>
      </trkpt>
      <trkpt lat="45.69922" lon="6.07771">
        <ele>691.8</ele>
        <time>2011-06-07T12:02:27Z</time>
      </trkpt>
      <trkpt lat="45.69919" lon="6.07766">
        <ele>691.6</ele>
        <time>2011-06-07T12:02:29Z</time>
      </trkpt>
      <trkpt lat="45.69919" lon="6.07758">
        <ele>692.2</ele>
        <time>2011-06-07T12:02:31Z</time>
      </trkpt>
      <trkpt lat="45.69919" lon="6.07751">
        <ele>692.8</ele>
        <time>2011-06-07T12:02:33Z</time>
      </trkpt>
      <trkpt lat="45.69919" lon="6.07743">
        <ele>693.4</ele>
        <time>2011-06-07T12:02:35Z</time>
      </trkpt>
      <trkpt lat="45.69918" lon="6.07736">
        <ele>693.9</ele>
        <time>2011-06-07T12:02:38Z</time>
      </trkpt>
      <trkpt lat="45.69917" lon="6.07726">
        <ele>694.1</ele>
        <time>2011-06-07T12:02:40Z</time>
      </trkpt>
      <trkpt lat="45.69915" lon="6.07716">
        <ele>694.9</ele>
        <time>2011-06-07T12:02:43Z</time>
      </trkpt>
      <trkpt lat="45.69913" lon="6.07708">
        <ele>696</ele>
        <time>2011-06-07T12:02:46Z</time>
      </trkpt>
      <trkpt lat="45.69913" lon="6.07701">
        <ele>697</ele>
        <time>2011-06-07T12:02:48Z</time>
      </trkpt>
      <trkpt lat="45.69911" lon="6.07693">
        <ele>698.1</ele>
        <time>2011-06-07T12:02:50Z</time>
      </trkpt>
      <trkpt lat="45.6991" lon="6.07687">
        <ele>699.2</ele>
        <time>2011-06-07T12:02:52Z</time>
      </trkpt>
      <trkpt lat="45.69909" lon="6.07679">
        <ele>700.4</ele>
        <time>2011-06-07T12:02:54Z</time>
      </trkpt>
      <trkpt lat="45.69908" lon="6.07677">
        <ele>700.7</ele>
        <time>2011-06-07T12:02:55Z</time>
      </trkpt>
      <trkpt lat="45.69908" lon="6.07665">
        <ele>702.9</ele>
        <time>2011-06-07T12:02:58Z</time>
      </trkpt>
      <trkpt lat="45.69907" lon="6.07657">
        <ele>704</ele>
        <time>2011-06-07T12:03:00Z</time>
      </trkpt>
      <trkpt lat="45.69905" lon="6.0765">
        <ele>704.9</ele>
        <time>2011-06-07T12:03:02Z</time>
      </trkpt>
      <trkpt lat="45.69903" lon="6.07644">
        <ele>705</ele>
        <time>2011-06-07T12:03:04Z</time>
      </trkpt>
      <trkpt lat="45.69894" lon="6.0764">
        <ele>700.6</ele>
        <time>2011-06-07T12:03:08Z</time>
      </trkpt>
      <trkpt lat="45.69887" lon="6.07638">
        <ele>698.3</ele>
        <time>2011-06-07T12:03:11Z</time>
      </trkpt>
      <trkpt lat="45.69879" lon="6.07636">
        <ele>699.8</ele>
        <time>2011-06-07T12:03:14Z</time>
      </trkpt>
      <trkpt lat="45.69876" lon="6.07641">
        <ele>699.8</ele>
        <time>2011-06-07T12:03:16Z</time>
      </trkpt>
      <trkpt lat="45.69872" lon="6.07646">
        <ele>699.9</ele>
        <time>2011-06-07T12:03:18Z</time>
      </trkpt>
      <trkpt lat="45.69866" lon="6.07652">
        <ele>700</ele>
        <time>2011-06-07T12:03:21Z</time>
      </trkpt>
      <trkpt lat="45.69861" lon="6.07658">
        <ele>699.9</ele>
        <time>2011-06-07T12:03:24Z</time>
      </trkpt>
      <trkpt lat="45.6985" lon="6.07658">
        <ele>699.3</ele>
        <time>2011-06-07T12:03:28Z</time>
      </trkpt>
      <trkpt lat="45.69845" lon="6.07653">
        <ele>699.5</ele>
        <time>2011-06-07T12:03:31Z</time>
      </trkpt>
      <trkpt lat="45.69844" lon="6.07649">
        <ele>700</ele>
        <time>2011-06-07T12:03:32Z</time>
      </trkpt>
      <trkpt lat="45.69841" lon="6.07636">
        <ele>701.7</ele>
        <time>2011-06-07T12:03:36Z</time>
      </trkpt>
      <trkpt lat="45.69847" lon="6.07621">
        <ele>703.7</ele>
        <time>2011-06-07T12:03:40Z</time>
      </trkpt>
      <trkpt lat="45.69852" lon="6.07619">
        <ele>704.1</ele>
        <time>2011-06-07T12:03:43Z</time>
      </trkpt>
      <trkpt lat="45.69879" lon="6.07596">
        <ele>706.4</ele>
        <time>2011-06-07T12:03:55Z</time>
      </trkpt>
      <trkpt lat="45.69882" lon="6.07586">
        <ele>708.4</ele>
        <time>2011-06-07T12:03:58Z</time>
      </trkpt>
      <trkpt lat="45.69884" lon="6.07579">
        <ele>709.6</ele>
        <time>2011-06-07T12:04:00Z</time>
      </trkpt>
      <trkpt lat="45.69884" lon="6.07574">
        <ele>709.8</ele>
        <time>2011-06-07T12:04:02Z</time>
      </trkpt>
      <trkpt lat="45.69876" lon="6.07559">
        <ele>709.1</ele>
        <time>2011-06-07T12:04:07Z</time>
      </trkpt>
      <trkpt lat="45.69871" lon="6.07552">
        <ele>708.4</ele>
        <time>2011-06-07T12:04:10Z</time>
      </trkpt>
      <trkpt lat="45.69865" lon="6.07548">
        <ele>707.8</ele>
        <time>2011-06-07T12:04:13Z</time>
      </trkpt>
      <trkpt lat="45.69858" lon="6.07543">
        <ele>708.2</ele>
        <time>2011-06-07T12:04:16Z</time>
      </trkpt>
      <trkpt lat="45.69847" lon="6.07537">
        <ele>709.9</ele>
        <time>2011-06-07T12:04:20Z</time>
      </trkpt>
      <trkpt lat="45.69841" lon="6.07532">
        <ele>710.9</ele>
        <time>2011-06-07T12:04:23Z</time>
      </trkpt>
      <trkpt lat="45.69828" lon="6.07529">
        <ele>712</ele>
        <time>2011-06-07T12:04:28Z</time>
      </trkpt>
      <trkpt lat="45.69815" lon="6.0752">
        <ele>713</ele>
        <time>2011-06-07T12:04:34Z</time>
      </trkpt>
      <trkpt lat="45.69807" lon="6.07513">
        <ele>713.5</ele>
        <time>2011-06-07T12:04:38Z</time>
      </trkpt>
      <trkpt lat="45.69803" lon="6.0751">
        <ele>713.4</ele>
        <time>2011-06-07T12:04:40Z</time>
      </trkpt>
      <trkpt lat="45.69792" lon="6.07502">
        <ele>712.9</ele>
        <time>2011-06-07T12:04:45Z</time>
      </trkpt>
      <trkpt lat="45.69787" lon="6.07496">
        <ele>713.1</ele>
        <time>2011-06-07T12:04:47Z</time>
      </trkpt>
      <trkpt lat="45.69785" lon="6.07487">
        <ele>714</ele>
        <time>2011-06-07T12:04:50Z</time>
      </trkpt>
      <trkpt lat="45.69795" lon="6.07482">
        <ele>714.6</ele>
        <time>2011-06-07T12:04:54Z</time>
      </trkpt>
      <trkpt lat="45.69802" lon="6.07483">
        <ele>714.6</ele>
        <time>2011-06-07T12:04:57Z</time>
      </trkpt>
      <trkpt lat="45.69811" lon="6.07483">
        <ele>714.8</ele>
        <time>2011-06-07T12:05:01Z</time>
      </trkpt>
      <trkpt lat="45.69823" lon="6.07483">
        <ele>715</ele>
        <time>2011-06-07T12:05:06Z</time>
      </trkpt>
      <trkpt lat="45.69832" lon="6.07483">
        <ele>715.2</ele>
        <time>2011-06-07T12:05:09Z</time>
      </trkpt>
      <trkpt lat="45.69837" lon="6.07482">
        <ele>715.3</ele>
        <time>2011-06-07T12:05:11Z</time>
      </trkpt>
      <trkpt lat="45.69845" lon="6.07481">
        <ele>715.5</ele>
        <time>2011-06-07T12:05:14Z</time>
      </trkpt>
      <trkpt lat="45.69854" lon="6.07485">
        <ele>715.1</ele>
        <time>2011-06-07T12:05:18Z</time>
      </trkpt>
      <trkpt lat="45.69856" lon="6.07485">
        <ele>715.2</ele>
        <time>2011-06-07T12:05:19Z</time>
      </trkpt>
      <trkpt lat="45.69869" lon="6.07494">
        <ele>715.1</ele>
        <time>2011-06-07T12:05:25Z</time>
      </trkpt>
      <trkpt lat="45.69877" lon="6.075">
        <ele>715.8</ele>
        <time>2011-06-07T12:05:28Z</time>
      </trkpt>
      <trkpt lat="45.69886" lon="6.07518">
        <ele>714.3</ele>
        <time>2011-06-07T12:05:34Z</time>
      </trkpt>
      <trkpt lat="45.69889" lon="6.07525">
        <ele>713.5</ele>
        <time>2011-06-07T12:05:37Z</time>
      </trkpt>
      <trkpt lat="45.69891" lon="6.07529">
        <ele>715.1</ele>
        <time>2011-06-07T12:05:38Z</time>
      </trkpt>
      <trkpt lat="45.69895" lon="6.07544">
        <ele>717.6</ele>
        <time>2011-06-07T12:05:43Z</time>
      </trkpt>
      <trkpt lat="45.69897" lon="6.07554">
        <ele>717.7</ele>
        <time>2011-06-07T12:05:46Z</time>
      </trkpt>
      <trkpt lat="45.69901" lon="6.07566">
        <ele>718.6</ele>
        <time>2011-06-07T12:05:49Z</time>
      </trkpt>
      <trkpt lat="45.69906" lon="6.07574">
        <ele>720.3</ele>
        <time>2011-06-07T12:05:52Z</time>
      </trkpt>
      <trkpt lat="45.69911" lon="6.07583">
        <ele>721.8</ele>
        <time>2011-06-07T12:05:55Z</time>
      </trkpt>
      <trkpt lat="45.69915" lon="6.07593">
        <ele>722.8</ele>
        <time>2011-06-07T12:05:59Z</time>
      </trkpt>
      <trkpt lat="45.6992" lon="6.076">
        <ele>724.9</ele>
        <time>2011-06-07T12:06:02Z</time>
      </trkpt>
      <trkpt lat="45.69927" lon="6.07607">
        <ele>727.6</ele>
        <time>2011-06-07T12:06:05Z</time>
      </trkpt>
      <trkpt lat="45.69932" lon="6.07616">
        <ele>728.6</ele>
        <time>2011-06-07T12:06:08Z</time>
      </trkpt>
      <trkpt lat="45.69935" lon="6.07625">
        <ele>727.9</ele>
        <time>2011-06-07T12:06:11Z</time>
      </trkpt>
      <trkpt lat="45.69942" lon="6.07638">
        <ele>729.8</ele>
        <time>2011-06-07T12:06:16Z</time>
      </trkpt>
      <trkpt lat="45.69952" lon="6.07651">
        <ele>729.6</ele>
        <time>2011-06-07T12:06:21Z</time>
      </trkpt>
      <trkpt lat="45.69957" lon="6.07656">
        <ele>728.9</ele>
        <time>2011-06-07T12:06:23Z</time>
      </trkpt>
      <trkpt lat="45.69964" lon="6.07664">
        <ele>727.9</ele>
        <time>2011-06-07T12:06:27Z</time>
      </trkpt>
      <trkpt lat="45.69972" lon="6.07673">
        <ele>727.5</ele>
        <time>2011-06-07T12:06:31Z</time>
      </trkpt>
      <trkpt lat="45.69975" lon="6.07675">
        <ele>727.5</ele>
        <time>2011-06-07T12:06:32Z</time>
      </trkpt>
      <trkpt lat="45.69981" lon="6.07682">
        <ele>727.3</ele>
        <time>2011-06-07T12:06:35Z</time>
      </trkpt>
      <trkpt lat="45.69991" lon="6.0769">
        <ele>727.1</ele>
        <time>2011-06-07T12:06:40Z</time>
      </trkpt>
      <trkpt lat="45.70006" lon="6.07701">
        <ele>726.7</ele>
        <time>2011-06-07T12:06:47Z</time>
      </trkpt>
      <trkpt lat="45.70014" lon="6.07708">
        <ele>726.3</ele>
        <time>2011-06-07T12:06:51Z</time>
      </trkpt>
      <trkpt lat="45.70026" lon="6.07717">
        <ele>725.6</ele>
        <time>2011-06-07T12:06:56Z</time>
      </trkpt>
      <trkpt lat="45.70036" lon="6.07725">
        <ele>724.6</ele>
        <time>2011-06-07T12:07:01Z</time>
      </trkpt>
      <trkpt lat="45.70043" lon="6.0773">
        <ele>724.3</ele>
        <time>2011-06-07T12:07:04Z</time>
      </trkpt>
      <trkpt lat="45.7005" lon="6.07736">
        <ele>724.1</ele>
        <time>2011-06-07T12:07:07Z</time>
      </trkpt>
      <trkpt lat="45.70056" lon="6.07737">
        <ele>724</ele>
        <time>2011-06-07T12:07:09Z</time>
      </trkpt>
      <trkpt lat="45.70063" lon="6.07743">
        <ele>723.6</ele>
        <time>2011-06-07T12:07:13Z</time>
      </trkpt>
      <trkpt lat="45.70071" lon="6.07746">
        <ele>723</ele>
        <time>2011-06-07T12:07:16Z</time>
      </trkpt>
      <trkpt lat="45.70078" lon="6.07752">
        <ele>722.3</ele>
        <time>2011-06-07T12:07:19Z</time>
      </trkpt>
      <trkpt lat="45.70093" lon="6.0776">
        <ele>721.2</ele>
        <time>2011-06-07T12:07:25Z</time>
      </trkpt>
      <trkpt lat="45.70096" lon="6.07763">
        <ele>720.8</ele>
        <time>2011-06-07T12:07:27Z</time>
      </trkpt>
      <trkpt lat="45.70105" lon="6.0777">
        <ele>719.9</ele>
        <time>2011-06-07T12:07:31Z</time>
      </trkpt>
      <trkpt lat="45.70123" lon="6.07784">
        <ele>718.2</ele>
        <time>2011-06-07T12:07:39Z</time>
      </trkpt>
      <trkpt lat="45.70133" lon="6.07791">
        <ele>717.7</ele>
        <time>2011-06-07T12:07:44Z</time>
      </trkpt>
      <trkpt lat="45.70144" lon="6.078">
        <ele>717.7</ele>
        <time>2011-06-07T12:07:49Z</time>
      </trkpt>
      <trkpt lat="45.70151" lon="6.07808">
        <ele>717.3</ele>
        <time>2011-06-07T12:07:52Z</time>
      </trkpt>
      <trkpt lat="45.7016" lon="6.07815">
        <ele>717</ele>
        <time>2011-06-07T12:07:56Z</time>
      </trkpt>
      <trkpt lat="45.70171" lon="6.07828">
        <ele>716.7</ele>
        <time>2011-06-07T12:08:02Z</time>
      </trkpt>
      <trkpt lat="45.70178" lon="6.07837">
        <ele>714.9</ele>
        <time>2011-06-07T12:08:06Z</time>
      </trkpt>
      <trkpt lat="45.70186" lon="6.07843">
        <ele>712.6</ele>
        <time>2011-06-07T12:08:10Z</time>
      </trkpt>
      <trkpt lat="45.70197" lon="6.0785">
        <ele>710.6</ele>
        <time>2011-06-07T12:08:14Z</time>
      </trkpt>
      <trkpt lat="45.70218" lon="6.07856">
        <ele>713</ele>
        <time>2011-06-07T12:08:23Z</time>
      </trkpt>
      <trkpt lat="45.70229" lon="6.07859">
        <ele>714.5</ele>
        <time>2011-06-07T12:08:28Z</time>
      </trkpt>
      <trkpt lat="45.70238" lon="6.07861">
        <ele>715.9</ele>
        <time>2011-06-07T12:08:31Z</time>
      </trkpt>
      <trkpt lat="45.70247" lon="6.07865">
        <ele>716.8</ele>
        <time>2011-06-07T12:08:35Z</time>
      </trkpt>
      <trkpt lat="45.70256" lon="6.07871">
        <ele>716.7</ele>
        <time>2011-06-07T12:08:39Z</time>
      </trkpt>
      <trkpt lat="45.70267" lon="6.07874">
        <ele>716.7</ele>
        <time>2011-06-07T12:08:43Z</time>
      </trkpt>
      <trkpt lat="45.70269" lon="6.07876">
        <ele>716.7</ele>
        <time>2011-06-07T12:08:44Z</time>
      </trkpt>
      <trkpt lat="45.70278" lon="6.0788">
        <ele>717</ele>
        <time>2011-06-07T12:08:48Z</time>
      </trkpt>
      <trkpt lat="45.70311" lon="6.07899">
        <ele>715.7</ele>
        <time>2011-06-07T12:09:02Z</time>
      </trkpt>
      <trkpt lat="45.70334" lon="6.07911">
        <ele>715</ele>
        <time>2011-06-07T12:09:12Z</time>
      </trkpt>
      <trkpt lat="45.70343" lon="6.07917">
        <ele>714.6</ele>
        <time>2011-06-07T12:09:16Z</time>
      </trkpt>
      <trkpt lat="45.70357" lon="6.07922">
        <ele>714</ele>
        <time>2011-06-07T12:09:22Z</time>
      </trkpt>
      <trkpt lat="45.70368" lon="6.07924">
        <ele>713.4</ele>
        <time>2011-06-07T12:09:26Z</time>
      </trkpt>
      <trkpt lat="45.70387" lon="6.07936">
        <ele>711.8</ele>
        <time>2011-06-07T12:09:35Z</time>
      </trkpt>
      <trkpt lat="45.70396" lon="6.07942">
        <ele>711.4</ele>
        <time>2011-06-07T12:09:39Z</time>
      </trkpt>
      <trkpt lat="45.70399" lon="6.07942">
        <ele>711.6</ele>
        <time>2011-06-07T12:09:40Z</time>
      </trkpt>
      <trkpt lat="45.70414" lon="6.07952">
        <ele>710.6</ele>
        <time>2011-06-07T12:09:46Z</time>
      </trkpt>
      <trkpt lat="45.70426" lon="6.07961">
        <ele>709.9</ele>
        <time>2011-06-07T12:09:52Z</time>
      </trkpt>
      <trkpt lat="45.70436" lon="6.07968">
        <ele>710.2</ele>
        <time>2011-06-07T12:09:56Z</time>
      </trkpt>
      <trkpt lat="45.70449" lon="6.0797">
        <ele>711</ele>
        <time>2011-06-07T12:10:02Z</time>
      </trkpt>
      <trkpt lat="45.70462" lon="6.07976">
        <ele>709.6</ele>
        <time>2011-06-07T12:10:07Z</time>
      </trkpt>
      <trkpt lat="45.70488" lon="6.07989">
        <ele>708.5</ele>
        <time>2011-06-07T12:10:18Z</time>
      </trkpt>
      <trkpt lat="45.70497" lon="6.0799">
        <ele>709.2</ele>
        <time>2011-06-07T12:10:22Z</time>
      </trkpt>
      <trkpt lat="45.70517" lon="6.07995">
        <ele>709.8</ele>
        <time>2011-06-07T12:10:30Z</time>
      </trkpt>
      <trkpt lat="45.70528" lon="6.08">
        <ele>710</ele>
        <time>2011-06-07T12:10:34Z</time>
      </trkpt>
      <trkpt lat="45.70533" lon="6.08003">
        <ele>708.9</ele>
        <time>2011-06-07T12:10:37Z</time>
      </trkpt>
      <trkpt lat="45.70554" lon="6.08016">
        <ele>705.6</ele>
        <time>2011-06-07T12:10:46Z</time>
      </trkpt>
      <trkpt lat="45.7056" lon="6.0802">
        <ele>705.3</ele>
        <time>2011-06-07T12:10:48Z</time>
      </trkpt>
      <trkpt lat="45.70574" lon="6.08024">
        <ele>706.9</ele>
        <time>2011-06-07T12:10:54Z</time>
      </trkpt>
      <trkpt lat="45.70596" lon="6.08037">
        <ele>708.6</ele>
        <time>2011-06-07T12:11:04Z</time>
      </trkpt>
      <trkpt lat="45.7061" lon="6.08044">
        <ele>711</ele>
        <time>2011-06-07T12:11:09Z</time>
      </trkpt>
      <trkpt lat="45.7062" lon="6.08051">
        <ele>711.5</ele>
        <time>2011-06-07T12:11:14Z</time>
      </trkpt>
      <trkpt lat="45.70648" lon="6.08065">
        <ele>710.8</ele>
        <time>2011-06-07T12:11:26Z</time>
      </trkpt>
      <trkpt lat="45.70659" lon="6.08063">
        <ele>710.9</ele>
        <time>2011-06-07T12:11:30Z</time>
      </trkpt>
      <trkpt lat="45.70675" lon="6.08063">
        <ele>711.1</ele>
        <time>2011-06-07T12:11:37Z</time>
      </trkpt>
      <trkpt lat="45.70686" lon="6.08058">
        <ele>712.2</ele>
        <time>2011-06-07T12:11:42Z</time>
      </trkpt>
      <trkpt lat="45.70699" lon="6.08058">
        <ele>712.8</ele>
        <time>2011-06-07T12:11:47Z</time>
      </trkpt>
      <trkpt lat="45.70715" lon="6.08057">
        <ele>714.2</ele>
        <time>2011-06-07T12:11:53Z</time>
      </trkpt>
      <trkpt lat="45.70726" lon="6.08055">
        <ele>715.1</ele>
        <time>2011-06-07T12:11:57Z</time>
      </trkpt>
      <trkpt lat="45.70732" lon="6.08056">
        <ele>715.2</ele>
        <time>2011-06-07T12:12:00Z</time>
      </trkpt>
      <trkpt lat="45.70751" lon="6.0806">
        <ele>715.7</ele>
        <time>2011-06-07T12:12:07Z</time>
      </trkpt>
      <trkpt lat="45.70764" lon="6.0806">
        <ele>716.2</ele>
        <time>2011-06-07T12:12:13Z</time>
      </trkpt>
      <trkpt lat="45.70778" lon="6.08057">
        <ele>716.9</ele>
        <time>2011-06-07T12:12:18Z</time>
      </trkpt>
      <trkpt lat="45.708" lon="6.0806">
        <ele>716.3</ele>
        <time>2011-06-07T12:12:27Z</time>
      </trkpt>
      <trkpt lat="45.7081" lon="6.08061">
        <ele>715.9</ele>
        <time>2011-06-07T12:12:31Z</time>
      </trkpt>
      <trkpt lat="45.70818" lon="6.08054">
        <ele>717.2</ele>
        <time>2011-06-07T12:12:35Z</time>
      </trkpt>
      <trkpt lat="45.70834" lon="6.08043">
        <ele>718.8</ele>
        <time>2011-06-07T12:12:42Z</time>
      </trkpt>
      <trkpt lat="45.7087" lon="6.08026">
        <ele>722.3</ele>
        <time>2011-06-07T12:12:57Z</time>
      </trkpt>
      <trkpt lat="45.70886" lon="6.08023">
        <ele>722.9</ele>
        <time>2011-06-07T12:13:04Z</time>
      </trkpt>
      <trkpt lat="45.70902" lon="6.08026">
        <ele>724.6</ele>
        <time>2011-06-07T12:13:10Z</time>
      </trkpt>
      <trkpt lat="45.70911" lon="6.08038">
        <ele>725.7</ele>
        <time>2011-06-07T12:13:15Z</time>
      </trkpt>
      <trkpt lat="45.70912" lon="6.08051">
        <ele>725.6</ele>
        <time>2011-06-07T12:13:19Z</time>
      </trkpt>
      <trkpt lat="45.70911" lon="6.08071">
        <ele>725.1</ele>
        <time>2011-06-07T12:13:24Z</time>
      </trkpt>
      <trkpt lat="45.70923" lon="6.08088">
        <ele>727.6</ele>
        <time>2011-06-07T12:13:31Z</time>
      </trkpt>
      <trkpt lat="45.70938" lon="6.08118">
        <ele>727.4</ele>
        <time>2011-06-07T12:13:41Z</time>
      </trkpt>
      <trkpt lat="45.70951" lon="6.08139">
        <ele>726.1</ele>
        <time>2011-06-07T12:13:49Z</time>
      </trkpt>
      <trkpt lat="45.7096" lon="6.08155">
        <ele>726.5</ele>
        <time>2011-06-07T12:13:55Z</time>
      </trkpt>
      <trkpt lat="45.70973" lon="6.08174">
        <ele>728.1</ele>
        <time>2011-06-07T12:14:02Z</time>
      </trkpt>
      <trkpt lat="45.70978" lon="6.08188">
        <ele>727</ele>
        <time>2011-06-07T12:14:07Z</time>
      </trkpt>
      <trkpt lat="45.70988" lon="6.08201">
        <ele>726</ele>
        <time>2011-06-07T12:14:12Z</time>
      </trkpt>
      <trkpt lat="45.71007" lon="6.08218">
        <ele>724.8</ele>
        <time>2011-06-07T12:14:21Z</time>
      </trkpt>
      <trkpt lat="45.71014" lon="6.08219">
        <ele>725.1</ele>
        <time>2011-06-07T12:14:24Z</time>
      </trkpt>
      <trkpt lat="45.71038" lon="6.08221">
        <ele>726.9</ele>
        <time>2011-06-07T12:14:34Z</time>
      </trkpt>
      <trkpt lat="45.7105" lon="6.08237">
        <ele>725.3</ele>
        <time>2011-06-07T12:14:40Z</time>
      </trkpt>
      <trkpt lat="45.71054" lon="6.08254">
        <ele>724</ele>
        <time>2011-06-07T12:14:45Z</time>
      </trkpt>
      <trkpt lat="45.71067" lon="6.08266">
        <ele>723.2</ele>
        <time>2011-06-07T12:14:51Z</time>
      </trkpt>
      <trkpt lat="45.71094" lon="6.08292">
        <ele>720.8</ele>
        <time>2011-06-07T12:15:04Z</time>
      </trkpt>
      <trkpt lat="45.71111" lon="6.08305">
        <ele>719.1</ele>
        <time>2011-06-07T12:15:12Z</time>
      </trkpt>
      <trkpt lat="45.71127" lon="6.08312">
        <ele>719.2</ele>
        <time>2011-06-07T12:15:19Z</time>
      </trkpt>
      <trkpt lat="45.71139" lon="6.08316">
        <ele>719.2</ele>
        <time>2011-06-07T12:15:24Z</time>
      </trkpt>
      <trkpt lat="45.71152" lon="6.08336">
        <ele>718.3</ele>
        <time>2011-06-07T12:15:31Z</time>
      </trkpt>
      <trkpt lat="45.71169" lon="6.0837">
        <ele>716.9</ele>
        <time>2011-06-07T12:15:43Z</time>
      </trkpt>
      <trkpt lat="45.71169" lon="6.08386">
        <ele>716.4</ele>
        <time>2011-06-07T12:15:48Z</time>
      </trkpt>
      <trkpt lat="45.71163" lon="6.08401">
        <ele>715.5</ele>
        <time>2011-06-07T12:15:52Z</time>
      </trkpt>
      <trkpt lat="45.71169" lon="6.0842">
        <ele>715.1</ele>
        <time>2011-06-07T12:15:58Z</time>
      </trkpt>
      <trkpt lat="45.71183" lon="6.08442">
        <ele>715.8</ele>
        <time>2011-06-07T12:16:06Z</time>
      </trkpt>
      <trkpt lat="45.71193" lon="6.08461">
        <ele>715.7</ele>
        <time>2011-06-07T12:16:13Z</time>
      </trkpt>
      <trkpt lat="45.71202" lon="6.08484">
        <ele>715.3</ele>
        <time>2011-06-07T12:16:20Z</time>
      </trkpt>
      <trkpt lat="45.71212" lon="6.08507">
        <ele>714.8</ele>
        <time>2011-06-07T12:16:28Z</time>
      </trkpt>
      <trkpt lat="45.71218" lon="6.08523">
        <ele>714.1</ele>
        <time>2011-06-07T12:16:33Z</time>
      </trkpt>
      <trkpt lat="45.7123" lon="6.08539">
        <ele>713.6</ele>
        <time>2011-06-07T12:16:40Z</time>
      </trkpt>
      <trkpt lat="45.71245" lon="6.08559">
        <ele>713.1</ele>
        <time>2011-06-07T12:16:48Z</time>
      </trkpt>
      <trkpt lat="45.71265" lon="6.08582">
        <ele>712.8</ele>
        <time>2011-06-07T12:16:58Z</time>
      </trkpt>
      <trkpt lat="45.7129" lon="6.08604">
        <ele>712.6</ele>
        <time>2011-06-07T12:17:10Z</time>
      </trkpt>
      <trkpt lat="45.71317" lon="6.08624">
        <ele>712.2</ele>
        <time>2011-06-07T12:17:22Z</time>
      </trkpt>
      <trkpt lat="45.71323" lon="6.08616">
        <ele>713.2</ele>
        <time>2011-06-07T12:17:25Z</time>
      </trkpt>
      <trkpt lat="45.71327" lon="6.08606">
        <ele>714.2</ele>
        <time>2011-06-07T12:17:28Z</time>
      </trkpt>
      <trkpt lat="45.7133" lon="6.08596">
        <ele>715.1</ele>
        <time>2011-06-07T12:17:32Z</time>
      </trkpt>
    </trkseg>
  </trk>
</gpx>